<?xml version='1.0' encoding='UTF-8'?><gpx version="1.1" creator="JPX - https://github.com/jenetics/jpx" xmlns="http://www.topografix.com/GPX/1/1"><trk><trkseg><trkpt lat="46.1054958" lon="12.1925248"><ele>363.0</ele><time>2026-05-04T15:30:09.395Z</time></trkpt><trkpt lat="46.1055155" lon="12.19265"><ele>363.0</ele><time>2026-05-04T15:30:11.386Z</time></trkpt><trkpt lat="46.1055321" lon="12.1927727"><ele>363.0</ele><time>2026-05-04T15:30:13.39Z</time></trkpt><trkpt lat="46.1055568" lon="12.1929057"><ele>363.0</ele><time>2026-05-04T15:30:15.393Z</time></trkpt><trkpt lat="46.1055868" lon="12.1930383"><ele>363.0</ele><time>2026-05-04T15:30:17.389Z</time></trkpt><trkpt lat="46.1056098" lon="12.1931696"><ele>363.3333333333333</ele><time>2026-05-04T15:30:19.386Z</time></trkpt><trkpt lat="46.1056296" lon="12.1932952"><ele>363.6666666666667</ele><time>2026-05-04T15:30:21.389Z</time></trkpt><trkpt lat="46.1056475" lon="12.1934242"><ele>364.0</ele><time>2026-05-04T15:30:23.39Z</time></trkpt><trkpt lat="46.1056667" lon="12.1935535"><ele>364.33333333333337</ele><time>2026-05-04T15:30:25.388Z</time></trkpt><trkpt lat="46.1056867" lon="12.1936737"><ele>364.6666666666667</ele><time>2026-05-04T15:30:27.398Z</time></trkpt><trkpt lat="46.105704" lon="12.19377"><ele>365.0</ele><time>2026-05-04T15:30:29.387Z</time></trkpt><trkpt lat="46.1057383" lon="12.193904"><ele>365.0</ele><time>2026-05-04T15:30:32.39Z</time></trkpt><trkpt lat="46.1057679" lon="12.1940133"><ele>365.0</ele><time>2026-05-04T15:30:34.389Z</time></trkpt><trkpt lat="46.1057973" lon="12.1941233"><ele>365.0</ele><time>2026-05-04T15:30:36.388Z</time></trkpt><trkpt lat="46.1058327" lon="12.1942237"><ele>365.0</ele><time>2026-05-04T15:30:38.391Z</time></trkpt><trkpt lat="46.1058656" lon="12.1943218"><ele>365.0</ele><time>2026-05-04T15:30:40.386Z</time></trkpt><trkpt lat="46.1058944" lon="12.1944237"><ele>365.0</ele><time>2026-05-04T15:30:42.396Z</time></trkpt><trkpt lat="46.1059235" lon="12.1945267"><ele>365.0</ele><time>2026-05-04T15:30:44.388Z</time></trkpt><trkpt lat="46.105951" lon="12.1946329"><ele>365.0</ele><time>2026-05-04T15:30:46.388Z</time></trkpt><trkpt lat="46.1059762" lon="12.1947374"><ele>365.0</ele><time>2026-05-04T15:30:48.396Z</time></trkpt><trkpt lat="46.1060037" lon="12.1948404"><ele>365.0</ele><time>2026-05-04T15:30:50.394Z</time></trkpt><trkpt lat="46.1060337" lon="12.1949464"><ele>365.0</ele><time>2026-05-04T15:30:52.387Z</time></trkpt><trkpt lat="46.1060697" lon="12.1950587"><ele>365.0</ele><time>2026-05-04T15:30:54.391Z</time></trkpt><trkpt lat="46.1061129" lon="12.1951799"><ele>364.8</ele><time>2026-05-04T15:30:56.391Z</time></trkpt><trkpt lat="46.1061512" lon="12.1953033"><ele>364.6</ele><time>2026-05-04T15:30:58.388Z</time></trkpt><trkpt lat="46.106188" lon="12.1954348"><ele>364.4</ele><time>2026-05-04T15:31:00.39Z</time></trkpt><trkpt lat="46.1062297" lon="12.1955691"><ele>364.2</ele><time>2026-05-04T15:31:02.388Z</time></trkpt><trkpt lat="46.1062666" lon="12.1957113"><ele>364.0</ele><time>2026-05-04T15:31:04.4Z</time></trkpt><trkpt lat="46.1063069" lon="12.1958549"><ele>363.75</ele><time>2026-05-04T15:31:06.398Z</time></trkpt><trkpt lat="46.1063552" lon="12.1959972"><ele>363.5</ele><time>2026-05-04T15:31:08.39Z</time></trkpt><trkpt lat="46.1063991" lon="12.1961536"><ele>363.25</ele><time>2026-05-04T15:31:10.398Z</time></trkpt><trkpt lat="46.1064548" lon="12.196304"><ele>363.0</ele><time>2026-05-04T15:31:12.387Z</time></trkpt><trkpt lat="46.1065343" lon="12.1964332"><ele>361.59999999999997</ele><time>2026-05-04T15:31:14.389Z</time></trkpt><trkpt lat="46.1066268" lon="12.1965494"><ele>360.2</ele><time>2026-05-04T15:31:16.385Z</time></trkpt><trkpt lat="46.106747" lon="12.1966137"><ele>358.8</ele><time>2026-05-04T15:31:18.389Z</time></trkpt><trkpt lat="46.1068099" lon="12.1966474"><ele>357.4</ele><time>2026-05-04T15:31:19.387Z</time></trkpt><trkpt lat="46.1068748" lon="12.1966737"><ele>356.0</ele><time>2026-05-04T15:31:20.39Z</time></trkpt><trkpt lat="46.1069915" lon="12.1967086"><ele>356.0</ele><time>2026-05-04T15:31:22.396Z</time></trkpt><trkpt lat="46.1071156" lon="12.1967493"><ele>356.0</ele><time>2026-05-04T15:31:24.386Z</time></trkpt><trkpt lat="46.1072199" lon="12.1967437"><ele>356.0</ele><time>2026-05-04T15:31:26.392Z</time></trkpt><trkpt lat="46.1071628" lon="12.1968124"><ele>356.0</ele><time>2026-05-04T15:31:34.398Z</time></trkpt><trkpt lat="46.1070979" lon="12.1968344"><ele>356.0</ele><time>2026-05-04T15:31:36.395Z</time></trkpt><trkpt lat="46.1070107" lon="12.1968337"><ele>356.0</ele><time>2026-05-04T15:31:38.389Z</time></trkpt><trkpt lat="46.1069248" lon="12.1968449"><ele>356.0</ele><time>2026-05-04T15:31:40.393Z</time></trkpt><trkpt lat="46.1068508" lon="12.1968948"><ele>356.0</ele><time>2026-05-04T15:31:42.385Z</time></trkpt><trkpt lat="46.1068007" lon="12.1970213"><ele>356.0</ele><time>2026-05-04T15:31:44.387Z</time></trkpt><trkpt lat="46.1067603" lon="12.1971353"><ele>356.0</ele><time>2026-05-04T15:31:46.39Z</time></trkpt><trkpt lat="46.1066952" lon="12.1972184"><ele>356.0</ele><time>2026-05-04T15:31:48.391Z</time></trkpt><trkpt lat="46.1066216" lon="12.1972946"><ele>356.20000000000005</ele><time>2026-05-04T15:31:50.393Z</time></trkpt><trkpt lat="46.1065392" lon="12.1973682"><ele>356.40000000000003</ele><time>2026-05-04T15:31:52.389Z</time></trkpt><trkpt lat="46.1064578" lon="12.1974308"><ele>356.6</ele><time>2026-05-04T15:31:54.389Z</time></trkpt><trkpt lat="46.1063756" lon="12.1974846"><ele>356.8</ele><time>2026-05-04T15:31:56.387Z</time></trkpt><trkpt lat="46.1062933" lon="12.1975485"><ele>357.0</ele><time>2026-05-04T15:31:58.387Z</time></trkpt><trkpt lat="46.1062112" lon="12.1976078"><ele>357.0</ele><time>2026-05-04T15:32:00.388Z</time></trkpt><trkpt lat="46.106128" lon="12.1976775"><ele>357.0</ele><time>2026-05-04T15:32:02.387Z</time></trkpt><trkpt lat="46.1060491" lon="12.1977506"><ele>357.0</ele><time>2026-05-04T15:32:04.387Z</time></trkpt><trkpt lat="46.1059837" lon="12.1978393"><ele>357.0</ele><time>2026-05-04T15:32:06.394Z</time></trkpt><trkpt lat="46.1059272" lon="12.1979527"><ele>357.0</ele><time>2026-05-04T15:32:08.389Z</time></trkpt><trkpt lat="46.1058717" lon="12.1980649"><ele>357.0</ele><time>2026-05-04T15:32:10.391Z</time></trkpt><trkpt lat="46.1058138" lon="12.1981654"><ele>357.0</ele><time>2026-05-04T15:32:12.395Z</time></trkpt><trkpt lat="46.1057582" lon="12.1982633"><ele>357.0</ele><time>2026-05-04T15:32:14.397Z</time></trkpt><trkpt lat="46.1057021" lon="12.1983673"><ele>357.0</ele><time>2026-05-04T15:32:16.389Z</time></trkpt><trkpt lat="46.1056459" lon="12.1984653"><ele>357.0</ele><time>2026-05-04T15:32:18.394Z</time></trkpt><trkpt lat="46.1055896" lon="12.1985678"><ele>357.0</ele><time>2026-05-04T15:32:20.394Z</time></trkpt><trkpt lat="46.1055355" lon="12.1986717"><ele>357.8333333333333</ele><time>2026-05-04T15:32:22.394Z</time></trkpt><trkpt lat="46.1054802" lon="12.1987713"><ele>358.6666666666667</ele><time>2026-05-04T15:32:24.394Z</time></trkpt><trkpt lat="46.105433" lon="12.1988787"><ele>359.5</ele><time>2026-05-04T15:32:26.393Z</time></trkpt><trkpt lat="46.1053866" lon="12.1989927"><ele>360.33333333333337</ele><time>2026-05-04T15:32:28.389Z</time></trkpt><trkpt lat="46.105343" lon="12.1991088"><ele>361.1666666666667</ele><time>2026-05-04T15:32:30.391Z</time></trkpt><trkpt lat="46.1053032" lon="12.199215"><ele>362.0</ele><time>2026-05-04T15:32:32.389Z</time></trkpt><trkpt lat="46.1052695" lon="12.1993335"><ele>362.0</ele><time>2026-05-04T15:32:34.389Z</time></trkpt><trkpt lat="46.1052345" lon="12.1994573"><ele>362.0</ele><time>2026-05-04T15:32:36.39Z</time></trkpt><trkpt lat="46.1051928" lon="12.1995701"><ele>362.0</ele><time>2026-05-04T15:32:38.395Z</time></trkpt><trkpt lat="46.1051469" lon="12.1996781"><ele>362.0</ele><time>2026-05-04T15:32:40.393Z</time></trkpt><trkpt lat="46.1051035" lon="12.1997819"><ele>362.0</ele><time>2026-05-04T15:32:42.391Z</time></trkpt><trkpt lat="46.105059" lon="12.1998843"><ele>362.0</ele><time>2026-05-04T15:32:44.394Z</time></trkpt><trkpt lat="46.1050147" lon="12.1999775"><ele>362.33333333333337</ele><time>2026-05-04T15:32:46.387Z</time></trkpt><trkpt lat="46.1049678" lon="12.2000813"><ele>362.6666666666667</ele><time>2026-05-04T15:32:49.39Z</time></trkpt><trkpt lat="46.1049109" lon="12.2001496"><ele>363.0</ele><time>2026-05-04T15:32:53.392Z</time></trkpt><trkpt lat="46.1048476" lon="12.2001557"><ele>363.3333333333333</ele><time>2026-05-04T15:32:56.389Z</time></trkpt><trkpt lat="46.1047705" lon="12.2001896"><ele>363.66666666666663</ele><time>2026-05-04T15:32:59.392Z</time></trkpt><trkpt lat="46.1046894" lon="12.2002111"><ele>364.0</ele><time>2026-05-04T15:33:02.39Z</time></trkpt><trkpt lat="46.1046208" lon="12.200263"><ele>364.0</ele><time>2026-05-04T15:33:05.39Z</time></trkpt><trkpt lat="46.1045725" lon="12.200348"><ele>364.0</ele><time>2026-05-04T15:33:08.391Z</time></trkpt><trkpt lat="46.1044926" lon="12.2003616"><ele>364.0</ele><time>2026-05-04T15:33:13.396Z</time></trkpt><trkpt lat="46.1045607" lon="12.200355"><ele>364.0</ele><time>2026-05-04T15:33:39.4Z</time></trkpt><trkpt lat="46.10462" lon="12.2002847"><ele>364.0</ele><time>2026-05-04T15:33:43.506Z</time></trkpt><trkpt lat="46.1046748" lon="12.2002346"><ele>364.0</ele><time>2026-05-04T15:33:46.391Z</time></trkpt><trkpt lat="46.1047377" lon="12.2001885"><ele>364.0</ele><time>2026-05-04T15:33:49.397Z</time></trkpt><trkpt lat="46.1048063" lon="12.2001788"><ele>364.0</ele><time>2026-05-04T15:33:51.39Z</time></trkpt><trkpt lat="46.1048836" lon="12.2001525"><ele>364.0</ele><time>2026-05-04T15:33:53.399Z</time></trkpt><trkpt lat="46.104959" lon="12.2001179"><ele>364.0</ele><time>2026-05-04T15:33:55.396Z</time></trkpt><trkpt lat="46.1050106" lon="12.2000333"><ele>364.0</ele><time>2026-05-04T15:33:57.389Z</time></trkpt><trkpt lat="46.1050557" lon="12.1999405"><ele>364.0</ele><time>2026-05-04T15:33:59.39Z</time></trkpt><trkpt lat="46.1050952" lon="12.1998458"><ele>364.0</ele><time>2026-05-04T15:34:01.394Z</time></trkpt><trkpt lat="46.1051431" lon="12.1997575"><ele>363.7142857142857</ele><time>2026-05-04T15:34:03.396Z</time></trkpt><trkpt lat="46.1051883" lon="12.1996809"><ele>363.42857142857144</ele><time>2026-05-04T15:34:05.39Z</time></trkpt><trkpt lat="46.1051328" lon="12.1997345"><ele>363.1428571428571</ele><time>2026-05-04T15:34:11.391Z</time></trkpt><trkpt lat="46.1050912" lon="12.1998327"><ele>362.8571428571429</ele><time>2026-05-04T15:34:14.395Z</time></trkpt><trkpt lat="46.1050478" lon="12.1999057"><ele>362.57142857142856</ele><time>2026-05-04T15:34:17.39Z</time></trkpt><trkpt lat="46.1049843" lon="12.1999232"><ele>362.2857142857143</ele><time>2026-05-04T15:34:20.396Z</time></trkpt><trkpt lat="46.1049371" lon="12.1998423"><ele>362.0</ele><time>2026-05-04T15:34:23.39Z</time></trkpt><trkpt lat="46.1048998" lon="12.1997527"><ele>362.83333333333337</ele><time>2026-05-04T15:34:26.394Z</time></trkpt><trkpt lat="46.104842" lon="12.1996973"><ele>363.6666666666667</ele><time>2026-05-04T15:34:29.395Z</time></trkpt><trkpt lat="46.1047696" lon="12.1996987"><ele>364.5</ele><time>2026-05-04T15:34:34.387Z</time></trkpt><trkpt lat="46.1046824" lon="12.1996842"><ele>365.3333333333333</ele><time>2026-05-04T15:34:37.391Z</time></trkpt><trkpt lat="46.1045936" lon="12.1996665"><ele>366.16666666666663</ele><time>2026-05-04T15:34:40.392Z</time></trkpt><trkpt lat="46.1045224" lon="12.1996709"><ele>367.0</ele><time>2026-05-04T15:34:43.39Z</time></trkpt><trkpt lat="46.1044459" lon="12.1997296"><ele>367.0</ele><time>2026-05-04T15:34:46.39Z</time></trkpt><trkpt lat="46.1043942" lon="12.1997843"><ele>367.0</ele><time>2026-05-04T15:34:48.39Z</time></trkpt><trkpt lat="46.1043357" lon="12.1998558"><ele>367.0</ele><time>2026-05-04T15:34:51.397Z</time></trkpt><trkpt lat="46.104257" lon="12.1998258"><ele>367.0</ele><time>2026-05-04T15:34:55.395Z</time></trkpt><trkpt lat="46.1042007" lon="12.199893"><ele>367.0</ele><time>2026-05-04T15:34:58.39Z</time></trkpt><trkpt lat="46.1041781" lon="12.1999911"><ele>367.0</ele><time>2026-05-04T15:35:01.396Z</time></trkpt><trkpt lat="46.1041265" lon="12.2000561"><ele>367.0</ele><time>2026-05-04T15:35:04.394Z</time></trkpt><trkpt lat="46.1040693" lon="12.2001229"><ele>367.2857142857143</ele><time>2026-05-04T15:35:07.393Z</time></trkpt><trkpt lat="46.1040028" lon="12.2001581"><ele>367.5714285714286</ele><time>2026-05-04T15:35:10.391Z</time></trkpt><trkpt lat="46.1039241" lon="12.2001729"><ele>367.8571428571429</ele><time>2026-05-04T15:35:13.391Z</time></trkpt><trkpt lat="46.1038476" lon="12.2001411"><ele>368.1428571428571</ele><time>2026-05-04T15:35:16.395Z</time></trkpt><trkpt lat="46.1037766" lon="12.2001069"><ele>368.42857142857144</ele><time>2026-05-04T15:35:19.391Z</time></trkpt><trkpt lat="46.1037095" lon="12.2000916"><ele>368.7142857142857</ele><time>2026-05-04T15:35:22.397Z</time></trkpt><trkpt lat="46.103636" lon="12.2000847"><ele>369.0</ele><time>2026-05-04T15:35:25.39Z</time></trkpt><trkpt lat="46.103548" lon="12.2000687"><ele>369.0</ele><time>2026-05-04T15:35:28.388Z</time></trkpt><trkpt lat="46.1034713" lon="12.2000394"><ele>369.0</ele><time>2026-05-04T15:35:31.398Z</time></trkpt><trkpt lat="46.1034041" lon="12.1999771"><ele>369.0</ele><time>2026-05-04T15:35:34.396Z</time></trkpt><trkpt lat="46.1033284" lon="12.1999242"><ele>369.0</ele><time>2026-05-04T15:35:37.39Z</time></trkpt><trkpt lat="46.1032595" lon="12.1998633"><ele>369.0</ele><time>2026-05-04T15:35:40.433Z</time></trkpt><trkpt lat="46.1031877" lon="12.1998239"><ele>369.0</ele><time>2026-05-04T15:35:43.478Z</time></trkpt><trkpt lat="46.1031128" lon="12.1997857"><ele>369.0</ele><time>2026-05-04T15:35:46.395Z</time></trkpt><trkpt lat="46.1030385" lon="12.1997308"><ele>369.0</ele><time>2026-05-04T15:35:49.394Z</time></trkpt><trkpt lat="46.1029651" lon="12.1996768"><ele>369.0</ele><time>2026-05-04T15:35:52.392Z</time></trkpt><trkpt lat="46.1029087" lon="12.1996075"><ele>369.0</ele><time>2026-05-04T15:35:55.396Z</time></trkpt><trkpt lat="46.1028681" lon="12.1995158"><ele>369.0</ele><time>2026-05-04T15:36:00.389Z</time></trkpt><trkpt lat="46.1027943" lon="12.1995347"><ele>369.0</ele><time>2026-05-04T15:36:04.388Z</time></trkpt><trkpt lat="46.1027139" lon="12.199555"><ele>369.0</ele><time>2026-05-04T15:36:07.396Z</time></trkpt><trkpt lat="46.1026261" lon="12.1995755"><ele>369.0</ele><time>2026-05-04T15:36:10.394Z</time></trkpt><trkpt lat="46.1025353" lon="12.1995952"><ele>369.0</ele><time>2026-05-04T15:36:13.392Z</time></trkpt><trkpt lat="46.1024428" lon="12.1995834"><ele>369.0</ele><time>2026-05-04T15:36:16.387Z</time></trkpt><trkpt lat="46.1023865" lon="12.19954"><ele>369.0</ele><time>2026-05-04T15:36:18.391Z</time></trkpt><trkpt lat="46.102316" lon="12.1994512"><ele>369.0</ele><time>2026-05-04T15:36:21.395Z</time></trkpt><trkpt lat="46.1022584" lon="12.1994005"><ele>369.0</ele><time>2026-05-04T15:36:24.391Z</time></trkpt><trkpt lat="46.1023109" lon="12.1993052"><ele>369.0</ele><time>2026-05-04T15:36:28.388Z</time></trkpt><trkpt lat="46.102363" lon="12.19923"><ele>369.0</ele><time>2026-05-04T15:36:30.387Z</time></trkpt><trkpt lat="46.1024185" lon="12.1991482"><ele>369.0</ele><time>2026-05-04T15:36:32.392Z</time></trkpt><trkpt lat="46.1024747" lon="12.1990629"><ele>369.0</ele><time>2026-05-04T15:36:34.398Z</time></trkpt><trkpt lat="46.102539" lon="12.1989859"><ele>369.0</ele><time>2026-05-04T15:36:36.389Z</time></trkpt><trkpt lat="46.1026121" lon="12.1989265"><ele>369.0</ele><time>2026-05-04T15:36:38.397Z</time></trkpt><trkpt lat="46.1026915" lon="12.1988849"><ele>369.0</ele><time>2026-05-04T15:36:40.394Z</time></trkpt><trkpt lat="46.1027733" lon="12.1988574"><ele>369.0</ele><time>2026-05-04T15:36:42.388Z</time></trkpt><trkpt lat="46.1028526" lon="12.1988282"><ele>369.0</ele><time>2026-05-04T15:36:44.392Z</time></trkpt><trkpt lat="46.1029344" lon="12.1988014"><ele>369.0</ele><time>2026-05-04T15:36:46.39Z</time></trkpt><trkpt lat="46.1030193" lon="12.1987785"><ele>369.0</ele><time>2026-05-04T15:36:48.398Z</time></trkpt><trkpt lat="46.1030978" lon="12.1987553"><ele>369.0</ele><time>2026-05-04T15:36:50.398Z</time></trkpt><trkpt lat="46.1031662" lon="12.1987403"><ele>369.0</ele><time>2026-05-04T15:36:52.392Z</time></trkpt><trkpt lat="46.1032525" lon="12.1987218"><ele>369.0</ele><time>2026-05-04T15:36:55.397Z</time></trkpt><trkpt lat="46.1033209" lon="12.1987026"><ele>369.0</ele><time>2026-05-04T15:36:58.391Z</time></trkpt><trkpt lat="46.1034006" lon="12.1986902"><ele>369.0</ele><time>2026-05-04T15:37:02.398Z</time></trkpt><trkpt lat="46.1034662" lon="12.1986644"><ele>369.0</ele><time>2026-05-04T15:37:06.395Z</time></trkpt><trkpt lat="46.1035152" lon="12.1985791"><ele>369.0</ele><time>2026-05-04T15:37:10.397Z</time></trkpt><trkpt lat="46.1035679" lon="12.1984902"><ele>369.0</ele><time>2026-05-04T15:37:13.564Z</time></trkpt><trkpt lat="46.1036134" lon="12.1984077"><ele>369.0</ele><time>2026-05-04T15:37:15.393Z</time></trkpt><trkpt lat="46.1036549" lon="12.1983099"><ele>369.0</ele><time>2026-05-04T15:37:17.397Z</time></trkpt><trkpt lat="46.1037021" lon="12.1982137"><ele>369.0</ele><time>2026-05-04T15:37:19.392Z</time></trkpt><trkpt lat="46.1037536" lon="12.1981127"><ele>369.0</ele><time>2026-05-04T15:37:21.392Z</time></trkpt><trkpt lat="46.1038058" lon="12.1980057"><ele>369.0</ele><time>2026-05-04T15:37:23.398Z</time></trkpt><trkpt lat="46.1038622" lon="12.1978887"><ele>369.0</ele><time>2026-05-04T15:37:25.389Z</time></trkpt><trkpt lat="46.1039231" lon="12.1977632"><ele>369.0</ele><time>2026-05-04T15:37:27.397Z</time></trkpt><trkpt lat="46.1039817" lon="12.1976474"><ele>369.0</ele><time>2026-05-04T15:37:29.391Z</time></trkpt><trkpt lat="46.1040477" lon="12.1975368"><ele>369.0</ele><time>2026-05-04T15:37:31.39Z</time></trkpt><trkpt lat="46.1041153" lon="12.1974329"><ele>368.79999999999995</ele><time>2026-05-04T15:37:33.39Z</time></trkpt><trkpt lat="46.1041811" lon="12.1973324"><ele>368.59999999999997</ele><time>2026-05-04T15:37:35.39Z</time></trkpt><trkpt lat="46.1042403" lon="12.1972333"><ele>368.4</ele><time>2026-05-04T15:37:37.39Z</time></trkpt><trkpt lat="46.1042994" lon="12.1971341"><ele>368.2</ele><time>2026-05-04T15:37:39.39Z</time></trkpt><trkpt lat="46.1043648" lon="12.1970447"><ele>368.0</ele><time>2026-05-04T15:37:41.39Z</time></trkpt><trkpt lat="46.1044232" lon="12.1969512"><ele>368.0</ele><time>2026-05-04T15:37:43.39Z</time></trkpt><trkpt lat="46.1044791" lon="12.1968473"><ele>368.0</ele><time>2026-05-04T15:37:45.396Z</time></trkpt><trkpt lat="46.1045374" lon="12.1967429"><ele>368.0</ele><time>2026-05-04T15:37:47.389Z</time></trkpt><trkpt lat="46.1045888" lon="12.1966217"><ele>368.0</ele><time>2026-05-04T15:37:49.391Z</time></trkpt><trkpt lat="46.1046457" lon="12.1965004"><ele>368.0</ele><time>2026-05-04T15:37:51.395Z</time></trkpt><trkpt lat="46.1047024" lon="12.1963771"><ele>367.79999999999995</ele><time>2026-05-04T15:37:53.39Z</time></trkpt><trkpt lat="46.1047627" lon="12.1962565"><ele>367.6</ele><time>2026-05-04T15:37:55.39Z</time></trkpt><trkpt lat="46.1048238" lon="12.1961277"><ele>367.4</ele><time>2026-05-04T15:37:57.391Z</time></trkpt><trkpt lat="46.1048785" lon="12.1959852"><ele>367.20000000000005</ele><time>2026-05-04T15:37:59.387Z</time></trkpt><trkpt lat="46.1049168" lon="12.19584"><ele>367.0</ele><time>2026-05-04T15:38:01.397Z</time></trkpt><trkpt lat="46.1049607" lon="12.1956951"><ele>366.6</ele><time>2026-05-04T15:38:03.39Z</time></trkpt><trkpt lat="46.1050011" lon="12.195551"><ele>366.20000000000005</ele><time>2026-05-04T15:38:05.387Z</time></trkpt><trkpt lat="46.1050409" lon="12.1954066"><ele>365.8</ele><time>2026-05-04T15:38:07.391Z</time></trkpt><trkpt lat="46.105078" lon="12.1952658"><ele>365.4</ele><time>2026-05-04T15:38:09.389Z</time></trkpt><trkpt lat="46.1051171" lon="12.1951324"><ele>365.0</ele><time>2026-05-04T15:38:11.392Z</time></trkpt><trkpt lat="46.1051561" lon="12.1949971"><ele>365.0</ele><time>2026-05-04T15:38:13.39Z</time></trkpt><trkpt lat="46.1052048" lon="12.1948682"><ele>365.0</ele><time>2026-05-04T15:38:15.392Z</time></trkpt><trkpt lat="46.1052658" lon="12.1947521"><ele>365.0</ele><time>2026-05-04T15:38:17.393Z</time></trkpt><trkpt lat="46.1053249" lon="12.1946344"><ele>365.0</ele><time>2026-05-04T15:38:19.39Z</time></trkpt><trkpt lat="46.10538" lon="12.1945172"><ele>365.0</ele><time>2026-05-04T15:38:21.396Z</time></trkpt><trkpt lat="46.1054353" lon="12.1944003"><ele>365.0</ele><time>2026-05-04T15:38:23.394Z</time></trkpt><trkpt lat="46.1054956" lon="12.1942926"><ele>365.0</ele><time>2026-05-04T15:38:25.387Z</time></trkpt><trkpt lat="46.1055552" lon="12.1941874"><ele>365.0</ele><time>2026-05-04T15:38:27.397Z</time></trkpt><trkpt lat="46.1056105" lon="12.1940744"><ele>365.0</ele><time>2026-05-04T15:38:29.391Z</time></trkpt><trkpt lat="46.1056722" lon="12.1939649"><ele>365.0</ele><time>2026-05-04T15:38:31.394Z</time></trkpt><trkpt lat="46.1057568" lon="12.1939672"><ele>365.0</ele><time>2026-05-04T15:38:33.392Z</time></trkpt><trkpt lat="46.1058036" lon="12.1940802"><ele>365.0</ele><time>2026-05-04T15:38:35.396Z</time></trkpt><trkpt lat="46.1058356" lon="12.1942051"><ele>365.0</ele><time>2026-05-04T15:38:37.396Z</time></trkpt><trkpt lat="46.1058723" lon="12.1943458"><ele>365.0</ele><time>2026-05-04T15:38:39.39Z</time></trkpt><trkpt lat="46.105913" lon="12.1944889"><ele>365.0</ele><time>2026-05-04T15:38:41.393Z</time></trkpt><trkpt lat="46.1059575" lon="12.1946407"><ele>365.0</ele><time>2026-05-04T15:38:43.387Z</time></trkpt><trkpt lat="46.1059989" lon="12.194783"><ele>365.0</ele><time>2026-05-04T15:38:45.392Z</time></trkpt><trkpt lat="46.1060409" lon="12.1949204"><ele>365.0</ele><time>2026-05-04T15:38:47.397Z</time></trkpt><trkpt lat="46.1060849" lon="12.1950594"><ele>365.0</ele><time>2026-05-04T15:38:49.392Z</time></trkpt><trkpt lat="46.1061277" lon="12.1952065"><ele>365.0</ele><time>2026-05-04T15:38:51.458Z</time></trkpt><trkpt lat="46.1061726" lon="12.1953523"><ele>364.75</ele><time>2026-05-04T15:38:53.393Z</time></trkpt><trkpt lat="46.1062157" lon="12.1955059"><ele>364.5</ele><time>2026-05-04T15:38:55.391Z</time></trkpt><trkpt lat="46.1062641" lon="12.1956576"><ele>364.25</ele><time>2026-05-04T15:38:57.395Z</time></trkpt><trkpt lat="46.1063118" lon="12.1958202"><ele>364.0</ele><time>2026-05-04T15:38:59.398Z</time></trkpt><trkpt lat="46.1063563" lon="12.1959903"><ele>363.85714285714283</ele><time>2026-05-04T15:39:01.398Z</time></trkpt><trkpt lat="46.1063809" lon="12.1960765"><ele>363.7142857142857</ele><time>2026-05-04T15:39:02.398Z</time></trkpt><trkpt lat="46.1064111" lon="12.1961617"><ele>363.57142857142856</ele><time>2026-05-04T15:39:03.392Z</time></trkpt><trkpt lat="46.1064432" lon="12.1962467"><ele>363.42857142857144</ele><time>2026-05-04T15:39:04.395Z</time></trkpt><trkpt lat="46.1064794" lon="12.1963265"><ele>363.2857142857143</ele><time>2026-05-04T15:39:05.393Z</time></trkpt><trkpt lat="46.1065215" lon="12.1964049"><ele>363.1428571428571</ele><time>2026-05-04T15:39:06.397Z</time></trkpt><trkpt lat="46.106574" lon="12.1964702"><ele>363.0</ele><time>2026-05-04T15:39:07.398Z</time></trkpt><trkpt lat="46.1066314" lon="12.196528"><ele>361.8333333333333</ele><time>2026-05-04T15:39:08.399Z</time></trkpt><trkpt lat="46.1067004" lon="12.1965757"><ele>360.6666666666667</ele><time>2026-05-04T15:39:09.392Z</time></trkpt><trkpt lat="46.1067753" lon="12.1966098"><ele>359.5</ele><time>2026-05-04T15:39:10.395Z</time></trkpt><trkpt lat="46.1068553" lon="12.1966314"><ele>358.33333333333337</ele><time>2026-05-04T15:39:11.393Z</time></trkpt><trkpt lat="46.1069333" lon="12.1966343"><ele>357.1666666666667</ele><time>2026-05-04T15:39:12.393Z</time></trkpt><trkpt lat="46.1070072" lon="12.1966177"><ele>356.0</ele><time>2026-05-04T15:39:13.393Z</time></trkpt><trkpt lat="46.1070773" lon="12.196595"><ele>356.0</ele><time>2026-05-04T15:39:14.393Z</time></trkpt><trkpt lat="46.1071937" lon="12.1965575"><ele>356.0</ele><time>2026-05-04T15:39:16.391Z</time></trkpt><trkpt lat="46.1073021" lon="12.1965573"><ele>356.0</ele><time>2026-05-04T15:39:18.391Z</time></trkpt><trkpt lat="46.1073669" lon="12.1965917"><ele>356.0</ele><time>2026-05-04T15:39:20.396Z</time></trkpt><trkpt lat="46.1074197" lon="12.1966866"><ele>356.0</ele><time>2026-05-04T15:39:26.398Z</time></trkpt><trkpt lat="46.1074418" lon="12.1968089"><ele>354.8</ele><time>2026-05-04T15:39:28.398Z</time></trkpt><trkpt lat="46.1074744" lon="12.1969395"><ele>353.6</ele><time>2026-05-04T15:39:30.39Z</time></trkpt><trkpt lat="46.1075138" lon="12.1970807"><ele>352.4</ele><time>2026-05-04T15:39:32.391Z</time></trkpt><trkpt lat="46.1075575" lon="12.197225"><ele>351.2</ele><time>2026-05-04T15:39:34.389Z</time></trkpt><trkpt lat="46.1076163" lon="12.1973744"><ele>350.0</ele><time>2026-05-04T15:39:36.39Z</time></trkpt><trkpt lat="46.1076826" lon="12.1975254"><ele>349.75</ele><time>2026-05-04T15:39:38.397Z</time></trkpt><trkpt lat="46.1077606" lon="12.1976688"><ele>349.5</ele><time>2026-05-04T15:39:40.392Z</time></trkpt><trkpt lat="46.1078379" lon="12.1978019"><ele>349.25</ele><time>2026-05-04T15:39:42.391Z</time></trkpt><trkpt lat="46.1079141" lon="12.19794"><ele>349.0</ele><time>2026-05-04T15:39:44.39Z</time></trkpt><trkpt lat="46.1079926" lon="12.1980721"><ele>348.75</ele><time>2026-05-04T15:39:46.396Z</time></trkpt><trkpt lat="46.1080746" lon="12.1982056"><ele>348.5</ele><time>2026-05-04T15:39:48.396Z</time></trkpt><trkpt lat="46.1081599" lon="12.1983272"><ele>348.25</ele><time>2026-05-04T15:39:50.396Z</time></trkpt><trkpt lat="46.1082523" lon="12.1984303"><ele>348.0</ele><time>2026-05-04T15:39:52.397Z</time></trkpt><trkpt lat="46.1083449" lon="12.1985394"><ele>348.79999999999995</ele><time>2026-05-04T15:39:54.391Z</time></trkpt><trkpt lat="46.1084356" lon="12.1986453"><ele>349.6</ele><time>2026-05-04T15:39:56.396Z</time></trkpt><trkpt lat="46.1085177" lon="12.1987417"><ele>350.4</ele><time>2026-05-04T15:39:58.394Z</time></trkpt><trkpt lat="46.1085967" lon="12.1988254"><ele>351.20000000000005</ele><time>2026-05-04T15:40:00.398Z</time></trkpt><trkpt lat="46.1086783" lon="12.1989199"><ele>352.0</ele><time>2026-05-04T15:40:02.388Z</time></trkpt><trkpt lat="46.1087653" lon="12.1990189"><ele>352.40000000000003</ele><time>2026-05-04T15:40:04.388Z</time></trkpt><trkpt lat="46.1088557" lon="12.1991322"><ele>352.8</ele><time>2026-05-04T15:40:06.394Z</time></trkpt><trkpt lat="46.1089057" lon="12.1991929"><ele>353.2</ele><time>2026-05-04T15:40:07.394Z</time></trkpt><trkpt lat="46.1090165" lon="12.1992835"><ele>353.6</ele><time>2026-05-04T15:40:09.394Z</time></trkpt><trkpt lat="46.1090864" lon="12.1993015"><ele>354.0</ele><time>2026-05-04T15:40:10.389Z</time></trkpt><trkpt lat="46.109162" lon="12.1992909"><ele>354.0</ele><time>2026-05-04T15:40:11.396Z</time></trkpt><trkpt lat="46.1092259" lon="12.1992689"><ele>354.0</ele><time>2026-05-04T15:40:12.386Z</time></trkpt><trkpt lat="46.1092984" lon="12.1992161"><ele>354.0</ele><time>2026-05-04T15:40:13.387Z</time></trkpt><trkpt lat="46.1093447" lon="12.1991312"><ele>354.0</ele><time>2026-05-04T15:40:14.39Z</time></trkpt><trkpt lat="46.1093863" lon="12.199056"><ele>354.0</ele><time>2026-05-04T15:40:15.391Z</time></trkpt><trkpt lat="46.1094551" lon="12.1989168"><ele>354.0</ele><time>2026-05-04T15:40:17.394Z</time></trkpt><trkpt lat="46.1095153" lon="12.1987708"><ele>353.79999999999995</ele><time>2026-05-04T15:40:19.392Z</time></trkpt><trkpt lat="46.1095853" lon="12.1986394"><ele>353.59999999999997</ele><time>2026-05-04T15:40:21.519Z</time></trkpt><trkpt lat="46.1096665" lon="12.1985382"><ele>353.4</ele><time>2026-05-04T15:40:23.396Z</time></trkpt><trkpt lat="46.1097645" lon="12.1984884"><ele>353.2</ele><time>2026-05-04T15:40:25.394Z</time></trkpt><trkpt lat="46.1098737" lon="12.1984941"><ele>353.0</ele><time>2026-05-04T15:40:27.39Z</time></trkpt><trkpt lat="46.1099799" lon="12.198504"><ele>353.4</ele><time>2026-05-04T15:40:29.395Z</time></trkpt><trkpt lat="46.1100897" lon="12.1985124"><ele>353.79999999999995</ele><time>2026-05-04T15:40:31.396Z</time></trkpt><trkpt lat="46.1102016" lon="12.1985186"><ele>354.2</ele><time>2026-05-04T15:40:33.388Z</time></trkpt><trkpt lat="46.1103033" lon="12.1985227"><ele>354.6</ele><time>2026-05-04T15:40:35.388Z</time></trkpt><trkpt lat="46.1104092" lon="12.1985276"><ele>355.0</ele><time>2026-05-04T15:40:37.394Z</time></trkpt><trkpt lat="46.1105156" lon="12.1985304"><ele>355.0</ele><time>2026-05-04T15:40:39.39Z</time></trkpt><trkpt lat="46.1106211" lon="12.1985382"><ele>355.0</ele><time>2026-05-04T15:40:41.389Z</time></trkpt><trkpt lat="46.1107307" lon="12.1985355"><ele>355.0</ele><time>2026-05-04T15:40:43.389Z</time></trkpt><trkpt lat="46.1108408" lon="12.1985449"><ele>355.0</ele><time>2026-05-04T15:40:45.39Z</time></trkpt><trkpt lat="46.1109495" lon="12.1985485"><ele>355.0</ele><time>2026-05-04T15:40:47.393Z</time></trkpt><trkpt lat="46.1110552" lon="12.1985536"><ele>354.6</ele><time>2026-05-04T15:40:49.391Z</time></trkpt><trkpt lat="46.1111593" lon="12.1985651"><ele>354.2</ele><time>2026-05-04T15:40:51.396Z</time></trkpt><trkpt lat="46.1112625" lon="12.1985729"><ele>353.79999999999995</ele><time>2026-05-04T15:40:53.39Z</time></trkpt><trkpt lat="46.1113658" lon="12.1985834"><ele>353.4</ele><time>2026-05-04T15:40:55.389Z</time></trkpt><trkpt lat="46.1114717" lon="12.1985919"><ele>353.0</ele><time>2026-05-04T15:40:57.393Z</time></trkpt><trkpt lat="46.1115763" lon="12.1986106"><ele>352.79999999999995</ele><time>2026-05-04T15:40:59.416Z</time></trkpt><trkpt lat="46.1116791" lon="12.1986263"><ele>352.6</ele><time>2026-05-04T15:41:01.397Z</time></trkpt><trkpt lat="46.1117975" lon="12.1986476"><ele>352.4</ele><time>2026-05-04T15:41:03.395Z</time></trkpt><trkpt lat="46.111907" lon="12.1986631"><ele>352.20000000000005</ele><time>2026-05-04T15:41:05.394Z</time></trkpt><trkpt lat="46.1120172" lon="12.1986781"><ele>352.0</ele><time>2026-05-04T15:41:07.397Z</time></trkpt><trkpt lat="46.1121237" lon="12.1987037"><ele>352.0</ele><time>2026-05-04T15:41:09.389Z</time></trkpt><trkpt lat="46.1122288" lon="12.1987349"><ele>352.0</ele><time>2026-05-04T15:41:11.398Z</time></trkpt><trkpt lat="46.1123227" lon="12.1987769"><ele>352.0</ele><time>2026-05-04T15:41:13.39Z</time></trkpt><trkpt lat="46.1124123" lon="12.1988345"><ele>352.0</ele><time>2026-05-04T15:41:15.389Z</time></trkpt><trkpt lat="46.1124406" lon="12.198965"><ele>352.0</ele><time>2026-05-04T15:41:17.393Z</time></trkpt><trkpt lat="46.1124143" lon="12.1990726"><ele>352.66666666666663</ele><time>2026-05-04T15:41:19.389Z</time></trkpt><trkpt lat="46.1123949" lon="12.1991809"><ele>353.3333333333333</ele><time>2026-05-04T15:41:21.385Z</time></trkpt><trkpt lat="46.1123819" lon="12.1992804"><ele>354.0</ele><time>2026-05-04T15:42:02.394Z</time></trkpt><trkpt lat="46.112376" lon="12.1993717"><ele>354.6666666666667</ele><time>2026-05-04T15:42:05.386Z</time></trkpt><trkpt lat="46.1123608" lon="12.1994954"><ele>355.33333333333337</ele><time>2026-05-04T15:42:08.391Z</time></trkpt><trkpt lat="46.1123488" lon="12.1996264"><ele>356.0</ele><time>2026-05-04T15:42:11.393Z</time></trkpt><trkpt lat="46.1123426" lon="12.1997588"><ele>356.5</ele><time>2026-05-04T15:42:14.39Z</time></trkpt><trkpt lat="46.1123393" lon="12.1998847"><ele>357.0</ele><time>2026-05-04T15:42:17.39Z</time></trkpt><trkpt lat="46.1123295" lon="12.2000106"><ele>357.5</ele><time>2026-05-04T15:42:20.393Z</time></trkpt><trkpt lat="46.1123172" lon="12.2001284"><ele>358.0</ele><time>2026-05-04T15:42:23.397Z</time></trkpt><trkpt lat="46.1122965" lon="12.2002772"><ele>358.5</ele><time>2026-05-04T15:42:27.398Z</time></trkpt><trkpt lat="46.1122813" lon="12.2003869"><ele>359.0</ele><time>2026-05-04T15:42:30.394Z</time></trkpt><trkpt lat="46.112271" lon="12.2004958"><ele>359.0</ele><time>2026-05-04T15:42:33.397Z</time></trkpt><trkpt lat="46.1122598" lon="12.2006049"><ele>359.0</ele><time>2026-05-04T15:42:36.391Z</time></trkpt><trkpt lat="46.1122476" lon="12.2007125"><ele>359.0</ele><time>2026-05-04T15:42:39.389Z</time></trkpt><trkpt lat="46.1122354" lon="12.2008196"><ele>359.0</ele><time>2026-05-04T15:42:42.398Z</time></trkpt><trkpt lat="46.1122246" lon="12.2009322"><ele>359.0</ele><time>2026-05-04T15:42:45.391Z</time></trkpt><trkpt lat="46.1122186" lon="12.2010412"><ele>359.0</ele><time>2026-05-04T15:42:48.394Z</time></trkpt><trkpt lat="46.1122084" lon="12.2011537"><ele>360.0</ele><time>2026-05-04T15:42:51.396Z</time></trkpt><trkpt lat="46.1122012" lon="12.2012679"><ele>361.0</ele><time>2026-05-04T15:42:54.392Z</time></trkpt><trkpt lat="46.1121923" lon="12.2013783"><ele>362.0</ele><time>2026-05-04T15:42:57.389Z</time></trkpt><trkpt lat="46.1121797" lon="12.2014918"><ele>363.0</ele><time>2026-05-04T15:43:00.389Z</time></trkpt><trkpt lat="46.1121732" lon="12.201601"><ele>364.0</ele><time>2026-05-04T15:43:03.427Z</time></trkpt><trkpt lat="46.1121586" lon="12.201705"><ele>365.0</ele><time>2026-05-04T15:43:06.395Z</time></trkpt><trkpt lat="46.112145" lon="12.2018069"><ele>365.42857142857144</ele><time>2026-05-04T15:43:09.391Z</time></trkpt><trkpt lat="46.1121326" lon="12.2019089"><ele>365.8571428571429</ele><time>2026-05-04T15:43:12.392Z</time></trkpt><trkpt lat="46.1121114" lon="12.2020102"><ele>366.28571428571433</ele><time>2026-05-04T15:43:15.395Z</time></trkpt><trkpt lat="46.1120893" lon="12.2021118"><ele>366.7142857142857</ele><time>2026-05-04T15:43:18.392Z</time></trkpt><trkpt lat="46.1120639" lon="12.2022126"><ele>367.1428571428571</ele><time>2026-05-04T15:43:21.395Z</time></trkpt><trkpt lat="46.1120358" lon="12.2023161"><ele>367.5714285714286</ele><time>2026-05-04T15:43:24.388Z</time></trkpt><trkpt lat="46.1120089" lon="12.2024209"><ele>368.0</ele><time>2026-05-04T15:43:27.395Z</time></trkpt><trkpt lat="46.1119836" lon="12.2025234"><ele>368.5714285714286</ele><time>2026-05-04T15:43:30.389Z</time></trkpt><trkpt lat="46.1119602" lon="12.2026212"><ele>369.1428571428571</ele><time>2026-05-04T15:43:33.395Z</time></trkpt><trkpt lat="46.1119341" lon="12.20272"><ele>369.7142857142857</ele><time>2026-05-04T15:43:36.397Z</time></trkpt><trkpt lat="46.1119204" lon="12.2028106"><ele>370.28571428571433</ele><time>2026-05-04T15:43:39.39Z</time></trkpt><trkpt lat="46.1119014" lon="12.2029106"><ele>370.8571428571429</ele><time>2026-05-04T15:43:42.395Z</time></trkpt><trkpt lat="46.111886" lon="12.2030224"><ele>371.42857142857144</ele><time>2026-05-04T15:43:45.395Z</time></trkpt><trkpt lat="46.1118741" lon="12.2031342"><ele>372.0</ele><time>2026-05-04T15:43:48.392Z</time></trkpt><trkpt lat="46.1118681" lon="12.2032491"><ele>372.3333333333333</ele><time>2026-05-04T15:43:51.397Z</time></trkpt><trkpt lat="46.1118761" lon="12.2033657"><ele>372.6666666666667</ele><time>2026-05-04T15:43:54.401Z</time></trkpt><trkpt lat="46.1118999" lon="12.2034889"><ele>373.0</ele><time>2026-05-04T15:43:57.396Z</time></trkpt><trkpt lat="46.1119343" lon="12.2036095"><ele>373.33333333333337</ele><time>2026-05-04T15:44:00.398Z</time></trkpt><trkpt lat="46.1119705" lon="12.2037325"><ele>373.6666666666667</ele><time>2026-05-04T15:44:03.398Z</time></trkpt><trkpt lat="46.1120072" lon="12.2038548"><ele>374.0</ele><time>2026-05-04T15:44:06.422Z</time></trkpt><trkpt lat="46.1120455" lon="12.2039776"><ele>374.5</ele><time>2026-05-04T15:44:09.389Z</time></trkpt><trkpt lat="46.1120812" lon="12.2040979"><ele>375.0</ele><time>2026-05-04T15:44:12.387Z</time></trkpt><trkpt lat="46.1121188" lon="12.2042192"><ele>375.5</ele><time>2026-05-04T15:44:15.397Z</time></trkpt><trkpt lat="46.1121579" lon="12.2043416"><ele>376.0</ele><time>2026-05-04T15:44:18.392Z</time></trkpt><trkpt lat="46.1121834" lon="12.2044259"><ele>376.5</ele><time>2026-05-04T15:44:20.395Z</time></trkpt><trkpt lat="46.1122118" lon="12.2045078"><ele>377.0</ele><time>2026-05-04T15:44:22.389Z</time></trkpt><trkpt lat="46.112249" lon="12.2046305"><ele>377.0</ele><time>2026-05-04T15:44:25.397Z</time></trkpt><trkpt lat="46.112274" lon="12.2047165"><ele>377.0</ele><time>2026-05-04T15:44:27.389Z</time></trkpt><trkpt lat="46.1123005" lon="12.2047998"><ele>377.0</ele><time>2026-05-04T15:44:29.388Z</time></trkpt><trkpt lat="46.1123406" lon="12.2049239"><ele>377.0</ele><time>2026-05-04T15:44:32.389Z</time></trkpt><trkpt lat="46.1123778" lon="12.2050493"><ele>377.0</ele><time>2026-05-04T15:44:35.392Z</time></trkpt><trkpt lat="46.1124011" lon="12.2051393"><ele>377.0</ele><time>2026-05-04T15:44:37.39Z</time></trkpt><trkpt lat="46.1124264" lon="12.2052308"><ele>377.6666666666667</ele><time>2026-05-04T15:44:39.388Z</time></trkpt><trkpt lat="46.1124519" lon="12.2053319"><ele>378.33333333333337</ele><time>2026-05-04T15:44:41.396Z</time></trkpt><trkpt lat="46.1124777" lon="12.2054383"><ele>379.0</ele><time>2026-05-04T15:44:43.395Z</time></trkpt><trkpt lat="46.1125052" lon="12.2055505"><ele>379.6666666666667</ele><time>2026-05-04T15:44:45.396Z</time></trkpt><trkpt lat="46.1125347" lon="12.2056678"><ele>380.3333333333333</ele><time>2026-05-04T15:44:47.393Z</time></trkpt><trkpt lat="46.1125606" lon="12.2057871"><ele>381.0</ele><time>2026-05-04T15:44:49.389Z</time></trkpt><trkpt lat="46.112569" lon="12.2059126"><ele>381.0</ele><time>2026-05-04T15:44:51.397Z</time></trkpt><trkpt lat="46.1125613" lon="12.2060345"><ele>381.0</ele><time>2026-05-04T15:44:53.388Z</time></trkpt><trkpt lat="46.1125367" lon="12.2061559"><ele>381.0</ele><time>2026-05-04T15:44:55.428Z</time></trkpt><trkpt lat="46.1124951" lon="12.2062694"><ele>381.0</ele><time>2026-05-04T15:44:57.388Z</time></trkpt><trkpt lat="46.1124382" lon="12.2063767"><ele>381.0</ele><time>2026-05-04T15:44:59.398Z</time></trkpt><trkpt lat="46.1123848" lon="12.2064821"><ele>381.0</ele><time>2026-05-04T15:45:01.392Z</time></trkpt><trkpt lat="46.1123274" lon="12.2065922"><ele>380.4</ele><time>2026-05-04T15:45:03.396Z</time></trkpt><trkpt lat="46.1122682" lon="12.2067093"><ele>379.8</ele><time>2026-05-04T15:45:05.389Z</time></trkpt><trkpt lat="46.1122096" lon="12.2068208"><ele>379.2</ele><time>2026-05-04T15:45:07.392Z</time></trkpt><trkpt lat="46.1121542" lon="12.2069263"><ele>378.59999999999997</ele><time>2026-05-04T15:45:09.389Z</time></trkpt><trkpt lat="46.112098" lon="12.2070303"><ele>378.0</ele><time>2026-05-04T15:45:11.391Z</time></trkpt><trkpt lat="46.1120385" lon="12.2071345"><ele>378.0</ele><time>2026-05-04T15:45:13.396Z</time></trkpt><trkpt lat="46.1119744" lon="12.2072277"><ele>378.0</ele><time>2026-05-04T15:45:15.396Z</time></trkpt><trkpt lat="46.1118995" lon="12.2073174"><ele>378.0</ele><time>2026-05-04T15:45:17.389Z</time></trkpt><trkpt lat="46.1118214" lon="12.2073998"><ele>378.0</ele><time>2026-05-04T15:45:19.389Z</time></trkpt><trkpt lat="46.1117436" lon="12.207474"><ele>378.0</ele><time>2026-05-04T15:45:21.39Z</time></trkpt><trkpt lat="46.1116705" lon="12.2075439"><ele>378.6666666666667</ele><time>2026-05-04T15:45:23.389Z</time></trkpt><trkpt lat="46.1115966" lon="12.2076045"><ele>379.3333333333333</ele><time>2026-05-04T15:45:25.395Z</time></trkpt><trkpt lat="46.1115241" lon="12.2076644"><ele>380.0</ele><time>2026-05-04T15:45:27.394Z</time></trkpt><trkpt lat="46.111455" lon="12.2077193"><ele>380.66666666666663</ele><time>2026-05-04T15:45:29.391Z</time></trkpt><trkpt lat="46.1113889" lon="12.2077681"><ele>381.3333333333333</ele><time>2026-05-04T15:45:31.388Z</time></trkpt><trkpt lat="46.1113217" lon="12.2078249"><ele>382.0</ele><time>2026-05-04T15:45:33.391Z</time></trkpt><trkpt lat="46.1112578" lon="12.2078817"><ele>382.2857142857143</ele><time>2026-05-04T15:45:35.395Z</time></trkpt><trkpt lat="46.1111979" lon="12.2079332"><ele>382.57142857142856</ele><time>2026-05-04T15:45:37.388Z</time></trkpt><trkpt lat="46.1111428" lon="12.2079907"><ele>382.85714285714283</ele><time>2026-05-04T15:45:39.388Z</time></trkpt><trkpt lat="46.1110882" lon="12.2080506"><ele>383.1428571428571</ele><time>2026-05-04T15:45:41.393Z</time></trkpt><trkpt lat="46.1110343" lon="12.2081075"><ele>383.42857142857144</ele><time>2026-05-04T15:45:43.396Z</time></trkpt><trkpt lat="46.1109838" lon="12.2081654"><ele>383.71428571428567</ele><time>2026-05-04T15:45:45.395Z</time></trkpt><trkpt lat="46.1109353" lon="12.208226"><ele>384.0</ele><time>2026-05-04T15:45:47.391Z</time></trkpt><trkpt lat="46.1108881" lon="12.2082883"><ele>385.0</ele><time>2026-05-04T15:45:49.396Z</time></trkpt><trkpt lat="46.1108372" lon="12.2083457"><ele>386.0</ele><time>2026-05-04T15:45:51.397Z</time></trkpt><trkpt lat="46.1107882" lon="12.2084037"><ele>387.0</ele><time>2026-05-04T15:45:53.397Z</time></trkpt><trkpt lat="46.1107195" lon="12.2084846"><ele>388.0</ele><time>2026-05-04T15:45:56.392Z</time></trkpt><trkpt lat="46.1106478" lon="12.2085647"><ele>389.0</ele><time>2026-05-04T15:45:59.388Z</time></trkpt><trkpt lat="46.1105752" lon="12.2086485"><ele>390.0</ele><time>2026-05-04T15:46:02.399Z</time></trkpt><trkpt lat="46.1105018" lon="12.2087276"><ele>390.1666666666667</ele><time>2026-05-04T15:46:05.395Z</time></trkpt><trkpt lat="46.1104328" lon="12.208803"><ele>390.33333333333337</ele><time>2026-05-04T15:46:08.394Z</time></trkpt><trkpt lat="46.1103651" lon="12.2088862"><ele>390.5</ele><time>2026-05-04T15:46:11.396Z</time></trkpt><trkpt lat="46.1102992" lon="12.2089624"><ele>390.6666666666667</ele><time>2026-05-04T15:46:14.391Z</time></trkpt><trkpt lat="46.1102369" lon="12.2090392"><ele>390.83333333333337</ele><time>2026-05-04T15:46:17.395Z</time></trkpt><trkpt lat="46.1101809" lon="12.2091201"><ele>391.0</ele><time>2026-05-04T15:46:20.396Z</time></trkpt><trkpt lat="46.1101302" lon="12.209202"><ele>392.33333333333337</ele><time>2026-05-04T15:46:23.391Z</time></trkpt><trkpt lat="46.1100827" lon="12.2092965"><ele>393.6666666666667</ele><time>2026-05-04T15:46:26.394Z</time></trkpt><trkpt lat="46.1100426" lon="12.2093942"><ele>395.0</ele><time>2026-05-04T15:46:29.396Z</time></trkpt><trkpt lat="46.1100059" lon="12.2094952"><ele>396.33333333333337</ele><time>2026-05-04T15:46:32.389Z</time></trkpt><trkpt lat="46.1099753" lon="12.2096041"><ele>397.6666666666667</ele><time>2026-05-04T15:46:35.392Z</time></trkpt><trkpt lat="46.1099398" lon="12.2097195"><ele>399.0</ele><time>2026-05-04T15:46:38.396Z</time></trkpt><trkpt lat="46.1098976" lon="12.2098432"><ele>399.5</ele><time>2026-05-04T15:46:41.39Z</time></trkpt><trkpt lat="46.1098649" lon="12.209934"><ele>400.0</ele><time>2026-05-04T15:46:43.393Z</time></trkpt><trkpt lat="46.1098304" lon="12.2100279"><ele>400.5</ele><time>2026-05-04T15:46:45.388Z</time></trkpt><trkpt lat="46.1097982" lon="12.210125"><ele>401.0</ele><time>2026-05-04T15:46:47.39Z</time></trkpt><trkpt lat="46.1097608" lon="12.2102241"><ele>401.5</ele><time>2026-05-04T15:46:49.389Z</time></trkpt><trkpt lat="46.1097159" lon="12.210323"><ele>402.0</ele><time>2026-05-04T15:46:51.397Z</time></trkpt><trkpt lat="46.1096595" lon="12.2104153"><ele>402.0</ele><time>2026-05-04T15:46:53.396Z</time></trkpt><trkpt lat="46.1095901" lon="12.2105236"><ele>402.0</ele><time>2026-05-04T15:46:55.388Z</time></trkpt><trkpt lat="46.1095134" lon="12.2106393"><ele>402.0</ele><time>2026-05-04T15:46:57.388Z</time></trkpt><trkpt lat="46.1094346" lon="12.2107764"><ele>402.0</ele><time>2026-05-04T15:46:59.395Z</time></trkpt><trkpt lat="46.1093987" lon="12.2108609"><ele>402.0</ele><time>2026-05-04T15:47:00.39Z</time></trkpt><trkpt lat="46.1093592" lon="12.210943"><ele>401.85714285714283</ele><time>2026-05-04T15:47:01.39Z</time></trkpt><trkpt lat="46.1093234" lon="12.211036"><ele>401.7142857142857</ele><time>2026-05-04T15:47:02.391Z</time></trkpt><trkpt lat="46.109299" lon="12.2111332"><ele>401.57142857142856</ele><time>2026-05-04T15:47:03.388Z</time></trkpt><trkpt lat="46.1092683" lon="12.2112306"><ele>401.42857142857144</ele><time>2026-05-04T15:47:04.389Z</time></trkpt><trkpt lat="46.1092403" lon="12.2113289"><ele>401.28571428571433</ele><time>2026-05-04T15:47:05.392Z</time></trkpt><trkpt lat="46.1092111" lon="12.2114237"><ele>401.14285714285717</ele><time>2026-05-04T15:47:06.394Z</time></trkpt><trkpt lat="46.1091816" lon="12.2115228"><ele>401.0</ele><time>2026-05-04T15:47:07.39Z</time></trkpt><trkpt lat="46.1091497" lon="12.2116201"><ele>400.3333333333333</ele><time>2026-05-04T15:47:08.396Z</time></trkpt><trkpt lat="46.1091151" lon="12.2117151"><ele>399.66666666666663</ele><time>2026-05-04T15:47:09.401Z</time></trkpt><trkpt lat="46.1090851" lon="12.2118074"><ele>399.0</ele><time>2026-05-04T15:47:10.386Z</time></trkpt><trkpt lat="46.1090504" lon="12.2118885"><ele>398.33333333333337</ele><time>2026-05-04T15:47:11.392Z</time></trkpt><trkpt lat="46.1090203" lon="12.2120346"><ele>397.6666666666667</ele><time>2026-05-04T15:47:13.391Z</time></trkpt><trkpt lat="46.1090692" lon="12.2121431"><ele>397.0</ele><time>2026-05-04T15:47:15.39Z</time></trkpt><trkpt lat="46.1091319" lon="12.2122109"><ele>397.00000000000006</ele><time>2026-05-04T15:47:17.391Z</time></trkpt><trkpt lat="46.1091854" lon="12.2122593"><ele>397.0</ele><time>2026-05-04T15:47:19.391Z</time></trkpt><trkpt lat="46.1092324" lon="12.2123429"><ele>397.0</ele><time>2026-05-04T15:47:22.39Z</time></trkpt><trkpt lat="46.1092777" lon="12.2124415"><ele>397.0</ele><time>2026-05-04T15:47:25.394Z</time></trkpt><trkpt lat="46.1093233" lon="12.2125594"><ele>397.00000000000006</ele><time>2026-05-04T15:47:28.396Z</time></trkpt><trkpt lat="46.1093459" lon="12.2126446"><ele>397.0</ele><time>2026-05-04T15:47:30.391Z</time></trkpt><trkpt lat="46.1093759" lon="12.2127701"><ele>397.00000000000006</ele><time>2026-05-04T15:47:33.389Z</time></trkpt><trkpt lat="46.1093956" lon="12.2128606"><ele>397.0</ele><time>2026-05-04T15:47:35.39Z</time></trkpt><trkpt lat="46.1094153" lon="12.2129473"><ele>397.0</ele><time>2026-05-04T15:47:37.39Z</time></trkpt><trkpt lat="46.1094498" lon="12.2130721"><ele>397.0</ele><time>2026-05-04T15:47:40.39Z</time></trkpt><trkpt lat="46.1094782" lon="12.213197"><ele>397.00000000000006</ele><time>2026-05-04T15:47:43.392Z</time></trkpt><trkpt lat="46.1094994" lon="12.2133216"><ele>397.0</ele><time>2026-05-04T15:47:46.393Z</time></trkpt><trkpt lat="46.1095301" lon="12.2134384"><ele>397.00000000000006</ele><time>2026-05-04T15:47:49.391Z</time></trkpt><trkpt lat="46.1095799" lon="12.2135348"><ele>397.0</ele><time>2026-05-04T15:47:52.396Z</time></trkpt><trkpt lat="46.1096349" lon="12.2136296"><ele>397.0</ele><time>2026-05-04T15:47:55.396Z</time></trkpt><trkpt lat="46.1096974" lon="12.2137124"><ele>397.0</ele><time>2026-05-04T15:47:58.395Z</time></trkpt><trkpt lat="46.1097643" lon="12.2137976"><ele>397.00000000000006</ele><time>2026-05-04T15:48:01.474Z</time></trkpt><trkpt lat="46.1098257" lon="12.2138958"><ele>397.0</ele><time>2026-05-04T15:48:04.392Z</time></trkpt><trkpt lat="46.1098914" lon="12.2139833"><ele>399.33333333333337</ele><time>2026-05-04T15:48:07.395Z</time></trkpt><trkpt lat="46.1099639" lon="12.214049"><ele>401.6666666666667</ele><time>2026-05-04T15:48:10.391Z</time></trkpt><trkpt lat="46.1100355" lon="12.2141"><ele>404.0</ele><time>2026-05-04T15:48:13.396Z</time></trkpt><trkpt lat="46.1101253" lon="12.2141342"><ele>406.33333333333337</ele><time>2026-05-04T15:48:16.393Z</time></trkpt><trkpt lat="46.1102092" lon="12.2141383"><ele>408.6666666666667</ele><time>2026-05-04T15:48:19.394Z</time></trkpt><trkpt lat="46.1102896" lon="12.2141055"><ele>411.0</ele><time>2026-05-04T15:48:22.393Z</time></trkpt><trkpt lat="46.1103592" lon="12.2140512"><ele>411.0</ele><time>2026-05-04T15:48:25.389Z</time></trkpt><trkpt lat="46.1104191" lon="12.2139925"><ele>411.0</ele><time>2026-05-04T15:48:28.391Z</time></trkpt><trkpt lat="46.1104764" lon="12.213921"><ele>411.0</ele><time>2026-05-04T15:48:31.395Z</time></trkpt><trkpt lat="46.1105347" lon="12.2138479"><ele>411.0</ele><time>2026-05-04T15:48:34.392Z</time></trkpt><trkpt lat="46.1105941" lon="12.2137753"><ele>411.0</ele><time>2026-05-04T15:48:37.388Z</time></trkpt><trkpt lat="46.1106487" lon="12.2136961"><ele>411.0</ele><time>2026-05-04T15:48:40.39Z</time></trkpt><trkpt lat="46.1107154" lon="12.2136898"><ele>411.0</ele><time>2026-05-04T15:48:43.393Z</time></trkpt><trkpt lat="46.1107247" lon="12.2137951"><ele>411.0</ele><time>2026-05-04T15:48:46.42Z</time></trkpt><trkpt lat="46.1107116" lon="12.2139028"><ele>411.0</ele><time>2026-05-04T15:48:49.388Z</time></trkpt><trkpt lat="46.1107047" lon="12.2140027"><ele>411.0</ele><time>2026-05-04T15:48:52.389Z</time></trkpt><trkpt lat="46.110698" lon="12.2141107"><ele>411.0</ele><time>2026-05-04T15:48:55.394Z</time></trkpt><trkpt lat="46.1107012" lon="12.2142194"><ele>411.0</ele><time>2026-05-04T15:48:58.395Z</time></trkpt><trkpt lat="46.1107082" lon="12.2143444"><ele>411.0</ele><time>2026-05-04T15:49:01.393Z</time></trkpt><trkpt lat="46.1107287" lon="12.2144628"><ele>412.6666666666667</ele><time>2026-05-04T15:49:04.389Z</time></trkpt><trkpt lat="46.1107601" lon="12.2145808"><ele>414.33333333333337</ele><time>2026-05-04T15:49:07.397Z</time></trkpt><trkpt lat="46.1107766" lon="12.2146967"><ele>416.0</ele><time>2026-05-04T15:49:10.396Z</time></trkpt><trkpt lat="46.1107978" lon="12.2148172"><ele>417.6666666666667</ele><time>2026-05-04T15:49:13.388Z</time></trkpt><trkpt lat="46.1108237" lon="12.2149331"><ele>419.33333333333337</ele><time>2026-05-04T15:49:16.387Z</time></trkpt><trkpt lat="46.1108436" lon="12.2150481"><ele>421.0</ele><time>2026-05-04T15:49:19.388Z</time></trkpt><trkpt lat="46.1108632" lon="12.21516"><ele>421.28571428571433</ele><time>2026-05-04T15:49:22.395Z</time></trkpt><trkpt lat="46.110885" lon="12.2152736"><ele>421.57142857142856</ele><time>2026-05-04T15:49:25.394Z</time></trkpt><trkpt lat="46.1109073" lon="12.2153718"><ele>421.8571428571429</ele><time>2026-05-04T15:49:28.396Z</time></trkpt><trkpt lat="46.1109515" lon="12.2154488"><ele>422.14285714285717</ele><time>2026-05-04T15:49:34.388Z</time></trkpt><trkpt lat="46.1109001" lon="12.2153883"><ele>422.42857142857144</ele><time>2026-05-04T15:49:48.388Z</time></trkpt><trkpt lat="46.1109581" lon="12.2153452"><ele>422.7142857142857</ele><time>2026-05-04T15:49:53.388Z</time></trkpt><trkpt lat="46.1108947" lon="12.2154294"><ele>423.0</ele><time>2026-05-04T15:50:29.388Z</time></trkpt><trkpt lat="46.1108397" lon="12.2154876"><ele>423.0</ele><time>2026-05-04T15:50:31.397Z</time></trkpt><trkpt lat="46.1107961" lon="12.2155687"><ele>423.0</ele><time>2026-05-04T15:50:33.388Z</time></trkpt><trkpt lat="46.1107478" lon="12.2156723"><ele>423.0</ele><time>2026-05-04T15:50:36.389Z</time></trkpt><trkpt lat="46.1107176" lon="12.2157687"><ele>423.0</ele><time>2026-05-04T15:50:40.393Z</time></trkpt><trkpt lat="46.1106783" lon="12.215849"><ele>423.0</ele><time>2026-05-04T15:50:44.386Z</time></trkpt><trkpt lat="46.1107263" lon="12.2157789"><ele>423.0</ele><time>2026-05-04T15:50:52.39Z</time></trkpt><trkpt lat="46.110765" lon="12.2156745"><ele>423.0</ele><time>2026-05-04T15:50:55.398Z</time></trkpt><trkpt lat="46.1108118" lon="12.2155788"><ele>423.0</ele><time>2026-05-04T15:50:58.393Z</time></trkpt><trkpt lat="46.1108571" lon="12.2154843"><ele>423.0</ele><time>2026-05-04T15:51:01.392Z</time></trkpt><trkpt lat="46.1108998" lon="12.2154162"><ele>423.0</ele><time>2026-05-04T15:51:05.393Z</time></trkpt><trkpt lat="46.1109603" lon="12.2153546"><ele>423.0</ele><time>2026-05-04T15:51:11.39Z</time></trkpt><trkpt lat="46.1110449" lon="12.2153403"><ele>423.0</ele><time>2026-05-04T15:51:14.383Z</time></trkpt><trkpt lat="46.1111114" lon="12.2153172"><ele>423.0</ele><time>2026-05-04T15:51:16.391Z</time></trkpt><trkpt lat="46.1111747" lon="12.2152865"><ele>423.0</ele><time>2026-05-04T15:51:18.388Z</time></trkpt><trkpt lat="46.1112383" lon="12.2152635"><ele>423.0</ele><time>2026-05-04T15:51:20.385Z</time></trkpt><trkpt lat="46.1113026" lon="12.215244"><ele>423.0</ele><time>2026-05-04T15:51:22.389Z</time></trkpt><trkpt lat="46.1113662" lon="12.2152226"><ele>423.0</ele><time>2026-05-04T15:51:24.393Z</time></trkpt><trkpt lat="46.1114557" lon="12.2151859"><ele>423.0</ele><time>2026-05-04T15:51:27.388Z</time></trkpt><trkpt lat="46.1115464" lon="12.2151527"><ele>423.57142857142856</ele><time>2026-05-04T15:51:30.388Z</time></trkpt><trkpt lat="46.1116081" lon="12.2151306"><ele>424.14285714285717</ele><time>2026-05-04T15:51:32.397Z</time></trkpt><trkpt lat="46.1116704" lon="12.2151142"><ele>424.7142857142857</ele><time>2026-05-04T15:51:34.388Z</time></trkpt><trkpt lat="46.1117637" lon="12.2151054"><ele>425.2857142857143</ele><time>2026-05-04T15:51:37.4Z</time></trkpt><trkpt lat="46.1118292" lon="12.2151053"><ele>425.8571428571429</ele><time>2026-05-04T15:51:39.388Z</time></trkpt><trkpt lat="46.111894" lon="12.215104"><ele>426.42857142857144</ele><time>2026-05-04T15:51:41.387Z</time></trkpt><trkpt lat="46.1119875" lon="12.2150997"><ele>427.0</ele><time>2026-05-04T15:51:44.387Z</time></trkpt><trkpt lat="46.1120517" lon="12.215106"><ele>427.0</ele><time>2026-05-04T15:51:46.395Z</time></trkpt><trkpt lat="46.1121164" lon="12.2151289"><ele>427.0</ele><time>2026-05-04T15:51:48.388Z</time></trkpt><trkpt lat="46.1121784" lon="12.2151626"><ele>427.0</ele><time>2026-05-04T15:51:50.393Z</time></trkpt><trkpt lat="46.1122371" lon="12.2152207"><ele>427.0</ele><time>2026-05-04T15:51:52.395Z</time></trkpt><trkpt lat="46.1122971" lon="12.2152795"><ele>427.0</ele><time>2026-05-04T15:51:54.389Z</time></trkpt><trkpt lat="46.1123639" lon="12.215313"><ele>427.0</ele><time>2026-05-04T15:51:56.388Z</time></trkpt><trkpt lat="46.1124287" lon="12.2153631"><ele>427.0</ele><time>2026-05-04T15:51:58.393Z</time></trkpt><trkpt lat="46.1124721" lon="12.2154526"><ele>427.40000000000003</ele><time>2026-05-04T15:52:00.392Z</time></trkpt><trkpt lat="46.1125096" lon="12.215565"><ele>427.80000000000007</ele><time>2026-05-04T15:52:02.39Z</time></trkpt><trkpt lat="46.1125604" lon="12.2156802"><ele>428.2</ele><time>2026-05-04T15:52:04.393Z</time></trkpt><trkpt lat="46.1126132" lon="12.2157976"><ele>428.6</ele><time>2026-05-04T15:52:06.395Z</time></trkpt><trkpt lat="46.1126742" lon="12.2159094"><ele>429.0</ele><time>2026-05-04T15:52:08.388Z</time></trkpt><trkpt lat="46.112741" lon="12.2160173"><ele>429.0</ele><time>2026-05-04T15:52:10.394Z</time></trkpt><trkpt lat="46.1128168" lon="12.2161206"><ele>429.0</ele><time>2026-05-04T15:52:12.399Z</time></trkpt><trkpt lat="46.1128919" lon="12.2162196"><ele>429.0</ele><time>2026-05-04T15:52:14.395Z</time></trkpt><trkpt lat="46.1129766" lon="12.2162836"><ele>429.0</ele><time>2026-05-04T15:52:16.387Z</time></trkpt><trkpt lat="46.113075" lon="12.2163458"><ele>429.0</ele><time>2026-05-04T15:52:18.388Z</time></trkpt><trkpt lat="46.1131976" lon="12.2164052"><ele>427.1666666666667</ele><time>2026-05-04T15:52:20.388Z</time></trkpt><trkpt lat="46.1132665" lon="12.2164421"><ele>425.33333333333337</ele><time>2026-05-04T15:52:21.393Z</time></trkpt><trkpt lat="46.1133397" lon="12.2164805"><ele>423.5</ele><time>2026-05-04T15:52:22.388Z</time></trkpt><trkpt lat="46.1134164" lon="12.2165218"><ele>421.6666666666667</ele><time>2026-05-04T15:52:23.39Z</time></trkpt><trkpt lat="46.1134951" lon="12.2165598"><ele>419.83333333333337</ele><time>2026-05-04T15:52:24.388Z</time></trkpt><trkpt lat="46.1135758" lon="12.2166038"><ele>418.0</ele><time>2026-05-04T15:52:25.391Z</time></trkpt><trkpt lat="46.1136566" lon="12.216656"><ele>418.00000000000006</ele><time>2026-05-04T15:52:26.393Z</time></trkpt><trkpt lat="46.1137402" lon="12.2167206"><ele>418.0</ele><time>2026-05-04T15:52:27.394Z</time></trkpt><trkpt lat="46.1138195" lon="12.2167827"><ele>418.0</ele><time>2026-05-04T15:52:28.395Z</time></trkpt><trkpt lat="46.1138847" lon="12.216842"><ele>418.0</ele><time>2026-05-04T15:52:29.387Z</time></trkpt><trkpt lat="46.1139428" lon="12.2169004"><ele>418.00000000000006</ele><time>2026-05-04T15:52:30.391Z</time></trkpt><trkpt lat="46.1140063" lon="12.2170291"><ele>418.0</ele><time>2026-05-04T15:52:32.387Z</time></trkpt><trkpt lat="46.1139997" lon="12.2171393"><ele>418.00000000000006</ele><time>2026-05-04T15:52:34.388Z</time></trkpt><trkpt lat="46.1139501" lon="12.2172224"><ele>418.0</ele><time>2026-05-04T15:52:36.387Z</time></trkpt><trkpt lat="46.1138834" lon="12.2172964"><ele>418.0</ele><time>2026-05-04T15:52:38.385Z</time></trkpt><trkpt lat="46.1138144" lon="12.2173618"><ele>418.0</ele><time>2026-05-04T15:52:40.39Z</time></trkpt><trkpt lat="46.1137441" lon="12.2174265"><ele>418.00000000000006</ele><time>2026-05-04T15:52:42.388Z</time></trkpt><trkpt lat="46.113672" lon="12.2174889"><ele>418.0</ele><time>2026-05-04T15:52:44.388Z</time></trkpt><trkpt lat="46.1135971" lon="12.2175593"><ele>417.59999999999997</ele><time>2026-05-04T15:52:46.386Z</time></trkpt><trkpt lat="46.1135103" lon="12.2176323"><ele>417.2</ele><time>2026-05-04T15:52:48.393Z</time></trkpt><trkpt lat="46.1134212" lon="12.2177137"><ele>416.8</ele><time>2026-05-04T15:52:50.384Z</time></trkpt><trkpt lat="46.1133389" lon="12.2178003"><ele>416.4</ele><time>2026-05-04T15:52:52.386Z</time></trkpt><trkpt lat="46.113256" lon="12.2178819"><ele>416.0</ele><time>2026-05-04T15:52:54.395Z</time></trkpt><trkpt lat="46.1131781" lon="12.217959"><ele>415.8</ele><time>2026-05-04T15:52:56.394Z</time></trkpt><trkpt lat="46.113099" lon="12.2180333"><ele>415.6</ele><time>2026-05-04T15:52:58.389Z</time></trkpt><trkpt lat="46.1130225" lon="12.2181133"><ele>415.4</ele><time>2026-05-04T15:53:00.388Z</time></trkpt><trkpt lat="46.1129368" lon="12.2181894"><ele>415.2</ele><time>2026-05-04T15:53:02.39Z</time></trkpt><trkpt lat="46.1128551" lon="12.2182697"><ele>415.0</ele><time>2026-05-04T15:53:04.389Z</time></trkpt><trkpt lat="46.11277" lon="12.2183557"><ele>415.0</ele><time>2026-05-04T15:53:06.394Z</time></trkpt><trkpt lat="46.1126827" lon="12.2184299"><ele>415.0</ele><time>2026-05-04T15:53:08.394Z</time></trkpt><trkpt lat="46.1125955" lon="12.2185159"><ele>415.0</ele><time>2026-05-04T15:53:10.388Z</time></trkpt><trkpt lat="46.112512" lon="12.2185937"><ele>415.0</ele><time>2026-05-04T15:53:12.395Z</time></trkpt><trkpt lat="46.1124269" lon="12.2186757"><ele>415.0</ele><time>2026-05-04T15:53:14.394Z</time></trkpt><trkpt lat="46.1123313" lon="12.2187458"><ele>415.2</ele><time>2026-05-04T15:53:16.393Z</time></trkpt><trkpt lat="46.1122609" lon="12.218855"><ele>415.4</ele><time>2026-05-04T15:53:18.389Z</time></trkpt><trkpt lat="46.1122598" lon="12.2190052"><ele>415.6</ele><time>2026-05-04T15:53:20.396Z</time></trkpt><trkpt lat="46.1122861" lon="12.2191523"><ele>415.8</ele><time>2026-05-04T15:53:22.388Z</time></trkpt><trkpt lat="46.1122875" lon="12.2192655"><ele>416.0</ele><time>2026-05-04T15:53:24.388Z</time></trkpt><trkpt lat="46.1122887" lon="12.2193594"><ele>415.66666666666663</ele><time>2026-05-04T15:53:26.387Z</time></trkpt><trkpt lat="46.1123387" lon="12.2194658"><ele>415.3333333333333</ele><time>2026-05-04T15:53:29.385Z</time></trkpt><trkpt lat="46.1123911" lon="12.2195299"><ele>415.0</ele><time>2026-05-04T15:53:31.387Z</time></trkpt><trkpt lat="46.1124324" lon="12.2196141"><ele>414.66666666666663</ele><time>2026-05-04T15:53:33.392Z</time></trkpt><trkpt lat="46.1124729" lon="12.2197021"><ele>414.3333333333333</ele><time>2026-05-04T15:53:35.384Z</time></trkpt><trkpt lat="46.1125166" lon="12.2197911"><ele>414.0</ele><time>2026-05-04T15:53:37.395Z</time></trkpt><trkpt lat="46.1125675" lon="12.2198812"><ele>414.0</ele><time>2026-05-04T15:53:39.388Z</time></trkpt><trkpt lat="46.1126174" lon="12.219967"><ele>414.0</ele><time>2026-05-04T15:53:41.393Z</time></trkpt><trkpt lat="46.1126717" lon="12.2200517"><ele>414.0</ele><time>2026-05-04T15:53:43.389Z</time></trkpt><trkpt lat="46.1127247" lon="12.2201421"><ele>414.0</ele><time>2026-05-04T15:53:45.384Z</time></trkpt><trkpt lat="46.1127768" lon="12.2202371"><ele>414.0</ele><time>2026-05-04T15:53:47.389Z</time></trkpt><trkpt lat="46.1128318" lon="12.2203288"><ele>414.0</ele><time>2026-05-04T15:53:49.5Z</time></trkpt><trkpt lat="46.112884" lon="12.2204244"><ele>414.0</ele><time>2026-05-04T15:53:51.388Z</time></trkpt><trkpt lat="46.1129413" lon="12.22053"><ele>414.0</ele><time>2026-05-04T15:53:53.387Z</time></trkpt><trkpt lat="46.1130044" lon="12.2206302"><ele>414.0</ele><time>2026-05-04T15:53:55.392Z</time></trkpt><trkpt lat="46.1130645" lon="12.2207348"><ele>414.0</ele><time>2026-05-04T15:53:57.388Z</time></trkpt><trkpt lat="46.1131305" lon="12.220829"><ele>414.0</ele><time>2026-05-04T15:53:59.389Z</time></trkpt><trkpt lat="46.1132041" lon="12.2209164"><ele>414.0</ele><time>2026-05-04T15:54:01.388Z</time></trkpt><trkpt lat="46.1132818" lon="12.2209758"><ele>414.0</ele><time>2026-05-04T15:54:03.396Z</time></trkpt><trkpt lat="46.113414" lon="12.2210357"><ele>414.0</ele><time>2026-05-04T15:54:06.396Z</time></trkpt><trkpt lat="46.1135002" lon="12.2210601"><ele>414.0</ele><time>2026-05-04T15:54:08.392Z</time></trkpt><trkpt lat="46.113586" lon="12.2210725"><ele>414.0</ele><time>2026-05-04T15:54:10.394Z</time></trkpt><trkpt lat="46.113675" lon="12.2210737"><ele>414.0</ele><time>2026-05-04T15:54:12.393Z</time></trkpt><trkpt lat="46.1137598" lon="12.2210727"><ele>414.0</ele><time>2026-05-04T15:54:14.387Z</time></trkpt><trkpt lat="46.1138453" lon="12.2210665"><ele>414.0</ele><time>2026-05-04T15:54:16.388Z</time></trkpt><trkpt lat="46.1139315" lon="12.2210583"><ele>414.0</ele><time>2026-05-04T15:54:18.389Z</time></trkpt><trkpt lat="46.1140197" lon="12.2210559"><ele>414.0</ele><time>2026-05-04T15:54:20.397Z</time></trkpt><trkpt lat="46.1141092" lon="12.2210519"><ele>414.0</ele><time>2026-05-04T15:54:22.388Z</time></trkpt><trkpt lat="46.1142018" lon="12.2210624"><ele>414.0</ele><time>2026-05-04T15:54:24.387Z</time></trkpt><trkpt lat="46.114303" lon="12.2210755"><ele>414.0</ele><time>2026-05-04T15:54:26.396Z</time></trkpt><trkpt lat="46.1144081" lon="12.2211094"><ele>414.0</ele><time>2026-05-04T15:54:28.384Z</time></trkpt><trkpt lat="46.1145156" lon="12.2211678"><ele>414.0</ele><time>2026-05-04T15:54:30.391Z</time></trkpt><trkpt lat="46.1146322" lon="12.2212285"><ele>414.0</ele><time>2026-05-04T15:54:32.395Z</time></trkpt><trkpt lat="46.1146946" lon="12.2212553"><ele>414.0</ele><time>2026-05-04T15:54:33.389Z</time></trkpt><trkpt lat="46.1147559" lon="12.2212928"><ele>414.0</ele><time>2026-05-04T15:54:34.389Z</time></trkpt><trkpt lat="46.1148192" lon="12.2213263"><ele>414.0</ele><time>2026-05-04T15:54:35.394Z</time></trkpt><trkpt lat="46.1148841" lon="12.2213558"><ele>414.0</ele><time>2026-05-04T15:54:36.395Z</time></trkpt><trkpt lat="46.1149463" lon="12.2213864"><ele>414.0</ele><time>2026-05-04T15:54:37.389Z</time></trkpt><trkpt lat="46.1150513" lon="12.2214367"><ele>414.0</ele><time>2026-05-04T15:54:39.388Z</time></trkpt><trkpt lat="46.1151272" lon="12.2214834"><ele>413.2</ele><time>2026-05-04T15:54:41.387Z</time></trkpt><trkpt lat="46.1152021" lon="12.2215138"><ele>412.4</ele><time>2026-05-04T15:54:44.395Z</time></trkpt><trkpt lat="46.1152965" lon="12.2215363"><ele>411.6</ele><time>2026-05-04T15:54:49.388Z</time></trkpt><trkpt lat="46.1153907" lon="12.2215629"><ele>410.8</ele><time>2026-05-04T15:54:51.389Z</time></trkpt><trkpt lat="46.1155138" lon="12.2215846"><ele>410.0</ele><time>2026-05-04T15:54:53.39Z</time></trkpt><trkpt lat="46.1155901" lon="12.2215886"><ele>409.99999999999994</ele><time>2026-05-04T15:54:54.395Z</time></trkpt><trkpt lat="46.1156693" lon="12.2215975"><ele>410.0</ele><time>2026-05-04T15:54:55.395Z</time></trkpt><trkpt lat="46.1157598" lon="12.2216016"><ele>410.0</ele><time>2026-05-04T15:54:56.395Z</time></trkpt><trkpt lat="46.1158305" lon="12.2216194"><ele>410.0</ele><time>2026-05-04T15:54:57.395Z</time></trkpt><trkpt lat="46.1159055" lon="12.2216518"><ele>409.99999999999994</ele><time>2026-05-04T15:54:58.386Z</time></trkpt><trkpt lat="46.1159884" lon="12.22171"><ele>410.0</ele><time>2026-05-04T15:54:59.394Z</time></trkpt><trkpt lat="46.1160705" lon="12.2217798"><ele>410.0</ele><time>2026-05-04T15:55:00.395Z</time></trkpt><trkpt lat="46.1161508" lon="12.2218569"><ele>410.0</ele><time>2026-05-04T15:55:01.39Z</time></trkpt><trkpt lat="46.1162336" lon="12.2219277"><ele>410.0</ele><time>2026-05-04T15:55:02.393Z</time></trkpt><trkpt lat="46.1163209" lon="12.2220022"><ele>410.0</ele><time>2026-05-04T15:55:03.393Z</time></trkpt><trkpt lat="46.1164074" lon="12.2220605"><ele>410.0</ele><time>2026-05-04T15:55:04.394Z</time></trkpt><trkpt lat="46.1164895" lon="12.2221184"><ele>409.99999999999994</ele><time>2026-05-04T15:55:05.393Z</time></trkpt><trkpt lat="46.1165654" lon="12.2221813"><ele>410.0</ele><time>2026-05-04T15:55:06.388Z</time></trkpt><trkpt lat="46.1166378" lon="12.2222402"><ele>410.0</ele><time>2026-05-04T15:55:07.388Z</time></trkpt><trkpt lat="46.1167081" lon="12.2222968"><ele>410.0</ele><time>2026-05-04T15:55:08.393Z</time></trkpt><trkpt lat="46.1167735" lon="12.2223591"><ele>409.99999999999994</ele><time>2026-05-04T15:55:09.39Z</time></trkpt><trkpt lat="46.1168394" lon="12.2224092"><ele>410.0</ele><time>2026-05-04T15:55:10.387Z</time></trkpt><trkpt lat="46.1168999" lon="12.2224623"><ele>407.6</ele><time>2026-05-04T15:55:11.395Z</time></trkpt><trkpt lat="46.1169548" lon="12.2225106"><ele>405.2</ele><time>2026-05-04T15:55:12.393Z</time></trkpt><trkpt lat="46.1170517" lon="12.2226067"><ele>402.79999999999995</ele><time>2026-05-04T15:55:14.396Z</time></trkpt><trkpt lat="46.1171422" lon="12.2226989"><ele>400.4</ele><time>2026-05-04T15:55:16.393Z</time></trkpt><trkpt lat="46.1172297" lon="12.2227565"><ele>398.0</ele><time>2026-05-04T15:55:18.388Z</time></trkpt><trkpt lat="46.1173139" lon="12.2227582"><ele>397.99999999999994</ele><time>2026-05-04T15:55:20.395Z</time></trkpt><trkpt lat="46.1173828" lon="12.2227206"><ele>398.0</ele><time>2026-05-04T15:55:22.39Z</time></trkpt><trkpt lat="46.1174524" lon="12.2226876"><ele>398.0</ele><time>2026-05-04T15:55:24.391Z</time></trkpt><trkpt lat="46.1175214" lon="12.2226713"><ele>398.0</ele><time>2026-05-04T15:55:26.395Z</time></trkpt><trkpt lat="46.1175879" lon="12.2226678"><ele>398.0</ele><time>2026-05-04T15:55:28.391Z</time></trkpt><trkpt lat="46.1176525" lon="12.2226918"><ele>397.99999999999994</ele><time>2026-05-04T15:55:30.393Z</time></trkpt><trkpt lat="46.1177167" lon="12.2227311"><ele>398.0</ele><time>2026-05-04T15:55:32.39Z</time></trkpt><trkpt lat="46.1177772" lon="12.2227799"><ele>398.85714285714283</ele><time>2026-05-04T15:55:34.397Z</time></trkpt><trkpt lat="46.1178328" lon="12.2228286"><ele>399.7142857142857</ele><time>2026-05-04T15:55:36.395Z</time></trkpt><trkpt lat="46.1178867" lon="12.2228794"><ele>400.57142857142856</ele><time>2026-05-04T15:55:38.398Z</time></trkpt><trkpt lat="46.1179405" lon="12.222935"><ele>401.42857142857144</ele><time>2026-05-04T15:55:40.396Z</time></trkpt><trkpt lat="46.1179896" lon="12.2229963"><ele>402.2857142857143</ele><time>2026-05-04T15:55:42.399Z</time></trkpt><trkpt lat="46.1180399" lon="12.2230577"><ele>403.1428571428571</ele><time>2026-05-04T15:55:44.394Z</time></trkpt><trkpt lat="46.1180894" lon="12.2231189"><ele>404.0</ele><time>2026-05-04T15:55:46.394Z</time></trkpt><trkpt lat="46.1181358" lon="12.2231839"><ele>403.99999999999994</ele><time>2026-05-04T15:55:48.395Z</time></trkpt><trkpt lat="46.1181856" lon="12.2232492"><ele>404.0</ele><time>2026-05-04T15:55:50.394Z</time></trkpt><trkpt lat="46.1182324" lon="12.2233137"><ele>404.0</ele><time>2026-05-04T15:55:52.396Z</time></trkpt><trkpt lat="46.1182972" lon="12.2234083"><ele>404.0</ele><time>2026-05-04T15:55:55.388Z</time></trkpt><trkpt lat="46.1183594" lon="12.2234958"><ele>403.99999999999994</ele><time>2026-05-04T15:55:58.389Z</time></trkpt><trkpt lat="46.1184243" lon="12.2235744"><ele>404.0</ele><time>2026-05-04T15:56:01.395Z</time></trkpt><trkpt lat="46.1184914" lon="12.2236516"><ele>405.8333333333333</ele><time>2026-05-04T15:56:04.388Z</time></trkpt><trkpt lat="46.1185559" lon="12.2237339"><ele>407.66666666666663</ele><time>2026-05-04T15:56:07.397Z</time></trkpt><trkpt lat="46.118613" lon="12.223812"><ele>409.5</ele><time>2026-05-04T15:56:10.418Z</time></trkpt><trkpt lat="46.1186737" lon="12.2238918"><ele>411.33333333333337</ele><time>2026-05-04T15:56:13.389Z</time></trkpt><trkpt lat="46.1187445" lon="12.2239637"><ele>413.1666666666667</ele><time>2026-05-04T15:56:16.395Z</time></trkpt><trkpt lat="46.1188076" lon="12.224037"><ele>415.0</ele><time>2026-05-04T15:56:19.395Z</time></trkpt><trkpt lat="46.1188812" lon="12.224102"><ele>415.00000000000006</ele><time>2026-05-04T15:56:22.389Z</time></trkpt><trkpt lat="46.1189592" lon="12.224168"><ele>415.0</ele><time>2026-05-04T15:56:25.395Z</time></trkpt><trkpt lat="46.1190308" lon="12.2242338"><ele>415.0</ele><time>2026-05-04T15:56:28.389Z</time></trkpt><trkpt lat="46.1191091" lon="12.224296"><ele>415.0</ele><time>2026-05-04T15:56:31.423Z</time></trkpt><trkpt lat="46.1191853" lon="12.2243628"><ele>415.00000000000006</ele><time>2026-05-04T15:56:34.389Z</time></trkpt><trkpt lat="46.1192602" lon="12.2244323"><ele>415.0</ele><time>2026-05-04T15:56:37.395Z</time></trkpt><trkpt lat="46.1193367" lon="12.224505"><ele>415.50000000000006</ele><time>2026-05-04T15:56:40.39Z</time></trkpt><trkpt lat="46.1194167" lon="12.2245681"><ele>416.0</ele><time>2026-05-04T15:56:43.397Z</time></trkpt><trkpt lat="46.1194838" lon="12.2246337"><ele>416.5</ele><time>2026-05-04T15:56:46.392Z</time></trkpt><trkpt lat="46.1195617" lon="12.2246894"><ele>417.0</ele><time>2026-05-04T15:56:49.391Z</time></trkpt><trkpt lat="46.1196393" lon="12.2247295"><ele>417.50000000000006</ele><time>2026-05-04T15:56:52.395Z</time></trkpt><trkpt lat="46.1197211" lon="12.2247676"><ele>418.0</ele><time>2026-05-04T15:56:55.387Z</time></trkpt><trkpt lat="46.1197999" lon="12.2248191"><ele>418.0</ele><time>2026-05-04T15:56:58.389Z</time></trkpt><trkpt lat="46.1198725" lon="12.2248732"><ele>418.0</ele><time>2026-05-04T15:57:01.388Z</time></trkpt><trkpt lat="46.1199464" lon="12.2249314"><ele>418.0</ele><time>2026-05-04T15:57:04.389Z</time></trkpt><trkpt lat="46.1200135" lon="12.2250098"><ele>418.0</ele><time>2026-05-04T15:57:07.388Z</time></trkpt><trkpt lat="46.1200654" lon="12.2250629"><ele>418.0</ele><time>2026-05-04T15:57:09.396Z</time></trkpt><trkpt lat="46.1201158" lon="12.2251196"><ele>418.0</ele><time>2026-05-04T15:57:11.39Z</time></trkpt><trkpt lat="46.120168" lon="12.2251787"><ele>418.0</ele><time>2026-05-04T15:57:13.389Z</time></trkpt><trkpt lat="46.120214" lon="12.2252599"><ele>418.2857142857143</ele><time>2026-05-04T15:57:16.388Z</time></trkpt><trkpt lat="46.1202519" lon="12.2253338"><ele>418.57142857142856</ele><time>2026-05-04T15:57:19.386Z</time></trkpt><trkpt lat="46.1202931" lon="12.2254209"><ele>418.8571428571429</ele><time>2026-05-04T15:57:22.39Z</time></trkpt><trkpt lat="46.1203252" lon="12.2255183"><ele>419.1428571428571</ele><time>2026-05-04T15:57:25.389Z</time></trkpt><trkpt lat="46.1203361" lon="12.2256087"><ele>419.42857142857144</ele><time>2026-05-04T15:57:27.387Z</time></trkpt><trkpt lat="46.1203485" lon="12.2257041"><ele>419.7142857142857</ele><time>2026-05-04T15:57:29.39Z</time></trkpt><trkpt lat="46.1203517" lon="12.2258179"><ele>420.0</ele><time>2026-05-04T15:57:31.388Z</time></trkpt><trkpt lat="46.1203553" lon="12.2259307"><ele>420.0</ele><time>2026-05-04T15:57:33.395Z</time></trkpt><trkpt lat="46.1203566" lon="12.2260431"><ele>420.0</ele><time>2026-05-04T15:57:35.43Z</time></trkpt><trkpt lat="46.1203576" lon="12.2261733"><ele>420.0</ele><time>2026-05-04T15:57:37.389Z</time></trkpt><trkpt lat="46.1203565" lon="12.2262927"><ele>420.0</ele><time>2026-05-04T15:57:39.392Z</time></trkpt><trkpt lat="46.1203605" lon="12.2264194"><ele>420.0</ele><time>2026-05-04T15:57:41.389Z</time></trkpt><trkpt lat="46.1203573" lon="12.2265441"><ele>420.0</ele><time>2026-05-04T15:57:43.412Z</time></trkpt><trkpt lat="46.1203851" lon="12.2266434"><ele>420.0</ele><time>2026-05-04T15:57:45.399Z</time></trkpt><trkpt lat="46.1204474" lon="12.22666"><ele>420.0</ele><time>2026-05-04T15:57:48.388Z</time></trkpt><trkpt lat="46.1204002" lon="12.2265893"><ele>420.0</ele><time>2026-05-04T15:57:51.386Z</time></trkpt><trkpt lat="46.1203335" lon="12.2265997"><ele>420.0</ele><time>2026-05-04T15:57:53.388Z</time></trkpt><trkpt lat="46.1202721" lon="12.2266706"><ele>420.0</ele><time>2026-05-04T15:57:55.395Z</time></trkpt><trkpt lat="46.120219" lon="12.2267899"><ele>420.0</ele><time>2026-05-04T15:57:57.397Z</time></trkpt><trkpt lat="46.1201546" lon="12.2269047"><ele>420.0</ele><time>2026-05-04T15:57:59.398Z</time></trkpt><trkpt lat="46.1200892" lon="12.2270225"><ele>420.0</ele><time>2026-05-04T15:58:01.387Z</time></trkpt><trkpt lat="46.1200257" lon="12.22715"><ele>420.0</ele><time>2026-05-04T15:58:03.39Z</time></trkpt><trkpt lat="46.1199723" lon="12.2272736"><ele>420.0</ele><time>2026-05-04T15:58:05.393Z</time></trkpt><trkpt lat="46.1199289" lon="12.2274147"><ele>420.0</ele><time>2026-05-04T15:58:07.39Z</time></trkpt><trkpt lat="46.1199049" lon="12.2274991"><ele>419.4</ele><time>2026-05-04T15:58:08.386Z</time></trkpt><trkpt lat="46.1198924" lon="12.2276764"><ele>418.8</ele><time>2026-05-04T15:58:10.387Z</time></trkpt><trkpt lat="46.1199014" lon="12.227816"><ele>418.20000000000005</ele><time>2026-05-04T15:58:12.393Z</time></trkpt><trkpt lat="46.1199461" lon="12.2279263"><ele>417.6</ele><time>2026-05-04T15:58:14.39Z</time></trkpt><trkpt lat="46.1199909" lon="12.2280345"><ele>417.0</ele><time>2026-05-04T15:58:16.39Z</time></trkpt><trkpt lat="46.1200358" lon="12.2281491"><ele>416.40000000000003</ele><time>2026-05-04T15:58:18.394Z</time></trkpt><trkpt lat="46.1200853" lon="12.2282578"><ele>415.8</ele><time>2026-05-04T15:58:20.388Z</time></trkpt><trkpt lat="46.1201423" lon="12.2283989"><ele>415.2</ele><time>2026-05-04T15:58:22.39Z</time></trkpt><trkpt lat="46.120192" lon="12.2285423"><ele>414.6</ele><time>2026-05-04T15:58:24.388Z</time></trkpt><trkpt lat="46.1202309" lon="12.2286883"><ele>414.0</ele><time>2026-05-04T15:58:26.389Z</time></trkpt><trkpt lat="46.1202535" lon="12.228846"><ele>413.6</ele><time>2026-05-04T15:58:28.394Z</time></trkpt><trkpt lat="46.1202672" lon="12.2290055"><ele>413.2</ele><time>2026-05-04T15:58:30.389Z</time></trkpt><trkpt lat="46.120292" lon="12.2291691"><ele>412.8</ele><time>2026-05-04T15:58:32.389Z</time></trkpt><trkpt lat="46.1203222" lon="12.2293229"><ele>412.40000000000003</ele><time>2026-05-04T15:58:34.387Z</time></trkpt><trkpt lat="46.1203517" lon="12.2294768"><ele>412.0</ele><time>2026-05-04T15:58:36.393Z</time></trkpt><trkpt lat="46.1203747" lon="12.2296328"><ele>412.00000000000006</ele><time>2026-05-04T15:58:38.391Z</time></trkpt><trkpt lat="46.1204073" lon="12.2297806"><ele>412.0</ele><time>2026-05-04T15:58:40.388Z</time></trkpt><trkpt lat="46.1204382" lon="12.2298894"><ele>412.0</ele><time>2026-05-04T15:58:42.393Z</time></trkpt><trkpt lat="46.1205231" lon="12.2299149"><ele>412.0</ele><time>2026-05-04T15:58:45.389Z</time></trkpt><trkpt lat="46.120594" lon="12.2298827"><ele>412.00000000000006</ele><time>2026-05-04T15:58:47.389Z</time></trkpt><trkpt lat="46.1206682" lon="12.2298531"><ele>412.0</ele><time>2026-05-04T15:58:49.388Z</time></trkpt><trkpt lat="46.1207446" lon="12.2298442"><ele>412.50000000000006</ele><time>2026-05-04T15:58:51.398Z</time></trkpt><trkpt lat="46.1208205" lon="12.2298365"><ele>413.0</ele><time>2026-05-04T15:58:53.389Z</time></trkpt><trkpt lat="46.1208962" lon="12.2298256"><ele>413.5</ele><time>2026-05-04T15:58:55.398Z</time></trkpt><trkpt lat="46.1209708" lon="12.2298233"><ele>414.0</ele><time>2026-05-04T15:58:57.395Z</time></trkpt><trkpt lat="46.1210458" lon="12.2298291"><ele>414.50000000000006</ele><time>2026-05-04T15:58:59.388Z</time></trkpt><trkpt lat="46.1211202" lon="12.2298386"><ele>415.0</ele><time>2026-05-04T15:59:01.389Z</time></trkpt><trkpt lat="46.1211937" lon="12.2298588"><ele>415.00000000000006</ele><time>2026-05-04T15:59:03.396Z</time></trkpt><trkpt lat="46.1212679" lon="12.2298863"><ele>415.0</ele><time>2026-05-04T15:59:05.389Z</time></trkpt><trkpt lat="46.1213396" lon="12.2299267"><ele>415.0</ele><time>2026-05-04T15:59:07.396Z</time></trkpt><trkpt lat="46.1214152" lon="12.2299652"><ele>415.0</ele><time>2026-05-04T15:59:09.387Z</time></trkpt><trkpt lat="46.1214902" lon="12.2299978"><ele>415.00000000000006</ele><time>2026-05-04T15:59:11.39Z</time></trkpt><trkpt lat="46.1215663" lon="12.2300124"><ele>415.0</ele><time>2026-05-04T15:59:13.389Z</time></trkpt><trkpt lat="46.1216432" lon="12.2300204"><ele>415.6666666666667</ele><time>2026-05-04T15:59:15.389Z</time></trkpt><trkpt lat="46.1217207" lon="12.2300078"><ele>416.33333333333337</ele><time>2026-05-04T15:59:17.395Z</time></trkpt><trkpt lat="46.1217962" lon="12.2299825"><ele>417.0</ele><time>2026-05-04T15:59:19.39Z</time></trkpt><trkpt lat="46.1218687" lon="12.2299398"><ele>417.66666666666663</ele><time>2026-05-04T15:59:21.388Z</time></trkpt><trkpt lat="46.1219351" lon="12.2298821"><ele>418.3333333333333</ele><time>2026-05-04T15:59:23.389Z</time></trkpt><trkpt lat="46.1219991" lon="12.229818"><ele>419.0</ele><time>2026-05-04T15:59:25.395Z</time></trkpt><trkpt lat="46.1220647" lon="12.229759"><ele>418.99999999999994</ele><time>2026-05-04T15:59:27.395Z</time></trkpt><trkpt lat="46.1221339" lon="12.2297085"><ele>419.0</ele><time>2026-05-04T15:59:29.393Z</time></trkpt><trkpt lat="46.1222097" lon="12.2297016"><ele>419.0</ele><time>2026-05-04T15:59:31.388Z</time></trkpt><trkpt lat="46.1222843" lon="12.2297351"><ele>419.0</ele><time>2026-05-04T15:59:33.396Z</time></trkpt><trkpt lat="46.1223559" lon="12.2297833"><ele>418.99999999999994</ele><time>2026-05-04T15:59:35.397Z</time></trkpt><trkpt lat="46.1224281" lon="12.2298316"><ele>419.0</ele><time>2026-05-04T15:59:37.388Z</time></trkpt><trkpt lat="46.1225018" lon="12.2298781"><ele>419.49999999999994</ele><time>2026-05-04T15:59:39.418Z</time></trkpt><trkpt lat="46.1225749" lon="12.2299263"><ele>420.0</ele><time>2026-05-04T15:59:41.396Z</time></trkpt><trkpt lat="46.1226501" lon="12.2299725"><ele>420.5</ele><time>2026-05-04T15:59:43.393Z</time></trkpt><trkpt lat="46.1227239" lon="12.2300139"><ele>421.0</ele><time>2026-05-04T15:59:45.397Z</time></trkpt><trkpt lat="46.1227951" lon="12.2300542"><ele>421.49999999999994</ele><time>2026-05-04T15:59:47.391Z</time></trkpt><trkpt lat="46.1228646" lon="12.230092"><ele>422.0</ele><time>2026-05-04T15:59:49.393Z</time></trkpt><trkpt lat="46.1229322" lon="12.2301329"><ele>421.99999999999994</ele><time>2026-05-04T15:59:51.398Z</time></trkpt><trkpt lat="46.1230027" lon="12.2301655"><ele>422.0</ele><time>2026-05-04T15:59:53.394Z</time></trkpt><trkpt lat="46.1230734" lon="12.2302057"><ele>422.0</ele><time>2026-05-04T15:59:55.389Z</time></trkpt><trkpt lat="46.1231462" lon="12.2302417"><ele>422.0</ele><time>2026-05-04T15:59:57.394Z</time></trkpt><trkpt lat="46.1232196" lon="12.2302774"><ele>421.99999999999994</ele><time>2026-05-04T15:59:59.395Z</time></trkpt><trkpt lat="46.1232932" lon="12.2303098"><ele>422.0</ele><time>2026-05-04T16:00:01.389Z</time></trkpt><trkpt lat="46.1233676" lon="12.2303424"><ele>422.66666666666663</ele><time>2026-05-04T16:00:03.387Z</time></trkpt><trkpt lat="46.1234431" lon="12.2303719"><ele>423.3333333333333</ele><time>2026-05-04T16:00:05.394Z</time></trkpt><trkpt lat="46.1235235" lon="12.230402"><ele>424.0</ele><time>2026-05-04T16:00:07.394Z</time></trkpt><trkpt lat="46.1236058" lon="12.2304338"><ele>424.66666666666663</ele><time>2026-05-04T16:00:09.389Z</time></trkpt><trkpt lat="46.1236877" lon="12.230464"><ele>425.3333333333333</ele><time>2026-05-04T16:00:11.397Z</time></trkpt><trkpt lat="46.1237727" lon="12.2304876"><ele>426.0</ele><time>2026-05-04T16:00:13.393Z</time></trkpt><trkpt lat="46.1238524" lon="12.2305199"><ele>426.0</ele><time>2026-05-04T16:00:15.394Z</time></trkpt><trkpt lat="46.1239345" lon="12.2305458"><ele>426.0</ele><time>2026-05-04T16:00:17.397Z</time></trkpt><trkpt lat="46.1240088" lon="12.2305676"><ele>426.0</ele><time>2026-05-04T16:00:19.39Z</time></trkpt><trkpt lat="46.1240837" lon="12.2305879"><ele>426.0</ele><time>2026-05-04T16:00:21.393Z</time></trkpt><trkpt lat="46.1241614" lon="12.2306094"><ele>426.0</ele><time>2026-05-04T16:00:23.386Z</time></trkpt><trkpt lat="46.1242403" lon="12.2306287"><ele>426.0</ele><time>2026-05-04T16:00:25.394Z</time></trkpt><trkpt lat="46.1243192" lon="12.2306418"><ele>426.5</ele><time>2026-05-04T16:00:27.388Z</time></trkpt><trkpt lat="46.1243971" lon="12.2306552"><ele>427.0</ele><time>2026-05-04T16:00:29.391Z</time></trkpt><trkpt lat="46.1244692" lon="12.2306903"><ele>427.5</ele><time>2026-05-04T16:00:31.383Z</time></trkpt><trkpt lat="46.1245385" lon="12.2307347"><ele>428.0</ele><time>2026-05-04T16:00:33.384Z</time></trkpt><trkpt lat="46.1246095" lon="12.2307776"><ele>428.5</ele><time>2026-05-04T16:00:35.392Z</time></trkpt><trkpt lat="46.1246866" lon="12.2308148"><ele>429.0</ele><time>2026-05-04T16:00:37.395Z</time></trkpt><trkpt lat="46.1247676" lon="12.2308538"><ele>429.0</ele><time>2026-05-04T16:00:39.394Z</time></trkpt><trkpt lat="46.124854" lon="12.230883"><ele>429.0</ele><time>2026-05-04T16:00:41.386Z</time></trkpt><trkpt lat="46.1249384" lon="12.230895"><ele>429.0</ele><time>2026-05-04T16:00:43.384Z</time></trkpt><trkpt lat="46.1250185" lon="12.230901"><ele>429.0</ele><time>2026-05-04T16:00:45.385Z</time></trkpt><trkpt lat="46.1251001" lon="12.2309028"><ele>429.0</ele><time>2026-05-04T16:00:47.386Z</time></trkpt><trkpt lat="46.1251964" lon="12.2309051"><ele>429.0</ele><time>2026-05-04T16:00:49.393Z</time></trkpt><trkpt lat="46.1252856" lon="12.2309167"><ele>429.6666666666667</ele><time>2026-05-04T16:00:51.392Z</time></trkpt><trkpt lat="46.1253682" lon="12.230933"><ele>430.33333333333337</ele><time>2026-05-04T16:00:53.392Z</time></trkpt><trkpt lat="46.1254456" lon="12.2309462"><ele>431.0</ele><time>2026-05-04T16:00:55.394Z</time></trkpt><trkpt lat="46.1255212" lon="12.2309469"><ele>431.6666666666667</ele><time>2026-05-04T16:00:57.393Z</time></trkpt><trkpt lat="46.1255999" lon="12.2309589"><ele>432.33333333333337</ele><time>2026-05-04T16:01:00.395Z</time></trkpt><trkpt lat="46.1256427" lon="12.2310529"><ele>433.0</ele><time>2026-05-04T16:01:03.394Z</time></trkpt><trkpt lat="46.1255864" lon="12.231162"><ele>433.0</ele><time>2026-05-04T16:01:06.386Z</time></trkpt><trkpt lat="46.1255096" lon="12.2312559"><ele>432.99999999999994</ele><time>2026-05-04T16:01:08.389Z</time></trkpt><trkpt lat="46.1254294" lon="12.2313558"><ele>432.99999999999994</ele><time>2026-05-04T16:01:10.39Z</time></trkpt><trkpt lat="46.1253443" lon="12.2314592"><ele>433.0</ele><time>2026-05-04T16:01:12.392Z</time></trkpt><trkpt lat="46.1252545" lon="12.2315635"><ele>433.0</ele><time>2026-05-04T16:01:14.389Z</time></trkpt><trkpt lat="46.1251685" lon="12.2316748"><ele>432.4</ele><time>2026-05-04T16:01:16.393Z</time></trkpt><trkpt lat="46.1250983" lon="12.2317935"><ele>431.79999999999995</ele><time>2026-05-04T16:01:18.388Z</time></trkpt><trkpt lat="46.1250287" lon="12.2319092"><ele>431.2</ele><time>2026-05-04T16:01:20.388Z</time></trkpt><trkpt lat="46.1249537" lon="12.2320235"><ele>430.6</ele><time>2026-05-04T16:01:22.393Z</time></trkpt><trkpt lat="46.124885" lon="12.2321457"><ele>430.0</ele><time>2026-05-04T16:01:24.394Z</time></trkpt><trkpt lat="46.1248189" lon="12.2322717"><ele>429.8</ele><time>2026-05-04T16:01:26.388Z</time></trkpt><trkpt lat="46.1247546" lon="12.2323932"><ele>429.6</ele><time>2026-05-04T16:01:28.394Z</time></trkpt><trkpt lat="46.1246879" lon="12.2325204"><ele>429.4</ele><time>2026-05-04T16:01:30.399Z</time></trkpt><trkpt lat="46.1246227" lon="12.2326462"><ele>429.2</ele><time>2026-05-04T16:01:32.388Z</time></trkpt><trkpt lat="46.1245581" lon="12.2327767"><ele>429.0</ele><time>2026-05-04T16:01:34.386Z</time></trkpt><trkpt lat="46.1244837" lon="12.2328996"><ele>429.0</ele><time>2026-05-04T16:01:36.395Z</time></trkpt><trkpt lat="46.1244147" lon="12.2330249"><ele>429.0</ele><time>2026-05-04T16:01:38.391Z</time></trkpt><trkpt lat="46.1243417" lon="12.2331399"><ele>429.0</ele><time>2026-05-04T16:01:40.394Z</time></trkpt><trkpt lat="46.1242668" lon="12.2332379"><ele>429.0</ele><time>2026-05-04T16:01:42.391Z</time></trkpt><trkpt lat="46.1241826" lon="12.2333309"><ele>429.0</ele><time>2026-05-04T16:01:44.392Z</time></trkpt><trkpt lat="46.1240914" lon="12.2334068"><ele>428.4</ele><time>2026-05-04T16:01:46.392Z</time></trkpt><trkpt lat="46.1240047" lon="12.2334719"><ele>427.79999999999995</ele><time>2026-05-04T16:01:48.393Z</time></trkpt><trkpt lat="46.1239162" lon="12.2335319"><ele>427.20000000000005</ele><time>2026-05-04T16:01:50.394Z</time></trkpt><trkpt lat="46.1238186" lon="12.233579"><ele>426.6</ele><time>2026-05-04T16:01:52.389Z</time></trkpt><trkpt lat="46.1237139" lon="12.2336222"><ele>426.0</ele><time>2026-05-04T16:01:54.395Z</time></trkpt><trkpt lat="46.1235988" lon="12.2336621"><ele>426.0</ele><time>2026-05-04T16:01:56.392Z</time></trkpt><trkpt lat="46.1234719" lon="12.2337046"><ele>426.0</ele><time>2026-05-04T16:01:58.39Z</time></trkpt><trkpt lat="46.1234095" lon="12.2337307"><ele>426.0</ele><time>2026-05-04T16:01:59.39Z</time></trkpt><trkpt lat="46.1233533" lon="12.233775"><ele>426.0</ele><time>2026-05-04T16:02:00.387Z</time></trkpt><trkpt lat="46.1232986" lon="12.2338201"><ele>426.0</ele><time>2026-05-04T16:02:01.392Z</time></trkpt><trkpt lat="46.1232459" lon="12.2338719"><ele>426.0</ele><time>2026-05-04T16:02:02.393Z</time></trkpt><trkpt lat="46.1231955" lon="12.2339295"><ele>425.0</ele><time>2026-05-04T16:02:03.391Z</time></trkpt><trkpt lat="46.1231038" lon="12.2340419"><ele>424.0</ele><time>2026-05-04T16:02:05.392Z</time></trkpt><trkpt lat="46.1230132" lon="12.2341504"><ele>423.0</ele><time>2026-05-04T16:02:07.394Z</time></trkpt><trkpt lat="46.1229295" lon="12.2342502"><ele>422.0</ele><time>2026-05-04T16:02:09.392Z</time></trkpt><trkpt lat="46.1228442" lon="12.2343586"><ele>422.0</ele><time>2026-05-04T16:02:11.39Z</time></trkpt><trkpt lat="46.1227615" lon="12.2344527"><ele>422.0</ele><time>2026-05-04T16:02:13.393Z</time></trkpt><trkpt lat="46.122685" lon="12.23455"><ele>422.0</ele><time>2026-05-04T16:02:15.386Z</time></trkpt><trkpt lat="46.1226147" lon="12.2346651"><ele>422.0</ele><time>2026-05-04T16:02:17.39Z</time></trkpt><trkpt lat="46.1226148" lon="12.2348056"><ele>422.0</ele><time>2026-05-04T16:02:19.394Z</time></trkpt><trkpt lat="46.1226724" lon="12.2349258"><ele>422.20000000000005</ele><time>2026-05-04T16:02:21.393Z</time></trkpt><trkpt lat="46.1227387" lon="12.2350409"><ele>422.4</ele><time>2026-05-04T16:02:23.397Z</time></trkpt><trkpt lat="46.122807" lon="12.2351471"><ele>422.6</ele><time>2026-05-04T16:02:25.393Z</time></trkpt><trkpt lat="46.122876" lon="12.2352497"><ele>422.79999999999995</ele><time>2026-05-04T16:02:27.386Z</time></trkpt><trkpt lat="46.1229253" lon="12.235365"><ele>423.0</ele><time>2026-05-04T16:02:29.392Z</time></trkpt><trkpt lat="46.1229377" lon="12.2354901"><ele>423.0</ele><time>2026-05-04T16:02:31.391Z</time></trkpt><trkpt lat="46.1229278" lon="12.2356174"><ele>423.0</ele><time>2026-05-04T16:02:33.393Z</time></trkpt><trkpt lat="46.1229222" lon="12.2357256"><ele>423.0</ele><time>2026-05-04T16:02:35.398Z</time></trkpt><trkpt lat="46.1229364" lon="12.2358432"><ele>423.0</ele><time>2026-05-04T16:02:38.393Z</time></trkpt><trkpt lat="46.1229282" lon="12.2359705"><ele>423.0</ele><time>2026-05-04T16:02:43.393Z</time></trkpt><trkpt lat="46.1229418" lon="12.2360779"><ele>423.0</ele><time>2026-05-04T16:02:45.392Z</time></trkpt><trkpt lat="46.1229569" lon="12.2361858"><ele>422.8333333333333</ele><time>2026-05-04T16:02:47.386Z</time></trkpt><trkpt lat="46.1229763" lon="12.2362946"><ele>422.66666666666663</ele><time>2026-05-04T16:02:49.391Z</time></trkpt><trkpt lat="46.1229995" lon="12.2364056"><ele>422.5</ele><time>2026-05-04T16:02:51.396Z</time></trkpt><trkpt lat="46.1230194" lon="12.2365184"><ele>422.3333333333333</ele><time>2026-05-04T16:02:53.393Z</time></trkpt><trkpt lat="46.1230464" lon="12.2366313"><ele>422.16666666666663</ele><time>2026-05-04T16:02:55.394Z</time></trkpt><trkpt lat="46.1230709" lon="12.2367403"><ele>422.0</ele><time>2026-05-04T16:02:57.39Z</time></trkpt><trkpt lat="46.1230925" lon="12.2368488"><ele>421.99999999999994</ele><time>2026-05-04T16:02:59.393Z</time></trkpt><trkpt lat="46.1231135" lon="12.236956"><ele>422.0</ele><time>2026-05-04T16:03:01.556Z</time></trkpt><trkpt lat="46.1231349" lon="12.237061"><ele>422.0</ele><time>2026-05-04T16:03:03.395Z</time></trkpt><trkpt lat="46.1231584" lon="12.2371627"><ele>422.0</ele><time>2026-05-04T16:03:05.393Z</time></trkpt><trkpt lat="46.1231809" lon="12.2372667"><ele>421.99999999999994</ele><time>2026-05-04T16:03:07.387Z</time></trkpt><trkpt lat="46.1232002" lon="12.2373717"><ele>422.0</ele><time>2026-05-04T16:03:09.393Z</time></trkpt><trkpt lat="46.1232228" lon="12.2374755"><ele>422.57142857142856</ele><time>2026-05-04T16:03:11.397Z</time></trkpt><trkpt lat="46.1232365" lon="12.2375801"><ele>423.14285714285717</ele><time>2026-05-04T16:03:13.389Z</time></trkpt><trkpt lat="46.1232452" lon="12.237685"><ele>423.71428571428567</ele><time>2026-05-04T16:03:15.394Z</time></trkpt><trkpt lat="46.1232675" lon="12.2377863"><ele>424.2857142857143</ele><time>2026-05-04T16:03:17.394Z</time></trkpt><trkpt lat="46.1232964" lon="12.2378833"><ele>424.85714285714283</ele><time>2026-05-04T16:03:19.394Z</time></trkpt><trkpt lat="46.1233387" lon="12.2379666"><ele>425.4285714285714</ele><time>2026-05-04T16:03:21.393Z</time></trkpt><trkpt lat="46.123393" lon="12.2380402"><ele>426.0</ele><time>2026-05-04T16:03:23.393Z</time></trkpt><trkpt lat="46.1234516" lon="12.2381112"><ele>426.0</ele><time>2026-05-04T16:03:25.392Z</time></trkpt><trkpt lat="46.1235112" lon="12.2381856"><ele>426.0</ele><time>2026-05-04T16:03:27.395Z</time></trkpt><trkpt lat="46.123565" lon="12.2382712"><ele>426.0</ele><time>2026-05-04T16:03:29.397Z</time></trkpt><trkpt lat="46.1236216" lon="12.2383556"><ele>426.0</ele><time>2026-05-04T16:03:31.396Z</time></trkpt><trkpt lat="46.1236787" lon="12.2384437"><ele>426.0</ele><time>2026-05-04T16:03:33.387Z</time></trkpt><trkpt lat="46.1237315" lon="12.2385387"><ele>426.0</ele><time>2026-05-04T16:03:35.397Z</time></trkpt><trkpt lat="46.1237747" lon="12.2386386"><ele>426.0</ele><time>2026-05-04T16:03:37.39Z</time></trkpt><trkpt lat="46.1238131" lon="12.2387413"><ele>426.0</ele><time>2026-05-04T16:03:39.393Z</time></trkpt><trkpt lat="46.1238484" lon="12.2388451"><ele>426.0</ele><time>2026-05-04T16:03:41.396Z</time></trkpt><trkpt lat="46.1238856" lon="12.2389478"><ele>426.0</ele><time>2026-05-04T16:03:43.396Z</time></trkpt><trkpt lat="46.1239276" lon="12.2390485"><ele>426.0</ele><time>2026-05-04T16:03:45.392Z</time></trkpt><trkpt lat="46.1239757" lon="12.2391418"><ele>426.0</ele><time>2026-05-04T16:03:47.387Z</time></trkpt><trkpt lat="46.1240272" lon="12.239233"><ele>426.71428571428567</ele><time>2026-05-04T16:03:49.39Z</time></trkpt><trkpt lat="46.1240687" lon="12.239321"><ele>427.42857142857144</ele><time>2026-05-04T16:03:51.392Z</time></trkpt><trkpt lat="46.1241019" lon="12.2393984"><ele>428.1428571428571</ele><time>2026-05-04T16:03:53.388Z</time></trkpt><trkpt lat="46.1241502" lon="12.2394765"><ele>428.85714285714283</ele><time>2026-05-04T16:03:56.391Z</time></trkpt><trkpt lat="46.1242324" lon="12.2395335"><ele>429.57142857142856</ele><time>2026-05-04T16:03:59.4Z</time></trkpt><trkpt lat="46.1242947" lon="12.2395902"><ele>430.2857142857143</ele><time>2026-05-04T16:04:01.392Z</time></trkpt><trkpt lat="46.1243443" lon="12.2396499"><ele>431.0</ele><time>2026-05-04T16:04:03.394Z</time></trkpt><trkpt lat="46.1244134" lon="12.23971"><ele>431.0</ele><time>2026-05-04T16:04:06.39Z</time></trkpt><trkpt lat="46.1244619" lon="12.2397726"><ele>431.0</ele><time>2026-05-04T16:04:09.39Z</time></trkpt><trkpt lat="46.1245232" lon="12.2398334"><ele>431.0</ele><time>2026-05-04T16:04:12.393Z</time></trkpt><trkpt lat="46.1245967" lon="12.2399159"><ele>431.0</ele><time>2026-05-04T16:04:15.388Z</time></trkpt><trkpt lat="46.1246459" lon="12.239976"><ele>431.0</ele><time>2026-05-04T16:04:17.388Z</time></trkpt><trkpt lat="46.124692" lon="12.2400447"><ele>431.0</ele><time>2026-05-04T16:04:19.386Z</time></trkpt><trkpt lat="46.1247443" lon="12.2401154"><ele>431.0</ele><time>2026-05-04T16:04:21.394Z</time></trkpt><trkpt lat="46.1248008" lon="12.2401929"><ele>431.3333333333333</ele><time>2026-05-04T16:04:23.394Z</time></trkpt><trkpt lat="46.1248653" lon="12.2402721"><ele>431.66666666666663</ele><time>2026-05-04T16:04:25.392Z</time></trkpt><trkpt lat="46.1249297" lon="12.2403614"><ele>432.0</ele><time>2026-05-04T16:04:27.392Z</time></trkpt><trkpt lat="46.1249947" lon="12.240448"><ele>432.33333333333337</ele><time>2026-05-04T16:04:29.394Z</time></trkpt><trkpt lat="46.1250614" lon="12.2405358"><ele>432.6666666666667</ele><time>2026-05-04T16:04:31.394Z</time></trkpt><trkpt lat="46.1251226" lon="12.240634"><ele>433.0</ele><time>2026-05-04T16:04:33.388Z</time></trkpt><trkpt lat="46.1251784" lon="12.2407382"><ele>433.2</ele><time>2026-05-04T16:04:35.394Z</time></trkpt><trkpt lat="46.1252334" lon="12.2408475"><ele>433.4</ele><time>2026-05-04T16:04:37.389Z</time></trkpt><trkpt lat="46.1252754" lon="12.2409678"><ele>433.59999999999997</ele><time>2026-05-04T16:04:39.388Z</time></trkpt><trkpt lat="46.1253153" lon="12.2410876"><ele>433.79999999999995</ele><time>2026-05-04T16:04:41.39Z</time></trkpt><trkpt lat="46.1253549" lon="12.2412115"><ele>434.0</ele><time>2026-05-04T16:04:43.396Z</time></trkpt><trkpt lat="46.1253978" lon="12.2413311"><ele>434.0</ele><time>2026-05-04T16:04:45.392Z</time></trkpt><trkpt lat="46.1254367" lon="12.2414517"><ele>434.0</ele><time>2026-05-04T16:04:47.392Z</time></trkpt><trkpt lat="46.1254748" lon="12.2415672"><ele>434.0</ele><time>2026-05-04T16:04:49.391Z</time></trkpt><trkpt lat="46.1255149" lon="12.2416919"><ele>434.0</ele><time>2026-05-04T16:04:51.51Z</time></trkpt><trkpt lat="46.1255566" lon="12.2418098"><ele>434.0</ele><time>2026-05-04T16:04:53.394Z</time></trkpt><trkpt lat="46.125596" lon="12.2419331"><ele>434.2</ele><time>2026-05-04T16:04:55.396Z</time></trkpt><trkpt lat="46.1256383" lon="12.2420565"><ele>434.4</ele><time>2026-05-04T16:04:57.389Z</time></trkpt><trkpt lat="46.1256851" lon="12.2421861"><ele>434.6</ele><time>2026-05-04T16:04:59.396Z</time></trkpt><trkpt lat="46.1257277" lon="12.2423077"><ele>434.8</ele><time>2026-05-04T16:05:01.4Z</time></trkpt><trkpt lat="46.1257759" lon="12.2424294"><ele>435.0</ele><time>2026-05-04T16:05:03.391Z</time></trkpt><trkpt lat="46.1258174" lon="12.2425532"><ele>435.2</ele><time>2026-05-04T16:05:05.389Z</time></trkpt><trkpt lat="46.1258598" lon="12.2426801"><ele>435.4</ele><time>2026-05-04T16:05:07.394Z</time></trkpt><trkpt lat="46.1259057" lon="12.2427967"><ele>435.6</ele><time>2026-05-04T16:05:09.395Z</time></trkpt><trkpt lat="46.1259536" lon="12.242911"><ele>435.8</ele><time>2026-05-04T16:05:11.398Z</time></trkpt><trkpt lat="46.1259931" lon="12.243029"><ele>436.0</ele><time>2026-05-04T16:05:13.388Z</time></trkpt><trkpt lat="46.1260316" lon="12.2431457"><ele>436.0</ele><time>2026-05-04T16:05:15.394Z</time></trkpt><trkpt lat="46.1260724" lon="12.2432627"><ele>436.0</ele><time>2026-05-04T16:05:17.391Z</time></trkpt><trkpt lat="46.1261129" lon="12.24338"><ele>436.0</ele><time>2026-05-04T16:05:19.392Z</time></trkpt><trkpt lat="46.1261532" lon="12.2434888"><ele>436.0</ele><time>2026-05-04T16:05:21.391Z</time></trkpt><trkpt lat="46.126193" lon="12.2436092"><ele>436.0</ele><time>2026-05-04T16:05:23.395Z</time></trkpt><trkpt lat="46.1262336" lon="12.2437285"><ele>436.0</ele><time>2026-05-04T16:05:25.397Z</time></trkpt><trkpt lat="46.1262761" lon="12.2438454"><ele>436.0</ele><time>2026-05-04T16:05:27.39Z</time></trkpt><trkpt lat="46.1263206" lon="12.2439643"><ele>436.0</ele><time>2026-05-04T16:05:29.394Z</time></trkpt><trkpt lat="46.1263646" lon="12.2440812"><ele>436.0</ele><time>2026-05-04T16:05:31.393Z</time></trkpt><trkpt lat="46.1264116" lon="12.2442039"><ele>436.0</ele><time>2026-05-04T16:05:33.389Z</time></trkpt><trkpt lat="46.1264625" lon="12.2443156"><ele>436.1666666666667</ele><time>2026-05-04T16:05:35.386Z</time></trkpt><trkpt lat="46.1265152" lon="12.2444255"><ele>436.33333333333337</ele><time>2026-05-04T16:05:37.388Z</time></trkpt><trkpt lat="46.1265648" lon="12.2445251"><ele>436.5</ele><time>2026-05-04T16:05:39.388Z</time></trkpt><trkpt lat="46.1266143" lon="12.2446069"><ele>436.66666666666663</ele><time>2026-05-04T16:05:41.398Z</time></trkpt><trkpt lat="46.1266575" lon="12.2446736"><ele>436.8333333333333</ele><time>2026-05-04T16:05:43.389Z</time></trkpt><trkpt lat="46.1266928" lon="12.2447491"><ele>437.0</ele><time>2026-05-04T16:05:45.394Z</time></trkpt><trkpt lat="46.126746" lon="12.2448241"><ele>437.3333333333333</ele><time>2026-05-04T16:05:47.399Z</time></trkpt><trkpt lat="46.1268007" lon="12.2449052"><ele>437.66666666666663</ele><time>2026-05-04T16:05:49.396Z</time></trkpt><trkpt lat="46.1268566" lon="12.2449807"><ele>438.0</ele><time>2026-05-04T16:05:51.4Z</time></trkpt><trkpt lat="46.1269141" lon="12.245047"><ele>438.33333333333337</ele><time>2026-05-04T16:05:53.394Z</time></trkpt><trkpt lat="46.1269649" lon="12.2451129"><ele>438.6666666666667</ele><time>2026-05-04T16:05:55.392Z</time></trkpt><trkpt lat="46.1270373" lon="12.245202"><ele>439.0</ele><time>2026-05-04T16:05:58.394Z</time></trkpt><trkpt lat="46.1270896" lon="12.2452575"><ele>439.0</ele><time>2026-05-04T16:06:00.389Z</time></trkpt><trkpt lat="46.1271445" lon="12.2453094"><ele>439.0</ele><time>2026-05-04T16:06:02.396Z</time></trkpt><trkpt lat="46.1272009" lon="12.2453643"><ele>439.0</ele><time>2026-05-04T16:06:04.393Z</time></trkpt><trkpt lat="46.1272591" lon="12.2454278"><ele>439.0</ele><time>2026-05-04T16:06:06.393Z</time></trkpt><trkpt lat="46.1273244" lon="12.2454837"><ele>439.0</ele><time>2026-05-04T16:06:08.39Z</time></trkpt><trkpt lat="46.1273865" lon="12.2455517"><ele>439.0</ele><time>2026-05-04T16:06:10.386Z</time></trkpt><trkpt lat="46.1274524" lon="12.2456234"><ele>439.0</ele><time>2026-05-04T16:06:12.392Z</time></trkpt><trkpt lat="46.1275304" lon="12.2457062"><ele>438.79999999999995</ele><time>2026-05-04T16:06:14.391Z</time></trkpt><trkpt lat="46.1276126" lon="12.2458004"><ele>438.59999999999997</ele><time>2026-05-04T16:06:16.389Z</time></trkpt><trkpt lat="46.1276939" lon="12.2458818"><ele>438.4</ele><time>2026-05-04T16:06:18.389Z</time></trkpt><trkpt lat="46.127774" lon="12.2459575"><ele>438.2</ele><time>2026-05-04T16:06:20.392Z</time></trkpt><trkpt lat="46.1278524" lon="12.2460322"><ele>438.0</ele><time>2026-05-04T16:06:22.394Z</time></trkpt><trkpt lat="46.1279276" lon="12.2461178"><ele>438.0</ele><time>2026-05-04T16:06:24.394Z</time></trkpt><trkpt lat="46.1280053" lon="12.2462081"><ele>437.99999999999994</ele><time>2026-05-04T16:06:26.394Z</time></trkpt><trkpt lat="46.1280769" lon="12.2462993"><ele>437.99999999999994</ele><time>2026-05-04T16:06:28.395Z</time></trkpt><trkpt lat="46.1281566" lon="12.2463899"><ele>438.0</ele><time>2026-05-04T16:06:30.39Z</time></trkpt><trkpt lat="46.1282239" lon="12.2464657"><ele>438.0</ele><time>2026-05-04T16:06:32.394Z</time></trkpt><trkpt lat="46.1282798" lon="12.2465421"><ele>438.0</ele><time>2026-05-04T16:06:34.394Z</time></trkpt><trkpt lat="46.1283477" lon="12.2466192"><ele>438.0</ele><time>2026-05-04T16:06:37.397Z</time></trkpt><trkpt lat="46.1284052" lon="12.2466918"><ele>438.0</ele><time>2026-05-04T16:06:41.394Z</time></trkpt><trkpt lat="46.1284578" lon="12.2467496"><ele>438.0</ele><time>2026-05-04T16:06:45.396Z</time></trkpt><trkpt lat="46.1284192" lon="12.2466767"><ele>438.0</ele><time>2026-05-04T16:06:55.395Z</time></trkpt><trkpt lat="46.1283634" lon="12.2466189"><ele>438.0</ele><time>2026-05-04T16:06:57.395Z</time></trkpt><trkpt lat="46.1282964" lon="12.2465381"><ele>438.0</ele><time>2026-05-04T16:06:59.394Z</time></trkpt><trkpt lat="46.1282175" lon="12.2464422"><ele>438.0</ele><time>2026-05-04T16:07:01.394Z</time></trkpt><trkpt lat="46.1281414" lon="12.2463487"><ele>437.99999999999994</ele><time>2026-05-04T16:07:03.388Z</time></trkpt><trkpt lat="46.1280649" lon="12.2462462"><ele>437.99999999999994</ele><time>2026-05-04T16:07:05.394Z</time></trkpt><trkpt lat="46.1279858" lon="12.2461485"><ele>438.0</ele><time>2026-05-04T16:07:07.396Z</time></trkpt><trkpt lat="46.1279047" lon="12.2460577"><ele>438.0</ele><time>2026-05-04T16:07:09.386Z</time></trkpt><trkpt lat="46.1278191" lon="12.24597"><ele>438.0</ele><time>2026-05-04T16:07:11.389Z</time></trkpt><trkpt lat="46.1277328" lon="12.2458778"><ele>437.99999999999994</ele><time>2026-05-04T16:07:13.386Z</time></trkpt><trkpt lat="46.1276456" lon="12.2457905"><ele>437.99999999999994</ele><time>2026-05-04T16:07:15.393Z</time></trkpt><trkpt lat="46.1275705" lon="12.245711"><ele>438.0</ele><time>2026-05-04T16:07:17.394Z</time></trkpt><trkpt lat="46.1275074" lon="12.2456416"><ele>438.0</ele><time>2026-05-04T16:07:19.388Z</time></trkpt><trkpt lat="46.1274338" lon="12.2456305"><ele>437.6666666666667</ele><time>2026-05-04T16:07:21.393Z</time></trkpt><trkpt lat="46.1273753" lon="12.2457014"><ele>437.33333333333337</ele><time>2026-05-04T16:07:23.389Z</time></trkpt><trkpt lat="46.1273349" lon="12.2457729"><ele>437.0</ele><time>2026-05-04T16:07:26.398Z</time></trkpt><trkpt lat="46.1272905" lon="12.2458729"><ele>436.6666666666667</ele><time>2026-05-04T16:07:29.389Z</time></trkpt><trkpt lat="46.1272601" lon="12.2459628"><ele>436.33333333333337</ele><time>2026-05-04T16:07:32.394Z</time></trkpt><trkpt lat="46.1272206" lon="12.2460405"><ele>436.0</ele><time>2026-05-04T16:08:14.389Z</time></trkpt><trkpt lat="46.1271732" lon="12.2461564"><ele>436.00000000000006</ele><time>2026-05-04T16:08:17.394Z</time></trkpt><trkpt lat="46.1271367" lon="12.2462533"><ele>436.0</ele><time>2026-05-04T16:08:19.393Z</time></trkpt><trkpt lat="46.127096" lon="12.2463534"><ele>436.0</ele><time>2026-05-04T16:08:21.402Z</time></trkpt><trkpt lat="46.1270527" lon="12.2464546"><ele>436.0</ele><time>2026-05-04T16:08:23.388Z</time></trkpt><trkpt lat="46.1270047" lon="12.246555"><ele>436.00000000000006</ele><time>2026-05-04T16:08:25.394Z</time></trkpt><trkpt lat="46.1269557" lon="12.2466532"><ele>436.0</ele><time>2026-05-04T16:08:27.459Z</time></trkpt><trkpt lat="46.1269089" lon="12.2467498"><ele>435.6666666666667</ele><time>2026-05-04T16:08:29.394Z</time></trkpt><trkpt lat="46.1268635" lon="12.2468484"><ele>435.33333333333337</ele><time>2026-05-04T16:08:31.395Z</time></trkpt><trkpt lat="46.1268168" lon="12.2469446"><ele>435.0</ele><time>2026-05-04T16:08:33.392Z</time></trkpt><trkpt lat="46.1267744" lon="12.2470441"><ele>434.66666666666663</ele><time>2026-05-04T16:08:35.394Z</time></trkpt><trkpt lat="46.1267278" lon="12.2471452"><ele>434.3333333333333</ele><time>2026-05-04T16:08:37.396Z</time></trkpt><trkpt lat="46.1266856" lon="12.2472445"><ele>434.0</ele><time>2026-05-04T16:08:39.39Z</time></trkpt><trkpt lat="46.1266471" lon="12.2473394"><ele>433.99999999999994</ele><time>2026-05-04T16:08:41.398Z</time></trkpt><trkpt lat="46.1266045" lon="12.2474349"><ele>434.0</ele><time>2026-05-04T16:08:43.389Z</time></trkpt><trkpt lat="46.126561" lon="12.2475303"><ele>434.0</ele><time>2026-05-04T16:08:45.398Z</time></trkpt><trkpt lat="46.1265181" lon="12.2476203"><ele>434.0</ele><time>2026-05-04T16:08:47.393Z</time></trkpt><trkpt lat="46.1264748" lon="12.2477161"><ele>433.99999999999994</ele><time>2026-05-04T16:08:49.395Z</time></trkpt><trkpt lat="46.126428" lon="12.247807"><ele>434.0</ele><time>2026-05-04T16:08:51.394Z</time></trkpt><trkpt lat="46.1263818" lon="12.2479004"><ele>434.49999999999994</ele><time>2026-05-04T16:08:53.397Z</time></trkpt><trkpt lat="46.1263361" lon="12.2479961"><ele>435.0</ele><time>2026-05-04T16:08:55.395Z</time></trkpt><trkpt lat="46.126288" lon="12.2480902"><ele>435.5</ele><time>2026-05-04T16:08:57.393Z</time></trkpt><trkpt lat="46.1262337" lon="12.2481803"><ele>436.0</ele><time>2026-05-04T16:08:59.395Z</time></trkpt><trkpt lat="46.1261803" lon="12.2482725"><ele>436.49999999999994</ele><time>2026-05-04T16:09:01.394Z</time></trkpt><trkpt lat="46.1261329" lon="12.2483695"><ele>437.0</ele><time>2026-05-04T16:09:03.394Z</time></trkpt><trkpt lat="46.1260858" lon="12.2484656"><ele>437.16666666666663</ele><time>2026-05-04T16:09:05.394Z</time></trkpt><trkpt lat="46.12604" lon="12.2485651"><ele>437.3333333333333</ele><time>2026-05-04T16:09:07.393Z</time></trkpt><trkpt lat="46.1259921" lon="12.2486599"><ele>437.5</ele><time>2026-05-04T16:09:09.389Z</time></trkpt><trkpt lat="46.1259465" lon="12.2487546"><ele>437.66666666666663</ele><time>2026-05-04T16:09:11.394Z</time></trkpt><trkpt lat="46.1259125" lon="12.2488526"><ele>437.8333333333333</ele><time>2026-05-04T16:09:13.388Z</time></trkpt><trkpt lat="46.1258896" lon="12.2489609"><ele>438.0</ele><time>2026-05-04T16:09:15.394Z</time></trkpt><trkpt lat="46.1258628" lon="12.2490701"><ele>438.3333333333333</ele><time>2026-05-04T16:09:17.396Z</time></trkpt><trkpt lat="46.1258296" lon="12.2491779"><ele>438.66666666666663</ele><time>2026-05-04T16:09:19.387Z</time></trkpt><trkpt lat="46.1257933" lon="12.2492824"><ele>439.0</ele><time>2026-05-04T16:09:21.387Z</time></trkpt><trkpt lat="46.1257561" lon="12.2493878"><ele>439.3333333333333</ele><time>2026-05-04T16:09:23.393Z</time></trkpt><trkpt lat="46.1257137" lon="12.2494953"><ele>439.66666666666663</ele><time>2026-05-04T16:09:25.389Z</time></trkpt><trkpt lat="46.1256751" lon="12.2496064"><ele>440.0</ele><time>2026-05-04T16:09:27.395Z</time></trkpt><trkpt lat="46.125635" lon="12.2497201"><ele>440.6</ele><time>2026-05-04T16:09:29.396Z</time></trkpt><trkpt lat="46.1255895" lon="12.2498421"><ele>441.2</ele><time>2026-05-04T16:09:31.396Z</time></trkpt><trkpt lat="46.1255461" lon="12.2499671"><ele>441.79999999999995</ele><time>2026-05-04T16:09:33.394Z</time></trkpt><trkpt lat="46.1255001" lon="12.2500859"><ele>442.4</ele><time>2026-05-04T16:09:35.394Z</time></trkpt><trkpt lat="46.12546" lon="12.2502061"><ele>443.0</ele><time>2026-05-04T16:09:37.398Z</time></trkpt><trkpt lat="46.1254219" lon="12.2503293"><ele>442.99999999999994</ele><time>2026-05-04T16:09:39.396Z</time></trkpt><trkpt lat="46.1253868" lon="12.2504493"><ele>443.0</ele><time>2026-05-04T16:09:41.394Z</time></trkpt><trkpt lat="46.1253465" lon="12.2505636"><ele>443.0</ele><time>2026-05-04T16:09:43.395Z</time></trkpt><trkpt lat="46.1253128" lon="12.2506825"><ele>443.0</ele><time>2026-05-04T16:09:45.404Z</time></trkpt><trkpt lat="46.1252791" lon="12.2507951"><ele>442.99999999999994</ele><time>2026-05-04T16:09:47.394Z</time></trkpt><trkpt lat="46.1252485" lon="12.2509096"><ele>443.0</ele><time>2026-05-04T16:09:49.395Z</time></trkpt><trkpt lat="46.1252216" lon="12.2510164"><ele>443.14285714285717</ele><time>2026-05-04T16:09:51.394Z</time></trkpt><trkpt lat="46.1251955" lon="12.2511127"><ele>443.28571428571433</ele><time>2026-05-04T16:09:53.394Z</time></trkpt><trkpt lat="46.125174" lon="12.2512075"><ele>443.42857142857144</ele><time>2026-05-04T16:09:55.393Z</time></trkpt><trkpt lat="46.1251515" lon="12.2513015"><ele>443.57142857142856</ele><time>2026-05-04T16:09:57.393Z</time></trkpt><trkpt lat="46.1251245" lon="12.2513946"><ele>443.7142857142857</ele><time>2026-05-04T16:09:59.394Z</time></trkpt><trkpt lat="46.1251046" lon="12.2514875"><ele>443.85714285714283</ele><time>2026-05-04T16:10:01.395Z</time></trkpt><trkpt lat="46.1250867" lon="12.2515829"><ele>444.0</ele><time>2026-05-04T16:10:03.389Z</time></trkpt><trkpt lat="46.1250699" lon="12.2516706"><ele>445.1666666666667</ele><time>2026-05-04T16:10:05.397Z</time></trkpt><trkpt lat="46.1250361" lon="12.2518169"><ele>446.33333333333337</ele><time>2026-05-04T16:10:09.388Z</time></trkpt><trkpt lat="46.1249941" lon="12.2519052"><ele>447.5</ele><time>2026-05-04T16:10:12.39Z</time></trkpt><trkpt lat="46.1249556" lon="12.2519913"><ele>448.6666666666667</ele><time>2026-05-04T16:10:15.387Z</time></trkpt><trkpt lat="46.1249153" lon="12.252074"><ele>449.83333333333337</ele><time>2026-05-04T16:10:18.389Z</time></trkpt><trkpt lat="46.1248708" lon="12.2521549"><ele>451.0</ele><time>2026-05-04T16:10:21.393Z</time></trkpt><trkpt lat="46.124834" lon="12.252244"><ele>453.2857142857143</ele><time>2026-05-04T16:10:24.39Z</time></trkpt><trkpt lat="46.124793" lon="12.2523268"><ele>455.57142857142856</ele><time>2026-05-04T16:10:27.393Z</time></trkpt><trkpt lat="46.1247478" lon="12.2524072"><ele>457.85714285714283</ele><time>2026-05-04T16:10:30.392Z</time></trkpt><trkpt lat="46.1246866" lon="12.2524792"><ele>460.1428571428571</ele><time>2026-05-04T16:10:33.397Z</time></trkpt><trkpt lat="46.1246236" lon="12.2525409"><ele>462.42857142857144</ele><time>2026-05-04T16:10:36.39Z</time></trkpt><trkpt lat="46.1245575" lon="12.2525852"><ele>464.71428571428567</ele><time>2026-05-04T16:10:39.393Z</time></trkpt><trkpt lat="46.1244878" lon="12.2526204"><ele>466.99999999999994</ele><time>2026-05-04T16:10:42.394Z</time></trkpt><trkpt lat="46.1244202" lon="12.2526445"><ele>466.99999999999994</ele><time>2026-05-04T16:10:45.391Z</time></trkpt><trkpt lat="46.1243505" lon="12.2526586"><ele>467.0</ele><time>2026-05-04T16:10:48.39Z</time></trkpt><trkpt lat="46.1242855" lon="12.25266"><ele>466.99999999999994</ele><time>2026-05-04T16:10:51.392Z</time></trkpt><trkpt lat="46.124218" lon="12.2526467"><ele>466.99999999999994</ele><time>2026-05-04T16:10:54.396Z</time></trkpt><trkpt lat="46.12415" lon="12.2526328"><ele>467.0</ele><time>2026-05-04T16:10:57.391Z</time></trkpt><trkpt lat="46.1240842" lon="12.2526136"><ele>466.99999999999994</ele><time>2026-05-04T16:11:00.396Z</time></trkpt><trkpt lat="46.1240137" lon="12.2525974"><ele>466.99999999999994</ele><time>2026-05-04T16:11:03.394Z</time></trkpt><trkpt lat="46.1239457" lon="12.2525836"><ele>466.99999999999994</ele><time>2026-05-04T16:11:06.396Z</time></trkpt><trkpt lat="46.1238829" lon="12.2526063"><ele>467.0</ele><time>2026-05-04T16:11:09.39Z</time></trkpt><trkpt lat="46.1238628" lon="12.252718"><ele>466.99999999999994</ele><time>2026-05-04T16:11:13.39Z</time></trkpt><trkpt lat="46.1239058" lon="12.2528079"><ele>466.99999999999994</ele><time>2026-05-04T16:11:16.391Z</time></trkpt><trkpt lat="46.1239655" lon="12.2528742"><ele>467.0</ele><time>2026-05-04T16:11:19.388Z</time></trkpt><trkpt lat="46.1240223" lon="12.2529432"><ele>466.99999999999994</ele><time>2026-05-04T16:11:22.395Z</time></trkpt><trkpt lat="46.1240761" lon="12.2530213"><ele>466.99999999999994</ele><time>2026-05-04T16:11:25.395Z</time></trkpt><trkpt lat="46.1241165" lon="12.2531142"><ele>467.8333333333333</ele><time>2026-05-04T16:11:28.399Z</time></trkpt><trkpt lat="46.1241079" lon="12.2532203"><ele>468.66666666666663</ele><time>2026-05-04T16:11:31.39Z</time></trkpt><trkpt lat="46.1240931" lon="12.2533266"><ele>469.5</ele><time>2026-05-04T16:11:34.396Z</time></trkpt><trkpt lat="46.124069" lon="12.2534445"><ele>470.33333333333337</ele><time>2026-05-04T16:11:37.386Z</time></trkpt><trkpt lat="46.1240696" lon="12.2535661"><ele>471.1666666666667</ele><time>2026-05-04T16:11:40.398Z</time></trkpt><trkpt lat="46.1240828" lon="12.2536565"><ele>472.0</ele><time>2026-05-04T16:11:43.393Z</time></trkpt><trkpt lat="46.1240084" lon="12.2537029"><ele>472.0</ele><time>2026-05-04T16:13:32.387Z</time></trkpt><trkpt lat="46.1239707" lon="12.2538279"><ele>472.0</ele><time>2026-05-04T16:13:35.392Z</time></trkpt><trkpt lat="46.123956" lon="12.253931"><ele>472.0</ele><time>2026-05-04T16:13:37.393Z</time></trkpt><trkpt lat="46.1239408" lon="12.2540317"><ele>472.0</ele><time>2026-05-04T16:13:39.389Z</time></trkpt><trkpt lat="46.1239342" lon="12.2541294"><ele>472.0</ele><time>2026-05-04T16:13:41.394Z</time></trkpt><trkpt lat="46.1239583" lon="12.2542223"><ele>472.0</ele><time>2026-05-04T16:13:43.401Z</time></trkpt><trkpt lat="46.1240021" lon="12.2543069"><ele>472.0</ele><time>2026-05-04T16:13:45.388Z</time></trkpt><trkpt lat="46.1240527" lon="12.2543843"><ele>473.00000000000006</ele><time>2026-05-04T16:13:47.388Z</time></trkpt><trkpt lat="46.124106" lon="12.2544585"><ele>474.0</ele><time>2026-05-04T16:13:49.385Z</time></trkpt><trkpt lat="46.124158" lon="12.2545232"><ele>475.0</ele><time>2026-05-04T16:13:51.388Z</time></trkpt><trkpt lat="46.1242028" lon="12.2545959"><ele>476.0</ele><time>2026-05-04T16:13:53.387Z</time></trkpt><trkpt lat="46.1242277" lon="12.2546828"><ele>477.00000000000006</ele><time>2026-05-04T16:13:55.388Z</time></trkpt><trkpt lat="46.1241933" lon="12.2548064"><ele>478.0</ele><time>2026-05-04T16:13:58.394Z</time></trkpt><trkpt lat="46.1241346" lon="12.2549088"><ele>478.33333333333337</ele><time>2026-05-04T16:14:01.391Z</time></trkpt><trkpt lat="46.1240632" lon="12.2549957"><ele>478.6666666666667</ele><time>2026-05-04T16:14:04.395Z</time></trkpt><trkpt lat="46.1239952" lon="12.2550774"><ele>479.0</ele><time>2026-05-04T16:14:07.388Z</time></trkpt><trkpt lat="46.1239479" lon="12.2551454"><ele>479.33333333333337</ele><time>2026-05-04T16:14:10.389Z</time></trkpt><trkpt lat="46.1239397" lon="12.2552566"><ele>479.6666666666667</ele><time>2026-05-04T16:14:15.39Z</time></trkpt><trkpt lat="46.1240044" lon="12.2553258"><ele>480.0</ele><time>2026-05-04T16:14:18.396Z</time></trkpt><trkpt lat="46.1239968" lon="12.2552175"><ele>480.0</ele><time>2026-05-04T16:14:31.39Z</time></trkpt><trkpt lat="46.1239118" lon="12.2552046"><ele>480.0</ele><time>2026-05-04T16:14:34.391Z</time></trkpt><trkpt lat="46.1238333" lon="12.2552216"><ele>480.0</ele><time>2026-05-04T16:14:37.394Z</time></trkpt><trkpt lat="46.123736" lon="12.2552296"><ele>480.0</ele><time>2026-05-04T16:14:40.391Z</time></trkpt><trkpt lat="46.1236469" lon="12.2552299"><ele>480.0</ele><time>2026-05-04T16:14:42.39Z</time></trkpt><trkpt lat="46.1235338" lon="12.2552177"><ele>480.0</ele><time>2026-05-04T16:14:44.395Z</time></trkpt><trkpt lat="46.1234125" lon="12.2552333"><ele>480.0</ele><time>2026-05-04T16:14:46.387Z</time></trkpt><trkpt lat="46.123357" lon="12.2552824"><ele>480.0</ele><time>2026-05-04T16:14:47.388Z</time></trkpt><trkpt lat="46.1232675" lon="12.2553937"><ele>480.0</ele><time>2026-05-04T16:14:49.388Z</time></trkpt><trkpt lat="46.1231884" lon="12.2554765"><ele>480.0</ele><time>2026-05-04T16:14:51.388Z</time></trkpt><trkpt lat="46.1231282" lon="12.2555562"><ele>481.6666666666667</ele><time>2026-05-04T16:14:53.387Z</time></trkpt><trkpt lat="46.1230767" lon="12.255635"><ele>483.33333333333337</ele><time>2026-05-04T16:14:55.389Z</time></trkpt><trkpt lat="46.1230281" lon="12.2557218"><ele>485.0</ele><time>2026-05-04T16:14:57.401Z</time></trkpt><trkpt lat="46.1229833" lon="12.2558169"><ele>486.6666666666667</ele><time>2026-05-04T16:14:59.402Z</time></trkpt><trkpt lat="46.1229485" lon="12.25591"><ele>488.33333333333337</ele><time>2026-05-04T16:15:01.393Z</time></trkpt><trkpt lat="46.1228939" lon="12.2560214"><ele>490.0</ele><time>2026-05-04T16:15:04.388Z</time></trkpt><trkpt lat="46.1228267" lon="12.2560493"><ele>490.00000000000006</ele><time>2026-05-04T16:15:06.387Z</time></trkpt><trkpt lat="46.1227558" lon="12.2560044"><ele>490.0</ele><time>2026-05-04T16:15:08.394Z</time></trkpt><trkpt lat="46.1226943" lon="12.2559347"><ele>490.0</ele><time>2026-05-04T16:15:10.393Z</time></trkpt><trkpt lat="46.122644" lon="12.2558431"><ele>490.0</ele><time>2026-05-04T16:15:12.389Z</time></trkpt><trkpt lat="46.1226016" lon="12.2557485"><ele>490.00000000000006</ele><time>2026-05-04T16:15:14.395Z</time></trkpt><trkpt lat="46.1225664" lon="12.255669"><ele>490.0</ele><time>2026-05-04T16:15:16.393Z</time></trkpt><trkpt lat="46.1225176" lon="12.2555859"><ele>488.8571428571429</ele><time>2026-05-04T16:15:18.387Z</time></trkpt><trkpt lat="46.1224507" lon="12.2555169"><ele>487.7142857142857</ele><time>2026-05-04T16:15:20.394Z</time></trkpt><trkpt lat="46.122384" lon="12.2554714"><ele>486.57142857142856</ele><time>2026-05-04T16:15:22.395Z</time></trkpt><trkpt lat="46.1223123" lon="12.2554438"><ele>485.42857142857144</ele><time>2026-05-04T16:15:24.395Z</time></trkpt><trkpt lat="46.1222447" lon="12.2554245"><ele>484.28571428571433</ele><time>2026-05-04T16:15:26.389Z</time></trkpt><trkpt lat="46.1221725" lon="12.2554042"><ele>483.14285714285717</ele><time>2026-05-04T16:15:28.397Z</time></trkpt><trkpt lat="46.1221043" lon="12.2553879"><ele>482.0</ele><time>2026-05-04T16:15:30.391Z</time></trkpt><trkpt lat="46.1220398" lon="12.2553884"><ele>481.49999999999994</ele><time>2026-05-04T16:15:32.395Z</time></trkpt><trkpt lat="46.1219641" lon="12.2554441"><ele>481.0</ele><time>2026-05-04T16:15:35.393Z</time></trkpt><trkpt lat="46.1219076" lon="12.2555146"><ele>480.5</ele><time>2026-05-04T16:15:38.396Z</time></trkpt><trkpt lat="46.1218598" lon="12.2555824"><ele>480.0</ele><time>2026-05-04T16:15:41.394Z</time></trkpt><trkpt lat="46.1218221" lon="12.2556867"><ele>479.49999999999994</ele><time>2026-05-04T16:15:45.387Z</time></trkpt><trkpt lat="46.1218465" lon="12.2557896"><ele>479.0</ele><time>2026-05-04T16:15:48.384Z</time></trkpt><trkpt lat="46.1218839" lon="12.2558874"><ele>481.42857142857144</ele><time>2026-05-04T16:15:51.384Z</time></trkpt><trkpt lat="46.1218952" lon="12.2559904"><ele>483.8571428571429</ele><time>2026-05-04T16:15:54.395Z</time></trkpt><trkpt lat="46.1219198" lon="12.2560887"><ele>486.28571428571433</ele><time>2026-05-04T16:15:57.396Z</time></trkpt><trkpt lat="46.1219434" lon="12.256186"><ele>488.7142857142857</ele><time>2026-05-04T16:16:00.394Z</time></trkpt><trkpt lat="46.1219532" lon="12.2562829"><ele>491.1428571428572</ele><time>2026-05-04T16:16:03.385Z</time></trkpt><trkpt lat="46.1219562" lon="12.2563768"><ele>493.5714285714286</ele><time>2026-05-04T16:16:06.383Z</time></trkpt><trkpt lat="46.1219402" lon="12.2564832"><ele>496.0</ele><time>2026-05-04T16:16:10.384Z</time></trkpt><trkpt lat="46.1218875" lon="12.2565696"><ele>495.00000000000006</ele><time>2026-05-04T16:16:14.387Z</time></trkpt><trkpt lat="46.1218421" lon="12.2566336"><ele>494.0</ele><time>2026-05-04T16:16:17.387Z</time></trkpt><trkpt lat="46.1217772" lon="12.2567081"><ele>493.0</ele><time>2026-05-04T16:16:21.388Z</time></trkpt><trkpt lat="46.1217165" lon="12.2567857"><ele>492.0</ele><time>2026-05-04T16:16:24.386Z</time></trkpt><trkpt lat="46.1216613" lon="12.2568697"><ele>491.00000000000006</ele><time>2026-05-04T16:16:27.392Z</time></trkpt><trkpt lat="46.1216045" lon="12.2569485"><ele>490.0</ele><time>2026-05-04T16:16:31.394Z</time></trkpt><trkpt lat="46.1215579" lon="12.2570109"><ele>490.0</ele><time>2026-05-04T16:16:34.388Z</time></trkpt><trkpt lat="46.1215181" lon="12.2570827"><ele>490.0</ele><time>2026-05-04T16:16:37.383Z</time></trkpt><trkpt lat="46.1215036" lon="12.2571734"><ele>490.0</ele><time>2026-05-04T16:16:40.384Z</time></trkpt><trkpt lat="46.1215139" lon="12.2572633"><ele>490.0</ele><time>2026-05-04T16:16:43.385Z</time></trkpt><trkpt lat="46.1215367" lon="12.2573502"><ele>490.0</ele><time>2026-05-04T16:16:46.384Z</time></trkpt><trkpt lat="46.1215597" lon="12.2574418"><ele>490.0</ele><time>2026-05-04T16:16:49.391Z</time></trkpt><trkpt lat="46.1215875" lon="12.257526"><ele>490.0</ele><time>2026-05-04T16:16:52.394Z</time></trkpt><trkpt lat="46.1215992" lon="12.2576226"><ele>492.57142857142856</ele><time>2026-05-04T16:16:55.398Z</time></trkpt><trkpt lat="46.1216061" lon="12.2577235"><ele>495.1428571428571</ele><time>2026-05-04T16:16:58.389Z</time></trkpt><trkpt lat="46.1215996" lon="12.2578337"><ele>497.7142857142857</ele><time>2026-05-04T16:17:01.392Z</time></trkpt><trkpt lat="46.1216017" lon="12.2579358"><ele>500.2857142857143</ele><time>2026-05-04T16:17:04.396Z</time></trkpt><trkpt lat="46.1216229" lon="12.2580455"><ele>502.85714285714283</ele><time>2026-05-04T16:17:07.388Z</time></trkpt><trkpt lat="46.1216585" lon="12.2581353"><ele>505.42857142857144</ele><time>2026-05-04T16:17:10.395Z</time></trkpt><trkpt lat="46.1217002" lon="12.2582108"><ele>508.0</ele><time>2026-05-04T16:17:13.396Z</time></trkpt><trkpt lat="46.1217425" lon="12.2582857"><ele>510.00000000000006</ele><time>2026-05-04T16:17:16.399Z</time></trkpt><trkpt lat="46.1217931" lon="12.2583757"><ele>512.0</ele><time>2026-05-04T16:17:20.396Z</time></trkpt><trkpt lat="46.1218341" lon="12.2584767"><ele>514.0</ele><time>2026-05-04T16:17:24.394Z</time></trkpt><trkpt lat="46.1218791" lon="12.2585676"><ele>516.0</ele><time>2026-05-04T16:17:28.395Z</time></trkpt><trkpt lat="46.1219162" lon="12.2586627"><ele>518.0</ele><time>2026-05-04T16:17:32.391Z</time></trkpt><trkpt lat="46.1219701" lon="12.2587355"><ele>520.0</ele><time>2026-05-04T16:17:35.396Z</time></trkpt><trkpt lat="46.1220065" lon="12.2588371"><ele>520.0000000000001</ele><time>2026-05-04T16:17:39.387Z</time></trkpt><trkpt lat="46.1220248" lon="12.2589441"><ele>520.0</ele><time>2026-05-04T16:17:43.393Z</time></trkpt><trkpt lat="46.122049" lon="12.2590545"><ele>520.0</ele><time>2026-05-04T16:17:47.394Z</time></trkpt><trkpt lat="46.1220704" lon="12.2591545"><ele>520.0</ele><time>2026-05-04T16:17:51.388Z</time></trkpt><trkpt lat="46.122076" lon="12.2592706"><ele>520.0</ele><time>2026-05-04T16:17:55.385Z</time></trkpt><trkpt lat="46.122059" lon="12.259359"><ele>520.0000000000001</ele><time>2026-05-04T16:17:58.392Z</time></trkpt><trkpt lat="46.122023" lon="12.2594526"><ele>520.0</ele><time>2026-05-04T16:18:02.389Z</time></trkpt><trkpt lat="46.1219614" lon="12.2595194"><ele>523.0</ele><time>2026-05-04T16:18:06.389Z</time></trkpt><trkpt lat="46.1218931" lon="12.2595736"><ele>526.0</ele><time>2026-05-04T16:18:10.388Z</time></trkpt><trkpt lat="46.1218341" lon="12.2596498"><ele>529.0</ele><time>2026-05-04T16:18:14.389Z</time></trkpt><trkpt lat="46.1217764" lon="12.2597276"><ele>532.0</ele><time>2026-05-04T16:18:18.391Z</time></trkpt><trkpt lat="46.1217294" lon="12.2598163"><ele>535.0</ele><time>2026-05-04T16:18:22.393Z</time></trkpt><trkpt lat="46.1216878" lon="12.2598855"><ele>538.0</ele><time>2026-05-04T16:18:25.393Z</time></trkpt><trkpt lat="46.121633" lon="12.2599736"><ele>539.8571428571429</ele><time>2026-05-04T16:18:29.389Z</time></trkpt><trkpt lat="46.1215887" lon="12.2600426"><ele>541.7142857142858</ele><time>2026-05-04T16:18:32.389Z</time></trkpt><trkpt lat="46.1215301" lon="12.2601261"><ele>543.5714285714286</ele><time>2026-05-04T16:18:36.39Z</time></trkpt><trkpt lat="46.1214698" lon="12.2602077"><ele>545.4285714285714</ele><time>2026-05-04T16:18:40.383Z</time></trkpt><trkpt lat="46.1214123" lon="12.2602849"><ele>547.2857142857142</ele><time>2026-05-04T16:18:44.394Z</time></trkpt><trkpt lat="46.1213608" lon="12.2603479"><ele>549.1428571428571</ele><time>2026-05-04T16:18:48.386Z</time></trkpt><trkpt lat="46.1213187" lon="12.2604221"><ele>551.0</ele><time>2026-05-04T16:18:52.395Z</time></trkpt><trkpt lat="46.1212741" lon="12.2605005"><ele>550.9999999999999</ele><time>2026-05-04T16:18:56.392Z</time></trkpt><trkpt lat="46.1212326" lon="12.2605799"><ele>551.0</ele><time>2026-05-04T16:19:00.388Z</time></trkpt><trkpt lat="46.1211837" lon="12.2606587"><ele>551.0</ele><time>2026-05-04T16:19:04.385Z</time></trkpt><trkpt lat="46.1211294" lon="12.2607229"><ele>551.0</ele><time>2026-05-04T16:19:08.386Z</time></trkpt><trkpt lat="46.1210722" lon="12.2607828"><ele>551.0</ele><time>2026-05-04T16:19:12.389Z</time></trkpt><trkpt lat="46.1210116" lon="12.2608434"><ele>550.9999999999999</ele><time>2026-05-04T16:19:16.391Z</time></trkpt><trkpt lat="46.1209532" lon="12.2608979"><ele>551.0</ele><time>2026-05-04T16:19:20.387Z</time></trkpt><trkpt lat="46.1208959" lon="12.260967"><ele>553.1428571428571</ele><time>2026-05-04T16:19:24.386Z</time></trkpt><trkpt lat="46.1208391" lon="12.2610126"><ele>555.2857142857142</ele><time>2026-05-04T16:19:28.385Z</time></trkpt><trkpt lat="46.120783" lon="12.2610698"><ele>557.4285714285714</ele><time>2026-05-04T16:19:32.399Z</time></trkpt><trkpt lat="46.1207294" lon="12.2611282"><ele>559.5714285714286</ele><time>2026-05-04T16:19:36.395Z</time></trkpt><trkpt lat="46.1206734" lon="12.2611728"><ele>561.7142857142858</ele><time>2026-05-04T16:19:40.404Z</time></trkpt><trkpt lat="46.1206034" lon="12.2612253"><ele>563.8571428571429</ele><time>2026-05-04T16:19:46.389Z</time></trkpt><trkpt lat="46.1205379" lon="12.2612881"><ele>566.0</ele><time>2026-05-04T16:19:51.392Z</time></trkpt><trkpt lat="46.120481" lon="12.261348"><ele>566.0</ele><time>2026-05-04T16:19:56.403Z</time></trkpt><trkpt lat="46.1204152" lon="12.2614113"><ele>566.0</ele><time>2026-05-04T16:20:01.393Z</time></trkpt><trkpt lat="46.1203534" lon="12.2614762"><ele>566.0</ele><time>2026-05-04T16:20:06.4Z</time></trkpt><trkpt lat="46.1203058" lon="12.2615451"><ele>566.0</ele><time>2026-05-04T16:20:11.394Z</time></trkpt><trkpt lat="46.120244" lon="12.2616101"><ele>566.0</ele><time>2026-05-04T16:20:17.39Z</time></trkpt><trkpt lat="46.120182" lon="12.2616521"><ele>566.0</ele><time>2026-05-04T16:20:22.395Z</time></trkpt><trkpt lat="46.1201285" lon="12.2617017"><ele>566.0</ele><time>2026-05-04T16:20:27.393Z</time></trkpt><trkpt lat="46.1200713" lon="12.2617685"><ele>564.5714285714286</ele><time>2026-05-04T16:20:33.394Z</time></trkpt><trkpt lat="46.1200055" lon="12.2618143"><ele>563.1428571428572</ele><time>2026-05-04T16:20:38.4Z</time></trkpt><trkpt lat="46.1199421" lon="12.2618676"><ele>561.7142857142858</ele><time>2026-05-04T16:20:43.388Z</time></trkpt><trkpt lat="46.119905" lon="12.2619628"><ele>560.2857142857143</ele><time>2026-05-04T16:20:49.394Z</time></trkpt><trkpt lat="46.1198825" lon="12.2620518"><ele>558.8571428571429</ele><time>2026-05-04T16:20:54.397Z</time></trkpt><trkpt lat="46.1198576" lon="12.2621534"><ele>557.4285714285714</ele><time>2026-05-04T16:20:59.396Z</time></trkpt><trkpt lat="46.1198444" lon="12.262267"><ele>556.0</ele><time>2026-05-04T16:21:04.397Z</time></trkpt><trkpt lat="46.1198233" lon="12.2623632"><ele>559.2857142857142</ele><time>2026-05-04T16:21:07.397Z</time></trkpt><trkpt lat="46.1198095" lon="12.2624585"><ele>562.5714285714286</ele><time>2026-05-04T16:21:10.392Z</time></trkpt><trkpt lat="46.1197886" lon="12.2625622"><ele>565.8571428571429</ele><time>2026-05-04T16:21:14.397Z</time></trkpt><trkpt lat="46.1197752" lon="12.2626749"><ele>569.1428571428571</ele><time>2026-05-04T16:21:18.391Z</time></trkpt><trkpt lat="46.1197531" lon="12.2627701"><ele>572.4285714285714</ele><time>2026-05-04T16:21:21.401Z</time></trkpt><trkpt lat="46.1197369" lon="12.2628639"><ele>575.7142857142857</ele><time>2026-05-04T16:21:24.4Z</time></trkpt><trkpt lat="46.119703" lon="12.262958"><ele>579.0</ele><time>2026-05-04T16:21:27.398Z</time></trkpt><trkpt lat="46.1196671" lon="12.2630504"><ele>584.8333333333334</ele><time>2026-05-04T16:21:30.39Z</time></trkpt><trkpt lat="46.119646" lon="12.2631463"><ele>590.6666666666666</ele><time>2026-05-04T16:21:33.396Z</time></trkpt><trkpt lat="46.1195781" lon="12.263196"><ele>596.5</ele><time>2026-05-04T16:22:10.394Z</time></trkpt><trkpt lat="46.1195533" lon="12.2632855"><ele>602.3333333333333</ele><time>2026-05-04T16:22:13.397Z</time></trkpt><trkpt lat="46.1195259" lon="12.263389"><ele>608.1666666666666</ele><time>2026-05-04T16:22:17.395Z</time></trkpt><trkpt lat="46.1194977" lon="12.2634705"><ele>614.0</ele><time>2026-05-04T16:22:20.399Z</time></trkpt><trkpt lat="46.1194086" lon="12.263647"><ele>613.9999999999999</ele><time>2026-05-04T16:22:56.393Z</time></trkpt><trkpt lat="46.1193461" lon="12.2637015"><ele>614.0</ele><time>2026-05-04T16:23:02.396Z</time></trkpt><trkpt lat="46.1192663" lon="12.2637601"><ele>614.0</ele><time>2026-05-04T16:23:06.395Z</time></trkpt><trkpt lat="46.1192017" lon="12.2637979"><ele>614.0</ele><time>2026-05-04T16:23:09.392Z</time></trkpt><trkpt lat="46.1191419" lon="12.2638466"><ele>614.0</ele><time>2026-05-04T16:23:12.39Z</time></trkpt><trkpt lat="46.1190842" lon="12.2638897"><ele>613.9999999999999</ele><time>2026-05-04T16:23:15.4Z</time></trkpt><trkpt lat="46.1190228" lon="12.263923"><ele>614.0</ele><time>2026-05-04T16:23:18.397Z</time></trkpt><trkpt lat="46.1189615" lon="12.2639577"><ele>618.8</ele><time>2026-05-04T16:23:21.399Z</time></trkpt><trkpt lat="46.1188979" lon="12.2639895"><ele>623.5999999999999</ele><time>2026-05-04T16:23:24.397Z</time></trkpt><trkpt lat="46.1188266" lon="12.2640028"><ele>628.4</ele><time>2026-05-04T16:23:28.394Z</time></trkpt><trkpt lat="46.1187599" lon="12.2641008"><ele>633.1999999999999</ele><time>2026-05-04T16:24:05.392Z</time></trkpt><trkpt lat="46.1186257" lon="12.2642492"><ele>638.0</ele><time>2026-05-04T16:24:29.394Z</time></trkpt><trkpt lat="46.1185635" lon="12.2642907"><ele>638.0</ele><time>2026-05-04T16:24:49.392Z</time></trkpt><trkpt lat="46.1185059" lon="12.2643545"><ele>638.0</ele><time>2026-05-04T16:24:54.392Z</time></trkpt><trkpt lat="46.117686" lon="12.2653924"><ele>639.1428571428572</ele><time>2026-05-04T16:26:01.389Z</time></trkpt><trkpt lat="46.1176286" lon="12.265457"><ele>640.2857142857142</ele><time>2026-05-04T16:26:05.394Z</time></trkpt><trkpt lat="46.1175781" lon="12.2655228"><ele>641.4285714285714</ele><time>2026-05-04T16:26:09.384Z</time></trkpt><trkpt lat="46.1175397" lon="12.2656126"><ele>642.5714285714287</ele><time>2026-05-04T16:26:14.385Z</time></trkpt><trkpt lat="46.117493" lon="12.2656816"><ele>643.7142857142858</ele><time>2026-05-04T16:26:18.394Z</time></trkpt><trkpt lat="46.1174526" lon="12.2657671"><ele>644.8571428571429</ele><time>2026-05-04T16:26:22.387Z</time></trkpt><trkpt lat="46.1174052" lon="12.2658588"><ele>646.0</ele><time>2026-05-04T16:26:26.391Z</time></trkpt><trkpt lat="46.1173632" lon="12.2659436"><ele>646.0</ele><time>2026-05-04T16:26:30.389Z</time></trkpt><trkpt lat="46.1173131" lon="12.2660342"><ele>646.0</ele><time>2026-05-04T16:26:34.39Z</time></trkpt><trkpt lat="46.1172648" lon="12.2661184"><ele>646.0</ele><time>2026-05-04T16:26:38.386Z</time></trkpt><trkpt lat="46.1172243" lon="12.2662114"><ele>646.0</ele><time>2026-05-04T16:26:42.394Z</time></trkpt><trkpt lat="46.1171828" lon="12.2663119"><ele>646.0</ele><time>2026-05-04T16:26:46.386Z</time></trkpt><trkpt lat="46.1171379" lon="12.2664179"><ele>646.0</ele><time>2026-05-04T16:26:50.389Z</time></trkpt><trkpt lat="46.1171193" lon="12.2665256"><ele>649.7142857142858</ele><time>2026-05-04T16:26:54.387Z</time></trkpt><trkpt lat="46.1170992" lon="12.2666302"><ele>653.4285714285714</ele><time>2026-05-04T16:26:59.386Z</time></trkpt><trkpt lat="46.1170725" lon="12.2667232"><ele>657.1428571428571</ele><time>2026-05-04T16:27:04.392Z</time></trkpt><trkpt lat="46.1170328" lon="12.2668242"><ele>660.8571428571429</ele><time>2026-05-04T16:27:09.392Z</time></trkpt><trkpt lat="46.1169743" lon="12.2669006"><ele>664.5714285714286</ele><time>2026-05-04T16:27:13.392Z</time></trkpt><trkpt lat="46.1169214" lon="12.2669561"><ele>668.2857142857143</ele><time>2026-05-04T16:27:16.39Z</time></trkpt><trkpt lat="46.1168736" lon="12.2670236"><ele>672.0</ele><time>2026-05-04T16:27:19.394Z</time></trkpt><trkpt lat="46.1168384" lon="12.2671175"><ele>672.0</ele><time>2026-05-04T16:27:23.393Z</time></trkpt><trkpt lat="46.1168362" lon="12.2672197"><ele>672.0</ele><time>2026-05-04T16:27:27.394Z</time></trkpt><trkpt lat="46.1167821" lon="12.2672853"><ele>672.0</ele><time>2026-05-04T16:27:31.385Z</time></trkpt><trkpt lat="46.1167263" lon="12.267365"><ele>672.0</ele><time>2026-05-04T16:27:35.389Z</time></trkpt><trkpt lat="46.1166706" lon="12.2674454"><ele>672.0</ele><time>2026-05-04T16:27:39.392Z</time></trkpt><trkpt lat="46.1166226" lon="12.2675328"><ele>672.0</ele><time>2026-05-04T16:27:43.394Z</time></trkpt><trkpt lat="46.1165815" lon="12.2676173"><ele>672.0</ele><time>2026-05-04T16:27:47.391Z</time></trkpt><trkpt lat="46.1165162" lon="12.2676806"><ele>673.1666666666666</ele><time>2026-05-04T16:27:51.398Z</time></trkpt><trkpt lat="46.1164595" lon="12.2677376"><ele>674.3333333333334</ele><time>2026-05-04T16:27:54.393Z</time></trkpt><trkpt lat="46.1164183" lon="12.2678095"><ele>675.5</ele><time>2026-05-04T16:27:57.393Z</time></trkpt><trkpt lat="46.1163881" lon="12.2678906"><ele>676.6666666666667</ele><time>2026-05-04T16:28:00.393Z</time></trkpt><trkpt lat="46.116335" lon="12.2679768"><ele>677.8333333333334</ele><time>2026-05-04T16:28:03.396Z</time></trkpt><trkpt lat="46.1162826" lon="12.2680743"><ele>679.0</ele><time>2026-05-04T16:28:06.386Z</time></trkpt><trkpt lat="46.1162292" lon="12.2681728"><ele>685.6666666666667</ele><time>2026-05-04T16:28:09.386Z</time></trkpt><trkpt lat="46.1161754" lon="12.2682569"><ele>692.3333333333334</ele><time>2026-05-04T16:28:12.389Z</time></trkpt><trkpt lat="46.116124" lon="12.2683474"><ele>699.0</ele><time>2026-05-04T16:28:15.392Z</time></trkpt><trkpt lat="46.1160836" lon="12.2684481"><ele>705.6666666666666</ele><time>2026-05-04T16:28:18.394Z</time></trkpt><trkpt lat="46.1160467" lon="12.2685525"><ele>712.3333333333333</ele><time>2026-05-04T16:28:22.392Z</time></trkpt><trkpt lat="46.1160077" lon="12.2686698"><ele>719.0</ele><time>2026-05-04T16:28:25.394Z</time></trkpt><trkpt lat="46.1159389" lon="12.2687591"><ele>719.0</ele><time>2026-05-04T16:28:28.389Z</time></trkpt><trkpt lat="46.1158666" lon="12.2688196"><ele>719.0</ele><time>2026-05-04T16:28:31.393Z</time></trkpt><trkpt lat="46.1157877" lon="12.2688658"><ele>719.0</ele><time>2026-05-04T16:28:34.385Z</time></trkpt><trkpt lat="46.1157229" lon="12.268946"><ele>719.0</ele><time>2026-05-04T16:28:37.385Z</time></trkpt><trkpt lat="46.1156605" lon="12.2690122"><ele>719.0</ele><time>2026-05-04T16:28:41.387Z</time></trkpt><trkpt lat="46.1155979" lon="12.2690286"><ele>719.0</ele><time>2026-05-04T16:28:45.385Z</time></trkpt><trkpt lat="46.1155335" lon="12.2690294"><ele>719.6666666666666</ele><time>2026-05-04T16:28:49.385Z</time></trkpt><trkpt lat="46.1154763" lon="12.2690694"><ele>720.3333333333333</ele><time>2026-05-04T16:28:53.386Z</time></trkpt><trkpt lat="46.1154136" lon="12.2691381"><ele>721.0</ele><time>2026-05-04T16:28:57.39Z</time></trkpt><trkpt lat="46.1153639" lon="12.2692277"><ele>721.6666666666666</ele><time>2026-05-04T16:29:01.389Z</time></trkpt><trkpt lat="46.1153344" lon="12.2693306"><ele>722.3333333333334</ele><time>2026-05-04T16:29:06.386Z</time></trkpt><trkpt lat="46.1153195" lon="12.2694399"><ele>723.0</ele><time>2026-05-04T16:29:10.393Z</time></trkpt><trkpt lat="46.1153007" lon="12.269547"><ele>723.0000000000001</ele><time>2026-05-04T16:29:14.39Z</time></trkpt><trkpt lat="46.1152658" lon="12.2696289"><ele>723.0</ele><time>2026-05-04T16:29:18.386Z</time></trkpt><trkpt lat="46.1152096" lon="12.2697145"><ele>723.0</ele><time>2026-05-04T16:29:32.403Z</time></trkpt><trkpt lat="46.1151632" lon="12.2697829"><ele>723.0</ele><time>2026-05-04T16:29:37.396Z</time></trkpt><trkpt lat="46.1151135" lon="12.2698684"><ele>723.0</ele><time>2026-05-04T16:29:42.39Z</time></trkpt><trkpt lat="46.1150568" lon="12.2699466"><ele>723.0000000000001</ele><time>2026-05-04T16:29:47.399Z</time></trkpt><trkpt lat="46.115001" lon="12.2700152"><ele>723.0</ele><time>2026-05-04T16:29:52.389Z</time></trkpt><trkpt lat="46.1149269" lon="12.270068"><ele>722.4285714285714</ele><time>2026-05-04T16:30:26.387Z</time></trkpt><trkpt lat="46.1148651" lon="12.2701166"><ele>721.8571428571429</ele><time>2026-05-04T16:30:30.392Z</time></trkpt><trkpt lat="46.1148035" lon="12.2702127"><ele>721.2857142857142</ele><time>2026-05-04T16:31:32.385Z</time></trkpt><trkpt lat="46.114772" lon="12.2702931"><ele>720.7142857142858</ele><time>2026-05-04T16:31:43.391Z</time></trkpt><trkpt lat="46.1147735" lon="12.2704067"><ele>720.1428571428571</ele><time>2026-05-04T16:31:54.386Z</time></trkpt><trkpt lat="46.1147714" lon="12.2705016"><ele>719.5714285714286</ele><time>2026-05-04T16:31:57.385Z</time></trkpt><trkpt lat="46.1147701" lon="12.270596"><ele>719.0</ele><time>2026-05-04T16:32:00.386Z</time></trkpt><trkpt lat="46.1147911" lon="12.2706977"><ele>721.6666666666666</ele><time>2026-05-04T16:32:03.384Z</time></trkpt><trkpt lat="46.1148198" lon="12.2708345"><ele>724.3333333333333</ele><time>2026-05-04T16:32:06.388Z</time></trkpt><trkpt lat="46.1148533" lon="12.2709562"><ele>727.0</ele><time>2026-05-04T16:32:08.384Z</time></trkpt><trkpt lat="46.1148952" lon="12.2710277"><ele>729.6666666666666</ele><time>2026-05-04T16:32:10.382Z</time></trkpt><trkpt lat="46.1149122" lon="12.2711157"><ele>732.3333333333334</ele><time>2026-05-04T16:32:12.387Z</time></trkpt><trkpt lat="46.1149118" lon="12.2712281"><ele>735.0</ele><time>2026-05-04T16:32:35.393Z</time></trkpt><trkpt lat="46.1149416" lon="12.2713093"><ele>740.8571428571429</ele><time>2026-05-04T16:32:43.387Z</time></trkpt><trkpt lat="46.1149584" lon="12.2714015"><ele>746.7142857142858</ele><time>2026-05-04T16:32:54.386Z</time></trkpt><trkpt lat="46.1149795" lon="12.2714938"><ele>752.5714285714286</ele><time>2026-05-04T16:33:03.388Z</time></trkpt><trkpt lat="46.1149915" lon="12.2716053"><ele>758.4285714285714</ele><time>2026-05-04T16:33:17.385Z</time></trkpt><trkpt lat="46.1150094" lon="12.2717006"><ele>764.2857142857143</ele><time>2026-05-04T16:33:33.386Z</time></trkpt><trkpt lat="46.1150674" lon="12.2717756"><ele>770.1428571428571</ele><time>2026-05-04T16:33:37.387Z</time></trkpt><trkpt lat="46.1151134" lon="12.2718764"><ele>776.0</ele><time>2026-05-04T16:33:41.389Z</time></trkpt><trkpt lat="46.1151249" lon="12.2719715"><ele>777.4285714285714</ele><time>2026-05-04T16:33:52.389Z</time></trkpt><trkpt lat="46.1151514" lon="12.2720614"><ele>778.8571428571429</ele><time>2026-05-04T16:34:02.39Z</time></trkpt><trkpt lat="46.115194" lon="12.2721319"><ele>780.2857142857143</ele><time>2026-05-04T16:34:09.389Z</time></trkpt><trkpt lat="46.1151943" lon="12.2722278"><ele>781.7142857142858</ele><time>2026-05-04T16:34:19.386Z</time></trkpt><trkpt lat="46.1152191" lon="12.2723332"><ele>783.1428571428571</ele><time>2026-05-04T16:34:30.387Z</time></trkpt><trkpt lat="46.1152611" lon="12.2724339"><ele>784.5714285714287</ele><time>2026-05-04T16:34:34.389Z</time></trkpt><trkpt lat="46.1152682" lon="12.2725432"><ele>786.0</ele><time>2026-05-04T16:34:37.39Z</time></trkpt><trkpt lat="46.1152612" lon="12.2726442"><ele>788.1428571428572</ele><time>2026-05-04T16:34:40.388Z</time></trkpt><trkpt lat="46.1152537" lon="12.272751"><ele>790.2857142857143</ele><time>2026-05-04T16:34:43.388Z</time></trkpt><trkpt lat="46.1152401" lon="12.2728576"><ele>792.4285714285714</ele><time>2026-05-04T16:34:46.387Z</time></trkpt><trkpt lat="46.1152417" lon="12.2729498"><ele>794.5714285714287</ele><time>2026-05-04T16:34:49.387Z</time></trkpt><trkpt lat="46.11524" lon="12.273075"><ele>796.7142857142857</ele><time>2026-05-04T16:34:53.386Z</time></trkpt><trkpt lat="46.1152554" lon="12.2731743"><ele>798.8571428571429</ele><time>2026-05-04T16:34:56.388Z</time></trkpt><trkpt lat="46.1152786" lon="12.2732639"><ele>801.0</ele><time>2026-05-04T16:34:59.385Z</time></trkpt><trkpt lat="46.1153011" lon="12.2733592"><ele>803.1666666666666</ele><time>2026-05-04T16:35:03.389Z</time></trkpt><trkpt lat="46.1153266" lon="12.2734621"><ele>805.3333333333333</ele><time>2026-05-04T16:35:08.391Z</time></trkpt><trkpt lat="46.1153438" lon="12.2735939"><ele>807.5</ele><time>2026-05-04T16:35:11.387Z</time></trkpt><trkpt lat="46.115376" lon="12.273685"><ele>809.6666666666666</ele><time>2026-05-04T16:35:14.391Z</time></trkpt><trkpt lat="46.1153955" lon="12.273783"><ele>811.8333333333333</ele><time>2026-05-04T16:35:17.39Z</time></trkpt><trkpt lat="46.1154057" lon="12.2738738"><ele>814.0</ele><time>2026-05-04T16:35:47.385Z</time></trkpt><trkpt lat="46.1154043" lon="12.2739905"><ele>814.0000000000001</ele><time>2026-05-04T16:35:56.389Z</time></trkpt><trkpt lat="46.1153846" lon="12.2741123"><ele>814.0</ele><time>2026-05-04T16:35:59.386Z</time></trkpt><trkpt lat="46.1153578" lon="12.2742102"><ele>814.0</ele><time>2026-05-04T16:36:02.382Z</time></trkpt><trkpt lat="46.115375" lon="12.2741136"><ele>814.0</ele><time>2026-05-04T16:36:34.384Z</time></trkpt><trkpt lat="46.1153161" lon="12.2740716"><ele>814.0</ele><time>2026-05-04T16:36:50.391Z</time></trkpt><trkpt lat="46.115266" lon="12.2739858"><ele>814.0000000000001</ele><time>2026-05-04T16:37:48.384Z</time></trkpt><trkpt lat="46.1152124" lon="12.2739289"><ele>814.0</ele><time>2026-05-04T16:38:04.38Z</time></trkpt><trkpt lat="46.115158" lon="12.2738762"><ele>814.0000000000001</ele><time>2026-05-04T16:38:17.385Z</time></trkpt><trkpt lat="46.1151009" lon="12.2738287"><ele>814.0</ele><time>2026-05-04T16:38:29.382Z</time></trkpt><trkpt lat="46.1150455" lon="12.2737698"><ele>814.0</ele><time>2026-05-04T16:38:43.381Z</time></trkpt><trkpt lat="46.1149964" lon="12.273702"><ele>814.0</ele><time>2026-05-04T16:39:16.383Z</time></trkpt><trkpt lat="46.1149392" lon="12.2736538"><ele>814.0</ele><time>2026-05-04T16:39:25.384Z</time></trkpt><trkpt lat="46.1148919" lon="12.2735938"><ele>814.0000000000001</ele><time>2026-05-04T16:39:36.392Z</time></trkpt><trkpt lat="46.1148638" lon="12.2734557"><ele>814.0</ele><time>2026-05-04T16:40:08.388Z</time></trkpt><trkpt lat="46.1148276" lon="12.2733776"><ele>814.0000000000001</ele><time>2026-05-04T16:40:23.39Z</time></trkpt><trkpt lat="46.114785" lon="12.2732901"><ele>814.0</ele><time>2026-05-04T16:40:36.391Z</time></trkpt><trkpt lat="46.1147427" lon="12.2732176"><ele>814.0</ele><time>2026-05-04T16:40:52.383Z</time></trkpt><trkpt lat="46.114783" lon="12.2732883"><ele>814.0</ele><time>2026-05-04T16:42:33.387Z</time></trkpt><trkpt lat="46.1148014" lon="12.2733889"><ele>814.0</ele><time>2026-05-04T16:42:50.385Z</time></trkpt><trkpt lat="46.1148364" lon="12.2734752"><ele>814.0000000000001</ele><time>2026-05-04T16:43:16.383Z</time></trkpt><trkpt lat="46.1148738" lon="12.2735513"><ele>814.0</ele><time>2026-05-04T16:43:42.393Z</time></trkpt><trkpt lat="46.1149204" lon="12.2736137"><ele>814.0000000000001</ele><time>2026-05-04T16:44:00.392Z</time></trkpt><trkpt lat="46.1149822" lon="12.2736382"><ele>814.0</ele><time>2026-05-04T16:44:10.386Z</time></trkpt><trkpt lat="46.1150289" lon="12.2737025"><ele>814.0</ele><time>2026-05-04T16:44:19.413Z</time></trkpt><trkpt lat="46.1150778" lon="12.2737637"><ele>814.0</ele><time>2026-05-04T16:44:33.414Z</time></trkpt><trkpt lat="46.1151243" lon="12.2738292"><ele>814.0</ele><time>2026-05-04T16:44:41.421Z</time></trkpt><trkpt lat="46.1151842" lon="12.2738627"><ele>814.0000000000001</ele><time>2026-05-04T16:44:51.413Z</time></trkpt><trkpt lat="46.1152188" lon="12.2739509"><ele>814.0</ele><time>2026-05-04T16:45:06.384Z</time></trkpt><trkpt lat="46.1152693" lon="12.2740092"><ele>813.9999999999999</ele><time>2026-05-04T16:45:18.398Z</time></trkpt><trkpt lat="46.1153165" lon="12.2740831"><ele>814.0</ele><time>2026-05-04T16:45:24.382Z</time></trkpt><trkpt lat="46.1153868" lon="12.2741558"><ele>814.0</ele><time>2026-05-04T16:45:49.387Z</time></trkpt><trkpt lat="46.1154321" lon="12.2740801"><ele>814.0</ele><time>2026-05-04T16:46:16.388Z</time></trkpt><trkpt lat="46.1154446" lon="12.2739798"><ele>813.9999999999999</ele><time>2026-05-04T16:46:21.412Z</time></trkpt><trkpt lat="46.1154107" lon="12.2738576"><ele>814.0</ele><time>2026-05-04T16:47:04.414Z</time></trkpt><trkpt lat="46.1153884" lon="12.2737553"><ele>814.0000000000001</ele><time>2026-05-04T16:47:35.384Z</time></trkpt><trkpt lat="46.1153683" lon="12.2736556"><ele>814.0</ele><time>2026-05-04T16:47:40.382Z</time></trkpt><trkpt lat="46.1153662" lon="12.2735433"><ele>814.0</ele><time>2026-05-04T16:47:45.424Z</time></trkpt><trkpt lat="46.115349" lon="12.2734462"><ele>814.0</ele><time>2026-05-04T16:47:49.417Z</time></trkpt><trkpt lat="46.1153331" lon="12.2733556"><ele>814.0</ele><time>2026-05-04T16:47:53.384Z</time></trkpt><trkpt lat="46.1153052" lon="12.2732417"><ele>814.0000000000001</ele><time>2026-05-04T16:47:57.414Z</time></trkpt><trkpt lat="46.1153144" lon="12.2731393"><ele>814.0</ele><time>2026-05-04T16:48:00.414Z</time></trkpt><trkpt lat="46.1153001" lon="12.2730297"><ele>811.8333333333333</ele><time>2026-05-04T16:48:03.38Z</time></trkpt><trkpt lat="46.1152928" lon="12.2729164"><ele>809.6666666666666</ele><time>2026-05-04T16:48:08.386Z</time></trkpt><trkpt lat="46.1152855" lon="12.2728073"><ele>807.5</ele><time>2026-05-04T16:48:12.383Z</time></trkpt><trkpt lat="46.1152813" lon="12.2726947"><ele>805.3333333333333</ele><time>2026-05-04T16:48:16.382Z</time></trkpt><trkpt lat="46.1152696" lon="12.2725861"><ele>803.1666666666666</ele><time>2026-05-04T16:48:19.381Z</time></trkpt><trkpt lat="46.1152209" lon="12.2724209"><ele>801.0</ele><time>2026-05-04T16:48:21.39Z</time></trkpt><trkpt lat="46.1151995" lon="12.2723243"><ele>798.5</ele><time>2026-05-04T16:48:24.386Z</time></trkpt><trkpt lat="46.1151777" lon="12.2722357"><ele>796.0</ele><time>2026-05-04T16:48:27.398Z</time></trkpt><trkpt lat="46.1151317" lon="12.2721327"><ele>793.5</ele><time>2026-05-04T16:48:31.393Z</time></trkpt><trkpt lat="46.1150839" lon="12.2720453"><ele>791.0</ele><time>2026-05-04T16:48:34.381Z</time></trkpt><trkpt lat="46.1150475" lon="12.2719196"><ele>788.5</ele><time>2026-05-04T16:48:37.398Z</time></trkpt><trkpt lat="46.1149996" lon="12.2718217"><ele>786.0</ele><time>2026-05-04T16:48:39.384Z</time></trkpt><trkpt lat="46.1149496" lon="12.2717259"><ele>786.0</ele><time>2026-05-04T16:48:41.385Z</time></trkpt><trkpt lat="46.1149655" lon="12.2716375"><ele>786.0</ele><time>2026-05-04T16:48:45.384Z</time></trkpt><trkpt lat="46.1152928" lon="12.2729164"><ele>786.0</ele><time>2026-05-04T16:48:08.386Z</time></trkpt><trkpt lat="46.1152855" lon="12.2728073"><ele>786.0</ele><time>2026-05-04T16:48:12.383Z</time></trkpt><trkpt lat="46.1152813" lon="12.2726947"><ele>786.0</ele><time>2026-05-04T16:48:16.382Z</time></trkpt><trkpt lat="46.1152696" lon="12.2725861"><ele>786.0</ele><time>2026-05-04T16:48:19.381Z</time></trkpt><trkpt lat="46.1152209" lon="12.2724209"><ele>786.0</ele><time>2026-05-04T16:48:21.39Z</time></trkpt><trkpt lat="46.1151995" lon="12.2723243"><ele>786.0</ele><time>2026-05-04T16:48:24.386Z</time></trkpt><trkpt lat="46.1151777" lon="12.2722357"><ele>786.0</ele><time>2026-05-04T16:48:27.398Z</time></trkpt><trkpt lat="46.1151317" lon="12.2721327"><ele>786.0</ele><time>2026-05-04T16:48:31.393Z</time></trkpt><trkpt lat="46.1150839" lon="12.2720453"><ele>786.0</ele><time>2026-05-04T16:48:34.381Z</time></trkpt><trkpt lat="46.1150475" lon="12.2719196"><ele>786.0</ele><time>2026-05-04T16:48:37.398Z</time></trkpt><trkpt lat="46.1149996" lon="12.2718217"><ele>786.0</ele><time>2026-05-04T16:48:39.384Z</time></trkpt><trkpt lat="46.1149496" lon="12.2717259"><ele>786.0</ele><time>2026-05-04T16:48:41.385Z</time></trkpt><trkpt lat="46.1149655" lon="12.2716375"><ele>786.0</ele><time>2026-05-04T16:48:45.384Z</time></trkpt><trkpt lat="46.1149754" lon="12.2715463"><ele>786.0</ele><time>2026-05-04T16:48:48.386Z</time></trkpt><trkpt lat="46.1149663" lon="12.2714469"><ele>786.0</ele><time>2026-05-04T16:48:51.394Z</time></trkpt><trkpt lat="46.1149361" lon="12.2713616"><ele>786.0</ele><time>2026-05-04T16:48:54.412Z</time></trkpt><trkpt lat="46.1148435" lon="12.271248"><ele>786.0</ele><time>2026-05-04T16:49:21.385Z</time></trkpt><trkpt lat="46.1148257" lon="12.2711509"><ele>786.0</ele><time>2026-05-04T16:49:29.392Z</time></trkpt><trkpt lat="46.1147911" lon="12.2710422"><ele>777.5</ele><time>2026-05-04T16:49:32.387Z</time></trkpt><trkpt lat="46.1147601" lon="12.27095"><ele>769.0</ele><time>2026-05-04T16:49:35.389Z</time></trkpt><trkpt lat="46.1147504" lon="12.270826"><ele>760.5</ele><time>2026-05-04T16:49:39.383Z</time></trkpt><trkpt lat="46.1147473" lon="12.2707317"><ele>752.0</ele><time>2026-05-04T16:49:42.387Z</time></trkpt><trkpt lat="46.1147442" lon="12.2706178"><ele>743.5</ele><time>2026-05-04T16:49:45.39Z</time></trkpt><trkpt lat="46.1147499" lon="12.2704837"><ele>735.0</ele><time>2026-05-04T16:49:48.385Z</time></trkpt><trkpt lat="46.1147604" lon="12.2703789"><ele>732.7142857142857</ele><time>2026-05-04T16:49:51.383Z</time></trkpt><trkpt lat="46.1147944" lon="12.2702879"><ele>730.4285714285714</ele><time>2026-05-04T16:49:57.385Z</time></trkpt><trkpt lat="46.1148429" lon="12.2702016"><ele>728.1428571428571</ele><time>2026-05-04T16:50:12.388Z</time></trkpt><trkpt lat="46.1148913" lon="12.2701399"><ele>725.8571428571429</ele><time>2026-05-04T16:50:21.383Z</time></trkpt><trkpt lat="46.114954" lon="12.2700991"><ele>723.5714285714286</ele><time>2026-05-04T16:50:28.384Z</time></trkpt><trkpt lat="46.1150082" lon="12.2700227"><ele>721.2857142857142</ele><time>2026-05-04T16:50:33.385Z</time></trkpt><trkpt lat="46.1150594" lon="12.2699583"><ele>719.0</ele><time>2026-05-04T16:50:36.384Z</time></trkpt><trkpt lat="46.1151042" lon="12.2698885"><ele>719.5714285714286</ele><time>2026-05-04T16:50:38.392Z</time></trkpt><trkpt lat="46.1151599" lon="12.2698101"><ele>720.1428571428571</ele><time>2026-05-04T16:50:40.388Z</time></trkpt><trkpt lat="46.115205" lon="12.2697283"><ele>720.7142857142858</ele><time>2026-05-04T16:50:42.383Z</time></trkpt><trkpt lat="46.1151985" lon="12.2696368"><ele>721.2857142857142</ele><time>2026-05-04T16:51:04.383Z</time></trkpt><trkpt lat="46.1152586" lon="12.2696933"><ele>721.8571428571429</ele><time>2026-05-04T16:51:24.383Z</time></trkpt><trkpt lat="46.1153225" lon="12.2697211"><ele>722.4285714285714</ele><time>2026-05-04T16:51:45.381Z</time></trkpt><trkpt lat="46.1153904" lon="12.2697194"><ele>723.0</ele><time>2026-05-04T16:51:58.389Z</time></trkpt><trkpt lat="46.1154592" lon="12.2697046"><ele>723.0000000000001</ele><time>2026-05-04T16:52:10.39Z</time></trkpt><trkpt lat="46.1155253" lon="12.2697038"><ele>723.0</ele><time>2026-05-04T16:52:22.394Z</time></trkpt><trkpt lat="46.1155894" lon="12.2697145"><ele>723.0</ele><time>2026-05-04T16:52:33.399Z</time></trkpt><trkpt lat="46.1156664" lon="12.2697392"><ele>723.0</ele><time>2026-05-04T16:52:47.392Z</time></trkpt><trkpt lat="46.1157298" lon="12.2697593"><ele>723.0</ele><time>2026-05-04T16:52:58.386Z</time></trkpt><trkpt lat="46.1158029" lon="12.2697279"><ele>723.0000000000001</ele><time>2026-05-04T16:53:26.393Z</time></trkpt><trkpt lat="46.1158696" lon="12.2697253"><ele>723.0</ele><time>2026-05-04T16:53:43.386Z</time></trkpt><trkpt lat="46.1159364" lon="12.2697193"><ele>727.7142857142858</ele><time>2026-05-04T16:53:53.385Z</time></trkpt><trkpt lat="46.1160134" lon="12.2696861"><ele>732.4285714285714</ele><time>2026-05-04T16:53:58.393Z</time></trkpt><trkpt lat="46.1160798" lon="12.2696117"><ele>737.1428571428571</ele><time>2026-05-04T16:54:02.385Z</time></trkpt><trkpt lat="46.1161307" lon="12.2695524"><ele>741.8571428571429</ele><time>2026-05-04T16:54:05.39Z</time></trkpt><trkpt lat="46.116195" lon="12.2694809"><ele>746.5714285714286</ele><time>2026-05-04T16:54:09.389Z</time></trkpt><trkpt lat="46.116265" lon="12.269474"><ele>751.2857142857143</ele><time>2026-05-04T16:54:14.384Z</time></trkpt><trkpt lat="46.1163229" lon="12.2695235"><ele>756.0</ele><time>2026-05-04T16:54:28.379Z</time></trkpt><trkpt lat="46.1163135" lon="12.2696187"><ele>756.0</ele><time>2026-05-04T16:55:06.387Z</time></trkpt><trkpt lat="46.1162407" lon="12.2696811"><ele>756.0</ele><time>2026-05-04T16:55:28.389Z</time></trkpt><trkpt lat="46.1163231" lon="12.2698381"><ele>756.0</ele><time>2026-05-04T16:56:46.381Z</time></trkpt><trkpt lat="46.1163588" lon="12.2699204"><ele>756.0</ele><time>2026-05-04T16:57:01.386Z</time></trkpt><trkpt lat="46.1164073" lon="12.2699961"><ele>756.0</ele><time>2026-05-04T16:57:19.384Z</time></trkpt><trkpt lat="46.1164219" lon="12.2700903"><ele>756.0</ele><time>2026-05-04T16:57:36.384Z</time></trkpt><trkpt lat="46.116419" lon="12.2702316"><ele>760.5714285714286</ele><time>2026-05-04T16:58:11.384Z</time></trkpt><trkpt lat="46.1163799" lon="12.2703159"><ele>765.1428571428571</ele><time>2026-05-04T16:58:22.382Z</time></trkpt><trkpt lat="46.1163512" lon="12.270405"><ele>769.7142857142858</ele><time>2026-05-04T16:58:35.388Z</time></trkpt><trkpt lat="46.1163703" lon="12.2704922"><ele>774.2857142857142</ele><time>2026-05-04T16:59:02.385Z</time></trkpt><trkpt lat="46.1163447" lon="12.2705828"><ele>778.8571428571429</ele><time>2026-05-04T16:59:51.455Z</time></trkpt><trkpt lat="46.1163018" lon="12.2706591"><ele>783.4285714285714</ele><time>2026-05-04T16:59:56.385Z</time></trkpt><trkpt lat="46.1162805" lon="12.2707497"><ele>788.0</ele><time>2026-05-04T17:00:17.382Z</time></trkpt><trkpt lat="46.1162323" lon="12.2708084"><ele>793.2857142857143</ele><time>2026-05-04T17:00:37.387Z</time></trkpt><trkpt lat="46.116159" lon="12.2708731"><ele>798.5714285714287</ele><time>2026-05-04T17:01:01.387Z</time></trkpt><trkpt lat="46.1161372" lon="12.2709694"><ele>803.8571428571429</ele><time>2026-05-04T17:01:13.393Z</time></trkpt><trkpt lat="46.1161282" lon="12.2710641"><ele>809.1428571428571</ele><time>2026-05-04T17:01:26.391Z</time></trkpt><trkpt lat="46.116121" lon="12.2711565"><ele>814.4285714285714</ele><time>2026-05-04T17:01:54.39Z</time></trkpt><trkpt lat="46.1161168" lon="12.2712563"><ele>819.7142857142857</ele><time>2026-05-04T17:01:59.39Z</time></trkpt><trkpt lat="46.116055" lon="12.2712781"><ele>825.0</ele><time>2026-05-04T17:02:15.382Z</time></trkpt><trkpt lat="46.1160208" lon="12.2711774"><ele>825.0</ele><time>2026-05-04T17:02:19.392Z</time></trkpt><trkpt lat="46.1159862" lon="12.2710936"><ele>825.0</ele><time>2026-05-04T17:02:22.39Z</time></trkpt><trkpt lat="46.1159346" lon="12.271015"><ele>825.0</ele><time>2026-05-04T17:02:25.384Z</time></trkpt><trkpt lat="46.115858" lon="12.271006"><ele>825.0</ele><time>2026-05-04T17:02:28.391Z</time></trkpt><trkpt lat="46.1157895" lon="12.2710246"><ele>825.0</ele><time>2026-05-04T17:02:31.382Z</time></trkpt><trkpt lat="46.11571" lon="12.2710857"><ele>825.0</ele><time>2026-05-04T17:02:34.389Z</time></trkpt><trkpt lat="46.1156638" lon="12.2711491"><ele>825.0</ele><time>2026-05-04T17:02:36.388Z</time></trkpt><trkpt lat="46.1156733" lon="12.2712708"><ele>818.5</ele><time>2026-05-04T17:02:39.389Z</time></trkpt><trkpt lat="46.1157011" lon="12.2713621"><ele>812.0</ele><time>2026-05-04T17:02:41.39Z</time></trkpt><trkpt lat="46.115724" lon="12.2714789"><ele>805.5</ele><time>2026-05-04T17:02:44.389Z</time></trkpt><trkpt lat="46.1157115" lon="12.2716007"><ele>799.0</ele><time>2026-05-04T17:02:47.39Z</time></trkpt><trkpt lat="46.1156977" lon="12.271733"><ele>792.5</ele><time>2026-05-04T17:02:50.388Z</time></trkpt><trkpt lat="46.1156818" lon="12.2718237"><ele>786.0</ele><time>2026-05-04T17:02:52.391Z</time></trkpt><trkpt lat="46.1156669" lon="12.2719378"><ele>786.0</ele><time>2026-05-04T17:02:55.391Z</time></trkpt><trkpt lat="46.1156775" lon="12.2720407"><ele>786.0</ele><time>2026-05-04T17:02:58.382Z</time></trkpt><trkpt lat="46.1157021" lon="12.2721546"><ele>786.0</ele><time>2026-05-04T17:03:01.383Z</time></trkpt><trkpt lat="46.1157487" lon="12.2722584"><ele>786.0</ele><time>2026-05-04T17:03:04.388Z</time></trkpt><trkpt lat="46.1157841" lon="12.2723485"><ele>786.0</ele><time>2026-05-04T17:03:07.388Z</time></trkpt><trkpt lat="46.1158187" lon="12.2724411"><ele>786.0</ele><time>2026-05-04T17:03:10.384Z</time></trkpt><trkpt lat="46.1158188" lon="12.2725729"><ele>786.0</ele><time>2026-05-04T17:04:18.39Z</time></trkpt><trkpt lat="46.1157964" lon="12.2724873"><ele>786.0</ele><time>2026-05-04T17:04:42.394Z</time></trkpt><trkpt lat="46.1157649" lon="12.2723718"><ele>786.0</ele><time>2026-05-04T17:04:45.389Z</time></trkpt><trkpt lat="46.1157155" lon="12.2722441"><ele>786.0</ele><time>2026-05-04T17:04:47.389Z</time></trkpt><trkpt lat="46.1156805" lon="12.2721299"><ele>786.0</ele><time>2026-05-04T17:04:49.382Z</time></trkpt><trkpt lat="46.1156423" lon="12.2720256"><ele>786.0</ele><time>2026-05-04T17:04:53.39Z</time></trkpt><trkpt lat="46.1156407" lon="12.2719072"><ele>786.0</ele><time>2026-05-04T17:04:56.389Z</time></trkpt><trkpt lat="46.115643" lon="12.2717825"><ele>786.0</ele><time>2026-05-04T17:04:58.389Z</time></trkpt><trkpt lat="46.1156586" lon="12.2716285"><ele>786.0</ele><time>2026-05-04T17:05:00.388Z</time></trkpt><trkpt lat="46.1156888" lon="12.2714873"><ele>786.0</ele><time>2026-05-04T17:05:02.388Z</time></trkpt><trkpt lat="46.1156702" lon="12.2713413"><ele>786.0</ele><time>2026-05-04T17:05:04.389Z</time></trkpt><trkpt lat="46.1156411" lon="12.2712358"><ele>784.5714285714287</ele><time>2026-05-04T17:05:06.388Z</time></trkpt><trkpt lat="46.1156567" lon="12.2711405"><ele>783.1428571428571</ele><time>2026-05-04T17:05:08.388Z</time></trkpt><trkpt lat="46.1156924" lon="12.2710579"><ele>781.7142857142858</ele><time>2026-05-04T17:05:10.389Z</time></trkpt><trkpt lat="46.1157534" lon="12.2709984"><ele>780.2857142857143</ele><time>2026-05-04T17:05:12.39Z</time></trkpt><trkpt lat="46.1158278" lon="12.2709748"><ele>778.8571428571429</ele><time>2026-05-04T17:05:14.389Z</time></trkpt><trkpt lat="46.1158999" lon="12.2709661"><ele>777.4285714285714</ele><time>2026-05-04T17:05:16.386Z</time></trkpt><trkpt lat="46.1159673" lon="12.2710546"><ele>776.0</ele><time>2026-05-04T17:05:19.385Z</time></trkpt><trkpt lat="46.1160215" lon="12.271208"><ele>784.1666666666667</ele><time>2026-05-04T17:05:23.389Z</time></trkpt><trkpt lat="46.1160413" lon="12.2712945"><ele>792.3333333333334</ele><time>2026-05-04T17:05:25.389Z</time></trkpt><trkpt lat="46.1160736" lon="12.2713844"><ele>800.5</ele><time>2026-05-04T17:05:28.39Z</time></trkpt><trkpt lat="46.1161506" lon="12.2714196"><ele>808.6666666666667</ele><time>2026-05-04T17:05:30.391Z</time></trkpt><trkpt lat="46.1162458" lon="12.2714126"><ele>816.8333333333334</ele><time>2026-05-04T17:05:32.388Z</time></trkpt><trkpt lat="46.1163583" lon="12.2713933"><ele>825.0</ele><time>2026-05-04T17:05:34.387Z</time></trkpt><trkpt lat="46.1164602" lon="12.2713397"><ele>825.0</ele><time>2026-05-04T17:05:36.393Z</time></trkpt><trkpt lat="46.1165413" lon="12.2712965"><ele>825.0</ele><time>2026-05-04T17:05:38.391Z</time></trkpt><trkpt lat="46.1166096" lon="12.2712436"><ele>825.0</ele><time>2026-05-04T17:05:41.388Z</time></trkpt><trkpt lat="46.1166701" lon="12.2711649"><ele>825.0</ele><time>2026-05-04T17:05:44.383Z</time></trkpt><trkpt lat="46.1167177" lon="12.2710974"><ele>825.0</ele><time>2026-05-04T17:05:46.383Z</time></trkpt><trkpt lat="46.1167636" lon="12.2710325"><ele>825.0</ele><time>2026-05-04T17:05:48.392Z</time></trkpt><trkpt lat="46.1168234" lon="12.2709343"><ele>826.8</ele><time>2026-05-04T17:05:52.388Z</time></trkpt><trkpt lat="46.1168772" lon="12.270869"><ele>828.6</ele><time>2026-05-04T17:05:54.389Z</time></trkpt><trkpt lat="46.1169447" lon="12.2707834"><ele>830.4000000000001</ele><time>2026-05-04T17:05:57.388Z</time></trkpt><trkpt lat="46.1170037" lon="12.2706269"><ele>832.2</ele><time>2026-05-04T17:06:00.384Z</time></trkpt><trkpt lat="46.1170171" lon="12.2703969"><ele>834.0</ele><time>2026-05-04T17:06:03.39Z</time></trkpt><trkpt lat="46.1170212" lon="12.270276"><ele>830.5</ele><time>2026-05-04T17:06:05.382Z</time></trkpt><trkpt lat="46.1170536" lon="12.2701429"><ele>827.0</ele><time>2026-05-04T17:06:07.383Z</time></trkpt><trkpt lat="46.1170845" lon="12.2700331"><ele>823.5</ele><time>2026-05-04T17:06:09.389Z</time></trkpt><trkpt lat="46.1171528" lon="12.2699848"><ele>820.0</ele><time>2026-05-04T17:06:12.39Z</time></trkpt><trkpt lat="46.1172103" lon="12.2699311"><ele>816.5</ele><time>2026-05-04T17:06:14.383Z</time></trkpt><trkpt lat="46.1172779" lon="12.2698891"><ele>813.0</ele><time>2026-05-04T17:06:16.388Z</time></trkpt><trkpt lat="46.1173497" lon="12.2698444"><ele>813.3333333333334</ele><time>2026-05-04T17:06:18.389Z</time></trkpt><trkpt lat="46.1174227" lon="12.2698081"><ele>813.6666666666667</ele><time>2026-05-04T17:06:20.39Z</time></trkpt><trkpt lat="46.1174963" lon="12.2697817"><ele>814.0</ele><time>2026-05-04T17:06:22.384Z</time></trkpt><trkpt lat="46.1175651" lon="12.2697606"><ele>814.3333333333334</ele><time>2026-05-04T17:06:24.398Z</time></trkpt><trkpt lat="46.1176629" lon="12.2697373"><ele>814.6666666666667</ele><time>2026-05-04T17:06:27.403Z</time></trkpt><trkpt lat="46.1177507" lon="12.2697436"><ele>815.0</ele><time>2026-05-04T17:06:29.389Z</time></trkpt><trkpt lat="46.1178483" lon="12.2697513"><ele>818.6</ele><time>2026-05-04T17:06:31.389Z</time></trkpt><trkpt lat="46.1179501" lon="12.2697787"><ele>822.2</ele><time>2026-05-04T17:06:33.386Z</time></trkpt><trkpt lat="46.1180506" lon="12.2698282"><ele>825.8</ele><time>2026-05-04T17:06:35.38Z</time></trkpt><trkpt lat="46.1181473" lon="12.2698963"><ele>829.4</ele><time>2026-05-04T17:06:37.383Z</time></trkpt><trkpt lat="46.1182371" lon="12.2699508"><ele>833.0</ele><time>2026-05-04T17:06:39.388Z</time></trkpt><trkpt lat="46.1183226" lon="12.2700148"><ele>833.2</ele><time>2026-05-04T17:06:41.39Z</time></trkpt><trkpt lat="46.1184123" lon="12.2700856"><ele>833.4</ele><time>2026-05-04T17:06:43.382Z</time></trkpt><trkpt lat="46.1184996" lon="12.2701453"><ele>833.6</ele><time>2026-05-04T17:06:45.386Z</time></trkpt><trkpt lat="46.1185882" lon="12.2702218"><ele>833.8000000000001</ele><time>2026-05-04T17:06:47.395Z</time></trkpt><trkpt lat="46.1186839" lon="12.2703007"><ele>834.0</ele><time>2026-05-04T17:06:49.387Z</time></trkpt><trkpt lat="46.1187766" lon="12.2703848"><ele>834.0</ele><time>2026-05-04T17:06:51.383Z</time></trkpt><trkpt lat="46.1188665" lon="12.2704733"><ele>834.0</ele><time>2026-05-04T17:06:53.38Z</time></trkpt><trkpt lat="46.1189554" lon="12.2705535"><ele>834.0</ele><time>2026-05-04T17:06:55.388Z</time></trkpt><trkpt lat="46.1190468" lon="12.27063"><ele>834.0</ele><time>2026-05-04T17:06:57.386Z</time></trkpt><trkpt lat="46.1191355" lon="12.270686"><ele>834.0</ele><time>2026-05-04T17:06:59.383Z</time></trkpt><trkpt lat="46.1192069" lon="12.2707513"><ele>834.1666666666666</ele><time>2026-05-04T17:07:01.381Z</time></trkpt><trkpt lat="46.1192616" lon="12.2708273"><ele>834.3333333333333</ele><time>2026-05-04T17:09:39.386Z</time></trkpt><trkpt lat="46.1193181" lon="12.2708759"><ele>834.5</ele><time>2026-05-04T17:09:41.382Z</time></trkpt><trkpt lat="46.1194031" lon="12.2709254"><ele>834.6666666666666</ele><time>2026-05-04T17:09:43.388Z</time></trkpt><trkpt lat="46.1194797" lon="12.270967"><ele>834.8333333333333</ele><time>2026-05-04T17:09:45.39Z</time></trkpt><trkpt lat="46.1195292" lon="12.2710479"><ele>835.0</ele><time>2026-05-04T17:09:48.387Z</time></trkpt><trkpt lat="46.1195887" lon="12.2711566"><ele>835.0000000000001</ele><time>2026-05-04T17:09:51.419Z</time></trkpt><trkpt lat="46.119634" lon="12.2712366"><ele>835.0</ele><time>2026-05-04T17:09:53.388Z</time></trkpt><trkpt lat="46.119682" lon="12.2713137"><ele>835.0</ele><time>2026-05-04T17:09:55.388Z</time></trkpt><trkpt lat="46.1197185" lon="12.2713906"><ele>835.0</ele><time>2026-05-04T17:09:57.391Z</time></trkpt><trkpt lat="46.1197701" lon="12.271461"><ele>835.0</ele><time>2026-05-04T17:09:59.389Z</time></trkpt><trkpt lat="46.1198132" lon="12.271533"><ele>835.0000000000001</ele><time>2026-05-04T17:10:01.389Z</time></trkpt><trkpt lat="46.1198728" lon="12.2716131"><ele>835.0</ele><time>2026-05-04T17:10:03.384Z</time></trkpt><trkpt lat="46.1199228" lon="12.2716944"><ele>835.1666666666666</ele><time>2026-05-04T17:10:05.386Z</time></trkpt><trkpt lat="46.119973" lon="12.2717669"><ele>835.3333333333333</ele><time>2026-05-04T17:10:07.389Z</time></trkpt><trkpt lat="46.1200121" lon="12.2718432"><ele>835.5</ele><time>2026-05-04T17:10:09.388Z</time></trkpt><trkpt lat="46.1200484" lon="12.271919"><ele>835.6666666666667</ele><time>2026-05-04T17:10:11.386Z</time></trkpt><trkpt lat="46.1200966" lon="12.272026"><ele>835.8333333333334</ele><time>2026-05-04T17:10:14.383Z</time></trkpt><trkpt lat="46.120148" lon="12.2721424"><ele>836.0</ele><time>2026-05-04T17:10:17.389Z</time></trkpt><trkpt lat="46.1201818" lon="12.2722326"><ele>839.1666666666667</ele><time>2026-05-04T17:10:19.39Z</time></trkpt><trkpt lat="46.1202138" lon="12.2723179"><ele>842.3333333333334</ele><time>2026-05-04T17:10:21.385Z</time></trkpt><trkpt lat="46.1202532" lon="12.2724419"><ele>845.5</ele><time>2026-05-04T17:10:24.39Z</time></trkpt><trkpt lat="46.1202851" lon="12.2725324"><ele>848.6666666666667</ele><time>2026-05-04T17:10:26.382Z</time></trkpt><trkpt lat="46.1203039" lon="12.2726609"><ele>851.8333333333334</ele><time>2026-05-04T17:10:29.382Z</time></trkpt><trkpt lat="46.1203062" lon="12.2727531"><ele>855.0</ele><time>2026-05-04T17:10:31.387Z</time></trkpt><trkpt lat="46.1202967" lon="12.2728458"><ele>855.0</ele><time>2026-05-04T17:10:33.385Z</time></trkpt><trkpt lat="46.1202808" lon="12.2729461"><ele>855.0</ele><time>2026-05-04T17:10:35.382Z</time></trkpt><trkpt lat="46.120267" lon="12.2730382"><ele>855.0</ele><time>2026-05-04T17:10:37.382Z</time></trkpt><trkpt lat="46.1202527" lon="12.273129"><ele>855.0</ele><time>2026-05-04T17:10:39.388Z</time></trkpt><trkpt lat="46.1202398" lon="12.2732208"><ele>855.0</ele><time>2026-05-04T17:10:41.381Z</time></trkpt><trkpt lat="46.1202186" lon="12.2733155"><ele>855.0</ele><time>2026-05-04T17:10:43.383Z</time></trkpt><trkpt lat="46.1202012" lon="12.2734076"><ele>855.0</ele><time>2026-05-04T17:10:45.382Z</time></trkpt><trkpt lat="46.1201863" lon="12.2735012"><ele>855.6666666666666</ele><time>2026-05-04T17:10:47.382Z</time></trkpt><trkpt lat="46.120171" lon="12.2735904"><ele>856.3333333333333</ele><time>2026-05-04T17:10:49.407Z</time></trkpt><trkpt lat="46.1201458" lon="12.2737112"><ele>857.0</ele><time>2026-05-04T17:10:52.383Z</time></trkpt><trkpt lat="46.1201079" lon="12.2738121"><ele>857.6666666666666</ele><time>2026-05-04T17:10:55.389Z</time></trkpt><trkpt lat="46.1200636" lon="12.2738883"><ele>858.3333333333333</ele><time>2026-05-04T17:10:58.387Z</time></trkpt><trkpt lat="46.1200151" lon="12.2739664"><ele>859.0</ele><time>2026-05-04T17:11:01.383Z</time></trkpt><trkpt lat="46.1199608" lon="12.2740554"><ele>859.3333333333333</ele><time>2026-05-04T17:11:05.39Z</time></trkpt><trkpt lat="46.1199133" lon="12.2741461"><ele>859.6666666666666</ele><time>2026-05-04T17:11:08.391Z</time></trkpt><trkpt lat="46.1198639" lon="12.2742496"><ele>860.0</ele><time>2026-05-04T17:11:11.382Z</time></trkpt><trkpt lat="46.1198197" lon="12.2743185"><ele>860.3333333333333</ele><time>2026-05-04T17:11:13.389Z</time></trkpt><trkpt lat="46.1197581" lon="12.2744115"><ele>860.6666666666666</ele><time>2026-05-04T17:11:16.385Z</time></trkpt><trkpt lat="46.1196834" lon="12.2744727"><ele>861.0</ele><time>2026-05-04T17:11:19.388Z</time></trkpt><trkpt lat="46.119595" lon="12.2744621"><ele>863.1666666666666</ele><time>2026-05-04T17:11:22.391Z</time></trkpt><trkpt lat="46.1195235" lon="12.2743868"><ele>865.3333333333333</ele><time>2026-05-04T17:11:25.407Z</time></trkpt><trkpt lat="46.1194667" lon="12.2742816"><ele>867.5</ele><time>2026-05-04T17:11:28.388Z</time></trkpt><trkpt lat="46.1193946" lon="12.2742052"><ele>869.6666666666666</ele><time>2026-05-04T17:11:31.383Z</time></trkpt><trkpt lat="46.1193201" lon="12.2741429"><ele>871.8333333333333</ele><time>2026-05-04T17:11:34.383Z</time></trkpt><trkpt lat="46.1192401" lon="12.2741145"><ele>874.0</ele><time>2026-05-04T17:11:37.385Z</time></trkpt><trkpt lat="46.1191709" lon="12.2740934"><ele>873.9999999999999</ele><time>2026-05-04T17:11:40.384Z</time></trkpt><trkpt lat="46.1190882" lon="12.2740744"><ele>874.0</ele><time>2026-05-04T17:11:43.391Z</time></trkpt><trkpt lat="46.1190061" lon="12.274048"><ele>874.0</ele><time>2026-05-04T17:11:46.391Z</time></trkpt><trkpt lat="46.1189168" lon="12.2740203"><ele>874.0</ele><time>2026-05-04T17:11:49.386Z</time></trkpt><trkpt lat="46.118828" lon="12.2740008"><ele>873.9999999999999</ele><time>2026-05-04T17:11:52.391Z</time></trkpt><trkpt lat="46.1187423" lon="12.2739788"><ele>874.0</ele><time>2026-05-04T17:11:55.39Z</time></trkpt><trkpt lat="46.1186575" lon="12.2739682"><ele>874.2857142857142</ele><time>2026-05-04T17:11:58.389Z</time></trkpt><trkpt lat="46.1185927" lon="12.2739646"><ele>874.5714285714287</ele><time>2026-05-04T17:12:00.382Z</time></trkpt><trkpt lat="46.1185281" lon="12.2739591"><ele>874.8571428571429</ele><time>2026-05-04T17:12:02.394Z</time></trkpt><trkpt lat="46.1184488" lon="12.2739462"><ele>875.1428571428571</ele><time>2026-05-04T17:12:05.39Z</time></trkpt><trkpt lat="46.1183685" lon="12.2739379"><ele>875.4285714285713</ele><time>2026-05-04T17:12:08.388Z</time></trkpt><trkpt lat="46.1183054" lon="12.2739281"><ele>875.7142857142858</ele><time>2026-05-04T17:12:10.39Z</time></trkpt><trkpt lat="46.118241" lon="12.2739225"><ele>876.0</ele><time>2026-05-04T17:12:12.383Z</time></trkpt><trkpt lat="46.1181504" lon="12.2739331"><ele>876.5999999999999</ele><time>2026-05-04T17:12:15.388Z</time></trkpt><trkpt lat="46.1180673" lon="12.2739763"><ele>877.1999999999999</ele><time>2026-05-04T17:12:18.383Z</time></trkpt><trkpt lat="46.1179939" lon="12.274047"><ele>877.8000000000001</ele><time>2026-05-04T17:12:21.534Z</time></trkpt><trkpt lat="46.1179407" lon="12.2741551"><ele>878.4000000000001</ele><time>2026-05-04T17:12:24.39Z</time></trkpt><trkpt lat="46.1179041" lon="12.2742794"><ele>879.0</ele><time>2026-05-04T17:12:27.384Z</time></trkpt><trkpt lat="46.117884" lon="12.274406"><ele>879.0</ele><time>2026-05-04T17:12:30.385Z</time></trkpt><trkpt lat="46.1178615" lon="12.2744914"><ele>879.0</ele><time>2026-05-04T17:12:33.389Z</time></trkpt><trkpt lat="46.1178608" lon="12.274621"><ele>879.0</ele><time>2026-05-04T17:13:04.389Z</time></trkpt><trkpt lat="46.117862" lon="12.27476"><ele>879.0</ele><time>2026-05-04T17:13:07.383Z</time></trkpt><trkpt lat="46.1178618" lon="12.2748588"><ele>879.0</ele><time>2026-05-04T17:13:09.388Z</time></trkpt><trkpt lat="46.1178645" lon="12.2749551"><ele>879.0</ele><time>2026-05-04T17:13:11.388Z</time></trkpt><trkpt lat="46.117871" lon="12.2750526"><ele>878.1666666666666</ele><time>2026-05-04T17:13:13.387Z</time></trkpt><trkpt lat="46.1178808" lon="12.2751468"><ele>877.3333333333333</ele><time>2026-05-04T17:13:15.383Z</time></trkpt><trkpt lat="46.1178988" lon="12.2752743"><ele>876.5</ele><time>2026-05-04T17:13:18.39Z</time></trkpt><trkpt lat="46.1179261" lon="12.2754103"><ele>875.6666666666666</ele><time>2026-05-04T17:13:21.385Z</time></trkpt><trkpt lat="46.1179539" lon="12.2755055"><ele>874.8333333333333</ele><time>2026-05-04T17:13:23.389Z</time></trkpt><trkpt lat="46.1179851" lon="12.2755945"><ele>874.0</ele><time>2026-05-04T17:13:25.392Z</time></trkpt><trkpt lat="46.118016" lon="12.2756824"><ele>873.2857142857142</ele><time>2026-05-04T17:13:27.382Z</time></trkpt><trkpt lat="46.118057" lon="12.2757651"><ele>872.5714285714287</ele><time>2026-05-04T17:13:29.39Z</time></trkpt><trkpt lat="46.1180941" lon="12.27584"><ele>871.8571428571429</ele><time>2026-05-04T17:13:31.382Z</time></trkpt><trkpt lat="46.1181389" lon="12.2759094"><ele>871.1428571428571</ele><time>2026-05-04T17:13:33.382Z</time></trkpt><trkpt lat="46.118207" lon="12.2760027"><ele>870.4285714285713</ele><time>2026-05-04T17:13:36.389Z</time></trkpt><trkpt lat="46.1182543" lon="12.276079"><ele>869.7142857142858</ele><time>2026-05-04T17:13:38.39Z</time></trkpt><trkpt lat="46.1183018" lon="12.2761481"><ele>869.0</ele><time>2026-05-04T17:13:40.387Z</time></trkpt><trkpt lat="46.1183682" lon="12.2762323"><ele>871.7142857142858</ele><time>2026-05-04T17:13:43.389Z</time></trkpt><trkpt lat="46.1184389" lon="12.2763118"><ele>874.4285714285713</ele><time>2026-05-04T17:13:46.391Z</time></trkpt><trkpt lat="46.118512" lon="12.2763878"><ele>877.1428571428571</ele><time>2026-05-04T17:13:49.383Z</time></trkpt><trkpt lat="46.118567" lon="12.2764329"><ele>879.8571428571429</ele><time>2026-05-04T17:13:51.386Z</time></trkpt><trkpt lat="46.1186232" lon="12.2764751"><ele>882.5714285714287</ele><time>2026-05-04T17:13:53.383Z</time></trkpt><trkpt lat="46.1186798" lon="12.2765227"><ele>885.2857142857142</ele><time>2026-05-04T17:13:55.389Z</time></trkpt><trkpt lat="46.118738" lon="12.2765698"><ele>888.0</ele><time>2026-05-04T17:13:57.387Z</time></trkpt><trkpt lat="46.1187895" lon="12.276625"><ele>888.3333333333334</ele><time>2026-05-04T17:13:59.386Z</time></trkpt><trkpt lat="46.1188384" lon="12.2766899"><ele>888.6666666666667</ele><time>2026-05-04T17:14:01.385Z</time></trkpt><trkpt lat="46.1188832" lon="12.2767563"><ele>889.0</ele><time>2026-05-04T17:14:03.392Z</time></trkpt><trkpt lat="46.1189386" lon="12.2768656"><ele>889.3333333333334</ele><time>2026-05-04T17:14:06.388Z</time></trkpt><trkpt lat="46.1189762" lon="12.2769893"><ele>889.6666666666667</ele><time>2026-05-04T17:14:09.381Z</time></trkpt><trkpt lat="46.1189976" lon="12.27711"><ele>890.0</ele><time>2026-05-04T17:14:12.383Z</time></trkpt><trkpt lat="46.1190023" lon="12.2772265"><ele>890.8571428571429</ele><time>2026-05-04T17:14:15.392Z</time></trkpt><trkpt lat="46.1189715" lon="12.2773143"><ele>891.7142857142857</ele><time>2026-05-04T17:14:18.389Z</time></trkpt><trkpt lat="46.118933" lon="12.277393"><ele>892.5714285714286</ele><time>2026-05-04T17:14:22.388Z</time></trkpt><trkpt lat="46.1188925" lon="12.2774716"><ele>893.4285714285714</ele><time>2026-05-04T17:14:26.39Z</time></trkpt><trkpt lat="46.118845" lon="12.277566"><ele>894.2857142857142</ele><time>2026-05-04T17:14:30.384Z</time></trkpt><trkpt lat="46.1188145" lon="12.2776532"><ele>895.1428571428571</ele><time>2026-05-04T17:14:33.39Z</time></trkpt><trkpt lat="46.1188007" lon="12.2777538"><ele>896.0</ele><time>2026-05-04T17:14:36.391Z</time></trkpt><trkpt lat="46.1187963" lon="12.2778488"><ele>896.0</ele><time>2026-05-04T17:14:39.388Z</time></trkpt><trkpt lat="46.1187912" lon="12.2779461"><ele>896.0</ele><time>2026-05-04T17:14:42.384Z</time></trkpt><trkpt lat="46.1187825" lon="12.2780367"><ele>896.0</ele><time>2026-05-04T17:14:45.386Z</time></trkpt><trkpt lat="46.1187664" lon="12.2781262"><ele>896.0</ele><time>2026-05-04T17:14:48.388Z</time></trkpt><trkpt lat="46.1187346" lon="12.2782241"><ele>896.0</ele><time>2026-05-04T17:14:52.389Z</time></trkpt><trkpt lat="46.1186869" lon="12.278335"><ele>896.0</ele><time>2026-05-04T17:14:56.388Z</time></trkpt><trkpt lat="46.1186523" lon="12.2784399"><ele>896.0</ele><time>2026-05-04T17:14:59.383Z</time></trkpt><trkpt lat="46.118616" lon="12.2785544"><ele>898.5000000000001</ele><time>2026-05-04T17:15:02.389Z</time></trkpt><trkpt lat="46.118588" lon="12.2786547"><ele>901.0</ele><time>2026-05-04T17:15:05.387Z</time></trkpt><trkpt lat="46.1185566" lon="12.2787687"><ele>903.5</ele><time>2026-05-04T17:15:08.389Z</time></trkpt><trkpt lat="46.1185414" lon="12.2788812"><ele>906.0</ele><time>2026-05-04T17:15:11.382Z</time></trkpt><trkpt lat="46.1185168" lon="12.2789914"><ele>908.5000000000001</ele><time>2026-05-04T17:15:14.39Z</time></trkpt><trkpt lat="46.1184827" lon="12.2790941"><ele>911.0</ele><time>2026-05-04T17:15:17.389Z</time></trkpt><trkpt lat="46.1184568" lon="12.2792055"><ele>913.3333333333334</ele><time>2026-05-04T17:15:20.39Z</time></trkpt><trkpt lat="46.1184394" lon="12.2793195"><ele>915.6666666666667</ele><time>2026-05-04T17:15:23.39Z</time></trkpt><trkpt lat="46.1184177" lon="12.2794389"><ele>918.0</ele><time>2026-05-04T17:15:26.389Z</time></trkpt><trkpt lat="46.118399" lon="12.279532"><ele>920.3333333333333</ele><time>2026-05-04T17:15:29.39Z</time></trkpt><trkpt lat="46.1183754" lon="12.2796522"><ele>922.6666666666666</ele><time>2026-05-04T17:15:32.388Z</time></trkpt><trkpt lat="46.1183614" lon="12.2797744"><ele>925.0</ele><time>2026-05-04T17:15:35.39Z</time></trkpt><trkpt lat="46.118348" lon="12.2799096"><ele>925.0</ele><time>2026-05-04T17:15:38.389Z</time></trkpt><trkpt lat="46.1183267" lon="12.2800301"><ele>925.0</ele><time>2026-05-04T17:15:41.383Z</time></trkpt><trkpt lat="46.118316" lon="12.2801245"><ele>925.0</ele><time>2026-05-04T17:15:44.42Z</time></trkpt><trkpt lat="46.118357" lon="12.2802014"><ele>925.0</ele><time>2026-05-04T17:15:50.384Z</time></trkpt><trkpt lat="46.1184216" lon="12.2802606"><ele>925.0</ele><time>2026-05-04T17:15:55.39Z</time></trkpt><trkpt lat="46.1184907" lon="12.280276"><ele>925.0</ele><time>2026-05-04T17:15:58.384Z</time></trkpt><trkpt lat="46.1185549" lon="12.2803099"><ele>925.0</ele><time>2026-05-04T17:16:00.391Z</time></trkpt><trkpt lat="46.1186389" lon="12.2803343"><ele>924.9999999999999</ele><time>2026-05-04T17:16:02.389Z</time></trkpt><trkpt lat="46.1187133" lon="12.2803412"><ele>925.0</ele><time>2026-05-04T17:16:04.39Z</time></trkpt><trkpt lat="46.1187806" lon="12.2803544"><ele>925.0</ele><time>2026-05-04T17:16:06.386Z</time></trkpt><trkpt lat="46.118853" lon="12.2803833"><ele>925.0</ele><time>2026-05-04T17:16:08.388Z</time></trkpt><trkpt lat="46.1189372" lon="12.2804284"><ele>924.9999999999999</ele><time>2026-05-04T17:16:10.389Z</time></trkpt><trkpt lat="46.1190401" lon="12.280472"><ele>925.0</ele><time>2026-05-04T17:16:12.39Z</time></trkpt><trkpt lat="46.1191653" lon="12.2805016"><ele>924.8571428571429</ele><time>2026-05-04T17:16:14.385Z</time></trkpt><trkpt lat="46.1192358" lon="12.2805075"><ele>924.7142857142857</ele><time>2026-05-04T17:16:15.383Z</time></trkpt><trkpt lat="46.1193049" lon="12.2805172"><ele>924.5714285714286</ele><time>2026-05-04T17:16:16.389Z</time></trkpt><trkpt lat="46.1193786" lon="12.2805279"><ele>924.4285714285714</ele><time>2026-05-04T17:16:17.39Z</time></trkpt><trkpt lat="46.1194556" lon="12.2805349"><ele>924.2857142857142</ele><time>2026-05-04T17:16:18.389Z</time></trkpt><trkpt lat="46.1195334" lon="12.2805417"><ele>924.1428571428571</ele><time>2026-05-04T17:16:19.385Z</time></trkpt><trkpt lat="46.1196087" lon="12.2805489"><ele>924.0</ele><time>2026-05-04T17:16:20.387Z</time></trkpt><trkpt lat="46.1196823" lon="12.2805764"><ele>923.0</ele><time>2026-05-04T17:16:21.418Z</time></trkpt><trkpt lat="46.1197526" lon="12.280616"><ele>922.0</ele><time>2026-05-04T17:16:22.39Z</time></trkpt><trkpt lat="46.1198154" lon="12.2806735"><ele>921.0</ele><time>2026-05-04T17:16:23.39Z</time></trkpt><trkpt lat="46.1198689" lon="12.2807371"><ele>920.0</ele><time>2026-05-04T17:16:24.388Z</time></trkpt><trkpt lat="46.119916" lon="12.2808035"><ele>919.0</ele><time>2026-05-04T17:16:25.39Z</time></trkpt><trkpt lat="46.1200094" lon="12.2808748"><ele>918.0</ele><time>2026-05-04T17:16:27.385Z</time></trkpt><trkpt lat="46.1201077" lon="12.2808811"><ele>917.8</ele><time>2026-05-04T17:16:29.388Z</time></trkpt><trkpt lat="46.1202094" lon="12.2808655"><ele>917.5999999999999</ele><time>2026-05-04T17:16:31.389Z</time></trkpt><trkpt lat="46.1203167" lon="12.2808455"><ele>917.4000000000001</ele><time>2026-05-04T17:16:33.394Z</time></trkpt><trkpt lat="46.1204208" lon="12.2808192"><ele>917.2</ele><time>2026-05-04T17:16:35.385Z</time></trkpt><trkpt lat="46.1205309" lon="12.280788"><ele>917.0</ele><time>2026-05-04T17:16:37.38Z</time></trkpt><trkpt lat="46.1206393" lon="12.2807638"><ele>916.0</ele><time>2026-05-04T17:16:39.42Z</time></trkpt><trkpt lat="46.1207596" lon="12.2807519"><ele>915.0</ele><time>2026-05-04T17:16:41.391Z</time></trkpt><trkpt lat="46.1208884" lon="12.2807319"><ele>914.0</ele><time>2026-05-04T17:16:43.389Z</time></trkpt><trkpt lat="46.1209654" lon="12.2807165"><ele>913.0</ele><time>2026-05-04T17:16:44.389Z</time></trkpt><trkpt lat="46.1210433" lon="12.2807059"><ele>912.0</ele><time>2026-05-04T17:16:45.383Z</time></trkpt><trkpt lat="46.1211274" lon="12.2807169"><ele>912.0</ele><time>2026-05-04T17:16:46.381Z</time></trkpt><trkpt lat="46.1212056" lon="12.2807254"><ele>912.0</ele><time>2026-05-04T17:16:47.389Z</time></trkpt><trkpt lat="46.1212924" lon="12.2807341"><ele>912.0</ele><time>2026-05-04T17:16:48.389Z</time></trkpt><trkpt lat="46.1213832" lon="12.2807281"><ele>912.0</ele><time>2026-05-04T17:16:49.391Z</time></trkpt><trkpt lat="46.1214671" lon="12.2807268"><ele>912.0</ele><time>2026-05-04T17:16:50.388Z</time></trkpt><trkpt lat="46.1215476" lon="12.2807403"><ele>912.0</ele><time>2026-05-04T17:16:51.384Z</time></trkpt><trkpt lat="46.1216189" lon="12.2807479"><ele>911.5</ele><time>2026-05-04T17:16:52.389Z</time></trkpt><trkpt lat="46.1216843" lon="12.2807279"><ele>911.0</ele><time>2026-05-04T17:16:54.388Z</time></trkpt><trkpt lat="46.1217571" lon="12.2807721"><ele>910.5</ele><time>2026-05-04T17:17:10.393Z</time></trkpt><trkpt lat="46.1218563" lon="12.280779"><ele>910.0</ele><time>2026-05-04T17:17:13.388Z</time></trkpt><trkpt lat="46.1219303" lon="12.2808086"><ele>909.5</ele><time>2026-05-04T17:17:15.383Z</time></trkpt><trkpt lat="46.122" lon="12.280853"><ele>909.0</ele><time>2026-05-04T17:17:17.39Z</time></trkpt><trkpt lat="46.1220716" lon="12.2808927"><ele>909.0</ele><time>2026-05-04T17:17:19.389Z</time></trkpt><trkpt lat="46.1221456" lon="12.2809308"><ele>909.0</ele><time>2026-05-04T17:17:21.388Z</time></trkpt><trkpt lat="46.1222209" lon="12.2809644"><ele>909.0</ele><time>2026-05-04T17:17:23.382Z</time></trkpt><trkpt lat="46.1222974" lon="12.2809913"><ele>909.0</ele><time>2026-05-04T17:17:25.384Z</time></trkpt><trkpt lat="46.122372" lon="12.2810203"><ele>909.0</ele><time>2026-05-04T17:17:27.387Z</time></trkpt><trkpt lat="46.1224489" lon="12.2810387"><ele>909.0</ele><time>2026-05-04T17:17:29.387Z</time></trkpt><trkpt lat="46.1225295" lon="12.2810333"><ele>909.0</ele><time>2026-05-04T17:17:31.385Z</time></trkpt><trkpt lat="46.1226123" lon="12.2810144"><ele>909.0</ele><time>2026-05-04T17:17:33.393Z</time></trkpt><trkpt lat="46.122685" lon="12.2809981"><ele>909.0</ele><time>2026-05-04T17:17:35.387Z</time></trkpt><trkpt lat="46.1227503" lon="12.2809895"><ele>909.0</ele><time>2026-05-04T17:17:59.389Z</time></trkpt><trkpt lat="46.122805" lon="12.2809361"><ele>909.0</ele><time>2026-05-04T17:18:02.383Z</time></trkpt><trkpt lat="46.1229054" lon="12.2809137"><ele>909.0</ele><time>2026-05-04T17:18:05.388Z</time></trkpt><trkpt lat="46.1229958" lon="12.2809047"><ele>909.0</ele><time>2026-05-04T17:18:07.389Z</time></trkpt><trkpt lat="46.1230923" lon="12.2809005"><ele>909.0000000000001</ele><time>2026-05-04T17:18:09.387Z</time></trkpt><trkpt lat="46.1231946" lon="12.2809133"><ele>909.0000000000001</ele><time>2026-05-04T17:18:11.388Z</time></trkpt><trkpt lat="46.123305" lon="12.2809195"><ele>909.0</ele><time>2026-05-04T17:18:13.388Z</time></trkpt><trkpt lat="46.1233975" lon="12.2809232"><ele>909.0</ele><time>2026-05-04T17:18:15.388Z</time></trkpt><trkpt lat="46.1234855" lon="12.2809566"><ele>907.4000000000001</ele><time>2026-05-04T17:18:17.396Z</time></trkpt><trkpt lat="46.1235854" lon="12.2809482"><ele>905.8000000000001</ele><time>2026-05-04T17:18:19.387Z</time></trkpt><trkpt lat="46.1236856" lon="12.2810177"><ele>904.1999999999999</ele><time>2026-05-04T17:18:21.389Z</time></trkpt><trkpt lat="46.1237858" lon="12.2810121"><ele>902.5999999999999</ele><time>2026-05-04T17:18:23.382Z</time></trkpt><trkpt lat="46.1238224" lon="12.2809362"><ele>901.0</ele><time>2026-05-04T17:18:25.388Z</time></trkpt><trkpt lat="46.1238782" lon="12.2808323"><ele>901.0</ele><time>2026-05-04T17:18:28.384Z</time></trkpt><trkpt lat="46.1239013" lon="12.2807407"><ele>900.9999999999999</ele><time>2026-05-04T17:18:31.388Z</time></trkpt><trkpt lat="46.1239264" lon="12.280643"><ele>900.9999999999999</ele><time>2026-05-04T17:18:33.389Z</time></trkpt><trkpt lat="46.1239616" lon="12.2805304"><ele>901.0</ele><time>2026-05-04T17:18:35.385Z</time></trkpt><trkpt lat="46.1240031" lon="12.2803902"><ele>901.0</ele><time>2026-05-04T17:18:37.387Z</time></trkpt><trkpt lat="46.1240662" lon="12.2802319"><ele>900.8</ele><time>2026-05-04T17:18:39.388Z</time></trkpt><trkpt lat="46.1240944" lon="12.2801422"><ele>900.5999999999999</ele><time>2026-05-04T17:18:40.39Z</time></trkpt><trkpt lat="46.1241189" lon="12.2800576"><ele>900.4</ele><time>2026-05-04T17:18:41.379Z</time></trkpt><trkpt lat="46.124164" lon="12.2798624"><ele>900.2</ele><time>2026-05-04T17:18:44.389Z</time></trkpt><trkpt lat="46.1242159" lon="12.2797207"><ele>900.0</ele><time>2026-05-04T17:18:46.392Z</time></trkpt><trkpt lat="46.1242621" lon="12.2796502"><ele>898.6</ele><time>2026-05-04T17:18:47.387Z</time></trkpt><trkpt lat="46.1243472" lon="12.2795756"><ele>897.2</ele><time>2026-05-04T17:18:49.39Z</time></trkpt><trkpt lat="46.1243655" lon="12.2794421"><ele>895.8</ele><time>2026-05-04T17:19:08.391Z</time></trkpt><trkpt lat="46.1243796" lon="12.2792752"><ele>894.4</ele><time>2026-05-04T17:19:11.391Z</time></trkpt><trkpt lat="46.1244326" lon="12.2791899"><ele>893.0</ele><time>2026-05-04T17:19:13.387Z</time></trkpt><trkpt lat="46.1245225" lon="12.2791263"><ele>893.0000000000001</ele><time>2026-05-04T17:19:15.402Z</time></trkpt><trkpt lat="46.1245975" lon="12.2790388"><ele>893.0</ele><time>2026-05-04T17:19:17.387Z</time></trkpt><trkpt lat="46.1246444" lon="12.2789531"><ele>893.0</ele><time>2026-05-04T17:19:20.391Z</time></trkpt><trkpt lat="46.1246103" lon="12.2788397"><ele>893.0</ele><time>2026-05-04T17:19:23.387Z</time></trkpt><trkpt lat="46.1245795" lon="12.2787408"><ele>893.0000000000001</ele><time>2026-05-04T17:19:25.389Z</time></trkpt><trkpt lat="46.1245617" lon="12.2786469"><ele>893.0</ele><time>2026-05-04T17:19:27.387Z</time></trkpt><trkpt lat="46.1245751" lon="12.2785521"><ele>892.1666666666667</ele><time>2026-05-04T17:19:29.391Z</time></trkpt><trkpt lat="46.1245723" lon="12.2784408"><ele>891.3333333333334</ele><time>2026-05-04T17:19:31.384Z</time></trkpt><trkpt lat="46.1245725" lon="12.2782972"><ele>890.5</ele><time>2026-05-04T17:19:33.388Z</time></trkpt><trkpt lat="46.1245729" lon="12.2781611"><ele>889.6666666666667</ele><time>2026-05-04T17:19:35.388Z</time></trkpt><trkpt lat="46.1246162" lon="12.2780584"><ele>888.8333333333334</ele><time>2026-05-04T17:19:38.382Z</time></trkpt><trkpt lat="46.1246899" lon="12.2779764"><ele>888.0</ele><time>2026-05-04T17:19:40.38Z</time></trkpt><trkpt lat="46.1247643" lon="12.2779005"><ele>887.0</ele><time>2026-05-04T17:19:42.379Z</time></trkpt><trkpt lat="46.1248188" lon="12.27784"><ele>886.0</ele><time>2026-05-04T17:19:43.387Z</time></trkpt><trkpt lat="46.1249184" lon="12.2777626"><ele>885.0</ele><time>2026-05-04T17:19:45.382Z</time></trkpt><trkpt lat="46.1249878" lon="12.2776818"><ele>884.0</ele><time>2026-05-04T17:19:47.383Z</time></trkpt><trkpt lat="46.1250566" lon="12.2776293"><ele>883.0</ele><time>2026-05-04T17:19:50.389Z</time></trkpt><trkpt lat="46.1251152" lon="12.2775928"><ele>882.0</ele><time>2026-05-04T17:19:52.39Z</time></trkpt><trkpt lat="46.1251782" lon="12.2775427"><ele>881.0</ele><time>2026-05-04T17:19:54.386Z</time></trkpt><trkpt lat="46.1252314" lon="12.2774562"><ele>880.0</ele><time>2026-05-04T17:19:56.39Z</time></trkpt><trkpt lat="46.1252306" lon="12.2772804"><ele>879.0</ele><time>2026-05-04T17:19:58.39Z</time></trkpt><trkpt lat="46.1252473" lon="12.277178"><ele>878.0</ele><time>2026-05-04T17:20:00.387Z</time></trkpt><trkpt lat="46.1252307" lon="12.2770801"><ele>877.0</ele><time>2026-05-04T17:20:02.383Z</time></trkpt><trkpt lat="46.1252538" lon="12.2769803"><ele>876.0</ele><time>2026-05-04T17:20:04.383Z</time></trkpt><trkpt lat="46.1252652" lon="12.2768784"><ele>873.8333333333334</ele><time>2026-05-04T17:20:06.387Z</time></trkpt><trkpt lat="46.1252363" lon="12.2767925"><ele>871.6666666666667</ele><time>2026-05-04T17:20:08.388Z</time></trkpt><trkpt lat="46.125289" lon="12.2767102"><ele>869.5</ele><time>2026-05-04T17:20:13.388Z</time></trkpt><trkpt lat="46.1252572" lon="12.2766207"><ele>867.3333333333334</ele><time>2026-05-04T17:20:32.389Z</time></trkpt><trkpt lat="46.1252206" lon="12.2765339"><ele>865.1666666666667</ele><time>2026-05-04T17:20:38.389Z</time></trkpt><trkpt lat="46.125269" lon="12.2764003"><ele>863.0</ele><time>2026-05-04T17:20:40.387Z</time></trkpt><trkpt lat="46.1252416" lon="12.2763147"><ele>862.8333333333334</ele><time>2026-05-04T17:20:42.39Z</time></trkpt><trkpt lat="46.1251789" lon="12.2762501"><ele>862.6666666666667</ele><time>2026-05-04T17:20:45.382Z</time></trkpt><trkpt lat="46.1251033" lon="12.2762169"><ele>862.5</ele><time>2026-05-04T17:20:47.386Z</time></trkpt><trkpt lat="46.1250435" lon="12.2761312"><ele>862.3333333333333</ele><time>2026-05-04T17:20:49.383Z</time></trkpt><trkpt lat="46.1249596" lon="12.2760386"><ele>862.1666666666666</ele><time>2026-05-04T17:20:51.378Z</time></trkpt><trkpt lat="46.1248947" lon="12.2759686"><ele>862.0</ele><time>2026-05-04T17:20:53.379Z</time></trkpt><trkpt lat="46.1248885" lon="12.2758701"><ele>859.4999999999999</ele><time>2026-05-04T17:20:56.386Z</time></trkpt><trkpt lat="46.1249354" lon="12.2757736"><ele>857.0</ele><time>2026-05-04T17:20:59.39Z</time></trkpt><trkpt lat="46.1249382" lon="12.2756676"><ele>854.5</ele><time>2026-05-04T17:21:03.384Z</time></trkpt><trkpt lat="46.124961" lon="12.2755615"><ele>852.0</ele><time>2026-05-04T17:21:07.39Z</time></trkpt><trkpt lat="46.124954" lon="12.2754642"><ele>849.4999999999999</ele><time>2026-05-04T17:21:09.38Z</time></trkpt><trkpt lat="46.1249994" lon="12.2753314"><ele>847.0</ele><time>2026-05-04T17:21:11.382Z</time></trkpt><trkpt lat="46.1250571" lon="12.2752176"><ele>843.1666666666666</ele><time>2026-05-04T17:21:13.389Z</time></trkpt><trkpt lat="46.1251087" lon="12.2750981"><ele>839.3333333333333</ele><time>2026-05-04T17:21:15.389Z</time></trkpt><trkpt lat="46.1251806" lon="12.27501"><ele>835.5</ele><time>2026-05-04T17:21:18.39Z</time></trkpt><trkpt lat="46.1252488" lon="12.2749705"><ele>831.6666666666667</ele><time>2026-05-04T17:21:21.387Z</time></trkpt><trkpt lat="46.1252888" lon="12.2748951"><ele>827.8333333333334</ele><time>2026-05-04T17:21:24.39Z</time></trkpt><trkpt lat="46.1253224" lon="12.2747916"><ele>824.0</ele><time>2026-05-04T17:21:29.386Z</time></trkpt><trkpt lat="46.1253438" lon="12.2747051"><ele>818.8333333333334</ele><time>2026-05-04T17:21:50.381Z</time></trkpt><trkpt lat="46.1254047" lon="12.2746358"><ele>813.6666666666667</ele><time>2026-05-04T17:21:52.39Z</time></trkpt><trkpt lat="46.1254627" lon="12.2745571"><ele>808.5</ele><time>2026-05-04T17:21:55.38Z</time></trkpt><trkpt lat="46.1255105" lon="12.2744469"><ele>803.3333333333333</ele><time>2026-05-04T17:21:57.392Z</time></trkpt><trkpt lat="46.1255913" lon="12.2744332"><ele>798.1666666666666</ele><time>2026-05-04T17:21:59.387Z</time></trkpt><trkpt lat="46.1255506" lon="12.2743476"><ele>793.0</ele><time>2026-05-04T17:22:03.386Z</time></trkpt><trkpt lat="46.1254818" lon="12.2743404"><ele>793.0000000000001</ele><time>2026-05-04T17:22:08.385Z</time></trkpt><trkpt lat="46.1254153" lon="12.2743173"><ele>793.0</ele><time>2026-05-04T17:22:20.387Z</time></trkpt><trkpt lat="46.1253607" lon="12.2742582"><ele>793.0</ele><time>2026-05-04T17:22:26.382Z</time></trkpt><trkpt lat="46.1252929" lon="12.2742638"><ele>793.0</ele><time>2026-05-04T17:22:31.39Z</time></trkpt><trkpt lat="46.1252258" lon="12.2742317"><ele>793.0</ele><time>2026-05-04T17:22:35.384Z</time></trkpt><trkpt lat="46.1251712" lon="12.2741796"><ele>793.0000000000001</ele><time>2026-05-04T17:22:45.384Z</time></trkpt><trkpt lat="46.125106" lon="12.2741597"><ele>793.0</ele><time>2026-05-04T17:22:51.383Z</time></trkpt><trkpt lat="46.1250417" lon="12.2740642"><ele>792.9999999999999</ele><time>2026-05-04T17:23:05.386Z</time></trkpt><trkpt lat="46.125097" lon="12.2739887"><ele>793.0</ele><time>2026-05-04T17:23:13.385Z</time></trkpt><trkpt lat="46.1251377" lon="12.2739062"><ele>793.0</ele><time>2026-05-04T17:23:18.386Z</time></trkpt><trkpt lat="46.1251512" lon="12.2738135"><ele>793.0</ele><time>2026-05-04T17:23:21.387Z</time></trkpt><trkpt lat="46.1251524" lon="12.2737224"><ele>792.9999999999999</ele><time>2026-05-04T17:23:23.387Z</time></trkpt><trkpt lat="46.1251489" lon="12.2736077"><ele>793.0</ele><time>2026-05-04T17:23:25.388Z</time></trkpt><trkpt lat="46.1252206" lon="12.2734625"><ele>789.0</ele><time>2026-05-04T17:23:28.385Z</time></trkpt><trkpt lat="46.1252616" lon="12.2733703"><ele>785.0</ele><time>2026-05-04T17:23:30.381Z</time></trkpt><trkpt lat="46.12527" lon="12.2732761"><ele>781.0</ele><time>2026-05-04T17:23:31.388Z</time></trkpt><trkpt lat="46.1252874" lon="12.2731224"><ele>777.0</ele><time>2026-05-04T17:23:33.383Z</time></trkpt><trkpt lat="46.1252961" lon="12.2729762"><ele>773.0</ele><time>2026-05-04T17:23:35.389Z</time></trkpt><trkpt lat="46.1253183" lon="12.2728142"><ele>770.3333333333334</ele><time>2026-05-04T17:23:37.394Z</time></trkpt><trkpt lat="46.1253405" lon="12.2726423"><ele>767.6666666666667</ele><time>2026-05-04T17:23:39.385Z</time></trkpt><trkpt lat="46.1253345" lon="12.2725027"><ele>765.0</ele><time>2026-05-04T17:23:41.382Z</time></trkpt><trkpt lat="46.1253251" lon="12.2723773"><ele>762.3333333333334</ele><time>2026-05-04T17:23:43.388Z</time></trkpt><trkpt lat="46.125318" lon="12.2722676"><ele>759.6666666666667</ele><time>2026-05-04T17:23:46.388Z</time></trkpt><trkpt lat="46.1253089" lon="12.2721713"><ele>757.0</ele><time>2026-05-04T17:23:50.387Z</time></trkpt><trkpt lat="46.1252936" lon="12.2720693"><ele>754.1428571428572</ele><time>2026-05-04T17:23:54.389Z</time></trkpt><trkpt lat="46.1252683" lon="12.2719792"><ele>751.2857142857142</ele><time>2026-05-04T17:23:57.388Z</time></trkpt><trkpt lat="46.1252275" lon="12.2719"><ele>748.4285714285714</ele><time>2026-05-04T17:24:00.39Z</time></trkpt><trkpt lat="46.1252029" lon="12.2718116"><ele>745.5714285714287</ele><time>2026-05-04T17:24:04.385Z</time></trkpt><trkpt lat="46.1252486" lon="12.2717307"><ele>742.7142857142858</ele><time>2026-05-04T17:24:06.388Z</time></trkpt><trkpt lat="46.125249" lon="12.271627"><ele>739.8571428571429</ele><time>2026-05-04T17:24:21.382Z</time></trkpt><trkpt lat="46.1252914" lon="12.2715251"><ele>737.0</ele><time>2026-05-04T17:24:24.39Z</time></trkpt><trkpt lat="46.1252988" lon="12.2714032"><ele>734.5714285714287</ele><time>2026-05-04T17:24:27.391Z</time></trkpt><trkpt lat="46.1253149" lon="12.271307"><ele>732.1428571428571</ele><time>2026-05-04T17:24:30.383Z</time></trkpt><trkpt lat="46.1253077" lon="12.2712134"><ele>729.7142857142858</ele><time>2026-05-04T17:24:32.389Z</time></trkpt><trkpt lat="46.1252834" lon="12.2711145"><ele>727.2857142857143</ele><time>2026-05-04T17:24:35.39Z</time></trkpt><trkpt lat="46.1252962" lon="12.2709873"><ele>724.8571428571429</ele><time>2026-05-04T17:24:38.395Z</time></trkpt><trkpt lat="46.1252848" lon="12.2708892"><ele>722.4285714285714</ele><time>2026-05-04T17:24:41.413Z</time></trkpt><trkpt lat="46.1252594" lon="12.2707757"><ele>720.0</ele><time>2026-05-04T17:24:45.386Z</time></trkpt><trkpt lat="46.1252157" lon="12.2706913"><ele>720.0</ele><time>2026-05-04T17:24:48.391Z</time></trkpt><trkpt lat="46.1252002" lon="12.2705923"><ele>720.0</ele><time>2026-05-04T17:24:54.391Z</time></trkpt><trkpt lat="46.125139" lon="12.270559"><ele>720.0</ele><time>2026-05-04T17:25:06.391Z</time></trkpt><trkpt lat="46.1250997" lon="12.2706377"><ele>720.0</ele><time>2026-05-04T17:25:12.393Z</time></trkpt><trkpt lat="46.1250247" lon="12.2706241"><ele>720.0</ele><time>2026-05-04T17:25:16.387Z</time></trkpt><trkpt lat="46.124998" lon="12.2705172"><ele>720.0</ele><time>2026-05-04T17:25:20.387Z</time></trkpt><trkpt lat="46.125008" lon="12.270409"><ele>720.0</ele><time>2026-05-04T17:25:23.383Z</time></trkpt><trkpt lat="46.1250405" lon="12.2703073"><ele>717.5714285714286</ele><time>2026-05-04T17:25:25.39Z</time></trkpt><trkpt lat="46.1250705" lon="12.2702184"><ele>715.1428571428572</ele><time>2026-05-04T17:25:44.395Z</time></trkpt><trkpt lat="46.1251089" lon="12.2701359"><ele>712.7142857142858</ele><time>2026-05-04T17:25:47.382Z</time></trkpt><trkpt lat="46.1251912" lon="12.2701249"><ele>710.2857142857142</ele><time>2026-05-04T17:25:49.387Z</time></trkpt><trkpt lat="46.1252703" lon="12.2701139"><ele>707.8571428571429</ele><time>2026-05-04T17:25:51.381Z</time></trkpt><trkpt lat="46.1253285" lon="12.270068"><ele>705.4285714285714</ele><time>2026-05-04T17:25:53.379Z</time></trkpt><trkpt lat="46.1253888" lon="12.2699972"><ele>703.0</ele><time>2026-05-04T17:26:04.385Z</time></trkpt><trkpt lat="46.125418" lon="12.269897"><ele>703.0</ele><time>2026-05-04T17:26:08.39Z</time></trkpt><trkpt lat="46.1254535" lon="12.269791"><ele>703.0</ele><time>2026-05-04T17:26:11.385Z</time></trkpt><trkpt lat="46.1254597" lon="12.2696865"><ele>703.0</ele><time>2026-05-04T17:26:14.389Z</time></trkpt><trkpt lat="46.1254365" lon="12.2695753"><ele>703.0</ele><time>2026-05-04T17:26:18.388Z</time></trkpt><trkpt lat="46.1254144" lon="12.2694834"><ele>703.0</ele><time>2026-05-04T17:26:31.386Z</time></trkpt><trkpt lat="46.1254054" lon="12.2695793"><ele>703.0</ele><time>2026-05-04T17:26:42.391Z</time></trkpt><trkpt lat="46.1253933" lon="12.269486"><ele>703.0</ele><time>2026-05-04T17:27:16.392Z</time></trkpt><trkpt lat="46.1253591" lon="12.2693819"><ele>699.0</ele><time>2026-05-04T17:27:20.387Z</time></trkpt><trkpt lat="46.1253566" lon="12.2692764"><ele>695.0</ele><time>2026-05-04T17:27:23.392Z</time></trkpt><trkpt lat="46.1253861" lon="12.2691746"><ele>691.0</ele><time>2026-05-04T17:27:26.39Z</time></trkpt><trkpt lat="46.1253751" lon="12.2690784"><ele>687.0</ele><time>2026-05-04T17:27:28.389Z</time></trkpt><trkpt lat="46.1253807" lon="12.2689503"><ele>683.0</ele><time>2026-05-04T17:27:30.387Z</time></trkpt><trkpt lat="46.1253701" lon="12.2688266"><ele>679.0</ele><time>2026-05-04T17:27:32.387Z</time></trkpt><trkpt lat="46.125323" lon="12.2687526"><ele>676.3333333333334</ele><time>2026-05-04T17:27:54.391Z</time></trkpt><trkpt lat="46.1253628" lon="12.2686647"><ele>673.6666666666667</ele><time>2026-05-04T17:28:01.386Z</time></trkpt><trkpt lat="46.1253687" lon="12.268574"><ele>671.0</ele><time>2026-05-04T17:28:03.386Z</time></trkpt><trkpt lat="46.125385" lon="12.2684721"><ele>668.3333333333334</ele><time>2026-05-04T17:28:05.383Z</time></trkpt><trkpt lat="46.1253802" lon="12.2683505"><ele>665.6666666666666</ele><time>2026-05-04T17:28:07.388Z</time></trkpt><trkpt lat="46.1253638" lon="12.2682059"><ele>663.0</ele><time>2026-05-04T17:28:09.38Z</time></trkpt><trkpt lat="46.1253422" lon="12.2680851"><ele>660.4285714285713</ele><time>2026-05-04T17:28:11.379Z</time></trkpt><trkpt lat="46.125348" lon="12.2679854"><ele>657.8571428571429</ele><time>2026-05-04T17:28:13.381Z</time></trkpt><trkpt lat="46.1253382" lon="12.2678774"><ele>655.2857142857142</ele><time>2026-05-04T17:28:17.38Z</time></trkpt><trkpt lat="46.1253476" lon="12.2677853"><ele>652.7142857142857</ele><time>2026-05-04T17:28:20.39Z</time></trkpt><trkpt lat="46.1253612" lon="12.2676932"><ele>650.1428571428571</ele><time>2026-05-04T17:28:23.389Z</time></trkpt><trkpt lat="46.125358" lon="12.2675829"><ele>647.5714285714286</ele><time>2026-05-04T17:28:27.509Z</time></trkpt><trkpt lat="46.1253224" lon="12.2674763"><ele>645.0</ele><time>2026-05-04T17:28:33.379Z</time></trkpt><trkpt lat="46.1252817" lon="12.2673653"><ele>642.5714285714286</ele><time>2026-05-04T17:28:36.388Z</time></trkpt><trkpt lat="46.1252703" lon="12.2672548"><ele>640.1428571428571</ele><time>2026-05-04T17:28:40.389Z</time></trkpt><trkpt lat="46.125254" lon="12.2671557"><ele>637.7142857142857</ele><time>2026-05-04T17:28:43.386Z</time></trkpt><trkpt lat="46.1252291" lon="12.2670625"><ele>635.2857142857142</ele><time>2026-05-04T17:28:46.388Z</time></trkpt><trkpt lat="46.1252262" lon="12.2669709"><ele>632.8571428571429</ele><time>2026-05-04T17:28:49.387Z</time></trkpt><trkpt lat="46.1252343" lon="12.2668641"><ele>630.4285714285713</ele><time>2026-05-04T17:28:53.389Z</time></trkpt><trkpt lat="46.1252456" lon="12.266747"><ele>628.0</ele><time>2026-05-04T17:28:57.386Z</time></trkpt><trkpt lat="46.1252845" lon="12.2666674"><ele>628.0</ele><time>2026-05-04T17:29:00.382Z</time></trkpt><trkpt lat="46.125348" lon="12.266577"><ele>628.0</ele><time>2026-05-04T17:29:03.39Z</time></trkpt><trkpt lat="46.1254007" lon="12.2665195"><ele>628.0</ele><time>2026-05-04T17:29:05.388Z</time></trkpt><trkpt lat="46.1254658" lon="12.2664157"><ele>628.0</ele><time>2026-05-04T17:29:07.388Z</time></trkpt><trkpt lat="46.1255258" lon="12.2663122"><ele>628.0</ele><time>2026-05-04T17:29:10.387Z</time></trkpt><trkpt lat="46.1255389" lon="12.2661966"><ele>628.0</ele><time>2026-05-04T17:29:12.388Z</time></trkpt><trkpt lat="46.1255297" lon="12.2660723"><ele>625.0</ele><time>2026-05-04T17:29:14.388Z</time></trkpt><trkpt lat="46.125508" lon="12.2659686"><ele>622.0</ele><time>2026-05-04T17:29:16.39Z</time></trkpt><trkpt lat="46.125482" lon="12.2658405"><ele>619.0</ele><time>2026-05-04T17:29:40.382Z</time></trkpt><trkpt lat="46.1254318" lon="12.2657419"><ele>616.0</ele><time>2026-05-04T17:29:44.389Z</time></trkpt><trkpt lat="46.1253924" lon="12.2656167"><ele>613.0</ele><time>2026-05-04T17:29:47.388Z</time></trkpt><trkpt lat="46.125398" lon="12.2654889"><ele>610.0</ele><time>2026-05-04T17:29:50.38Z</time></trkpt><trkpt lat="46.1254399" lon="12.2654005"><ele>607.0</ele><time>2026-05-04T17:29:53.386Z</time></trkpt><trkpt lat="46.1254945" lon="12.2653436"><ele>604.0</ele><time>2026-05-04T17:29:56.389Z</time></trkpt><trkpt lat="46.1255493" lon="12.2652311"><ele>601.0</ele><time>2026-05-04T17:29:59.388Z</time></trkpt><trkpt lat="46.1255511" lon="12.2651129"><ele>598.0</ele><time>2026-05-04T17:30:10.389Z</time></trkpt><trkpt lat="46.1255089" lon="12.2650358"><ele>595.0</ele><time>2026-05-04T17:30:13.385Z</time></trkpt><trkpt lat="46.1254562" lon="12.2649721"><ele>592.0</ele><time>2026-05-04T17:30:26.388Z</time></trkpt><trkpt lat="46.1254053" lon="12.265038"><ele>592.0</ele><time>2026-05-04T17:30:44.382Z</time></trkpt><trkpt lat="46.1254365" lon="12.2649513"><ele>592.0</ele><time>2026-05-04T17:31:06.387Z</time></trkpt><trkpt lat="46.1253712" lon="12.2649617"><ele>592.0</ele><time>2026-05-04T17:31:26.391Z</time></trkpt><trkpt lat="46.1252946" lon="12.2649872"><ele>592.0</ele><time>2026-05-04T17:31:28.387Z</time></trkpt><trkpt lat="46.1252359" lon="12.2650468"><ele>592.0</ele><time>2026-05-04T17:31:30.385Z</time></trkpt><trkpt lat="46.1251684" lon="12.2651158"><ele>592.0</ele><time>2026-05-04T17:31:33.381Z</time></trkpt><trkpt lat="46.1251451" lon="12.2652327"><ele>592.0</ele><time>2026-05-04T17:31:38.386Z</time></trkpt><trkpt lat="46.1251623" lon="12.2653218"><ele>592.0</ele><time>2026-05-04T17:31:41.381Z</time></trkpt><trkpt lat="46.1251139" lon="12.2653871"><ele>592.0</ele><time>2026-05-04T17:32:27.387Z</time></trkpt><trkpt lat="46.1251375" lon="12.2652723"><ele>592.0</ele><time>2026-05-04T17:33:29.392Z</time></trkpt><trkpt lat="46.1251494" lon="12.2651669"><ele>592.0</ele><time>2026-05-04T17:33:33.391Z</time></trkpt><trkpt lat="46.125148" lon="12.2650531"><ele>592.0</ele><time>2026-05-04T17:33:38.396Z</time></trkpt><trkpt lat="46.1251513" lon="12.2649453"><ele>592.0</ele><time>2026-05-04T17:33:42.387Z</time></trkpt><trkpt lat="46.1251564" lon="12.2648394"><ele>589.0</ele><time>2026-05-04T17:34:16.385Z</time></trkpt><trkpt lat="46.1251658" lon="12.264746"><ele>586.0</ele><time>2026-05-04T17:34:28.381Z</time></trkpt><trkpt lat="46.125177" lon="12.2646506"><ele>583.0</ele><time>2026-05-04T17:34:39.383Z</time></trkpt><trkpt lat="46.1251987" lon="12.2645379"><ele>580.0</ele><time>2026-05-04T17:34:54.384Z</time></trkpt><trkpt lat="46.1252133" lon="12.2644263"><ele>577.0</ele><time>2026-05-04T17:34:58.381Z</time></trkpt><trkpt lat="46.1252289" lon="12.2643324"><ele>574.0</ele><time>2026-05-04T17:35:05.381Z</time></trkpt><trkpt lat="46.1252801" lon="12.264248"><ele>571.0</ele><time>2026-05-04T17:35:11.382Z</time></trkpt><trkpt lat="46.1253184" lon="12.264159"><ele>571.0</ele><time>2026-05-04T17:35:15.382Z</time></trkpt><trkpt lat="46.1253308" lon="12.2640685"><ele>571.0</ele><time>2026-05-04T17:35:16.385Z</time></trkpt><trkpt lat="46.1253484" lon="12.2639486"><ele>571.0</ele><time>2026-05-04T17:35:18.384Z</time></trkpt><trkpt lat="46.1253863" lon="12.2638484"><ele>571.0</ele><time>2026-05-04T17:35:21.378Z</time></trkpt><trkpt lat="46.1254465" lon="12.2637837"><ele>571.0</ele><time>2026-05-04T17:35:25.383Z</time></trkpt><trkpt lat="46.125514" lon="12.2637229"><ele>571.0</ele><time>2026-05-04T17:35:29.387Z</time></trkpt><trkpt lat="46.1255927" lon="12.2637273"><ele>569.0</ele><time>2026-05-04T17:35:32.386Z</time></trkpt><trkpt lat="46.125669" lon="12.2636604"><ele>567.0</ele><time>2026-05-04T17:35:35.381Z</time></trkpt><trkpt lat="46.1257423" lon="12.2636142"><ele>565.0</ele><time>2026-05-04T17:35:37.387Z</time></trkpt><trkpt lat="46.1258039" lon="12.2635588"><ele>563.0</ele><time>2026-05-04T17:35:39.393Z</time></trkpt><trkpt lat="46.1258542" lon="12.2634936"><ele>561.0</ele><time>2026-05-04T17:35:41.391Z</time></trkpt><trkpt lat="46.1259087" lon="12.2634456"><ele>559.0</ele><time>2026-05-04T17:35:43.386Z</time></trkpt><trkpt lat="46.1259685" lon="12.2634067"><ele>557.0</ele><time>2026-05-04T17:35:46.384Z</time></trkpt><trkpt lat="46.1259077" lon="12.2633492"><ele>557.0</ele><time>2026-05-04T17:36:05.385Z</time></trkpt><trkpt lat="46.1258308" lon="12.2633406"><ele>557.0</ele><time>2026-05-04T17:36:07.384Z</time></trkpt><trkpt lat="46.1257653" lon="12.2633585"><ele>557.0</ele><time>2026-05-04T17:36:12.384Z</time></trkpt><trkpt lat="46.1256793" lon="12.263331"><ele>557.0</ele><time>2026-05-04T17:36:15.385Z</time></trkpt><trkpt lat="46.1255998" lon="12.2633084"><ele>557.0</ele><time>2026-05-04T17:36:17.384Z</time></trkpt><trkpt lat="46.1255372" lon="12.2632224"><ele>557.0</ele><time>2026-05-04T17:36:19.386Z</time></trkpt><trkpt lat="46.1255197" lon="12.2631282"><ele>556.0</ele><time>2026-05-04T17:36:21.39Z</time></trkpt><trkpt lat="46.1255304" lon="12.2630301"><ele>555.0</ele><time>2026-05-04T17:36:23.387Z</time></trkpt><trkpt lat="46.1255676" lon="12.2629295"><ele>554.0</ele><time>2026-05-04T17:36:25.389Z</time></trkpt><trkpt lat="46.1256382" lon="12.2628453"><ele>553.0</ele><time>2026-05-04T17:36:27.388Z</time></trkpt><trkpt lat="46.1257092" lon="12.2628197"><ele>552.0</ele><time>2026-05-04T17:36:29.382Z</time></trkpt><trkpt lat="46.1257927" lon="12.2628148"><ele>551.0</ele><time>2026-05-04T17:36:32.378Z</time></trkpt><trkpt lat="46.12586" lon="12.2628571"><ele>546.25</ele><time>2026-05-04T17:36:35.38Z</time></trkpt><trkpt lat="46.1259318" lon="12.2629016"><ele>541.5</ele><time>2026-05-04T17:36:38.391Z</time></trkpt><trkpt lat="46.1260792" lon="12.2627756"><ele>536.75</ele><time>2026-05-04T17:36:42.383Z</time></trkpt><trkpt lat="46.1261375" lon="12.2625946"><ele>532.0</ele><time>2026-05-04T17:36:44.386Z</time></trkpt><trkpt lat="46.1261648" lon="12.2624894"><ele>532.0</ele><time>2026-05-04T17:36:45.378Z</time></trkpt><trkpt lat="46.1261934" lon="12.2623669"><ele>532.0</ele><time>2026-05-04T17:36:46.382Z</time></trkpt><trkpt lat="46.1262275" lon="12.2622389"><ele>532.0</ele><time>2026-05-04T17:36:47.382Z</time></trkpt><trkpt lat="46.1262604" lon="12.2621046"><ele>532.0</ele><time>2026-05-04T17:36:48.383Z</time></trkpt><trkpt lat="46.1262904" lon="12.2619708"><ele>532.0</ele><time>2026-05-04T17:36:49.379Z</time></trkpt><trkpt lat="46.1263193" lon="12.261844"><ele>530.8333333333334</ele><time>2026-05-04T17:36:50.383Z</time></trkpt><trkpt lat="46.126345" lon="12.2617229"><ele>529.6666666666667</ele><time>2026-05-04T17:36:51.381Z</time></trkpt><trkpt lat="46.1263654" lon="12.2615994"><ele>528.5</ele><time>2026-05-04T17:36:52.387Z</time></trkpt><trkpt lat="46.1263851" lon="12.2614835"><ele>527.3333333333334</ele><time>2026-05-04T17:36:53.392Z</time></trkpt><trkpt lat="46.1263978" lon="12.2613603"><ele>526.1666666666666</ele><time>2026-05-04T17:36:54.384Z</time></trkpt><trkpt lat="46.1264014" lon="12.2612428"><ele>525.0</ele><time>2026-05-04T17:36:55.379Z</time></trkpt><trkpt lat="46.1263998" lon="12.2611396"><ele>522.2</ele><time>2026-05-04T17:36:56.39Z</time></trkpt><trkpt lat="46.1263912" lon="12.2609764"><ele>519.4</ele><time>2026-05-04T17:36:58.388Z</time></trkpt><trkpt lat="46.1264306" lon="12.2608701"><ele>516.6</ele><time>2026-05-04T17:37:00.387Z</time></trkpt><trkpt lat="46.1265108" lon="12.2607646"><ele>513.8</ele><time>2026-05-04T17:37:02.388Z</time></trkpt><trkpt lat="46.126586" lon="12.2606008"><ele>511.0</ele><time>2026-05-04T17:37:04.382Z</time></trkpt><trkpt lat="46.1266117" lon="12.2604988"><ele>508.0</ele><time>2026-05-04T17:37:05.389Z</time></trkpt><trkpt lat="46.1266552" lon="12.2603498"><ele>505.0</ele><time>2026-05-04T17:37:07.388Z</time></trkpt><trkpt lat="46.1266967" lon="12.2602314"><ele>502.0</ele><time>2026-05-04T17:37:09.381Z</time></trkpt><trkpt lat="46.1267365" lon="12.2601058"><ele>499.0</ele><time>2026-05-04T17:37:11.382Z</time></trkpt><trkpt lat="46.12678" lon="12.2599825"><ele>496.0</ele><time>2026-05-04T17:37:13.388Z</time></trkpt><trkpt lat="46.1268435" lon="12.2599046"><ele>496.0</ele><time>2026-05-04T17:37:15.384Z</time></trkpt><trkpt lat="46.1269307" lon="12.2598385"><ele>496.0</ele><time>2026-05-04T17:37:17.385Z</time></trkpt><trkpt lat="46.1270464" lon="12.2597948"><ele>496.0</ele><time>2026-05-04T17:37:19.391Z</time></trkpt><trkpt lat="46.1271061" lon="12.2597639"><ele>496.0</ele><time>2026-05-04T17:37:20.387Z</time></trkpt><trkpt lat="46.1272075" lon="12.2596921"><ele>496.0</ele><time>2026-05-04T17:37:22.388Z</time></trkpt><trkpt lat="46.1272966" lon="12.2595764"><ele>494.33333333333337</ele><time>2026-05-04T17:37:24.381Z</time></trkpt><trkpt lat="46.1273409" lon="12.2594982"><ele>492.6666666666667</ele><time>2026-05-04T17:37:25.381Z</time></trkpt><trkpt lat="46.1273773" lon="12.2594165"><ele>491.0</ele><time>2026-05-04T17:37:26.387Z</time></trkpt><trkpt lat="46.127414" lon="12.2592582"><ele>489.33333333333337</ele><time>2026-05-04T17:37:28.387Z</time></trkpt><trkpt lat="46.1274624" lon="12.2591689"><ele>487.6666666666667</ele><time>2026-05-04T17:37:45.379Z</time></trkpt><trkpt lat="46.1275059" lon="12.2592712"><ele>486.0</ele><time>2026-05-04T17:37:48.413Z</time></trkpt><trkpt lat="46.1275458" lon="12.2593599"><ele>486.0</ele><time>2026-05-04T17:37:50.389Z</time></trkpt><trkpt lat="46.1275939" lon="12.2594535"><ele>486.0</ele><time>2026-05-04T17:37:52.382Z</time></trkpt><trkpt lat="46.1276509" lon="12.259542"><ele>486.0</ele><time>2026-05-04T17:37:54.382Z</time></trkpt><trkpt lat="46.1277021" lon="12.2596187"><ele>486.0</ele><time>2026-05-04T17:37:56.384Z</time></trkpt><trkpt lat="46.1277469" lon="12.259688"><ele>486.0</ele><time>2026-05-04T17:37:58.381Z</time></trkpt><trkpt lat="46.1278275" lon="12.2597743"><ele>486.0</ele><time>2026-05-04T17:38:00.381Z</time></trkpt><trkpt lat="46.1279266" lon="12.2598561"><ele>486.0</ele><time>2026-05-04T17:38:02.389Z</time></trkpt><trkpt lat="46.1280333" lon="12.259959"><ele>486.0</ele><time>2026-05-04T17:38:04.386Z</time></trkpt><trkpt lat="46.1281174" lon="12.2600763"><ele>486.0</ele><time>2026-05-04T17:38:06.385Z</time></trkpt><trkpt lat="46.1281818" lon="12.260109"><ele>486.0</ele><time>2026-05-04T17:38:07.391Z</time></trkpt><trkpt lat="46.1282486" lon="12.2601518"><ele>486.0</ele><time>2026-05-04T17:38:08.389Z</time></trkpt><trkpt lat="46.1283093" lon="12.2601909"><ele>484.5</ele><time>2026-05-04T17:38:09.387Z</time></trkpt><trkpt lat="46.1283749" lon="12.2602276"><ele>483.0</ele><time>2026-05-04T17:38:10.388Z</time></trkpt><trkpt lat="46.1284737" lon="12.2603146"><ele>481.5</ele><time>2026-05-04T17:38:12.385Z</time></trkpt><trkpt lat="46.1285433" lon="12.2603563"><ele>480.0</ele><time>2026-05-04T17:38:14.387Z</time></trkpt><trkpt lat="46.1285863" lon="12.2604361"><ele>478.5</ele><time>2026-05-04T17:38:20.387Z</time></trkpt><trkpt lat="46.1286325" lon="12.2603353"><ele>477.0</ele><time>2026-05-04T17:38:51.387Z</time></trkpt><trkpt lat="46.1287013" lon="12.2602738"><ele>477.0</ele><time>2026-05-04T17:38:53.39Z</time></trkpt><trkpt lat="46.1287619" lon="12.2602089"><ele>477.0</ele><time>2026-05-04T17:38:54.417Z</time></trkpt><trkpt lat="46.1288459" lon="12.2601427"><ele>477.0</ele><time>2026-05-04T17:38:56.386Z</time></trkpt><trkpt lat="46.1289294" lon="12.2601097"><ele>477.0</ele><time>2026-05-04T17:38:58.383Z</time></trkpt><trkpt lat="46.1290144" lon="12.2600817"><ele>477.0</ele><time>2026-05-04T17:39:00.383Z</time></trkpt><trkpt lat="46.1291051" lon="12.2600344"><ele>477.0</ele><time>2026-05-04T17:39:02.395Z</time></trkpt><trkpt lat="46.129196" lon="12.2599462"><ele>476.1666666666667</ele><time>2026-05-04T17:39:04.383Z</time></trkpt><trkpt lat="46.1293031" lon="12.2598637"><ele>475.33333333333337</ele><time>2026-05-04T17:39:06.388Z</time></trkpt><trkpt lat="46.1293641" lon="12.2598314"><ele>474.5</ele><time>2026-05-04T17:39:07.381Z</time></trkpt><trkpt lat="46.1294249" lon="12.2597873"><ele>473.6666666666667</ele><time>2026-05-04T17:39:08.381Z</time></trkpt><trkpt lat="46.1294845" lon="12.2597498"><ele>472.83333333333337</ele><time>2026-05-04T17:39:09.382Z</time></trkpt><trkpt lat="46.129581" lon="12.2596781"><ele>472.0</ele><time>2026-05-04T17:39:11.387Z</time></trkpt><trkpt lat="46.1296563" lon="12.2596226"><ele>471.6</ele><time>2026-05-04T17:39:13.387Z</time></trkpt><trkpt lat="46.1297337" lon="12.2595885"><ele>471.20000000000005</ele><time>2026-05-04T17:39:15.38Z</time></trkpt><trkpt lat="46.1298296" lon="12.2595541"><ele>470.8</ele><time>2026-05-04T17:39:17.388Z</time></trkpt><trkpt lat="46.1299326" lon="12.2595298"><ele>470.4</ele><time>2026-05-04T17:39:19.385Z</time></trkpt><trkpt lat="46.1300364" lon="12.2595208"><ele>470.0</ele><time>2026-05-04T17:39:21.388Z</time></trkpt><trkpt lat="46.1301277" lon="12.2594945"><ele>468.57142857142856</ele><time>2026-05-04T17:39:23.385Z</time></trkpt><trkpt lat="46.1301932" lon="12.2594365"><ele>467.1428571428571</ele><time>2026-05-04T17:39:25.386Z</time></trkpt><trkpt lat="46.1302344" lon="12.2593579"><ele>465.71428571428567</ele><time>2026-05-04T17:39:28.385Z</time></trkpt><trkpt lat="46.1302819" lon="12.259272"><ele>464.2857142857142</ele><time>2026-05-04T17:39:43.388Z</time></trkpt><trkpt lat="46.1303551" lon="12.2593068"><ele>462.85714285714283</ele><time>2026-05-04T17:40:01.382Z</time></trkpt><trkpt lat="46.1304034" lon="12.2593691"><ele>461.42857142857133</ele><time>2026-05-04T17:40:04.388Z</time></trkpt><trkpt lat="46.1304717" lon="12.2593716"><ele>459.99999999999994</ele><time>2026-05-04T17:40:07.382Z</time></trkpt><trkpt lat="46.1305563" lon="12.2593404"><ele>460.0</ele><time>2026-05-04T17:40:10.388Z</time></trkpt><trkpt lat="46.1306288" lon="12.2593196"><ele>460.0</ele><time>2026-05-04T17:40:12.387Z</time></trkpt><trkpt lat="46.1307156" lon="12.2593082"><ele>460.0</ele><time>2026-05-04T17:40:14.388Z</time></trkpt><trkpt lat="46.1308136" lon="12.2593145"><ele>460.0</ele><time>2026-05-04T17:40:16.38Z</time></trkpt><trkpt lat="46.1309204" lon="12.2593241"><ele>460.0</ele><time>2026-05-04T17:40:18.388Z</time></trkpt><trkpt lat="46.1310349" lon="12.2593345"><ele>458.4</ele><time>2026-05-04T17:40:20.389Z</time></trkpt><trkpt lat="46.1311596" lon="12.2593532"><ele>456.8</ele><time>2026-05-04T17:40:22.387Z</time></trkpt><trkpt lat="46.1312812" lon="12.2593539"><ele>455.20000000000005</ele><time>2026-05-04T17:40:24.387Z</time></trkpt><trkpt lat="46.1313827" lon="12.2593329"><ele>453.6</ele><time>2026-05-04T17:40:26.389Z</time></trkpt><trkpt lat="46.1314614" lon="12.2592672"><ele>452.0</ele><time>2026-05-04T17:40:28.389Z</time></trkpt><trkpt lat="46.1315088" lon="12.2591466"><ele>452.0</ele><time>2026-05-04T17:40:30.384Z</time></trkpt><trkpt lat="46.1315403" lon="12.2589966"><ele>452.0</ele><time>2026-05-04T17:40:32.383Z</time></trkpt><trkpt lat="46.1315672" lon="12.2588357"><ele>452.0</ele><time>2026-05-04T17:40:34.382Z</time></trkpt><trkpt lat="46.1315962" lon="12.2586742"><ele>452.0</ele><time>2026-05-04T17:40:36.385Z</time></trkpt><trkpt lat="46.1316269" lon="12.2585102"><ele>450.8333333333333</ele><time>2026-05-04T17:40:38.389Z</time></trkpt><trkpt lat="46.1316563" lon="12.2583447"><ele>449.66666666666663</ele><time>2026-05-04T17:40:40.383Z</time></trkpt><trkpt lat="46.1316888" lon="12.2582241"><ele>448.5</ele><time>2026-05-04T17:40:42.391Z</time></trkpt><trkpt lat="46.131657" lon="12.2581407"><ele>447.33333333333337</ele><time>2026-05-04T17:40:47.39Z</time></trkpt><trkpt lat="46.1315862" lon="12.258125"><ele>446.1666666666667</ele><time>2026-05-04T17:40:52.384Z</time></trkpt><trkpt lat="46.1315223" lon="12.2580906"><ele>445.0</ele><time>2026-05-04T17:40:55.382Z</time></trkpt><trkpt lat="46.1314529" lon="12.2580521"><ele>445.00000000000006</ele><time>2026-05-04T17:40:59.384Z</time></trkpt><trkpt lat="46.131393" lon="12.258008"><ele>445.0</ele><time>2026-05-04T17:41:01.382Z</time></trkpt><trkpt lat="46.1313198" lon="12.2579455"><ele>445.0</ele><time>2026-05-04T17:41:03.391Z</time></trkpt><trkpt lat="46.1312478" lon="12.2578674"><ele>445.0</ele><time>2026-05-04T17:41:05.384Z</time></trkpt><trkpt lat="46.1311739" lon="12.2577855"><ele>445.00000000000006</ele><time>2026-05-04T17:41:07.389Z</time></trkpt><trkpt lat="46.1311029" lon="12.2576913"><ele>445.0</ele><time>2026-05-04T17:41:09.383Z</time></trkpt><trkpt lat="46.1310211" lon="12.2576145"><ele>445.0</ele><time>2026-05-04T17:41:11.39Z</time></trkpt><trkpt lat="46.1309285" lon="12.2575661"><ele>445.0</ele><time>2026-05-04T17:41:13.387Z</time></trkpt><trkpt lat="46.1308339" lon="12.2575601"><ele>445.0</ele><time>2026-05-04T17:41:15.384Z</time></trkpt><trkpt lat="46.1307453" lon="12.2575597"><ele>445.0</ele><time>2026-05-04T17:41:17.388Z</time></trkpt><trkpt lat="46.1306589" lon="12.2575476"><ele>445.0</ele><time>2026-05-04T17:41:19.384Z</time></trkpt><trkpt lat="46.1305716" lon="12.2575315"><ele>447.0</ele><time>2026-05-04T17:41:21.389Z</time></trkpt><trkpt lat="46.1304869" lon="12.2575078"><ele>449.0</ele><time>2026-05-04T17:41:23.387Z</time></trkpt><trkpt lat="46.1303928" lon="12.2574734"><ele>451.0</ele><time>2026-05-04T17:41:25.391Z</time></trkpt><trkpt lat="46.1303054" lon="12.2574292"><ele>453.0</ele><time>2026-05-04T17:41:27.383Z</time></trkpt><trkpt lat="46.1302207" lon="12.2573799"><ele>455.0</ele><time>2026-05-04T17:41:29.388Z</time></trkpt><trkpt lat="46.1301387" lon="12.2573347"><ele>454.49999999999994</ele><time>2026-05-04T17:41:31.38Z</time></trkpt><trkpt lat="46.1300561" lon="12.2572746"><ele>454.0</ele><time>2026-05-04T17:41:33.382Z</time></trkpt><trkpt lat="46.1299775" lon="12.2572183"><ele>453.5</ele><time>2026-05-04T17:41:35.388Z</time></trkpt><trkpt lat="46.1299128" lon="12.2571481"><ele>453.0</ele><time>2026-05-04T17:41:37.384Z</time></trkpt><trkpt lat="46.1298499" lon="12.2570746"><ele>452.49999999999994</ele><time>2026-05-04T17:41:39.39Z</time></trkpt><trkpt lat="46.1297969" lon="12.2569906"><ele>452.0</ele><time>2026-05-04T17:41:41.38Z</time></trkpt><trkpt lat="46.1297492" lon="12.2568971"><ele>453.3333333333333</ele><time>2026-05-04T17:41:43.388Z</time></trkpt><trkpt lat="46.1297018" lon="12.2567923"><ele>454.66666666666663</ele><time>2026-05-04T17:41:45.386Z</time></trkpt><trkpt lat="46.129653" lon="12.2566957"><ele>456.0</ele><time>2026-05-04T17:41:47.381Z</time></trkpt><trkpt lat="46.1296046" lon="12.2566066"><ele>457.33333333333337</ele><time>2026-05-04T17:41:49.388Z</time></trkpt><trkpt lat="46.1295546" lon="12.2565226"><ele>458.6666666666667</ele><time>2026-05-04T17:41:51.391Z</time></trkpt><trkpt lat="46.1294968" lon="12.2564538"><ele>460.0</ele><time>2026-05-04T17:41:53.389Z</time></trkpt><trkpt lat="46.1294345" lon="12.2563741"><ele>460.0</ele><time>2026-05-04T17:41:55.382Z</time></trkpt><trkpt lat="46.1293713" lon="12.2562951"><ele>460.0</ele><time>2026-05-04T17:41:57.388Z</time></trkpt><trkpt lat="46.1293005" lon="12.2562201"><ele>460.0</ele><time>2026-05-04T17:41:59.389Z</time></trkpt><trkpt lat="46.1292309" lon="12.2561451"><ele>460.0</ele><time>2026-05-04T17:42:01.409Z</time></trkpt><trkpt lat="46.1291606" lon="12.2560599"><ele>460.0</ele><time>2026-05-04T17:42:03.386Z</time></trkpt><trkpt lat="46.1290707" lon="12.2559974"><ele>461.6</ele><time>2026-05-04T17:42:05.388Z</time></trkpt><trkpt lat="46.1289867" lon="12.2559283"><ele>463.2</ele><time>2026-05-04T17:42:07.398Z</time></trkpt><trkpt lat="46.1288945" lon="12.2558651"><ele>464.79999999999995</ele><time>2026-05-04T17:42:09.39Z</time></trkpt><trkpt lat="46.1288035" lon="12.2557923"><ele>466.4</ele><time>2026-05-04T17:42:11.382Z</time></trkpt><trkpt lat="46.1287205" lon="12.2557368"><ele>468.0</ele><time>2026-05-04T17:42:13.387Z</time></trkpt><trkpt lat="46.1286409" lon="12.2557025"><ele>468.0</ele><time>2026-05-04T17:42:15.39Z</time></trkpt><trkpt lat="46.1285421" lon="12.2556788"><ele>468.0</ele><time>2026-05-04T17:42:17.385Z</time></trkpt><trkpt lat="46.1284518" lon="12.2556736"><ele>468.0</ele><time>2026-05-04T17:42:19.388Z</time></trkpt><trkpt lat="46.1283695" lon="12.2556643"><ele>468.0</ele><time>2026-05-04T17:42:21.384Z</time></trkpt><trkpt lat="46.1282962" lon="12.2556619"><ele>468.0</ele><time>2026-05-04T17:42:23.385Z</time></trkpt><trkpt lat="46.1282372" lon="12.2556055"><ele>468.0</ele><time>2026-05-04T17:42:31.382Z</time></trkpt><trkpt lat="46.1281613" lon="12.2555172"><ele>466.6666666666667</ele><time>2026-05-04T17:42:34.388Z</time></trkpt><trkpt lat="46.1280746" lon="12.2554503"><ele>465.33333333333337</ele><time>2026-05-04T17:42:36.387Z</time></trkpt><trkpt lat="46.1280122" lon="12.2554248"><ele>464.0</ele><time>2026-05-04T17:42:37.388Z</time></trkpt><trkpt lat="46.1279589" lon="12.2553644"><ele>462.6666666666667</ele><time>2026-05-04T17:42:41.384Z</time></trkpt><trkpt lat="46.12803" lon="12.2554639"><ele>461.33333333333337</ele><time>2026-05-04T17:43:15.387Z</time></trkpt><trkpt lat="46.1281383" lon="12.2555199"><ele>460.0</ele><time>2026-05-04T17:43:17.382Z</time></trkpt><trkpt lat="46.128216" lon="12.2555692"><ele>461.50000000000006</ele><time>2026-05-04T17:43:19.381Z</time></trkpt><trkpt lat="46.1281788" lon="12.2556498"><ele>463.0</ele><time>2026-05-04T17:43:23.385Z</time></trkpt><trkpt lat="46.1280945" lon="12.2556622"><ele>464.5</ele><time>2026-05-04T17:43:27.382Z</time></trkpt><trkpt lat="46.1280208" lon="12.2556697"><ele>466.0</ele><time>2026-05-04T17:43:30.385Z</time></trkpt><trkpt lat="46.1279496" lon="12.2556819"><ele>467.50000000000006</ele><time>2026-05-04T17:43:33.387Z</time></trkpt><trkpt lat="46.1278704" lon="12.2557245"><ele>469.0</ele><time>2026-05-04T17:43:36.389Z</time></trkpt><trkpt lat="46.1277879" lon="12.2557471"><ele>469.00000000000006</ele><time>2026-05-04T17:43:40.384Z</time></trkpt><trkpt lat="46.1277269" lon="12.2557907"><ele>469.0</ele><time>2026-05-04T17:43:44.388Z</time></trkpt><trkpt lat="46.1276499" lon="12.2558214"><ele>469.0</ele><time>2026-05-04T17:43:49.382Z</time></trkpt><trkpt lat="46.127539" lon="12.2558629"><ele>469.0</ele><time>2026-05-04T17:43:54.387Z</time></trkpt><trkpt lat="46.1274692" lon="12.2559001"><ele>469.00000000000006</ele><time>2026-05-04T17:43:57.378Z</time></trkpt><trkpt lat="46.1273995" lon="12.2559425"><ele>469.0</ele><time>2026-05-04T17:44:00.388Z</time></trkpt><trkpt lat="46.127319" lon="12.2559886"><ele>470.1666666666667</ele><time>2026-05-04T17:44:03.387Z</time></trkpt><trkpt lat="46.12726" lon="12.2560222"><ele>471.33333333333337</ele><time>2026-05-04T17:44:05.381Z</time></trkpt><trkpt lat="46.1271752" lon="12.2560377"><ele>472.5</ele><time>2026-05-04T17:44:08.383Z</time></trkpt><trkpt lat="46.1271195" lon="12.255982"><ele>473.66666666666663</ele><time>2026-05-04T17:44:10.391Z</time></trkpt><trkpt lat="46.1270634" lon="12.2559163"><ele>474.8333333333333</ele><time>2026-05-04T17:44:12.388Z</time></trkpt><trkpt lat="46.1269992" lon="12.255858"><ele>476.0</ele><time>2026-05-04T17:44:14.389Z</time></trkpt><trkpt lat="46.1269192" lon="12.2558119"><ele>475.99999999999994</ele><time>2026-05-04T17:44:16.386Z</time></trkpt><trkpt lat="46.1268372" lon="12.2557762"><ele>476.0</ele><time>2026-05-04T17:44:18.387Z</time></trkpt><trkpt lat="46.1267546" lon="12.2557458"><ele>476.0</ele><time>2026-05-04T17:44:20.381Z</time></trkpt><trkpt lat="46.1266732" lon="12.2557134"><ele>476.0</ele><time>2026-05-04T17:44:22.382Z</time></trkpt><trkpt lat="46.126592" lon="12.2556801"><ele>475.99999999999994</ele><time>2026-05-04T17:44:24.389Z</time></trkpt><trkpt lat="46.1265107" lon="12.2556336"><ele>476.0</ele><time>2026-05-04T17:44:26.39Z</time></trkpt><trkpt lat="46.126428" lon="12.2555869"><ele>476.6</ele><time>2026-05-04T17:44:28.385Z</time></trkpt><trkpt lat="46.1263402" lon="12.2555344"><ele>477.20000000000005</ele><time>2026-05-04T17:44:30.385Z</time></trkpt><trkpt lat="46.1262477" lon="12.2554791"><ele>477.79999999999995</ele><time>2026-05-04T17:44:32.389Z</time></trkpt><trkpt lat="46.1261536" lon="12.2554129"><ele>478.4</ele><time>2026-05-04T17:44:34.383Z</time></trkpt><trkpt lat="46.1260626" lon="12.2553485"><ele>479.0</ele><time>2026-05-04T17:44:36.38Z</time></trkpt><trkpt lat="46.125971" lon="12.2552832"><ele>478.99999999999994</ele><time>2026-05-04T17:44:38.384Z</time></trkpt><trkpt lat="46.1258797" lon="12.2552196"><ele>479.0</ele><time>2026-05-04T17:44:40.383Z</time></trkpt><trkpt lat="46.1257955" lon="12.2551493"><ele>479.0</ele><time>2026-05-04T17:44:42.383Z</time></trkpt><trkpt lat="46.1257228" lon="12.2550735"><ele>479.0</ele><time>2026-05-04T17:44:44.382Z</time></trkpt><trkpt lat="46.125655" lon="12.2550084"><ele>478.99999999999994</ele><time>2026-05-04T17:44:46.385Z</time></trkpt><trkpt lat="46.1255949" lon="12.2549445"><ele>479.0</ele><time>2026-05-04T17:44:48.385Z</time></trkpt><trkpt lat="46.1255331" lon="12.2548688"><ele>478.6</ele><time>2026-05-04T17:44:50.392Z</time></trkpt><trkpt lat="46.1254638" lon="12.2547793"><ele>478.2</ele><time>2026-05-04T17:44:52.387Z</time></trkpt><trkpt lat="46.125385" lon="12.2546917"><ele>477.80000000000007</ele><time>2026-05-04T17:44:54.382Z</time></trkpt><trkpt lat="46.1253093" lon="12.254613"><ele>477.40000000000003</ele><time>2026-05-04T17:44:56.378Z</time></trkpt><trkpt lat="46.1252245" lon="12.2545462"><ele>477.0</ele><time>2026-05-04T17:44:58.383Z</time></trkpt><trkpt lat="46.1251362" lon="12.254484"><ele>477.0</ele><time>2026-05-04T17:45:00.385Z</time></trkpt><trkpt lat="46.1250415" lon="12.2544283"><ele>477.00000000000006</ele><time>2026-05-04T17:45:02.383Z</time></trkpt><trkpt lat="46.1249446" lon="12.2543771"><ele>477.00000000000006</ele><time>2026-05-04T17:45:04.381Z</time></trkpt><trkpt lat="46.1248396" lon="12.2543446"><ele>477.0</ele><time>2026-05-04T17:45:06.381Z</time></trkpt><trkpt lat="46.124739" lon="12.2543002"><ele>477.0</ele><time>2026-05-04T17:45:08.376Z</time></trkpt><trkpt lat="46.124661" lon="12.2542134"><ele>477.20000000000005</ele><time>2026-05-04T17:45:10.379Z</time></trkpt><trkpt lat="46.1245785" lon="12.2541319"><ele>477.40000000000003</ele><time>2026-05-04T17:45:12.379Z</time></trkpt><trkpt lat="46.1245141" lon="12.2540538"><ele>477.59999999999997</ele><time>2026-05-04T17:45:14.379Z</time></trkpt><trkpt lat="46.1244545" lon="12.253987"><ele>477.79999999999995</ele><time>2026-05-04T17:45:16.385Z</time></trkpt><trkpt lat="46.1243762" lon="12.2539289"><ele>478.0</ele><time>2026-05-04T17:45:18.378Z</time></trkpt><trkpt lat="46.124286" lon="12.2538584"><ele>477.2</ele><time>2026-05-04T17:45:20.381Z</time></trkpt><trkpt lat="46.1241851" lon="12.2537767"><ele>476.4</ele><time>2026-05-04T17:45:22.389Z</time></trkpt><trkpt lat="46.1241013" lon="12.253688"><ele>475.59999999999997</ele><time>2026-05-04T17:45:24.387Z</time></trkpt><trkpt lat="46.1240702" lon="12.2535952"><ele>474.79999999999995</ele><time>2026-05-04T17:45:27.5Z</time></trkpt><trkpt lat="46.1240796" lon="12.253474"><ele>474.0</ele><time>2026-05-04T17:45:30.383Z</time></trkpt><trkpt lat="46.1240997" lon="12.2533656"><ele>474.0</ele><time>2026-05-04T17:45:32.389Z</time></trkpt><trkpt lat="46.1241211" lon="12.2532473"><ele>474.0</ele><time>2026-05-04T17:45:34.384Z</time></trkpt><trkpt lat="46.1241345" lon="12.2531233"><ele>474.0</ele><time>2026-05-04T17:45:36.382Z</time></trkpt><trkpt lat="46.1241019" lon="12.2530047"><ele>474.0</ele><time>2026-05-04T17:45:38.389Z</time></trkpt><trkpt lat="46.1240232" lon="12.2528959"><ele>474.0</ele><time>2026-05-04T17:45:40.389Z</time></trkpt><trkpt lat="46.123926" lon="12.2527764"><ele>473.5714285714285</ele><time>2026-05-04T17:45:42.386Z</time></trkpt><trkpt lat="46.1238761" lon="12.2527102"><ele>473.1428571428571</ele><time>2026-05-04T17:45:43.379Z</time></trkpt><trkpt lat="46.1238344" lon="12.2526379"><ele>472.7142857142857</ele><time>2026-05-04T17:45:44.387Z</time></trkpt><trkpt lat="46.1237983" lon="12.2525595"><ele>472.2857142857143</ele><time>2026-05-04T17:45:45.381Z</time></trkpt><trkpt lat="46.1237687" lon="12.252473"><ele>471.8571428571429</ele><time>2026-05-04T17:45:46.389Z</time></trkpt><trkpt lat="46.1237477" lon="12.2523822"><ele>471.4285714285715</ele><time>2026-05-04T17:45:47.382Z</time></trkpt><trkpt lat="46.1237271" lon="12.2522909"><ele>471.00000000000006</ele><time>2026-05-04T17:45:48.382Z</time></trkpt><trkpt lat="46.1236974" lon="12.2521972"><ele>469.8333333333333</ele><time>2026-05-04T17:45:49.386Z</time></trkpt><trkpt lat="46.1236661" lon="12.2521137"><ele>468.66666666666663</ele><time>2026-05-04T17:45:50.389Z</time></trkpt><trkpt lat="46.1236261" lon="12.2520267"><ele>467.5</ele><time>2026-05-04T17:45:51.384Z</time></trkpt><trkpt lat="46.1235808" lon="12.2519358"><ele>466.3333333333333</ele><time>2026-05-04T17:45:52.384Z</time></trkpt><trkpt lat="46.1235316" lon="12.2518503"><ele>465.16666666666663</ele><time>2026-05-04T17:45:53.39Z</time></trkpt><trkpt lat="46.1234806" lon="12.2517581"><ele>464.0</ele><time>2026-05-04T17:45:54.388Z</time></trkpt><trkpt lat="46.1234253" lon="12.2516652"><ele>464.0</ele><time>2026-05-04T17:45:55.38Z</time></trkpt><trkpt lat="46.1233697" lon="12.2515649"><ele>464.0</ele><time>2026-05-04T17:45:56.389Z</time></trkpt><trkpt lat="46.1233182" lon="12.251457"><ele>464.0</ele><time>2026-05-04T17:45:57.386Z</time></trkpt><trkpt lat="46.1232722" lon="12.2513407"><ele>464.0</ele><time>2026-05-04T17:45:58.387Z</time></trkpt><trkpt lat="46.123228" lon="12.2512182"><ele>464.0</ele><time>2026-05-04T17:45:59.389Z</time></trkpt><trkpt lat="46.123181" lon="12.2510992"><ele>463.0</ele><time>2026-05-04T17:46:00.388Z</time></trkpt><trkpt lat="46.1231227" lon="12.2509937"><ele>462.0</ele><time>2026-05-04T17:46:01.386Z</time></trkpt><trkpt lat="46.1230592" lon="12.2508915"><ele>461.0</ele><time>2026-05-04T17:46:02.38Z</time></trkpt><trkpt lat="46.1229936" lon="12.2507898"><ele>460.0</ele><time>2026-05-04T17:46:03.387Z</time></trkpt><trkpt lat="46.1229302" lon="12.2506865"><ele>459.0</ele><time>2026-05-04T17:46:04.389Z</time></trkpt><trkpt lat="46.1228591" lon="12.2505879"><ele>458.2</ele><time>2026-05-04T17:46:05.387Z</time></trkpt><trkpt lat="46.1227889" lon="12.2504846"><ele>457.4</ele><time>2026-05-04T17:46:06.388Z</time></trkpt><trkpt lat="46.1227167" lon="12.2503799"><ele>456.6</ele><time>2026-05-04T17:46:07.388Z</time></trkpt><trkpt lat="46.1226437" lon="12.250272"><ele>455.8</ele><time>2026-05-04T17:46:08.389Z</time></trkpt><trkpt lat="46.1225676" lon="12.2501652"><ele>455.0</ele><time>2026-05-04T17:46:09.383Z</time></trkpt><trkpt lat="46.1224966" lon="12.2500557"><ele>454.99999999999994</ele><time>2026-05-04T17:46:10.388Z</time></trkpt><trkpt lat="46.1224323" lon="12.2499571"><ele>455.0</ele><time>2026-05-04T17:46:11.387Z</time></trkpt><trkpt lat="46.1223677" lon="12.2498718"><ele>455.0</ele><time>2026-05-04T17:46:12.391Z</time></trkpt><trkpt lat="46.122302" lon="12.2497998"><ele>455.0</ele><time>2026-05-04T17:46:13.388Z</time></trkpt><trkpt lat="46.1222446" lon="12.2497379"><ele>454.99999999999994</ele><time>2026-05-04T17:46:14.39Z</time></trkpt><trkpt lat="46.1221592" lon="12.2496616"><ele>455.0</ele><time>2026-05-04T17:46:16.388Z</time></trkpt><trkpt lat="46.1221022" lon="12.2496181"><ele>454.16666666666663</ele><time>2026-05-04T17:46:18.391Z</time></trkpt><trkpt lat="46.1220937" lon="12.2495203"><ele>453.3333333333333</ele><time>2026-05-04T17:46:48.39Z</time></trkpt><trkpt lat="46.1220253" lon="12.2494324"><ele>452.5</ele><time>2026-05-04T17:46:51.387Z</time></trkpt><trkpt lat="46.1219489" lon="12.2493891"><ele>451.66666666666663</ele><time>2026-05-04T17:46:53.389Z</time></trkpt><trkpt lat="46.1218826" lon="12.2493406"><ele>450.8333333333333</ele><time>2026-05-04T17:46:55.382Z</time></trkpt><trkpt lat="46.1218095" lon="12.2493429"><ele>450.0</ele><time>2026-05-04T17:46:58.384Z</time></trkpt><trkpt lat="46.1218567" lon="12.2494199"><ele>450.00000000000006</ele><time>2026-05-04T17:47:06.383Z</time></trkpt><trkpt lat="46.1219195" lon="12.2494436"><ele>450.0</ele><time>2026-05-04T17:47:09.389Z</time></trkpt><trkpt lat="46.1219767" lon="12.2494884"><ele>450.00000000000006</ele><time>2026-05-04T17:47:11.38Z</time></trkpt><trkpt lat="46.1220403" lon="12.2495101"><ele>450.00000000000006</ele><time>2026-05-04T17:47:13.382Z</time></trkpt><trkpt lat="46.1221002" lon="12.2494731"><ele>450.0</ele><time>2026-05-04T17:47:15.382Z</time></trkpt><trkpt lat="46.1221777" lon="12.2494234"><ele>450.00000000000006</ele><time>2026-05-04T17:47:17.386Z</time></trkpt><trkpt lat="46.1222709" lon="12.2493706"><ele>450.00000000000006</ele><time>2026-05-04T17:47:19.387Z</time></trkpt><trkpt lat="46.1223738" lon="12.2493123"><ele>449.8</ele><time>2026-05-04T17:47:21.386Z</time></trkpt><trkpt lat="46.1224791" lon="12.2492505"><ele>449.6</ele><time>2026-05-04T17:47:23.388Z</time></trkpt><trkpt lat="46.1225911" lon="12.249181"><ele>449.4</ele><time>2026-05-04T17:47:25.387Z</time></trkpt><trkpt lat="46.122647" lon="12.2491392"><ele>449.2</ele><time>2026-05-04T17:47:26.39Z</time></trkpt><trkpt lat="46.1227599" lon="12.2490602"><ele>449.0</ele><time>2026-05-04T17:47:28.381Z</time></trkpt><trkpt lat="46.1228674" lon="12.2489839"><ele>448.79999999999995</ele><time>2026-05-04T17:47:30.384Z</time></trkpt><trkpt lat="46.1229766" lon="12.2489177"><ele>448.59999999999997</ele><time>2026-05-04T17:47:32.39Z</time></trkpt><trkpt lat="46.1230851" lon="12.2488593"><ele>448.4</ele><time>2026-05-04T17:47:34.387Z</time></trkpt><trkpt lat="46.1231783" lon="12.248808"><ele>448.2</ele><time>2026-05-04T17:47:36.385Z</time></trkpt><trkpt lat="46.1231923" lon="12.2486994"><ele>448.0</ele><time>2026-05-04T17:47:38.388Z</time></trkpt><trkpt lat="46.1231431" lon="12.2485923"><ele>448.0</ele><time>2026-05-04T17:47:40.396Z</time></trkpt><trkpt lat="46.1230681" lon="12.2484865"><ele>447.99999999999994</ele><time>2026-05-04T17:47:42.387Z</time></trkpt><trkpt lat="46.1229984" lon="12.2483745"><ele>447.99999999999994</ele><time>2026-05-04T17:47:44.385Z</time></trkpt><trkpt lat="46.12292" lon="12.2482662"><ele>448.0</ele><time>2026-05-04T17:47:46.387Z</time></trkpt><trkpt lat="46.1228445" lon="12.2481567"><ele>448.0</ele><time>2026-05-04T17:47:48.387Z</time></trkpt><trkpt lat="46.1227708" lon="12.2480398"><ele>447.25</ele><time>2026-05-04T17:47:50.388Z</time></trkpt><trkpt lat="46.1226942" lon="12.24792"><ele>446.5</ele><time>2026-05-04T17:47:52.381Z</time></trkpt><trkpt lat="46.1226067" lon="12.2478076"><ele>445.75</ele><time>2026-05-04T17:47:54.391Z</time></trkpt><trkpt lat="46.1225196" lon="12.2476921"><ele>445.0</ele><time>2026-05-04T17:47:56.386Z</time></trkpt><trkpt lat="46.1224292" lon="12.2475769"><ele>444.8</ele><time>2026-05-04T17:47:58.391Z</time></trkpt><trkpt lat="46.1223486" lon="12.2474657"><ele>444.6</ele><time>2026-05-04T17:48:00.39Z</time></trkpt><trkpt lat="46.1222711" lon="12.2473589"><ele>444.4</ele><time>2026-05-04T17:48:02.383Z</time></trkpt><trkpt lat="46.1221963" lon="12.2472582"><ele>444.2</ele><time>2026-05-04T17:48:04.387Z</time></trkpt><trkpt lat="46.1221282" lon="12.2471671"><ele>444.0</ele><time>2026-05-04T17:48:06.39Z</time></trkpt><trkpt lat="46.1220554" lon="12.2470928"><ele>444.0</ele><time>2026-05-04T17:48:08.386Z</time></trkpt><trkpt lat="46.1219938" lon="12.2470299"><ele>444.0</ele><time>2026-05-04T17:48:10.39Z</time></trkpt><trkpt lat="46.1219409" lon="12.2469752"><ele>444.0</ele><time>2026-05-04T17:48:12.39Z</time></trkpt><trkpt lat="46.1218875" lon="12.2468921"><ele>444.0</ele><time>2026-05-04T17:48:15.388Z</time></trkpt><trkpt lat="46.1218281" lon="12.2468564"><ele>444.0</ele><time>2026-05-04T17:48:21.384Z</time></trkpt><trkpt lat="46.1217613" lon="12.2468689"><ele>444.0</ele><time>2026-05-04T17:48:23.389Z</time></trkpt><trkpt lat="46.1216738" lon="12.2468118"><ele>444.0</ele><time>2026-05-04T17:48:25.382Z</time></trkpt><trkpt lat="46.1215781" lon="12.2466962"><ele>443.85714285714283</ele><time>2026-05-04T17:48:27.386Z</time></trkpt><trkpt lat="46.1215309" lon="12.2466326"><ele>443.7142857142857</ele><time>2026-05-04T17:48:28.382Z</time></trkpt><trkpt lat="46.1214821" lon="12.2465667"><ele>443.57142857142856</ele><time>2026-05-04T17:48:29.386Z</time></trkpt><trkpt lat="46.1214339" lon="12.2465017"><ele>443.42857142857144</ele><time>2026-05-04T17:48:30.386Z</time></trkpt><trkpt lat="46.1213815" lon="12.2464391"><ele>443.28571428571433</ele><time>2026-05-04T17:48:31.388Z</time></trkpt><trkpt lat="46.12133" lon="12.2463756"><ele>443.14285714285717</ele><time>2026-05-04T17:48:32.387Z</time></trkpt><trkpt lat="46.1212795" lon="12.2463136"><ele>443.0</ele><time>2026-05-04T17:48:33.388Z</time></trkpt><trkpt lat="46.1212299" lon="12.2462464"><ele>442.8571428571429</ele><time>2026-05-04T17:48:34.388Z</time></trkpt><trkpt lat="46.1211803" lon="12.2461792"><ele>442.7142857142857</ele><time>2026-05-04T17:48:35.388Z</time></trkpt><trkpt lat="46.121133" lon="12.2461152"><ele>442.57142857142856</ele><time>2026-05-04T17:48:36.391Z</time></trkpt><trkpt lat="46.1210807" lon="12.2460526"><ele>442.42857142857144</ele><time>2026-05-04T17:48:37.387Z</time></trkpt><trkpt lat="46.1210314" lon="12.245984"><ele>442.2857142857143</ele><time>2026-05-04T17:48:38.389Z</time></trkpt><trkpt lat="46.1209805" lon="12.2459226"><ele>442.14285714285717</ele><time>2026-05-04T17:48:39.387Z</time></trkpt><trkpt lat="46.1209297" lon="12.2458591"><ele>442.0</ele><time>2026-05-04T17:48:40.389Z</time></trkpt><trkpt lat="46.1208815" lon="12.2457941"><ele>442.0</ele><time>2026-05-04T17:48:41.387Z</time></trkpt><trkpt lat="46.1208323" lon="12.2457372"><ele>442.00000000000006</ele><time>2026-05-04T17:48:42.387Z</time></trkpt><trkpt lat="46.1207379" lon="12.2456278"><ele>442.00000000000006</ele><time>2026-05-04T17:48:44.388Z</time></trkpt><trkpt lat="46.1206559" lon="12.2455229"><ele>442.0</ele><time>2026-05-04T17:48:46.391Z</time></trkpt><trkpt lat="46.1205798" lon="12.2454204"><ele>442.0</ele><time>2026-05-04T17:48:48.384Z</time></trkpt><trkpt lat="46.1204988" lon="12.245329"><ele>441.8</ele><time>2026-05-04T17:48:50.382Z</time></trkpt><trkpt lat="46.12043" lon="12.2452334"><ele>441.6</ele><time>2026-05-04T17:48:52.388Z</time></trkpt><trkpt lat="46.1203302" lon="12.2451018"><ele>441.40000000000003</ele><time>2026-05-04T17:48:54.388Z</time></trkpt><trkpt lat="46.1202785" lon="12.2450441"><ele>441.20000000000005</ele><time>2026-05-04T17:48:55.389Z</time></trkpt><trkpt lat="46.1202296" lon="12.2449853"><ele>441.0</ele><time>2026-05-04T17:48:56.387Z</time></trkpt><trkpt lat="46.1201219" lon="12.2448888"><ele>441.0</ele><time>2026-05-04T17:48:58.383Z</time></trkpt><trkpt lat="46.1200174" lon="12.2447988"><ele>441.0</ele><time>2026-05-04T17:49:00.382Z</time></trkpt><trkpt lat="46.1199116" lon="12.2447189"><ele>441.0</ele><time>2026-05-04T17:49:02.383Z</time></trkpt><trkpt lat="46.1198066" lon="12.2446378"><ele>441.0</ele><time>2026-05-04T17:49:04.383Z</time></trkpt><trkpt lat="46.1196966" lon="12.2445584"><ele>442.75</ele><time>2026-05-04T17:49:06.384Z</time></trkpt><trkpt lat="46.1195899" lon="12.2444776"><ele>444.5</ele><time>2026-05-04T17:49:08.382Z</time></trkpt><trkpt lat="46.1194858" lon="12.2444005"><ele>446.25</ele><time>2026-05-04T17:49:10.386Z</time></trkpt><trkpt lat="46.119378" lon="12.2443263"><ele>448.0</ele><time>2026-05-04T17:49:12.385Z</time></trkpt><trkpt lat="46.1192696" lon="12.2442553"><ele>448.0</ele><time>2026-05-04T17:49:14.388Z</time></trkpt><trkpt lat="46.119159" lon="12.2441969"><ele>448.0</ele><time>2026-05-04T17:49:16.387Z</time></trkpt><trkpt lat="46.1190522" lon="12.2441256"><ele>448.0</ele><time>2026-05-04T17:49:18.381Z</time></trkpt><trkpt lat="46.1189436" lon="12.2440584"><ele>448.0</ele><time>2026-05-04T17:49:20.389Z</time></trkpt><trkpt lat="46.1188263" lon="12.2439995"><ele>448.5</ele><time>2026-05-04T17:49:22.389Z</time></trkpt><trkpt lat="46.1187123" lon="12.2439399"><ele>449.0</ele><time>2026-05-04T17:49:24.388Z</time></trkpt><trkpt lat="46.1186056" lon="12.2438637"><ele>449.5</ele><time>2026-05-04T17:49:26.388Z</time></trkpt><trkpt lat="46.1185003" lon="12.2437888"><ele>450.0</ele><time>2026-05-04T17:49:28.382Z</time></trkpt><trkpt lat="46.118396" lon="12.243707"><ele>450.0</ele><time>2026-05-04T17:49:30.382Z</time></trkpt><trkpt lat="46.1182975" lon="12.2436267"><ele>450.0</ele><time>2026-05-04T17:49:32.389Z</time></trkpt><trkpt lat="46.1182043" lon="12.2435419"><ele>450.0</ele><time>2026-05-04T17:49:34.388Z</time></trkpt><trkpt lat="46.1181175" lon="12.2434689"><ele>450.0</ele><time>2026-05-04T17:49:36.384Z</time></trkpt><trkpt lat="46.1180422" lon="12.243415"><ele>450.0</ele><time>2026-05-04T17:49:38.382Z</time></trkpt><trkpt lat="46.1179791" lon="12.2433525"><ele>450.2</ele><time>2026-05-04T17:49:40.381Z</time></trkpt><trkpt lat="46.1178988" lon="12.2432885"><ele>450.4</ele><time>2026-05-04T17:49:42.386Z</time></trkpt><trkpt lat="46.1178055" lon="12.2432189"><ele>450.6</ele><time>2026-05-04T17:49:44.383Z</time></trkpt><trkpt lat="46.1177047" lon="12.2431456"><ele>450.8</ele><time>2026-05-04T17:49:46.386Z</time></trkpt><trkpt lat="46.1175946" lon="12.2430596"><ele>451.0</ele><time>2026-05-04T17:49:48.394Z</time></trkpt><trkpt lat="46.1174866" lon="12.2429793"><ele>450.75</ele><time>2026-05-04T17:49:50.383Z</time></trkpt><trkpt lat="46.1173825" lon="12.2428953"><ele>450.5</ele><time>2026-05-04T17:49:52.386Z</time></trkpt><trkpt lat="46.1172708" lon="12.2428138"><ele>450.25</ele><time>2026-05-04T17:49:54.387Z</time></trkpt><trkpt lat="46.1171672" lon="12.2427305"><ele>450.0</ele><time>2026-05-04T17:49:56.392Z</time></trkpt><trkpt lat="46.1170433" lon="12.242642"><ele>450.0</ele><time>2026-05-04T17:49:58.387Z</time></trkpt><trkpt lat="46.1169313" lon="12.2425461"><ele>450.0</ele><time>2026-05-04T17:50:00.39Z</time></trkpt><trkpt lat="46.116874" lon="12.2425059"><ele>450.0</ele><time>2026-05-04T17:50:01.392Z</time></trkpt><trkpt lat="46.1168155" lon="12.2424695"><ele>450.0</ele><time>2026-05-04T17:50:02.387Z</time></trkpt><trkpt lat="46.1167003" lon="12.2423689"><ele>450.0</ele><time>2026-05-04T17:50:04.388Z</time></trkpt><trkpt lat="46.1166049" lon="12.2422709"><ele>450.6</ele><time>2026-05-04T17:50:06.386Z</time></trkpt><trkpt lat="46.1165118" lon="12.2421733"><ele>451.2</ele><time>2026-05-04T17:50:08.397Z</time></trkpt><trkpt lat="46.1164161" lon="12.2420651"><ele>451.79999999999995</ele><time>2026-05-04T17:50:10.394Z</time></trkpt><trkpt lat="46.1163678" lon="12.2420059"><ele>452.4</ele><time>2026-05-04T17:50:11.393Z</time></trkpt><trkpt lat="46.1162793" lon="12.2418978"><ele>453.0</ele><time>2026-05-04T17:50:13.392Z</time></trkpt><trkpt lat="46.1161906" lon="12.241777"><ele>453.0</ele><time>2026-05-04T17:50:15.391Z</time></trkpt><trkpt lat="46.116092" lon="12.2416728"><ele>453.0</ele><time>2026-05-04T17:50:17.394Z</time></trkpt><trkpt lat="46.1159829" lon="12.2416097"><ele>453.0</ele><time>2026-05-04T17:50:19.393Z</time></trkpt><trkpt lat="46.1158652" lon="12.241576"><ele>453.0</ele><time>2026-05-04T17:50:21.39Z</time></trkpt><trkpt lat="46.1157436" lon="12.2415696"><ele>453.5</ele><time>2026-05-04T17:50:23.387Z</time></trkpt><trkpt lat="46.1156214" lon="12.2415784"><ele>454.0</ele><time>2026-05-04T17:50:25.39Z</time></trkpt><trkpt lat="46.1155119" lon="12.2415745"><ele>454.5</ele><time>2026-05-04T17:50:27.399Z</time></trkpt><trkpt lat="46.1154008" lon="12.241573"><ele>455.0</ele><time>2026-05-04T17:50:29.393Z</time></trkpt><trkpt lat="46.1152942" lon="12.2415583"><ele>455.0</ele><time>2026-05-04T17:50:31.386Z</time></trkpt><trkpt lat="46.115204" lon="12.2415186"><ele>455.0</ele><time>2026-05-04T17:50:33.391Z</time></trkpt><trkpt lat="46.1150951" lon="12.241496"><ele>455.0</ele><time>2026-05-04T17:50:35.392Z</time></trkpt><trkpt lat="46.1149753" lon="12.2415027"><ele>455.0</ele><time>2026-05-04T17:50:37.396Z</time></trkpt><trkpt lat="46.1149116" lon="12.2415216"><ele>455.0</ele><time>2026-05-04T17:50:38.401Z</time></trkpt><trkpt lat="46.1148475" lon="12.2415222"><ele>454.75</ele><time>2026-05-04T17:50:39.39Z</time></trkpt><trkpt lat="46.1147306" lon="12.2415081"><ele>454.5</ele><time>2026-05-04T17:50:41.39Z</time></trkpt><trkpt lat="46.1146145" lon="12.2414606"><ele>454.25</ele><time>2026-05-04T17:50:43.395Z</time></trkpt><trkpt lat="46.1145059" lon="12.2414036"><ele>454.0</ele><time>2026-05-04T17:50:45.393Z</time></trkpt><trkpt lat="46.1144057" lon="12.2413462"><ele>454.0</ele><time>2026-05-04T17:50:47.392Z</time></trkpt><trkpt lat="46.1143039" lon="12.2412941"><ele>454.0</ele><time>2026-05-04T17:50:49.396Z</time></trkpt><trkpt lat="46.1142033" lon="12.2412408"><ele>454.0</ele><time>2026-05-04T17:50:51.381Z</time></trkpt><trkpt lat="46.1141145" lon="12.2411907"><ele>454.0</ele><time>2026-05-04T17:50:53.395Z</time></trkpt><trkpt lat="46.1140323" lon="12.2411484"><ele>454.0</ele><time>2026-05-04T17:50:55.381Z</time></trkpt><trkpt lat="46.1139408" lon="12.2410931"><ele>454.6666666666667</ele><time>2026-05-04T17:50:57.399Z</time></trkpt><trkpt lat="46.1138248" lon="12.2410305"><ele>455.33333333333337</ele><time>2026-05-04T17:50:59.388Z</time></trkpt><trkpt lat="46.1137645" lon="12.2409893"><ele>456.0</ele><time>2026-05-04T17:51:00.391Z</time></trkpt><trkpt lat="46.1137029" lon="12.2409426"><ele>456.66666666666663</ele><time>2026-05-04T17:51:01.382Z</time></trkpt><trkpt lat="46.113646" lon="12.2408914"><ele>457.3333333333333</ele><time>2026-05-04T17:51:02.395Z</time></trkpt><trkpt lat="46.1135866" lon="12.240837"><ele>458.0</ele><time>2026-05-04T17:51:03.396Z</time></trkpt><trkpt lat="46.1135285" lon="12.2407819"><ele>458.0</ele><time>2026-05-04T17:51:04.393Z</time></trkpt><trkpt lat="46.113469" lon="12.2407252"><ele>458.0</ele><time>2026-05-04T17:51:05.399Z</time></trkpt><trkpt lat="46.113408" lon="12.2406693"><ele>458.0</ele><time>2026-05-04T17:51:06.441Z</time></trkpt><trkpt lat="46.1133519" lon="12.2406105"><ele>458.0</ele><time>2026-05-04T17:51:07.39Z</time></trkpt><trkpt lat="46.1132966" lon="12.2405517"><ele>458.0</ele><time>2026-05-04T17:51:08.388Z</time></trkpt><trkpt lat="46.1132454" lon="12.2404843"><ele>458.0</ele><time>2026-05-04T17:51:09.384Z</time></trkpt><trkpt lat="46.1131945" lon="12.2404178"><ele>458.0</ele><time>2026-05-04T17:51:10.386Z</time></trkpt><trkpt lat="46.1131405" lon="12.2403505"><ele>458.59999999999997</ele><time>2026-05-04T17:51:11.389Z</time></trkpt><trkpt lat="46.1130915" lon="12.2402899"><ele>459.19999999999993</ele><time>2026-05-04T17:51:12.388Z</time></trkpt><trkpt lat="46.1129985" lon="12.2401724"><ele>459.8</ele><time>2026-05-04T17:51:14.426Z</time></trkpt><trkpt lat="46.1129168" lon="12.2400506"><ele>460.4</ele><time>2026-05-04T17:51:16.457Z</time></trkpt><trkpt lat="46.1128329" lon="12.2399383"><ele>461.0</ele><time>2026-05-04T17:51:18.394Z</time></trkpt><trkpt lat="46.1127603" lon="12.2398245"><ele>460.6</ele><time>2026-05-04T17:51:20.457Z</time></trkpt><trkpt lat="46.1127077" lon="12.2397023"><ele>460.20000000000005</ele><time>2026-05-04T17:51:22.384Z</time></trkpt><trkpt lat="46.112673" lon="12.2395637"><ele>459.79999999999995</ele><time>2026-05-04T17:51:24.455Z</time></trkpt><trkpt lat="46.1126479" lon="12.2394233"><ele>459.4</ele><time>2026-05-04T17:51:26.393Z</time></trkpt><trkpt lat="46.1126199" lon="12.2392855"><ele>459.0</ele><time>2026-05-04T17:51:28.391Z</time></trkpt><trkpt lat="46.1125959" lon="12.2391434"><ele>459.0</ele><time>2026-05-04T17:51:30.461Z</time></trkpt><trkpt lat="46.1125909" lon="12.2389915"><ele>459.0</ele><time>2026-05-04T17:51:32.39Z</time></trkpt><trkpt lat="46.1126059" lon="12.238841"><ele>459.0</ele><time>2026-05-04T17:51:34.447Z</time></trkpt><trkpt lat="46.1126262" lon="12.2386796"><ele>459.0</ele><time>2026-05-04T17:51:36.42Z</time></trkpt><trkpt lat="46.1126459" lon="12.238508"><ele>459.0</ele><time>2026-05-04T17:51:38.39Z</time></trkpt><trkpt lat="46.1126724" lon="12.2383376"><ele>458.7142857142857</ele><time>2026-05-04T17:51:40.456Z</time></trkpt><trkpt lat="46.1126791" lon="12.2382466"><ele>458.42857142857144</ele><time>2026-05-04T17:51:41.464Z</time></trkpt><trkpt lat="46.112675" lon="12.2381544"><ele>458.14285714285717</ele><time>2026-05-04T17:51:42.393Z</time></trkpt><trkpt lat="46.1126621" lon="12.2380654"><ele>457.8571428571429</ele><time>2026-05-04T17:51:43.393Z</time></trkpt><trkpt lat="46.1126329" lon="12.2378937"><ele>457.57142857142856</ele><time>2026-05-04T17:51:45.462Z</time></trkpt><trkpt lat="46.1126063" lon="12.2378111"><ele>457.28571428571433</ele><time>2026-05-04T17:51:46.456Z</time></trkpt><trkpt lat="46.1125859" lon="12.2377228"><ele>457.00000000000006</ele><time>2026-05-04T17:51:47.392Z</time></trkpt><trkpt lat="46.1125713" lon="12.2376312"><ele>456.57142857142867</ele><time>2026-05-04T17:51:48.4Z</time></trkpt><trkpt lat="46.1125457" lon="12.237541"><ele>456.14285714285717</ele><time>2026-05-04T17:51:49.409Z</time></trkpt><trkpt lat="46.1125154" lon="12.2374498"><ele>455.7142857142858</ele><time>2026-05-04T17:51:50.453Z</time></trkpt><trkpt lat="46.1124987" lon="12.2373504"><ele>455.28571428571433</ele><time>2026-05-04T17:51:51.452Z</time></trkpt><trkpt lat="46.1124797" lon="12.2372506"><ele>454.8571428571429</ele><time>2026-05-04T17:51:52.392Z</time></trkpt><trkpt lat="46.1124679" lon="12.2371524"><ele>454.42857142857144</ele><time>2026-05-04T17:51:53.389Z</time></trkpt><trkpt lat="46.1124661" lon="12.2370478"><ele>454.0</ele><time>2026-05-04T17:51:54.415Z</time></trkpt><trkpt lat="46.1124754" lon="12.2369397"><ele>453.50000000000006</ele><time>2026-05-04T17:51:55.46Z</time></trkpt><trkpt lat="46.1124974" lon="12.2368302"><ele>453.0</ele><time>2026-05-04T17:51:56.422Z</time></trkpt><trkpt lat="46.1125236" lon="12.2367255"><ele>452.5</ele><time>2026-05-04T17:51:57.388Z</time></trkpt><trkpt lat="46.1125574" lon="12.2366175"><ele>452.0</ele><time>2026-05-04T17:51:58.391Z</time></trkpt><trkpt lat="46.1125956" lon="12.2365078"><ele>451.50000000000006</ele><time>2026-05-04T17:51:59.396Z</time></trkpt><trkpt lat="46.1126315" lon="12.236393"><ele>451.0</ele><time>2026-05-04T17:52:00.395Z</time></trkpt><trkpt lat="46.1126686" lon="12.2362835"><ele>450.4</ele><time>2026-05-04T17:52:01.397Z</time></trkpt><trkpt lat="46.1127084" lon="12.2361651"><ele>449.8</ele><time>2026-05-04T17:52:02.396Z</time></trkpt><trkpt lat="46.1127456" lon="12.2360457"><ele>449.19999999999993</ele><time>2026-05-04T17:52:03.438Z</time></trkpt><trkpt lat="46.1127809" lon="12.2359288"><ele>448.59999999999997</ele><time>2026-05-04T17:52:04.444Z</time></trkpt><trkpt lat="46.1128002" lon="12.2358009"><ele>448.0</ele><time>2026-05-04T17:52:05.391Z</time></trkpt><trkpt lat="46.1128004" lon="12.2356639"><ele>447.4</ele><time>2026-05-04T17:52:06.395Z</time></trkpt><trkpt lat="46.1127928" lon="12.2355389"><ele>446.79999999999995</ele><time>2026-05-04T17:52:07.398Z</time></trkpt><trkpt lat="46.1127829" lon="12.2354111"><ele>446.2</ele><time>2026-05-04T17:52:08.396Z</time></trkpt><trkpt lat="46.1127739" lon="12.2352811"><ele>445.6</ele><time>2026-05-04T17:52:09.432Z</time></trkpt><trkpt lat="46.1127634" lon="12.2351501"><ele>445.0</ele><time>2026-05-04T17:52:10.456Z</time></trkpt><trkpt lat="46.1127533" lon="12.235017"><ele>445.0</ele><time>2026-05-04T17:52:11.448Z</time></trkpt><trkpt lat="46.1127455" lon="12.234882"><ele>445.0</ele><time>2026-05-04T17:52:12.394Z</time></trkpt><trkpt lat="46.1127353" lon="12.2347451"><ele>445.0</ele><time>2026-05-04T17:52:13.394Z</time></trkpt><trkpt lat="46.1127261" lon="12.2346094"><ele>445.0</ele><time>2026-05-04T17:52:14.422Z</time></trkpt><trkpt lat="46.1127184" lon="12.2344721"><ele>445.0</ele><time>2026-05-04T17:52:15.45Z</time></trkpt><trkpt lat="46.1127087" lon="12.234334"><ele>444.2</ele><time>2026-05-04T17:52:16.449Z</time></trkpt><trkpt lat="46.1126988" lon="12.2341952"><ele>443.4</ele><time>2026-05-04T17:52:17.396Z</time></trkpt><trkpt lat="46.1126901" lon="12.2340581"><ele>442.6</ele><time>2026-05-04T17:52:18.39Z</time></trkpt><trkpt lat="46.1126826" lon="12.2339161"><ele>441.8</ele><time>2026-05-04T17:52:19.426Z</time></trkpt><trkpt lat="46.1126724" lon="12.2337765"><ele>441.0</ele><time>2026-05-04T17:52:20.401Z</time></trkpt><trkpt lat="46.112662" lon="12.2336416"><ele>441.0</ele><time>2026-05-04T17:52:21.387Z</time></trkpt><trkpt lat="46.1126516" lon="12.2335095"><ele>441.0</ele><time>2026-05-04T17:52:22.392Z</time></trkpt><trkpt lat="46.1126431" lon="12.233378"><ele>441.0</ele><time>2026-05-04T17:52:23.391Z</time></trkpt><trkpt lat="46.1126316" lon="12.233248"><ele>441.0</ele><time>2026-05-04T17:52:24.439Z</time></trkpt><trkpt lat="46.1126229" lon="12.2331227"><ele>441.0</ele><time>2026-05-04T17:52:25.411Z</time></trkpt><trkpt lat="46.1126111" lon="12.2330053"><ele>441.0</ele><time>2026-05-04T17:52:26.451Z</time></trkpt><trkpt lat="46.1125878" lon="12.2328921"><ele>440.85714285714283</ele><time>2026-05-04T17:52:27.389Z</time></trkpt><trkpt lat="46.1125485" lon="12.232796"><ele>440.7142857142857</ele><time>2026-05-04T17:52:28.393Z</time></trkpt><trkpt lat="46.1125049" lon="12.232711"><ele>440.57142857142856</ele><time>2026-05-04T17:52:29.387Z</time></trkpt><trkpt lat="46.1124524" lon="12.2326424"><ele>440.42857142857144</ele><time>2026-05-04T17:52:30.393Z</time></trkpt><trkpt lat="46.1123867" lon="12.2325938"><ele>440.2857142857143</ele><time>2026-05-04T17:52:31.417Z</time></trkpt><trkpt lat="46.112325" lon="12.23256"><ele>440.1428571428571</ele><time>2026-05-04T17:52:32.391Z</time></trkpt><trkpt lat="46.1122609" lon="12.2325296"><ele>440.0</ele><time>2026-05-04T17:52:33.388Z</time></trkpt><trkpt lat="46.1121973" lon="12.232506"><ele>439.85714285714283</ele><time>2026-05-04T17:52:34.431Z</time></trkpt><trkpt lat="46.1121293" lon="12.2324898"><ele>439.7142857142857</ele><time>2026-05-04T17:52:35.446Z</time></trkpt><trkpt lat="46.1120593" lon="12.2324739"><ele>439.57142857142856</ele><time>2026-05-04T17:52:36.452Z</time></trkpt><trkpt lat="46.1119921" lon="12.232454"><ele>439.42857142857144</ele><time>2026-05-04T17:52:37.39Z</time></trkpt><trkpt lat="46.1119203" lon="12.2324399"><ele>439.2857142857143</ele><time>2026-05-04T17:52:38.393Z</time></trkpt><trkpt lat="46.1118524" lon="12.2324217"><ele>439.1428571428571</ele><time>2026-05-04T17:52:39.427Z</time></trkpt><trkpt lat="46.111774" lon="12.232408"><ele>439.0</ele><time>2026-05-04T17:52:40.393Z</time></trkpt><trkpt lat="46.1116974" lon="12.2323928"><ele>439.00000000000006</ele><time>2026-05-04T17:52:41.389Z</time></trkpt><trkpt lat="46.111618" lon="12.2323805"><ele>439.0</ele><time>2026-05-04T17:52:42.395Z</time></trkpt><trkpt lat="46.1115423" lon="12.2323646"><ele>439.0</ele><time>2026-05-04T17:52:43.385Z</time></trkpt><trkpt lat="46.1114672" lon="12.2323491"><ele>439.0</ele><time>2026-05-04T17:52:44.389Z</time></trkpt><trkpt lat="46.1113923" lon="12.2323358"><ele>439.00000000000006</ele><time>2026-05-04T17:52:45.392Z</time></trkpt><trkpt lat="46.1113146" lon="12.232324"><ele>439.0</ele><time>2026-05-04T17:52:46.387Z</time></trkpt><trkpt lat="46.111236" lon="12.232312"><ele>438.33333333333337</ele><time>2026-05-04T17:52:47.392Z</time></trkpt><trkpt lat="46.1111602" lon="12.2322959"><ele>437.6666666666667</ele><time>2026-05-04T17:52:48.39Z</time></trkpt><trkpt lat="46.1110835" lon="12.232278"><ele>437.0</ele><time>2026-05-04T17:52:49.39Z</time></trkpt><trkpt lat="46.1110084" lon="12.2322617"><ele>436.33333333333337</ele><time>2026-05-04T17:52:50.386Z</time></trkpt><trkpt lat="46.1109355" lon="12.2322406"><ele>435.6666666666667</ele><time>2026-05-04T17:52:51.385Z</time></trkpt><trkpt lat="46.1108622" lon="12.2322175"><ele>435.0</ele><time>2026-05-04T17:52:52.394Z</time></trkpt><trkpt lat="46.1107916" lon="12.2321858"><ele>434.3333333333333</ele><time>2026-05-04T17:52:53.413Z</time></trkpt><trkpt lat="46.1107223" lon="12.2321416"><ele>433.66666666666663</ele><time>2026-05-04T17:52:54.428Z</time></trkpt><trkpt lat="46.1106529" lon="12.2320923"><ele>433.0</ele><time>2026-05-04T17:52:55.447Z</time></trkpt><trkpt lat="46.1105894" lon="12.2320315"><ele>432.3333333333333</ele><time>2026-05-04T17:52:56.466Z</time></trkpt><trkpt lat="46.1105318" lon="12.2319601"><ele>431.66666666666663</ele><time>2026-05-04T17:52:57.393Z</time></trkpt><trkpt lat="46.1104793" lon="12.2318828"><ele>431.0</ele><time>2026-05-04T17:52:58.391Z</time></trkpt><trkpt lat="46.110426" lon="12.2318064"><ele>431.0</ele><time>2026-05-04T17:52:59.457Z</time></trkpt><trkpt lat="46.1103758" lon="12.231727"><ele>431.0</ele><time>2026-05-04T17:53:00.387Z</time></trkpt><trkpt lat="46.1103251" lon="12.2316496"><ele>431.0</ele><time>2026-05-04T17:53:01.387Z</time></trkpt><trkpt lat="46.1102738" lon="12.2315787"><ele>431.0</ele><time>2026-05-04T17:53:02.382Z</time></trkpt><trkpt lat="46.1102209" lon="12.2315095"><ele>431.0</ele><time>2026-05-04T17:53:03.381Z</time></trkpt><trkpt lat="46.1101642" lon="12.2314459"><ele>431.0</ele><time>2026-05-04T17:53:04.381Z</time></trkpt><trkpt lat="46.110105" lon="12.231389"><ele>431.0</ele><time>2026-05-04T17:53:05.384Z</time></trkpt><trkpt lat="46.1100411" lon="12.2313367"><ele>431.0</ele><time>2026-05-04T17:53:06.38Z</time></trkpt><trkpt lat="46.1099769" lon="12.2312879"><ele>431.0</ele><time>2026-05-04T17:53:07.39Z</time></trkpt><trkpt lat="46.1099161" lon="12.2312393"><ele>431.0</ele><time>2026-05-04T17:53:08.394Z</time></trkpt><trkpt lat="46.1098537" lon="12.2311901"><ele>431.0</ele><time>2026-05-04T17:53:09.392Z</time></trkpt><trkpt lat="46.1097896" lon="12.2311448"><ele>431.0</ele><time>2026-05-04T17:53:10.392Z</time></trkpt><trkpt lat="46.1097311" lon="12.2310913"><ele>431.0</ele><time>2026-05-04T17:53:11.386Z</time></trkpt><trkpt lat="46.1096701" lon="12.2310402"><ele>431.0</ele><time>2026-05-04T17:53:12.386Z</time></trkpt><trkpt lat="46.1096067" lon="12.2309918"><ele>431.0</ele><time>2026-05-04T17:53:13.425Z</time></trkpt><trkpt lat="46.1095433" lon="12.2309396"><ele>431.0</ele><time>2026-05-04T17:53:14.391Z</time></trkpt><trkpt lat="46.1094802" lon="12.2308873"><ele>431.0</ele><time>2026-05-04T17:53:15.386Z</time></trkpt><trkpt lat="46.1094156" lon="12.230834"><ele>431.0</ele><time>2026-05-04T17:53:16.441Z</time></trkpt><trkpt lat="46.1093526" lon="12.2307785"><ele>431.0</ele><time>2026-05-04T17:53:17.392Z</time></trkpt><trkpt lat="46.1092922" lon="12.2307172"><ele>431.0</ele><time>2026-05-04T17:53:18.393Z</time></trkpt><trkpt lat="46.109236" lon="12.2306506"><ele>431.0</ele><time>2026-05-04T17:53:19.453Z</time></trkpt><trkpt lat="46.1091774" lon="12.2305849"><ele>430.99999999999994</ele><time>2026-05-04T17:53:20.384Z</time></trkpt><trkpt lat="46.1091175" lon="12.2305162"><ele>431.0</ele><time>2026-05-04T17:53:21.388Z</time></trkpt><trkpt lat="46.1090618" lon="12.2304452"><ele>431.0</ele><time>2026-05-04T17:53:22.396Z</time></trkpt><trkpt lat="46.1090067" lon="12.2303754"><ele>431.0</ele><time>2026-05-04T17:53:23.39Z</time></trkpt><trkpt lat="46.108949" lon="12.2302999"><ele>430.99999999999994</ele><time>2026-05-04T17:53:24.432Z</time></trkpt><trkpt lat="46.1088903" lon="12.2302272"><ele>431.0</ele><time>2026-05-04T17:53:25.458Z</time></trkpt><trkpt lat="46.1088304" lon="12.2301559"><ele>430.99999999999994</ele><time>2026-05-04T17:53:26.407Z</time></trkpt><trkpt lat="46.1087741" lon="12.2300842"><ele>431.0</ele><time>2026-05-04T17:53:27.386Z</time></trkpt><trkpt lat="46.1087129" lon="12.2300095"><ele>431.0</ele><time>2026-05-04T17:53:28.391Z</time></trkpt><trkpt lat="46.1086544" lon="12.2299342"><ele>431.0</ele><time>2026-05-04T17:53:29.462Z</time></trkpt><trkpt lat="46.1085947" lon="12.2298622"><ele>430.99999999999994</ele><time>2026-05-04T17:53:30.448Z</time></trkpt><trkpt lat="46.1085345" lon="12.2297902"><ele>431.0</ele><time>2026-05-04T17:53:31.387Z</time></trkpt><trkpt lat="46.1084742" lon="12.2297153"><ele>430.99999999999994</ele><time>2026-05-04T17:53:32.394Z</time></trkpt><trkpt lat="46.108415" lon="12.2296375"><ele>431.0</ele><time>2026-05-04T17:53:33.442Z</time></trkpt><trkpt lat="46.1083559" lon="12.2295599"><ele>431.0</ele><time>2026-05-04T17:53:34.42Z</time></trkpt><trkpt lat="46.1082974" lon="12.2294851"><ele>431.0</ele><time>2026-05-04T17:53:35.452Z</time></trkpt><trkpt lat="46.1082446" lon="12.229407"><ele>430.99999999999994</ele><time>2026-05-04T17:53:36.436Z</time></trkpt><trkpt lat="46.1081918" lon="12.2293225"><ele>431.0</ele><time>2026-05-04T17:53:37.389Z</time></trkpt><trkpt lat="46.1081401" lon="12.2292312"><ele>430.99999999999994</ele><time>2026-05-04T17:53:38.39Z</time></trkpt><trkpt lat="46.1080956" lon="12.2291399"><ele>431.0</ele><time>2026-05-04T17:53:39.449Z</time></trkpt><trkpt lat="46.1080553" lon="12.2290486"><ele>431.0</ele><time>2026-05-04T17:53:40.437Z</time></trkpt><trkpt lat="46.1080163" lon="12.2289503"><ele>431.0</ele><time>2026-05-04T17:53:41.446Z</time></trkpt><trkpt lat="46.1079793" lon="12.2288562"><ele>430.99999999999994</ele><time>2026-05-04T17:53:42.388Z</time></trkpt><trkpt lat="46.107939" lon="12.2287668"><ele>431.0</ele><time>2026-05-04T17:53:43.387Z</time></trkpt><trkpt lat="46.1078955" lon="12.2286813"><ele>431.0</ele><time>2026-05-04T17:53:44.439Z</time></trkpt><trkpt lat="46.1078495" lon="12.2285991"><ele>431.0</ele><time>2026-05-04T17:53:45.453Z</time></trkpt><trkpt lat="46.1077944" lon="12.2285279"><ele>431.0</ele><time>2026-05-04T17:53:46.415Z</time></trkpt><trkpt lat="46.1077406" lon="12.228454"><ele>431.0</ele><time>2026-05-04T17:53:47.395Z</time></trkpt><trkpt lat="46.1076846" lon="12.2283834"><ele>431.0</ele><time>2026-05-04T17:53:48.389Z</time></trkpt><trkpt lat="46.1076304" lon="12.2283176"><ele>431.0</ele><time>2026-05-04T17:53:49.425Z</time></trkpt><trkpt lat="46.1075734" lon="12.2282581"><ele>431.0</ele><time>2026-05-04T17:53:50.397Z</time></trkpt><trkpt lat="46.1075164" lon="12.2281993"><ele>431.0</ele><time>2026-05-04T17:53:51.45Z</time></trkpt><trkpt lat="46.1074634" lon="12.2281443"><ele>431.0</ele><time>2026-05-04T17:53:52.39Z</time></trkpt><trkpt lat="46.1074123" lon="12.2280881"><ele>431.0</ele><time>2026-05-04T17:53:53.393Z</time></trkpt><trkpt lat="46.1073607" lon="12.2280331"><ele>431.0</ele><time>2026-05-04T17:53:54.392Z</time></trkpt><trkpt lat="46.1073136" lon="12.2279717"><ele>431.0</ele><time>2026-05-04T17:53:55.385Z</time></trkpt><trkpt lat="46.1072643" lon="12.2279148"><ele>431.0</ele><time>2026-05-04T17:53:56.447Z</time></trkpt><trkpt lat="46.107173" lon="12.2277933"><ele>431.0</ele><time>2026-05-04T17:53:58.386Z</time></trkpt><trkpt lat="46.1071251" lon="12.2277328"><ele>431.25</ele><time>2026-05-04T17:53:59.435Z</time></trkpt><trkpt lat="46.1070418" lon="12.2276062"><ele>431.5</ele><time>2026-05-04T17:54:01.452Z</time></trkpt><trkpt lat="46.1069543" lon="12.2274845"><ele>431.75</ele><time>2026-05-04T17:54:03.395Z</time></trkpt><trkpt lat="46.1068682" lon="12.2273554"><ele>432.0</ele><time>2026-05-04T17:54:05.441Z</time></trkpt><trkpt lat="46.1067814" lon="12.2272337"><ele>431.5</ele><time>2026-05-04T17:54:07.39Z</time></trkpt><trkpt lat="46.1066958" lon="12.2271126"><ele>431.0</ele><time>2026-05-04T17:54:09.413Z</time></trkpt><trkpt lat="46.1066111" lon="12.2269909"><ele>430.5</ele><time>2026-05-04T17:54:11.445Z</time></trkpt><trkpt lat="46.1065273" lon="12.2268637"><ele>430.0</ele><time>2026-05-04T17:54:13.388Z</time></trkpt><trkpt lat="46.1064426" lon="12.2267424"><ele>431.5</ele><time>2026-05-04T17:54:15.392Z</time></trkpt><trkpt lat="46.1063607" lon="12.2266203"><ele>433.0</ele><time>2026-05-04T17:54:17.387Z</time></trkpt><trkpt lat="46.1062824" lon="12.226498"><ele>434.5</ele><time>2026-05-04T17:54:19.408Z</time></trkpt><trkpt lat="46.1062017" lon="12.2263831"><ele>436.0</ele><time>2026-05-04T17:54:21.444Z</time></trkpt><trkpt lat="46.106118" lon="12.2262752"><ele>436.0</ele><time>2026-05-04T17:54:23.395Z</time></trkpt><trkpt lat="46.1060399" lon="12.2261661"><ele>436.0</ele><time>2026-05-04T17:54:25.391Z</time></trkpt><trkpt lat="46.1059602" lon="12.2260544"><ele>436.0</ele><time>2026-05-04T17:54:27.393Z</time></trkpt><trkpt lat="46.1058774" lon="12.2259421"><ele>436.0</ele><time>2026-05-04T17:54:29.388Z</time></trkpt><trkpt lat="46.1057948" lon="12.2258416"><ele>436.0</ele><time>2026-05-04T17:54:31.393Z</time></trkpt><trkpt lat="46.1057083" lon="12.2257524"><ele>436.1666666666667</ele><time>2026-05-04T17:54:33.391Z</time></trkpt><trkpt lat="46.1056151" lon="12.2256929"><ele>436.33333333333337</ele><time>2026-05-04T17:54:35.387Z</time></trkpt><trkpt lat="46.1055248" lon="12.225638"><ele>436.5</ele><time>2026-05-04T17:54:37.389Z</time></trkpt><trkpt lat="46.1054488" lon="12.2255824"><ele>436.66666666666663</ele><time>2026-05-04T17:54:39.39Z</time></trkpt><trkpt lat="46.1053755" lon="12.2255388"><ele>436.8333333333333</ele><time>2026-05-04T17:54:41.396Z</time></trkpt><trkpt lat="46.1053019" lon="12.2254831"><ele>437.0</ele><time>2026-05-04T17:54:43.392Z</time></trkpt><trkpt lat="46.1052195" lon="12.2254227"><ele>437.0</ele><time>2026-05-04T17:54:45.386Z</time></trkpt><trkpt lat="46.1051369" lon="12.2253512"><ele>437.00000000000006</ele><time>2026-05-04T17:54:47.389Z</time></trkpt><trkpt lat="46.105106" lon="12.2252466"><ele>437.00000000000006</ele><time>2026-05-04T17:54:49.39Z</time></trkpt><trkpt lat="46.1051555" lon="12.2251324"><ele>437.0</ele><time>2026-05-04T17:54:51.393Z</time></trkpt><trkpt lat="46.1052103" lon="12.2250096"><ele>437.0</ele><time>2026-05-04T17:54:53.392Z</time></trkpt><trkpt lat="46.1052842" lon="12.2248844"><ele>436.66666666666663</ele><time>2026-05-04T17:54:55.383Z</time></trkpt><trkpt lat="46.105368" lon="12.2247461"><ele>436.3333333333333</ele><time>2026-05-04T17:54:57.395Z</time></trkpt><trkpt lat="46.105411" lon="12.2246676"><ele>436.0</ele><time>2026-05-04T17:54:58.388Z</time></trkpt><trkpt lat="46.1054605" lon="12.2245864"><ele>435.66666666666663</ele><time>2026-05-04T17:54:59.392Z</time></trkpt><trkpt lat="46.1055172" lon="12.2245104"><ele>435.3333333333333</ele><time>2026-05-04T17:55:00.395Z</time></trkpt><trkpt lat="46.1055721" lon="12.2244246"><ele>435.0</ele><time>2026-05-04T17:55:01.427Z</time></trkpt><trkpt lat="46.1056103" lon="12.224329"><ele>435.0</ele><time>2026-05-04T17:55:02.393Z</time></trkpt><trkpt lat="46.1056517" lon="12.2242231"><ele>435.0</ele><time>2026-05-04T17:55:03.392Z</time></trkpt><trkpt lat="46.1056974" lon="12.22412"><ele>435.0</ele><time>2026-05-04T17:55:04.391Z</time></trkpt><trkpt lat="46.1057299" lon="12.224024"><ele>435.0</ele><time>2026-05-04T17:55:05.388Z</time></trkpt><trkpt lat="46.1057567" lon="12.2239404"><ele>435.0</ele><time>2026-05-04T17:55:06.386Z</time></trkpt><trkpt lat="46.105777" lon="12.2237852"><ele>435.0</ele><time>2026-05-04T17:55:08.396Z</time></trkpt><trkpt lat="46.1057596" lon="12.2236065"><ele>434.1666666666667</ele><time>2026-05-04T17:55:10.397Z</time></trkpt><trkpt lat="46.1057241" lon="12.2235301"><ele>433.33333333333337</ele><time>2026-05-04T17:55:11.395Z</time></trkpt><trkpt lat="46.1056661" lon="12.2234149"><ele>432.5</ele><time>2026-05-04T17:55:12.396Z</time></trkpt><trkpt lat="46.1056154" lon="12.2233153"><ele>431.6666666666667</ele><time>2026-05-04T17:55:13.393Z</time></trkpt><trkpt lat="46.1055678" lon="12.2232039"><ele>430.83333333333337</ele><time>2026-05-04T17:55:14.394Z</time></trkpt><trkpt lat="46.1055221" lon="12.2230886"><ele>430.0</ele><time>2026-05-04T17:55:15.391Z</time></trkpt><trkpt lat="46.105509" lon="12.2229506"><ele>428.0</ele><time>2026-05-04T17:55:16.396Z</time></trkpt><trkpt lat="46.1054768" lon="12.2228259"><ele>426.0</ele><time>2026-05-04T17:55:17.479Z</time></trkpt><trkpt lat="46.1054353" lon="12.2227202"><ele>424.0</ele><time>2026-05-04T17:55:18.394Z</time></trkpt><trkpt lat="46.1053949" lon="12.2226104"><ele>422.0</ele><time>2026-05-04T17:55:19.393Z</time></trkpt><trkpt lat="46.105332" lon="12.222487"><ele>420.0</ele><time>2026-05-04T17:55:20.393Z</time></trkpt><trkpt lat="46.105271" lon="12.2223725"><ele>419.42857142857144</ele><time>2026-05-04T17:55:21.388Z</time></trkpt><trkpt lat="46.1052149" lon="12.2222537"><ele>418.8571428571429</ele><time>2026-05-04T17:55:22.388Z</time></trkpt><trkpt lat="46.105177" lon="12.2221472"><ele>418.2857142857143</ele><time>2026-05-04T17:55:23.386Z</time></trkpt><trkpt lat="46.1051489" lon="12.2220658"><ele>417.7142857142857</ele><time>2026-05-04T17:55:24.393Z</time></trkpt><trkpt lat="46.1051207" lon="12.2219767"><ele>417.14285714285717</ele><time>2026-05-04T17:55:25.393Z</time></trkpt><trkpt lat="46.1050953" lon="12.2218877"><ele>416.57142857142856</ele><time>2026-05-04T17:55:26.391Z</time></trkpt><trkpt lat="46.1050682" lon="12.2218007"><ele>416.0</ele><time>2026-05-04T17:55:27.397Z</time></trkpt><trkpt lat="46.105041" lon="12.2217095"><ele>415.99999999999994</ele><time>2026-05-04T17:55:28.393Z</time></trkpt><trkpt lat="46.1050096" lon="12.2216234"><ele>416.0</ele><time>2026-05-04T17:55:29.395Z</time></trkpt><trkpt lat="46.1049791" lon="12.2215425"><ele>416.0</ele><time>2026-05-04T17:55:30.393Z</time></trkpt><trkpt lat="46.1049447" lon="12.2214578"><ele>416.0</ele><time>2026-05-04T17:55:31.385Z</time></trkpt><trkpt lat="46.1049165" lon="12.2213763"><ele>415.99999999999994</ele><time>2026-05-04T17:55:32.388Z</time></trkpt><trkpt lat="46.1048576" lon="12.2212149"><ele>416.0</ele><time>2026-05-04T17:55:34.388Z</time></trkpt><trkpt lat="46.104805" lon="12.221051"><ele>415.66666666666663</ele><time>2026-05-04T17:55:36.388Z</time></trkpt><trkpt lat="46.1047791" lon="12.2209681"><ele>415.3333333333333</ele><time>2026-05-04T17:55:37.393Z</time></trkpt><trkpt lat="46.104753" lon="12.2208829"><ele>415.0</ele><time>2026-05-04T17:55:38.383Z</time></trkpt><trkpt lat="46.1047006" lon="12.2207209"><ele>414.66666666666663</ele><time>2026-05-04T17:55:40.392Z</time></trkpt><trkpt lat="46.1046788" lon="12.220635"><ele>414.3333333333333</ele><time>2026-05-04T17:55:41.392Z</time></trkpt><trkpt lat="46.1046735" lon="12.2204519"><ele>414.0</ele><time>2026-05-04T17:55:43.395Z</time></trkpt><trkpt lat="46.1046868" lon="12.2203618"><ele>413.42857142857144</ele><time>2026-05-04T17:55:44.394Z</time></trkpt><trkpt lat="46.1047217" lon="12.2202838"><ele>412.8571428571429</ele><time>2026-05-04T17:55:45.389Z</time></trkpt><trkpt lat="46.1047613" lon="12.2202097"><ele>412.28571428571433</ele><time>2026-05-04T17:55:46.39Z</time></trkpt><trkpt lat="46.1048042" lon="12.220129"><ele>411.7142857142857</ele><time>2026-05-04T17:55:47.39Z</time></trkpt><trkpt lat="46.1048483" lon="12.2200494"><ele>411.1428571428571</ele><time>2026-05-04T17:55:48.398Z</time></trkpt><trkpt lat="46.1048941" lon="12.2199617"><ele>410.5714285714286</ele><time>2026-05-04T17:55:49.398Z</time></trkpt><trkpt lat="46.104935" lon="12.2198789"><ele>410.0</ele><time>2026-05-04T17:55:50.428Z</time></trkpt><trkpt lat="46.1049803" lon="12.2198037"><ele>409.0</ele><time>2026-05-04T17:55:51.39Z</time></trkpt><trkpt lat="46.1050262" lon="12.2197254"><ele>408.0</ele><time>2026-05-04T17:55:52.399Z</time></trkpt><trkpt lat="46.1050676" lon="12.2196432"><ele>407.0</ele><time>2026-05-04T17:55:53.389Z</time></trkpt><trkpt lat="46.105113" lon="12.2195668"><ele>406.0</ele><time>2026-05-04T17:55:54.384Z</time></trkpt><trkpt lat="46.1051595" lon="12.219488"><ele>405.0</ele><time>2026-05-04T17:55:55.394Z</time></trkpt><trkpt lat="46.1052068" lon="12.2194094"><ele>404.0</ele><time>2026-05-04T17:55:56.393Z</time></trkpt><trkpt lat="46.1052504" lon="12.2193263"><ele>403.0</ele><time>2026-05-04T17:55:57.396Z</time></trkpt><trkpt lat="46.1052821" lon="12.2192388"><ele>403.0</ele><time>2026-05-04T17:55:58.383Z</time></trkpt><trkpt lat="46.1053096" lon="12.219146"><ele>403.0</ele><time>2026-05-04T17:55:59.387Z</time></trkpt><trkpt lat="46.1053384" lon="12.2190526"><ele>403.0</ele><time>2026-05-04T17:56:00.384Z</time></trkpt><trkpt lat="46.1053607" lon="12.2189573"><ele>403.0</ele><time>2026-05-04T17:56:01.39Z</time></trkpt><trkpt lat="46.1053838" lon="12.2188623"><ele>403.0</ele><time>2026-05-04T17:56:02.385Z</time></trkpt><trkpt lat="46.1054059" lon="12.218769"><ele>403.0</ele><time>2026-05-04T17:56:03.39Z</time></trkpt><trkpt lat="46.1054266" lon="12.2186727"><ele>403.0</ele><time>2026-05-04T17:56:04.391Z</time></trkpt><trkpt lat="46.1054463" lon="12.2185801"><ele>401.7142857142857</ele><time>2026-05-04T17:56:05.394Z</time></trkpt><trkpt lat="46.1054642" lon="12.218486"><ele>400.4285714285714</ele><time>2026-05-04T17:56:06.393Z</time></trkpt><trkpt lat="46.1054829" lon="12.2183931"><ele>399.1428571428571</ele><time>2026-05-04T17:56:07.392Z</time></trkpt><trkpt lat="46.1055029" lon="12.2182971"><ele>397.8571428571429</ele><time>2026-05-04T17:56:08.394Z</time></trkpt><trkpt lat="46.1055237" lon="12.2182031"><ele>396.57142857142856</ele><time>2026-05-04T17:56:09.391Z</time></trkpt><trkpt lat="46.1055451" lon="12.2181104"><ele>395.2857142857143</ele><time>2026-05-04T17:56:10.396Z</time></trkpt><trkpt lat="46.1055666" lon="12.2180206"><ele>394.0</ele><time>2026-05-04T17:56:11.396Z</time></trkpt><trkpt lat="46.1055865" lon="12.2179271"><ele>393.42857142857144</ele><time>2026-05-04T17:56:12.388Z</time></trkpt><trkpt lat="46.1056053" lon="12.2178343"><ele>392.8571428571429</ele><time>2026-05-04T17:56:13.394Z</time></trkpt><trkpt lat="46.1056241" lon="12.2177418"><ele>392.2857142857143</ele><time>2026-05-04T17:56:14.392Z</time></trkpt><trkpt lat="46.1056427" lon="12.2176497"><ele>391.7142857142857</ele><time>2026-05-04T17:56:15.396Z</time></trkpt><trkpt lat="46.1056626" lon="12.217562"><ele>391.1428571428571</ele><time>2026-05-04T17:56:16.392Z</time></trkpt><trkpt lat="46.1056872" lon="12.2174708"><ele>390.57142857142856</ele><time>2026-05-04T17:56:17.394Z</time></trkpt><trkpt lat="46.1056988" lon="12.217374"><ele>390.0</ele><time>2026-05-04T17:56:18.393Z</time></trkpt><trkpt lat="46.1057039" lon="12.2172823"><ele>389.57142857142856</ele><time>2026-05-04T17:56:19.388Z</time></trkpt><trkpt lat="46.1057211" lon="12.2171917"><ele>389.1428571428571</ele><time>2026-05-04T17:56:20.4Z</time></trkpt><trkpt lat="46.1057477" lon="12.2171057"><ele>388.7142857142857</ele><time>2026-05-04T17:56:21.397Z</time></trkpt><trkpt lat="46.105771" lon="12.2170165"><ele>388.2857142857143</ele><time>2026-05-04T17:56:22.396Z</time></trkpt><trkpt lat="46.1057937" lon="12.2169195"><ele>387.8571428571429</ele><time>2026-05-04T17:56:23.397Z</time></trkpt><trkpt lat="46.1058201" lon="12.2168253"><ele>387.42857142857144</ele><time>2026-05-04T17:56:24.395Z</time></trkpt><trkpt lat="46.1058454" lon="12.2167333"><ele>387.0</ele><time>2026-05-04T17:56:25.398Z</time></trkpt><trkpt lat="46.1058809" lon="12.2166393"><ele>388.42857142857144</ele><time>2026-05-04T17:56:26.395Z</time></trkpt><trkpt lat="46.1059199" lon="12.2165482"><ele>389.8571428571429</ele><time>2026-05-04T17:56:27.393Z</time></trkpt><trkpt lat="46.105961" lon="12.216459"><ele>391.2857142857143</ele><time>2026-05-04T17:56:28.397Z</time></trkpt><trkpt lat="46.1060083" lon="12.2163703"><ele>392.7142857142857</ele><time>2026-05-04T17:56:29.395Z</time></trkpt><trkpt lat="46.1060565" lon="12.2162893"><ele>394.1428571428571</ele><time>2026-05-04T17:56:30.392Z</time></trkpt><trkpt lat="46.106107" lon="12.2162098"><ele>395.57142857142856</ele><time>2026-05-04T17:56:31.391Z</time></trkpt><trkpt lat="46.1061554" lon="12.2161323"><ele>397.0</ele><time>2026-05-04T17:56:32.393Z</time></trkpt><trkpt lat="46.1062089" lon="12.2160518"><ele>397.0</ele><time>2026-05-04T17:56:33.384Z</time></trkpt><trkpt lat="46.1062547" lon="12.2159674"><ele>397.0</ele><time>2026-05-04T17:56:34.386Z</time></trkpt><trkpt lat="46.1063006" lon="12.2158872"><ele>397.0</ele><time>2026-05-04T17:56:35.398Z</time></trkpt><trkpt lat="46.1063484" lon="12.2158048"><ele>397.0</ele><time>2026-05-04T17:56:36.39Z</time></trkpt><trkpt lat="46.1063995" lon="12.2157279"><ele>397.0</ele><time>2026-05-04T17:56:37.383Z</time></trkpt><trkpt lat="46.1064491" lon="12.21565"><ele>397.0</ele><time>2026-05-04T17:56:38.388Z</time></trkpt><trkpt lat="46.1065029" lon="12.215591"><ele>397.0</ele><time>2026-05-04T17:56:39.383Z</time></trkpt><trkpt lat="46.1065408" lon="12.2154939"><ele>397.42857142857144</ele><time>2026-05-04T17:56:40.388Z</time></trkpt><trkpt lat="46.1065889" lon="12.2154171"><ele>397.85714285714283</ele><time>2026-05-04T17:56:41.388Z</time></trkpt><trkpt lat="46.1066348" lon="12.2153375"><ele>398.28571428571433</ele><time>2026-05-04T17:56:42.389Z</time></trkpt><trkpt lat="46.106676" lon="12.2152603"><ele>398.7142857142857</ele><time>2026-05-04T17:56:43.392Z</time></trkpt><trkpt lat="46.1067215" lon="12.2151817"><ele>399.14285714285717</ele><time>2026-05-04T17:56:44.394Z</time></trkpt><trkpt lat="46.1067668" lon="12.2151014"><ele>399.5714285714286</ele><time>2026-05-04T17:56:45.391Z</time></trkpt><trkpt lat="46.1068113" lon="12.2150214"><ele>400.0</ele><time>2026-05-04T17:56:46.392Z</time></trkpt><trkpt lat="46.1068573" lon="12.2149437"><ele>400.00000000000006</ele><time>2026-05-04T17:56:47.389Z</time></trkpt><trkpt lat="46.1069009" lon="12.214868"><ele>400.0</ele><time>2026-05-04T17:56:48.392Z</time></trkpt><trkpt lat="46.1069476" lon="12.214786"><ele>400.0</ele><time>2026-05-04T17:56:49.392Z</time></trkpt><trkpt lat="46.1069957" lon="12.2147081"><ele>400.0</ele><time>2026-05-04T17:56:50.39Z</time></trkpt><trkpt lat="46.1070427" lon="12.2146305"><ele>400.0</ele><time>2026-05-04T17:56:51.39Z</time></trkpt><trkpt lat="46.1070884" lon="12.2145498"><ele>400.00000000000006</ele><time>2026-05-04T17:56:52.391Z</time></trkpt><trkpt lat="46.1071321" lon="12.2144732"><ele>400.0</ele><time>2026-05-04T17:56:53.385Z</time></trkpt><trkpt lat="46.1071814" lon="12.2143958"><ele>399.5714285714286</ele><time>2026-05-04T17:56:54.393Z</time></trkpt><trkpt lat="46.1072316" lon="12.2143159"><ele>399.14285714285717</ele><time>2026-05-04T17:56:55.386Z</time></trkpt><trkpt lat="46.1072789" lon="12.2142378"><ele>398.7142857142857</ele><time>2026-05-04T17:56:56.386Z</time></trkpt><trkpt lat="46.1073265" lon="12.214163"><ele>398.28571428571433</ele><time>2026-05-04T17:56:57.385Z</time></trkpt><trkpt lat="46.1073777" lon="12.2140954"><ele>397.85714285714283</ele><time>2026-05-04T17:56:58.386Z</time></trkpt><trkpt lat="46.1074341" lon="12.2140267"><ele>397.42857142857144</ele><time>2026-05-04T17:56:59.39Z</time></trkpt><trkpt lat="46.1074849" lon="12.2139554"><ele>397.0</ele><time>2026-05-04T17:57:00.388Z</time></trkpt><trkpt lat="46.1075375" lon="12.2138866"><ele>396.57142857142856</ele><time>2026-05-04T17:57:01.394Z</time></trkpt><trkpt lat="46.1075906" lon="12.2138209"><ele>396.1428571428571</ele><time>2026-05-04T17:57:02.386Z</time></trkpt><trkpt lat="46.1076433" lon="12.2137531"><ele>395.7142857142857</ele><time>2026-05-04T17:57:03.396Z</time></trkpt><trkpt lat="46.1076985" lon="12.2136843"><ele>395.2857142857143</ele><time>2026-05-04T17:57:04.389Z</time></trkpt><trkpt lat="46.1077535" lon="12.2136163"><ele>394.8571428571429</ele><time>2026-05-04T17:57:05.386Z</time></trkpt><trkpt lat="46.1078068" lon="12.2135432"><ele>394.42857142857144</ele><time>2026-05-04T17:57:06.395Z</time></trkpt><trkpt lat="46.1078595" lon="12.213474"><ele>394.0</ele><time>2026-05-04T17:57:07.383Z</time></trkpt><trkpt lat="46.107913" lon="12.2134052"><ele>394.0</ele><time>2026-05-04T17:57:08.386Z</time></trkpt><trkpt lat="46.1079655" lon="12.213337"><ele>394.0</ele><time>2026-05-04T17:57:09.384Z</time></trkpt><trkpt lat="46.1080186" lon="12.2132727"><ele>394.0</ele><time>2026-05-04T17:57:10.393Z</time></trkpt><trkpt lat="46.1080741" lon="12.2132062"><ele>394.0</ele><time>2026-05-04T17:57:11.391Z</time></trkpt><trkpt lat="46.1081308" lon="12.2131394"><ele>394.0</ele><time>2026-05-04T17:57:12.393Z</time></trkpt><trkpt lat="46.1081882" lon="12.2130728"><ele>394.0</ele><time>2026-05-04T17:57:13.378Z</time></trkpt><trkpt lat="46.108248" lon="12.2130077"><ele>394.0</ele><time>2026-05-04T17:57:14.381Z</time></trkpt><trkpt lat="46.1083075" lon="12.2129403"><ele>394.00000000000006</ele><time>2026-05-04T17:57:15.381Z</time></trkpt><trkpt lat="46.1083642" lon="12.2128761"><ele>394.0</ele><time>2026-05-04T17:57:16.389Z</time></trkpt><trkpt lat="46.1084254" lon="12.212812"><ele>394.0</ele><time>2026-05-04T17:57:17.382Z</time></trkpt><trkpt lat="46.1084853" lon="12.2127498"><ele>394.0</ele><time>2026-05-04T17:57:18.395Z</time></trkpt><trkpt lat="46.1085456" lon="12.2126827"><ele>394.00000000000006</ele><time>2026-05-04T17:57:19.394Z</time></trkpt><trkpt lat="46.1086038" lon="12.2126148"><ele>394.0</ele><time>2026-05-04T17:57:20.395Z</time></trkpt><trkpt lat="46.1086655" lon="12.2125442"><ele>394.0</ele><time>2026-05-04T17:57:21.389Z</time></trkpt><trkpt lat="46.1087272" lon="12.2124811"><ele>394.0</ele><time>2026-05-04T17:57:22.393Z</time></trkpt><trkpt lat="46.1087862" lon="12.212412"><ele>394.0</ele><time>2026-05-04T17:57:23.389Z</time></trkpt><trkpt lat="46.1088465" lon="12.2123409"><ele>394.0</ele><time>2026-05-04T17:57:24.398Z</time></trkpt><trkpt lat="46.1088971" lon="12.212267"><ele>394.0</ele><time>2026-05-04T17:57:25.391Z</time></trkpt><trkpt lat="46.1089436" lon="12.2121873"><ele>394.0</ele><time>2026-05-04T17:57:26.391Z</time></trkpt><trkpt lat="46.1089833" lon="12.2121036"><ele>394.0</ele><time>2026-05-04T17:57:27.395Z</time></trkpt><trkpt lat="46.1090185" lon="12.2120203"><ele>394.0</ele><time>2026-05-04T17:57:28.399Z</time></trkpt><trkpt lat="46.1090484" lon="12.211934"><ele>394.0</ele><time>2026-05-04T17:57:29.392Z</time></trkpt><trkpt lat="46.1090785" lon="12.2118503"><ele>394.0</ele><time>2026-05-04T17:57:30.394Z</time></trkpt><trkpt lat="46.1091341" lon="12.2116926"><ele>394.0</ele><time>2026-05-04T17:57:32.397Z</time></trkpt><trkpt lat="46.1091913" lon="12.2115379"><ele>394.0</ele><time>2026-05-04T17:57:34.397Z</time></trkpt><trkpt lat="46.109247" lon="12.2113855"><ele>395.4</ele><time>2026-05-04T17:57:36.395Z</time></trkpt><trkpt lat="46.1093017" lon="12.2112304"><ele>396.79999999999995</ele><time>2026-05-04T17:57:38.394Z</time></trkpt><trkpt lat="46.1093295" lon="12.211148"><ele>398.20000000000005</ele><time>2026-05-04T17:57:39.392Z</time></trkpt><trkpt lat="46.1093856" lon="12.2109906"><ele>399.6</ele><time>2026-05-04T17:57:41.427Z</time></trkpt><trkpt lat="46.1094447" lon="12.2108538"><ele>401.0</ele><time>2026-05-04T17:57:43.395Z</time></trkpt><trkpt lat="46.1095182" lon="12.2107267"><ele>401.20000000000005</ele><time>2026-05-04T17:57:45.396Z</time></trkpt><trkpt lat="46.1095931" lon="12.2106098"><ele>401.40000000000003</ele><time>2026-05-04T17:57:47.389Z</time></trkpt><trkpt lat="46.1096602" lon="12.2105004"><ele>401.6</ele><time>2026-05-04T17:57:49.394Z</time></trkpt><trkpt lat="46.1097213" lon="12.2103957"><ele>401.8</ele><time>2026-05-04T17:57:51.394Z</time></trkpt><trkpt lat="46.1097719" lon="12.2102871"><ele>402.0</ele><time>2026-05-04T17:57:53.396Z</time></trkpt><trkpt lat="46.1098166" lon="12.210181"><ele>402.0</ele><time>2026-05-04T17:57:55.389Z</time></trkpt><trkpt lat="46.1098564" lon="12.21008"><ele>402.0</ele><time>2026-05-04T17:57:57.398Z</time></trkpt><trkpt lat="46.1098882" lon="12.2099804"><ele>402.0</ele><time>2026-05-04T17:57:59.391Z</time></trkpt><trkpt lat="46.1099193" lon="12.2098815"><ele>402.0</ele><time>2026-05-04T17:58:01.394Z</time></trkpt><trkpt lat="46.1099496" lon="12.2097879"><ele>402.0</ele><time>2026-05-04T17:58:03.394Z</time></trkpt><trkpt lat="46.1099739" lon="12.2096926"><ele>402.0</ele><time>2026-05-04T17:58:05.398Z</time></trkpt><trkpt lat="46.1100043" lon="12.2095981"><ele>402.0</ele><time>2026-05-04T17:58:07.394Z</time></trkpt><trkpt lat="46.1100397" lon="12.2094879"><ele>401.5</ele><time>2026-05-04T17:58:09.391Z</time></trkpt><trkpt lat="46.1100857" lon="12.2093523"><ele>401.0</ele><time>2026-05-04T17:58:11.404Z</time></trkpt><trkpt lat="46.1101484" lon="12.2092159"><ele>400.5</ele><time>2026-05-04T17:58:13.395Z</time></trkpt><trkpt lat="46.1101891" lon="12.2091453"><ele>400.0</ele><time>2026-05-04T17:58:14.398Z</time></trkpt><trkpt lat="46.1102484" lon="12.2090669"><ele>399.5</ele><time>2026-05-04T17:58:15.393Z</time></trkpt><trkpt lat="46.1103127" lon="12.2089955"><ele>399.0</ele><time>2026-05-04T17:58:16.396Z</time></trkpt><trkpt lat="46.1103778" lon="12.2089218"><ele>397.4</ele><time>2026-05-04T17:58:17.388Z</time></trkpt><trkpt lat="46.1104437" lon="12.2088471"><ele>395.79999999999995</ele><time>2026-05-04T17:58:18.396Z</time></trkpt><trkpt lat="46.1105147" lon="12.208769"><ele>394.20000000000005</ele><time>2026-05-04T17:58:19.39Z</time></trkpt><trkpt lat="46.1105878" lon="12.2086841"><ele>392.6</ele><time>2026-05-04T17:58:20.392Z</time></trkpt><trkpt lat="46.1106651" lon="12.2085924"><ele>391.0</ele><time>2026-05-04T17:58:21.4Z</time></trkpt><trkpt lat="46.1107418" lon="12.2085071"><ele>390.8</ele><time>2026-05-04T17:58:22.392Z</time></trkpt><trkpt lat="46.1108159" lon="12.2084123"><ele>390.6</ele><time>2026-05-04T17:58:23.388Z</time></trkpt><trkpt lat="46.1108932" lon="12.2083146"><ele>390.4</ele><time>2026-05-04T17:58:24.387Z</time></trkpt><trkpt lat="46.1109723" lon="12.20822"><ele>390.2</ele><time>2026-05-04T17:58:25.389Z</time></trkpt><trkpt lat="46.1110577" lon="12.2081322"><ele>390.0</ele><time>2026-05-04T17:58:26.392Z</time></trkpt><trkpt lat="46.1111455" lon="12.208051"><ele>388.8</ele><time>2026-05-04T17:58:27.393Z</time></trkpt><trkpt lat="46.1112372" lon="12.2079699"><ele>387.6</ele><time>2026-05-04T17:58:28.395Z</time></trkpt><trkpt lat="46.1113299" lon="12.2078886"><ele>386.4</ele><time>2026-05-04T17:58:29.392Z</time></trkpt><trkpt lat="46.1114248" lon="12.2078038"><ele>385.2</ele><time>2026-05-04T17:58:30.39Z</time></trkpt><trkpt lat="46.1115173" lon="12.2077246"><ele>384.0</ele><time>2026-05-04T17:58:31.393Z</time></trkpt><trkpt lat="46.1116131" lon="12.2076524"><ele>383.6</ele><time>2026-05-04T17:58:32.39Z</time></trkpt><trkpt lat="46.1117077" lon="12.2075775"><ele>383.2</ele><time>2026-05-04T17:58:33.464Z</time></trkpt><trkpt lat="46.1117921" lon="12.2075002"><ele>382.8</ele><time>2026-05-04T17:58:34.395Z</time></trkpt><trkpt lat="46.1118752" lon="12.2074146"><ele>382.40000000000003</ele><time>2026-05-04T17:58:35.391Z</time></trkpt><trkpt lat="46.1119495" lon="12.2073183"><ele>382.0</ele><time>2026-05-04T17:58:36.392Z</time></trkpt><trkpt lat="46.112013" lon="12.2072161"><ele>381.3333333333333</ele><time>2026-05-04T17:58:37.394Z</time></trkpt><trkpt lat="46.1120731" lon="12.2071178"><ele>380.66666666666663</ele><time>2026-05-04T17:58:38.393Z</time></trkpt><trkpt lat="46.1121304" lon="12.207023"><ele>380.0</ele><time>2026-05-04T17:58:39.397Z</time></trkpt><trkpt lat="46.1121859" lon="12.2069325"><ele>379.3333333333333</ele><time>2026-05-04T17:58:40.394Z</time></trkpt><trkpt lat="46.1122363" lon="12.2068443"><ele>378.6666666666667</ele><time>2026-05-04T17:58:41.386Z</time></trkpt><trkpt lat="46.1122829" lon="12.2067625"><ele>378.0</ele><time>2026-05-04T17:58:42.387Z</time></trkpt><trkpt lat="46.1123232" lon="12.2066814"><ele>378.0</ele><time>2026-05-04T17:58:43.388Z</time></trkpt><trkpt lat="46.1123639" lon="12.2066069"><ele>378.0</ele><time>2026-05-04T17:58:44.392Z</time></trkpt><trkpt lat="46.1124056" lon="12.2065384"><ele>378.0</ele><time>2026-05-04T17:58:45.396Z</time></trkpt><trkpt lat="46.1124732" lon="12.2064176"><ele>378.0</ele><time>2026-05-04T17:58:47.395Z</time></trkpt><trkpt lat="46.1125317" lon="12.2063098"><ele>378.0</ele><time>2026-05-04T17:58:49.395Z</time></trkpt><trkpt lat="46.1125828" lon="12.2061679"><ele>378.0</ele><time>2026-05-04T17:58:51.391Z</time></trkpt><trkpt lat="46.1126059" lon="12.2060052"><ele>378.59999999999997</ele><time>2026-05-04T17:58:53.393Z</time></trkpt><trkpt lat="46.11261" lon="12.2058334"><ele>379.2</ele><time>2026-05-04T17:58:55.396Z</time></trkpt><trkpt lat="46.1125839" lon="12.2056704"><ele>379.8</ele><time>2026-05-04T17:58:57.399Z</time></trkpt><trkpt lat="46.112544" lon="12.2055271"><ele>380.4</ele><time>2026-05-04T17:58:59.39Z</time></trkpt><trkpt lat="46.112509" lon="12.2053902"><ele>381.0</ele><time>2026-05-04T17:59:01.388Z</time></trkpt><trkpt lat="46.1124761" lon="12.2052574"><ele>381.0</ele><time>2026-05-04T17:59:03.392Z</time></trkpt><trkpt lat="46.1124363" lon="12.2051244"><ele>381.0</ele><time>2026-05-04T17:59:05.393Z</time></trkpt><trkpt lat="46.1123894" lon="12.2049675"><ele>381.0</ele><time>2026-05-04T17:59:07.389Z</time></trkpt><trkpt lat="46.1123608" lon="12.2048818"><ele>381.0</ele><time>2026-05-04T17:59:08.394Z</time></trkpt><trkpt lat="46.1123329" lon="12.204788"><ele>381.0</ele><time>2026-05-04T17:59:09.394Z</time></trkpt><trkpt lat="46.1123038" lon="12.2046944"><ele>381.0</ele><time>2026-05-04T17:59:10.396Z</time></trkpt><trkpt lat="46.1122693" lon="12.2045935"><ele>380.3333333333333</ele><time>2026-05-04T17:59:11.402Z</time></trkpt><trkpt lat="46.1122371" lon="12.2044848"><ele>379.6666666666667</ele><time>2026-05-04T17:59:12.393Z</time></trkpt><trkpt lat="46.1122017" lon="12.2043733"><ele>379.0</ele><time>2026-05-04T17:59:13.395Z</time></trkpt><trkpt lat="46.1121695" lon="12.2042565"><ele>378.33333333333337</ele><time>2026-05-04T17:59:14.39Z</time></trkpt><trkpt lat="46.1121336" lon="12.2041451"><ele>377.6666666666667</ele><time>2026-05-04T17:59:15.398Z</time></trkpt><trkpt lat="46.112097" lon="12.2040227"><ele>377.0</ele><time>2026-05-04T17:59:16.395Z</time></trkpt><trkpt lat="46.1120548" lon="12.2038955"><ele>376.40000000000003</ele><time>2026-05-04T17:59:17.396Z</time></trkpt><trkpt lat="46.1120158" lon="12.2037646"><ele>375.8</ele><time>2026-05-04T17:59:18.39Z</time></trkpt><trkpt lat="46.1119763" lon="12.2036312"><ele>375.2</ele><time>2026-05-04T17:59:19.4Z</time></trkpt><trkpt lat="46.1119431" lon="12.2034931"><ele>374.6</ele><time>2026-05-04T17:59:20.397Z</time></trkpt><trkpt lat="46.1119229" lon="12.2033492"><ele>374.0</ele><time>2026-05-04T17:59:21.39Z</time></trkpt><trkpt lat="46.1119129" lon="12.2032011"><ele>373.6</ele><time>2026-05-04T17:59:22.39Z</time></trkpt><trkpt lat="46.111919" lon="12.2030563"><ele>373.2</ele><time>2026-05-04T17:59:23.396Z</time></trkpt><trkpt lat="46.111936" lon="12.2029123"><ele>372.8</ele><time>2026-05-04T17:59:24.396Z</time></trkpt><trkpt lat="46.1119684" lon="12.2027694"><ele>372.40000000000003</ele><time>2026-05-04T17:59:25.397Z</time></trkpt><trkpt lat="46.1120025" lon="12.2026255"><ele>372.0</ele><time>2026-05-04T17:59:26.397Z</time></trkpt><trkpt lat="46.1120366" lon="12.2024787"><ele>371.20000000000005</ele><time>2026-05-04T17:59:27.396Z</time></trkpt><trkpt lat="46.1120733" lon="12.2023287"><ele>370.4</ele><time>2026-05-04T17:59:28.393Z</time></trkpt><trkpt lat="46.1121098" lon="12.2021776"><ele>369.6</ele><time>2026-05-04T17:59:29.397Z</time></trkpt><trkpt lat="46.1121434" lon="12.2020241"><ele>368.79999999999995</ele><time>2026-05-04T17:59:30.387Z</time></trkpt><trkpt lat="46.1121702" lon="12.2018638"><ele>368.0</ele><time>2026-05-04T17:59:31.392Z</time></trkpt><trkpt lat="46.1121883" lon="12.2017004"><ele>368.0</ele><time>2026-05-04T17:59:32.394Z</time></trkpt><trkpt lat="46.1122051" lon="12.2015357"><ele>368.0</ele><time>2026-05-04T17:59:33.389Z</time></trkpt><trkpt lat="46.1122191" lon="12.2013656"><ele>368.0</ele><time>2026-05-04T17:59:34.392Z</time></trkpt><trkpt lat="46.1122369" lon="12.2012001"><ele>368.0</ele><time>2026-05-04T17:59:35.394Z</time></trkpt><trkpt lat="46.1122516" lon="12.2010281"><ele>367.25</ele><time>2026-05-04T17:59:36.395Z</time></trkpt><trkpt lat="46.1122678" lon="12.2008563"><ele>366.5</ele><time>2026-05-04T17:59:37.39Z</time></trkpt><trkpt lat="46.1122818" lon="12.2006814"><ele>365.75</ele><time>2026-05-04T17:59:38.395Z</time></trkpt><trkpt lat="46.1122953" lon="12.2005043"><ele>365.0</ele><time>2026-05-04T17:59:39.391Z</time></trkpt><trkpt lat="46.1123101" lon="12.2003265"><ele>363.5</ele><time>2026-05-04T17:59:40.392Z</time></trkpt><trkpt lat="46.1123276" lon="12.2001496"><ele>362.0</ele><time>2026-05-04T17:59:41.395Z</time></trkpt><trkpt lat="46.112341" lon="12.1999669"><ele>360.5</ele><time>2026-05-04T17:59:42.407Z</time></trkpt><trkpt lat="46.112364" lon="12.1997908"><ele>359.0</ele><time>2026-05-04T17:59:43.392Z</time></trkpt><trkpt lat="46.1123845" lon="12.1996186"><ele>358.5</ele><time>2026-05-04T17:59:44.387Z</time></trkpt><trkpt lat="46.1123993" lon="12.1994822"><ele>358.0</ele><time>2026-05-04T17:59:45.382Z</time></trkpt><trkpt lat="46.1124101" lon="12.1993618"><ele>357.5</ele><time>2026-05-04T17:59:46.387Z</time></trkpt><trkpt lat="46.1124203" lon="12.1992474"><ele>357.0</ele><time>2026-05-04T17:59:47.394Z</time></trkpt><trkpt lat="46.1124324" lon="12.1991435"><ele>356.5</ele><time>2026-05-04T17:59:48.389Z</time></trkpt><trkpt lat="46.1124469" lon="12.1990508"><ele>356.0</ele><time>2026-05-04T17:59:49.397Z</time></trkpt><trkpt lat="46.1124863" lon="12.1989404"><ele>355.20000000000005</ele><time>2026-05-04T17:59:51.393Z</time></trkpt><trkpt lat="46.1124876" lon="12.1988223"><ele>354.40000000000003</ele><time>2026-05-04T17:59:54.398Z</time></trkpt><trkpt lat="46.1124279" lon="12.1987665"><ele>353.6</ele><time>2026-05-04T17:59:56.39Z</time></trkpt><trkpt lat="46.1123361" lon="12.1987181"><ele>352.8</ele><time>2026-05-04T17:59:58.393Z</time></trkpt><trkpt lat="46.1122251" lon="12.1986784"><ele>352.0</ele><time>2026-05-04T18:00:00.401Z</time></trkpt><trkpt lat="46.1121042" lon="12.198643"><ele>352.0</ele><time>2026-05-04T18:00:02.396Z</time></trkpt><trkpt lat="46.1119806" lon="12.1986142"><ele>352.0</ele><time>2026-05-04T18:00:04.392Z</time></trkpt><trkpt lat="46.1118569" lon="12.1985894"><ele>352.0</ele><time>2026-05-04T18:00:06.397Z</time></trkpt><trkpt lat="46.1117918" lon="12.1985787"><ele>352.0</ele><time>2026-05-04T18:00:07.398Z</time></trkpt><trkpt lat="46.1117286" lon="12.1985697"><ele>352.0</ele><time>2026-05-04T18:00:08.394Z</time></trkpt><trkpt lat="46.1116652" lon="12.1985557"><ele>352.0</ele><time>2026-05-04T18:00:09.399Z</time></trkpt><trkpt lat="46.1116009" lon="12.1985447"><ele>352.20000000000005</ele><time>2026-05-04T18:00:10.392Z</time></trkpt><trkpt lat="46.1115385" lon="12.1985324"><ele>352.4</ele><time>2026-05-04T18:00:11.405Z</time></trkpt><trkpt lat="46.1114154" lon="12.1985131"><ele>352.6</ele><time>2026-05-04T18:00:13.394Z</time></trkpt><trkpt lat="46.1113525" lon="12.1985071"><ele>352.79999999999995</ele><time>2026-05-04T18:00:14.395Z</time></trkpt><trkpt lat="46.1112325" lon="12.1985"><ele>353.0</ele><time>2026-05-04T18:00:16.398Z</time></trkpt><trkpt lat="46.1111106" lon="12.1984928"><ele>353.0</ele><time>2026-05-04T18:00:18.388Z</time></trkpt><trkpt lat="46.1109904" lon="12.1984854"><ele>353.0</ele><time>2026-05-04T18:00:20.391Z</time></trkpt><trkpt lat="46.1108831" lon="12.1984787"><ele>353.0</ele><time>2026-05-04T18:00:22.396Z</time></trkpt><trkpt lat="46.1107836" lon="12.1984677"><ele>353.0</ele><time>2026-05-04T18:00:24.393Z</time></trkpt><trkpt lat="46.1106837" lon="12.1984622"><ele>353.0</ele><time>2026-05-04T18:00:26.392Z</time></trkpt><trkpt lat="46.1105758" lon="12.1984573"><ele>353.4</ele><time>2026-05-04T18:00:28.387Z</time></trkpt><trkpt lat="46.1104713" lon="12.1984516"><ele>353.79999999999995</ele><time>2026-05-04T18:00:30.392Z</time></trkpt><trkpt lat="46.1103694" lon="12.198449"><ele>354.2</ele><time>2026-05-04T18:00:32.396Z</time></trkpt><trkpt lat="46.1102669" lon="12.1984439"><ele>354.6</ele><time>2026-05-04T18:00:34.391Z</time></trkpt><trkpt lat="46.1101669" lon="12.1984319"><ele>355.0</ele><time>2026-05-04T18:00:36.388Z</time></trkpt><trkpt lat="46.1100621" lon="12.1984315"><ele>355.0</ele><time>2026-05-04T18:00:38.393Z</time></trkpt><trkpt lat="46.1099538" lon="12.1984307"><ele>355.0</ele><time>2026-05-04T18:00:40.394Z</time></trkpt><trkpt lat="46.1098458" lon="12.1984236"><ele>355.0</ele><time>2026-05-04T18:00:42.399Z</time></trkpt><trkpt lat="46.109736" lon="12.198423"><ele>355.0</ele><time>2026-05-04T18:00:44.395Z</time></trkpt><trkpt lat="46.1096268" lon="12.1984176"><ele>355.0</ele><time>2026-05-04T18:00:46.394Z</time></trkpt><trkpt lat="46.109503" lon="12.1984144"><ele>354.7142857142857</ele><time>2026-05-04T18:00:48.394Z</time></trkpt><trkpt lat="46.1094392" lon="12.1984112"><ele>354.42857142857144</ele><time>2026-05-04T18:00:49.387Z</time></trkpt><trkpt lat="46.1093751" lon="12.1984075"><ele>354.1428571428571</ele><time>2026-05-04T18:00:50.391Z</time></trkpt><trkpt lat="46.1093114" lon="12.1984028"><ele>353.8571428571429</ele><time>2026-05-04T18:00:51.384Z</time></trkpt><trkpt lat="46.1092444" lon="12.1983986"><ele>353.5714285714286</ele><time>2026-05-04T18:00:52.392Z</time></trkpt><trkpt lat="46.1091799" lon="12.1983945"><ele>353.2857142857143</ele><time>2026-05-04T18:00:53.391Z</time></trkpt><trkpt lat="46.1091156" lon="12.1983892"><ele>353.0</ele><time>2026-05-04T18:00:54.399Z</time></trkpt><trkpt lat="46.1090517" lon="12.1983819"><ele>352.83333333333337</ele><time>2026-05-04T18:00:55.391Z</time></trkpt><trkpt lat="46.108986" lon="12.1983795"><ele>352.6666666666667</ele><time>2026-05-04T18:00:56.396Z</time></trkpt><trkpt lat="46.1089225" lon="12.1983734"><ele>352.5</ele><time>2026-05-04T18:00:57.396Z</time></trkpt><trkpt lat="46.1088552" lon="12.1983625"><ele>352.3333333333333</ele><time>2026-05-04T18:00:58.4Z</time></trkpt><trkpt lat="46.1087328" lon="12.1983278"><ele>352.16666666666663</ele><time>2026-05-04T18:01:00.391Z</time></trkpt><trkpt lat="46.1086245" lon="12.1982749"><ele>352.0</ele><time>2026-05-04T18:01:02.39Z</time></trkpt><trkpt lat="46.1085093" lon="12.1982206"><ele>351.75</ele><time>2026-05-04T18:01:04.428Z</time></trkpt><trkpt lat="46.1084002" lon="12.198147"><ele>351.5</ele><time>2026-05-04T18:01:06.393Z</time></trkpt><trkpt lat="46.1082915" lon="12.1980644"><ele>351.25</ele><time>2026-05-04T18:01:08.386Z</time></trkpt><trkpt lat="46.108189" lon="12.1979702"><ele>351.0</ele><time>2026-05-04T18:01:10.399Z</time></trkpt><trkpt lat="46.1080894" lon="12.1978679"><ele>350.8</ele><time>2026-05-04T18:01:12.394Z</time></trkpt><trkpt lat="46.1079937" lon="12.1977589"><ele>350.6</ele><time>2026-05-04T18:01:14.384Z</time></trkpt><trkpt lat="46.107907" lon="12.1976338"><ele>350.4</ele><time>2026-05-04T18:01:16.386Z</time></trkpt><trkpt lat="46.1078334" lon="12.1974871"><ele>350.2</ele><time>2026-05-04T18:01:18.39Z</time></trkpt><trkpt lat="46.1078023" lon="12.1974072"><ele>350.0</ele><time>2026-05-04T18:01:19.391Z</time></trkpt><trkpt lat="46.1077703" lon="12.1973273"><ele>350.0</ele><time>2026-05-04T18:01:20.392Z</time></trkpt><trkpt lat="46.107709" lon="12.1971708"><ele>350.0</ele><time>2026-05-04T18:01:22.384Z</time></trkpt><trkpt lat="46.1076603" lon="12.197006"><ele>350.0</ele><time>2026-05-04T18:01:24.391Z</time></trkpt><trkpt lat="46.1076123" lon="12.1968382"><ele>350.0</ele><time>2026-05-04T18:01:26.395Z</time></trkpt><trkpt lat="46.1075718" lon="12.1966752"><ele>350.0</ele><time>2026-05-04T18:01:28.393Z</time></trkpt><trkpt lat="46.1075511" lon="12.1965889"><ele>350.0</ele><time>2026-05-04T18:01:29.391Z</time></trkpt><trkpt lat="46.1075141" lon="12.1964222"><ele>350.0</ele><time>2026-05-04T18:01:31.397Z</time></trkpt><trkpt lat="46.1074918" lon="12.1962592"><ele>350.0</ele><time>2026-05-04T18:01:33.394Z</time></trkpt><trkpt lat="46.1074699" lon="12.1960999"><ele>350.0</ele><time>2026-05-04T18:01:35.393Z</time></trkpt><trkpt lat="46.1074444" lon="12.1959535"><ele>350.5</ele><time>2026-05-04T18:01:37.391Z</time></trkpt><trkpt lat="46.1074271" lon="12.1957942"><ele>351.0</ele><time>2026-05-04T18:01:39.393Z</time></trkpt><trkpt lat="46.1074121" lon="12.1956322"><ele>351.5</ele><time>2026-05-04T18:01:41.391Z</time></trkpt><trkpt lat="46.1074062" lon="12.1954638"><ele>352.0</ele><time>2026-05-04T18:01:43.398Z</time></trkpt><trkpt lat="46.1073979" lon="12.1953028"><ele>354.25</ele><time>2026-05-04T18:01:45.387Z</time></trkpt><trkpt lat="46.1073886" lon="12.1951324"><ele>356.5</ele><time>2026-05-04T18:01:47.398Z</time></trkpt><trkpt lat="46.1073789" lon="12.1949652"><ele>358.75</ele><time>2026-05-04T18:01:49.394Z</time></trkpt><trkpt lat="46.1073691" lon="12.1947976"><ele>361.0</ele><time>2026-05-04T18:01:51.391Z</time></trkpt><trkpt lat="46.1073576" lon="12.194626"><ele>361.0</ele><time>2026-05-04T18:01:53.399Z</time></trkpt><trkpt lat="46.1073507" lon="12.1944478"><ele>361.0</ele><time>2026-05-04T18:01:55.42Z</time></trkpt><trkpt lat="46.1073378" lon="12.1942715"><ele>361.0</ele><time>2026-05-04T18:01:57.394Z</time></trkpt><trkpt lat="46.1073226" lon="12.194097"><ele>361.0</ele><time>2026-05-04T18:01:59.411Z</time></trkpt><trkpt lat="46.10731" lon="12.1939254"><ele>361.0</ele><time>2026-05-04T18:02:01.421Z</time></trkpt><trkpt lat="46.1072941" lon="12.1937533"><ele>361.0</ele><time>2026-05-04T18:02:03.386Z</time></trkpt><trkpt lat="46.1072763" lon="12.193578"><ele>361.0</ele><time>2026-05-04T18:02:05.395Z</time></trkpt><trkpt lat="46.1072493" lon="12.1934005"><ele>361.0</ele><time>2026-05-04T18:02:07.396Z</time></trkpt><trkpt lat="46.1072268" lon="12.1932261"><ele>360.8</ele><time>2026-05-04T18:02:09.392Z</time></trkpt><trkpt lat="46.1072218" lon="12.1931352"><ele>360.6</ele><time>2026-05-04T18:02:10.391Z</time></trkpt><trkpt lat="46.1072483" lon="12.192964"><ele>360.4</ele><time>2026-05-04T18:02:12.399Z</time></trkpt><trkpt lat="46.1072952" lon="12.1928005"><ele>360.2</ele><time>2026-05-04T18:02:14.395Z</time></trkpt><trkpt lat="46.1073298" lon="12.1926238"><ele>360.0</ele><time>2026-05-04T18:02:16.389Z</time></trkpt><trkpt lat="46.1073564" lon="12.1925377"><ele>360.0</ele><time>2026-05-04T18:02:17.397Z</time></trkpt><trkpt lat="46.1073834" lon="12.1924523"><ele>360.0</ele><time>2026-05-04T18:02:18.397Z</time></trkpt><trkpt lat="46.1074009" lon="12.1923632"><ele>360.0</ele><time>2026-05-04T18:02:19.393Z</time></trkpt><trkpt lat="46.1074053" lon="12.1921815"><ele>360.0</ele><time>2026-05-04T18:02:21.392Z</time></trkpt><trkpt lat="46.1073974" lon="12.1920881"><ele>360.0</ele><time>2026-05-04T18:02:22.392Z</time></trkpt><trkpt lat="46.1073839" lon="12.1919957"><ele>360.0</ele><time>2026-05-04T18:02:23.44Z</time></trkpt><trkpt lat="46.1073746" lon="12.1919043"><ele>359.8333333333333</ele><time>2026-05-04T18:02:24.391Z</time></trkpt><trkpt lat="46.1073705" lon="12.1918082"><ele>359.6666666666667</ele><time>2026-05-04T18:02:25.395Z</time></trkpt><trkpt lat="46.10737" lon="12.1917114"><ele>359.5</ele><time>2026-05-04T18:02:26.393Z</time></trkpt><trkpt lat="46.1073713" lon="12.191619"><ele>359.33333333333337</ele><time>2026-05-04T18:02:27.393Z</time></trkpt><trkpt lat="46.1073742" lon="12.1915267"><ele>359.1666666666667</ele><time>2026-05-04T18:02:28.394Z</time></trkpt><trkpt lat="46.1074179" lon="12.1913606"><ele>359.0</ele><time>2026-05-04T18:02:30.394Z</time></trkpt><trkpt lat="46.1075063" lon="12.1912648"><ele>358.2</ele><time>2026-05-04T18:02:32.391Z</time></trkpt><trkpt lat="46.1076285" lon="12.191235"><ele>357.4</ele><time>2026-05-04T18:02:34.393Z</time></trkpt><trkpt lat="46.1076946" lon="12.1912419"><ele>356.6</ele><time>2026-05-04T18:02:35.397Z</time></trkpt><trkpt lat="46.1078197" lon="12.1912377"><ele>355.8</ele><time>2026-05-04T18:02:37.392Z</time></trkpt><trkpt lat="46.1079416" lon="12.1912097"><ele>355.0</ele><time>2026-05-04T18:02:39.393Z</time></trkpt><trkpt lat="46.1080584" lon="12.1911859"><ele>355.0</ele><time>2026-05-04T18:02:41.403Z</time></trkpt><trkpt lat="46.10817" lon="12.1911202"><ele>355.0</ele><time>2026-05-04T18:02:43.395Z</time></trkpt><trkpt lat="46.1082695" lon="12.1910202"><ele>355.0</ele><time>2026-05-04T18:02:45.392Z</time></trkpt><trkpt lat="46.1083678" lon="12.1909214"><ele>355.0</ele><time>2026-05-04T18:02:47.396Z</time></trkpt><trkpt lat="46.108468" lon="12.1908187"><ele>354.8333333333333</ele><time>2026-05-04T18:02:49.392Z</time></trkpt><trkpt lat="46.1085228" lon="12.1907672"><ele>354.66666666666663</ele><time>2026-05-04T18:02:50.393Z</time></trkpt><trkpt lat="46.108579" lon="12.1907188"><ele>354.5</ele><time>2026-05-04T18:02:51.396Z</time></trkpt><trkpt lat="46.1086347" lon="12.1906695"><ele>354.3333333333333</ele><time>2026-05-04T18:02:52.389Z</time></trkpt><trkpt lat="46.1087434" lon="12.1905732"><ele>354.1666666666667</ele><time>2026-05-04T18:02:54.389Z</time></trkpt><trkpt lat="46.1087972" lon="12.1905247"><ele>354.0</ele><time>2026-05-04T18:02:55.395Z</time></trkpt><trkpt lat="46.1088523" lon="12.1904754"><ele>353.6666666666667</ele><time>2026-05-04T18:02:56.398Z</time></trkpt><trkpt lat="46.1089085" lon="12.1904308"><ele>353.3333333333333</ele><time>2026-05-04T18:02:57.394Z</time></trkpt><trkpt lat="46.1089642" lon="12.1903861"><ele>353.0</ele><time>2026-05-04T18:02:58.394Z</time></trkpt><trkpt lat="46.1090702" lon="12.1903016"><ele>352.66666666666663</ele><time>2026-05-04T18:03:00.397Z</time></trkpt><trkpt lat="46.1091245" lon="12.1902514"><ele>352.3333333333333</ele><time>2026-05-04T18:03:01.396Z</time></trkpt><trkpt lat="46.1092309" lon="12.1901619"><ele>352.0</ele><time>2026-05-04T18:03:03.395Z</time></trkpt><trkpt lat="46.1093317" lon="12.1900608"><ele>352.0</ele><time>2026-05-04T18:03:05.387Z</time></trkpt><trkpt lat="46.1093838" lon="12.1900098"><ele>352.0</ele><time>2026-05-04T18:03:06.395Z</time></trkpt><trkpt lat="46.1094848" lon="12.1899154"><ele>352.0</ele><time>2026-05-04T18:03:08.394Z</time></trkpt><trkpt lat="46.109582" lon="12.1898182"><ele>352.0</ele><time>2026-05-04T18:03:10.391Z</time></trkpt><trkpt lat="46.109683" lon="12.1897205"><ele>352.0</ele><time>2026-05-04T18:03:12.401Z</time></trkpt><trkpt lat="46.1097824" lon="12.1896237"><ele>352.0</ele><time>2026-05-04T18:03:14.4Z</time></trkpt><trkpt lat="46.1098794" lon="12.1895161"><ele>352.0</ele><time>2026-05-04T18:03:16.394Z</time></trkpt><trkpt lat="46.1099711" lon="12.1894088"><ele>352.0</ele><time>2026-05-04T18:03:18.392Z</time></trkpt><trkpt lat="46.1100656" lon="12.1893092"><ele>352.0</ele><time>2026-05-04T18:03:20.391Z</time></trkpt><trkpt lat="46.1101629" lon="12.1892104"><ele>351.0</ele><time>2026-05-04T18:03:22.387Z</time></trkpt><trkpt lat="46.1102597" lon="12.1891223"><ele>350.0</ele><time>2026-05-04T18:03:24.383Z</time></trkpt><trkpt lat="46.110365" lon="12.1890583"><ele>349.0</ele><time>2026-05-04T18:03:26.392Z</time></trkpt><trkpt lat="46.1104768" lon="12.1890284"><ele>348.0</ele><time>2026-05-04T18:03:28.389Z</time></trkpt><trkpt lat="46.1105899" lon="12.189013"><ele>348.0</ele><time>2026-05-04T18:03:30.392Z</time></trkpt><trkpt lat="46.110698" lon="12.1890047"><ele>348.0</ele><time>2026-05-04T18:03:32.387Z</time></trkpt><trkpt lat="46.1108084" lon="12.188991"><ele>348.0</ele><time>2026-05-04T18:03:34.394Z</time></trkpt><trkpt lat="46.1109083" lon="12.188964"><ele>348.0</ele><time>2026-05-04T18:03:36.384Z</time></trkpt><trkpt lat="46.1110098" lon="12.1889409"><ele>348.0</ele><time>2026-05-04T18:03:38.393Z</time></trkpt><trkpt lat="46.1111156" lon="12.1889026"><ele>348.0</ele><time>2026-05-04T18:03:40.387Z</time></trkpt><trkpt lat="46.1112251" lon="12.1888631"><ele>348.0</ele><time>2026-05-04T18:03:42.393Z</time></trkpt><trkpt lat="46.1113317" lon="12.1888211"><ele>348.0</ele><time>2026-05-04T18:03:44.391Z</time></trkpt><trkpt lat="46.1114356" lon="12.1887844"><ele>348.0</ele><time>2026-05-04T18:03:46.394Z</time></trkpt><trkpt lat="46.1115471" lon="12.1887533"><ele>348.0</ele><time>2026-05-04T18:03:48.388Z</time></trkpt><trkpt lat="46.1116544" lon="12.1887442"><ele>348.0</ele><time>2026-05-04T18:03:50.385Z</time></trkpt><trkpt lat="46.1117674" lon="12.1887482"><ele>348.0</ele><time>2026-05-04T18:03:52.391Z</time></trkpt><trkpt lat="46.1118776" lon="12.1887364"><ele>348.0</ele><time>2026-05-04T18:03:54.399Z</time></trkpt><trkpt lat="46.1119872" lon="12.1887127"><ele>348.0</ele><time>2026-05-04T18:03:56.395Z</time></trkpt><trkpt lat="46.1120981" lon="12.1886595"><ele>348.0</ele><time>2026-05-04T18:03:58.391Z</time></trkpt><trkpt lat="46.112177" lon="12.1885376"><ele>348.0</ele><time>2026-05-04T18:04:00.398Z</time></trkpt><trkpt lat="46.112237" lon="12.1884178"><ele>348.0</ele><time>2026-05-04T18:04:02.392Z</time></trkpt><trkpt lat="46.1123112" lon="12.1883623"><ele>348.0</ele><time>2026-05-04T18:04:04.395Z</time></trkpt><trkpt lat="46.1123582" lon="12.1884251"><ele>348.0</ele><time>2026-05-04T18:04:31.398Z</time></trkpt></trkseg></trk></gpx>